<?xml version="1.0" encoding="UTF-8" standalone="no" ?>
<gpx xmlns="http://www.topografix.com/GPX/1/1" xmlns:xsi="http://www.w3.org/2001/XMLSchema-instance" xsi:schemaLocation="http://www.topografix.com/GPX/1/1 http://www.topografix.com/GPX/1/1/gpx.xsd" version="1.1" creator="VisuGPX - https://www.visugpx.com">
  <metadata>
    <name>2018-05-08 Bike ride-Ambérieux Saône O 31k</name>
    <desc><![CDATA[2018-05-08 Bike ride-Ambérieux Saône O 31k]]></desc>
  </metadata>
  <wpt lat="45.9246" lon="4.73546">
    <ele>173</ele>
    <name><![CDATA[2018-05-08 10:21 (Start)]]></name>
  </wpt>
  <wpt lat="45.92456" lon="4.7371">
    <ele>174</ele>
    <name><![CDATA[2018-05-08 10:21 (End)]]></name>
  </wpt>
  <trk>
    <name><![CDATA[2018-05-08 10:21]]></name>
    <trkseg>
      <trkpt lat="45.9246" lon="4.73546">
        <ele>173</ele>
        <time>2018-05-08T08:21:00.355Z</time>
      </trkpt>
      <trkpt lat="45.92459" lon="4.73546">
        <ele>173</ele>
        <time>2018-05-08T08:21:03.44Z</time>
      </trkpt>
      <trkpt lat="45.92458" lon="4.73545">
        <ele>174</ele>
        <time>2018-05-08T08:21:04.439Z</time>
      </trkpt>
      <trkpt lat="45.92457" lon="4.73544">
        <ele>174</ele>
        <time>2018-05-08T08:21:05.439Z</time>
      </trkpt>
      <trkpt lat="45.92456" lon="4.73545">
        <ele>174</ele>
        <time>2018-05-08T08:21:06.44Z</time>
      </trkpt>
      <trkpt lat="45.92455" lon="4.73548">
        <ele>174</ele>
        <time>2018-05-08T08:21:07.44Z</time>
      </trkpt>
      <trkpt lat="45.92454" lon="4.73547">
        <ele>174</ele>
        <time>2018-05-08T08:21:08.44Z</time>
      </trkpt>
      <trkpt lat="45.92447" lon="4.7355">
        <ele>174</ele>
        <time>2018-05-08T08:21:24Z</time>
      </trkpt>
      <trkpt lat="45.92445" lon="4.73551">
        <ele>174</ele>
        <time>2018-05-08T08:21:25Z</time>
      </trkpt>
      <trkpt lat="45.92438" lon="4.73556">
        <ele>174</ele>
        <time>2018-05-08T08:21:28Z</time>
      </trkpt>
      <trkpt lat="45.92435" lon="4.73557">
        <ele>174</ele>
        <time>2018-05-08T08:21:29Z</time>
      </trkpt>
      <trkpt lat="45.92427" lon="4.73562">
        <ele>174</ele>
        <time>2018-05-08T08:21:32Z</time>
      </trkpt>
      <trkpt lat="45.92419" lon="4.73566">
        <ele>174</ele>
        <time>2018-05-08T08:21:33Z</time>
      </trkpt>
      <trkpt lat="45.92412" lon="4.73571">
        <ele>173</ele>
        <time>2018-05-08T08:21:35Z</time>
      </trkpt>
      <trkpt lat="45.92409" lon="4.73573">
        <ele>173</ele>
        <time>2018-05-08T08:21:36Z</time>
      </trkpt>
      <trkpt lat="45.92402" lon="4.73577">
        <ele>173</ele>
        <time>2018-05-08T08:21:38Z</time>
      </trkpt>
      <trkpt lat="45.92398" lon="4.73579">
        <ele>173</ele>
        <time>2018-05-08T08:21:39Z</time>
      </trkpt>
      <trkpt lat="45.9239" lon="4.73583">
        <ele>173</ele>
        <time>2018-05-08T08:21:41Z</time>
      </trkpt>
      <trkpt lat="45.92386" lon="4.73585">
        <ele>173</ele>
        <time>2018-05-08T08:21:42Z</time>
      </trkpt>
      <trkpt lat="45.92378" lon="4.73588">
        <ele>173</ele>
        <time>2018-05-08T08:21:44Z</time>
      </trkpt>
      <trkpt lat="45.92374" lon="4.7359">
        <ele>173</ele>
        <time>2018-05-08T08:21:45Z</time>
      </trkpt>
      <trkpt lat="45.92366" lon="4.73593">
        <ele>173</ele>
        <time>2018-05-08T08:21:48Z</time>
      </trkpt>
      <trkpt lat="45.92365" lon="4.73594">
        <ele>173</ele>
        <time>2018-05-08T08:21:49Z</time>
      </trkpt>
      <trkpt lat="45.92361" lon="4.73598">
        <ele>173</ele>
        <time>2018-05-08T08:22:02Z</time>
      </trkpt>
      <trkpt lat="45.92361" lon="4.73598">
        <ele>173</ele>
        <time>2018-05-08T08:22:03Z</time>
      </trkpt>
      <trkpt lat="45.9236" lon="4.73598">
        <ele>173</ele>
        <time>2018-05-08T08:22:04Z</time>
      </trkpt>
      <trkpt lat="45.92353" lon="4.736">
        <ele>173</ele>
        <time>2018-05-08T08:22:17Z</time>
      </trkpt>
      <trkpt lat="45.92351" lon="4.73601">
        <ele>173</ele>
        <time>2018-05-08T08:22:18Z</time>
      </trkpt>
      <trkpt lat="45.92343" lon="4.73605">
        <ele>173</ele>
        <time>2018-05-08T08:22:21Z</time>
      </trkpt>
      <trkpt lat="45.92341" lon="4.73606">
        <ele>173</ele>
        <time>2018-05-08T08:22:22Z</time>
      </trkpt>
      <trkpt lat="45.92333" lon="4.7361">
        <ele>172</ele>
        <time>2018-05-08T08:22:27Z</time>
      </trkpt>
      <trkpt lat="45.92332" lon="4.73611">
        <ele>172</ele>
        <time>2018-05-08T08:22:28Z</time>
      </trkpt>
      <trkpt lat="45.92325" lon="4.73615">
        <ele>172</ele>
        <time>2018-05-08T08:22:37Z</time>
      </trkpt>
      <trkpt lat="45.92323" lon="4.73617">
        <ele>172</ele>
        <time>2018-05-08T08:22:38Z</time>
      </trkpt>
      <trkpt lat="45.92316" lon="4.73622">
        <ele>172</ele>
        <time>2018-05-08T08:22:41Z</time>
      </trkpt>
      <trkpt lat="45.92314" lon="4.73623">
        <ele>172</ele>
        <time>2018-05-08T08:22:42Z</time>
      </trkpt>
      <trkpt lat="45.92308" lon="4.73628">
        <ele>172</ele>
        <time>2018-05-08T08:22:44Z</time>
      </trkpt>
      <trkpt lat="45.92299" lon="4.73634">
        <ele>172</ele>
        <time>2018-05-08T08:22:45Z</time>
      </trkpt>
      <trkpt lat="45.92292" lon="4.73638">
        <ele>172</ele>
        <time>2018-05-08T08:22:47Z</time>
      </trkpt>
      <trkpt lat="45.92288" lon="4.73641">
        <ele>172</ele>
        <time>2018-05-08T08:22:48Z</time>
      </trkpt>
      <trkpt lat="45.92284" lon="4.73643">
        <ele>172</ele>
        <time>2018-05-08T08:22:49Z</time>
      </trkpt>
      <trkpt lat="45.92279" lon="4.73646">
        <ele>172</ele>
        <time>2018-05-08T08:22:50Z</time>
      </trkpt>
      <trkpt lat="45.92274" lon="4.73649">
        <ele>172</ele>
        <time>2018-05-08T08:22:51Z</time>
      </trkpt>
      <trkpt lat="45.9227" lon="4.73652">
        <ele>172</ele>
        <time>2018-05-08T08:22:52Z</time>
      </trkpt>
      <trkpt lat="45.92265" lon="4.73654">
        <ele>171</ele>
        <time>2018-05-08T08:22:53Z</time>
      </trkpt>
      <trkpt lat="45.92261" lon="4.73656">
        <ele>171</ele>
        <time>2018-05-08T08:22:54Z</time>
      </trkpt>
      <trkpt lat="45.92256" lon="4.73658">
        <ele>171</ele>
        <time>2018-05-08T08:22:55Z</time>
      </trkpt>
      <trkpt lat="45.92252" lon="4.7366">
        <ele>171</ele>
        <time>2018-05-08T08:22:56Z</time>
      </trkpt>
      <trkpt lat="45.92247" lon="4.73663">
        <ele>171</ele>
        <time>2018-05-08T08:22:57Z</time>
      </trkpt>
      <trkpt lat="45.92243" lon="4.73666">
        <ele>171</ele>
        <time>2018-05-08T08:22:58Z</time>
      </trkpt>
      <trkpt lat="45.92238" lon="4.73669">
        <ele>171</ele>
        <time>2018-05-08T08:22:59Z</time>
      </trkpt>
      <trkpt lat="45.92233" lon="4.73672">
        <ele>171</ele>
        <time>2018-05-08T08:23:00Z</time>
      </trkpt>
      <trkpt lat="45.92228" lon="4.73674">
        <ele>171</ele>
        <time>2018-05-08T08:23:01Z</time>
      </trkpt>
      <trkpt lat="45.92224" lon="4.73677">
        <ele>171</ele>
        <time>2018-05-08T08:23:02Z</time>
      </trkpt>
      <trkpt lat="45.92219" lon="4.7368">
        <ele>171</ele>
        <time>2018-05-08T08:23:03Z</time>
      </trkpt>
      <trkpt lat="45.92214" lon="4.73683">
        <ele>171</ele>
        <time>2018-05-08T08:23:04Z</time>
      </trkpt>
      <trkpt lat="45.92209" lon="4.73686">
        <ele>171</ele>
        <time>2018-05-08T08:23:05Z</time>
      </trkpt>
      <trkpt lat="45.92204" lon="4.73688">
        <ele>171</ele>
        <time>2018-05-08T08:23:06Z</time>
      </trkpt>
      <trkpt lat="45.92199" lon="4.7369">
        <ele>171</ele>
        <time>2018-05-08T08:23:07Z</time>
      </trkpt>
      <trkpt lat="45.92195" lon="4.73693">
        <ele>171</ele>
        <time>2018-05-08T08:23:08Z</time>
      </trkpt>
      <trkpt lat="45.9219" lon="4.73697">
        <ele>171</ele>
        <time>2018-05-08T08:23:09Z</time>
      </trkpt>
      <trkpt lat="45.92186" lon="4.73699">
        <ele>171</ele>
        <time>2018-05-08T08:23:10Z</time>
      </trkpt>
      <trkpt lat="45.92181" lon="4.73701">
        <ele>171</ele>
        <time>2018-05-08T08:23:11Z</time>
      </trkpt>
      <trkpt lat="45.92176" lon="4.73703">
        <ele>171</ele>
        <time>2018-05-08T08:23:12Z</time>
      </trkpt>
      <trkpt lat="45.92171" lon="4.73706">
        <ele>171</ele>
        <time>2018-05-08T08:23:13Z</time>
      </trkpt>
      <trkpt lat="45.92166" lon="4.73708">
        <ele>171</ele>
        <time>2018-05-08T08:23:14Z</time>
      </trkpt>
      <trkpt lat="45.92162" lon="4.73711">
        <ele>171</ele>
        <time>2018-05-08T08:23:15Z</time>
      </trkpt>
      <trkpt lat="45.92157" lon="4.73713">
        <ele>171</ele>
        <time>2018-05-08T08:23:16Z</time>
      </trkpt>
      <trkpt lat="45.92152" lon="4.73715">
        <ele>171</ele>
        <time>2018-05-08T08:23:17Z</time>
      </trkpt>
      <trkpt lat="45.92146" lon="4.73717">
        <ele>171</ele>
        <time>2018-05-08T08:23:18Z</time>
      </trkpt>
      <trkpt lat="45.92142" lon="4.73719">
        <ele>171</ele>
        <time>2018-05-08T08:23:19Z</time>
      </trkpt>
      <trkpt lat="45.92136" lon="4.73721">
        <ele>171</ele>
        <time>2018-05-08T08:23:20Z</time>
      </trkpt>
      <trkpt lat="45.92131" lon="4.73722">
        <ele>171</ele>
        <time>2018-05-08T08:23:21Z</time>
      </trkpt>
      <trkpt lat="45.92125" lon="4.73723">
        <ele>171</ele>
        <time>2018-05-08T08:23:22Z</time>
      </trkpt>
      <trkpt lat="45.9212" lon="4.73723">
        <ele>171</ele>
        <time>2018-05-08T08:23:23Z</time>
      </trkpt>
      <trkpt lat="45.92115" lon="4.73723">
        <ele>171</ele>
        <time>2018-05-08T08:23:24Z</time>
      </trkpt>
      <trkpt lat="45.9211" lon="4.73723">
        <ele>171</ele>
        <time>2018-05-08T08:23:25Z</time>
      </trkpt>
      <trkpt lat="45.92105" lon="4.73725">
        <ele>171</ele>
        <time>2018-05-08T08:23:26Z</time>
      </trkpt>
      <trkpt lat="45.92099" lon="4.73726">
        <ele>171</ele>
        <time>2018-05-08T08:23:27Z</time>
      </trkpt>
      <trkpt lat="45.92094" lon="4.73728">
        <ele>171</ele>
        <time>2018-05-08T08:23:28Z</time>
      </trkpt>
      <trkpt lat="45.92088" lon="4.73729">
        <ele>171</ele>
        <time>2018-05-08T08:23:29Z</time>
      </trkpt>
      <trkpt lat="45.92083" lon="4.73731">
        <ele>171</ele>
        <time>2018-05-08T08:23:30Z</time>
      </trkpt>
      <trkpt lat="45.92078" lon="4.73733">
        <ele>171</ele>
        <time>2018-05-08T08:23:31Z</time>
      </trkpt>
      <trkpt lat="45.92072" lon="4.73734">
        <ele>171</ele>
        <time>2018-05-08T08:23:32Z</time>
      </trkpt>
      <trkpt lat="45.92067" lon="4.73734">
        <ele>171</ele>
        <time>2018-05-08T08:23:33Z</time>
      </trkpt>
      <trkpt lat="45.92063" lon="4.73734">
        <ele>171</ele>
        <time>2018-05-08T08:23:34Z</time>
      </trkpt>
      <trkpt lat="45.92058" lon="4.73733">
        <ele>171</ele>
        <time>2018-05-08T08:23:35Z</time>
      </trkpt>
      <trkpt lat="45.92052" lon="4.73734">
        <ele>171</ele>
        <time>2018-05-08T08:23:36Z</time>
      </trkpt>
      <trkpt lat="45.92047" lon="4.73734">
        <ele>171</ele>
        <time>2018-05-08T08:23:37Z</time>
      </trkpt>
      <trkpt lat="45.92042" lon="4.73734">
        <ele>171</ele>
        <time>2018-05-08T08:23:38Z</time>
      </trkpt>
      <trkpt lat="45.92037" lon="4.73734">
        <ele>171</ele>
        <time>2018-05-08T08:23:39Z</time>
      </trkpt>
      <trkpt lat="45.92032" lon="4.73735">
        <ele>171</ele>
        <time>2018-05-08T08:23:40Z</time>
      </trkpt>
      <trkpt lat="45.92026" lon="4.73734">
        <ele>171</ele>
        <time>2018-05-08T08:23:41Z</time>
      </trkpt>
      <trkpt lat="45.92021" lon="4.73734">
        <ele>171</ele>
        <time>2018-05-08T08:23:42Z</time>
      </trkpt>
      <trkpt lat="45.92016" lon="4.73734">
        <ele>171</ele>
        <time>2018-05-08T08:23:43Z</time>
      </trkpt>
      <trkpt lat="45.92011" lon="4.73734">
        <ele>171</ele>
        <time>2018-05-08T08:23:44Z</time>
      </trkpt>
      <trkpt lat="45.92006" lon="4.73734">
        <ele>171</ele>
        <time>2018-05-08T08:23:45Z</time>
      </trkpt>
      <trkpt lat="45.92" lon="4.73736">
        <ele>171</ele>
        <time>2018-05-08T08:23:46Z</time>
      </trkpt>
      <trkpt lat="45.91995" lon="4.73736">
        <ele>171</ele>
        <time>2018-05-08T08:23:47Z</time>
      </trkpt>
      <trkpt lat="45.9199" lon="4.73735">
        <ele>171</ele>
        <time>2018-05-08T08:23:48Z</time>
      </trkpt>
      <trkpt lat="45.91983" lon="4.73735">
        <ele>171</ele>
        <time>2018-05-08T08:23:49Z</time>
      </trkpt>
      <trkpt lat="45.91978" lon="4.73735">
        <ele>171</ele>
        <time>2018-05-08T08:23:50Z</time>
      </trkpt>
      <trkpt lat="45.91972" lon="4.73736">
        <ele>171</ele>
        <time>2018-05-08T08:23:51Z</time>
      </trkpt>
      <trkpt lat="45.91966" lon="4.73736">
        <ele>171</ele>
        <time>2018-05-08T08:23:52Z</time>
      </trkpt>
      <trkpt lat="45.91961" lon="4.73736">
        <ele>171</ele>
        <time>2018-05-08T08:23:53Z</time>
      </trkpt>
      <trkpt lat="45.91955" lon="4.73736">
        <ele>170</ele>
        <time>2018-05-08T08:23:54Z</time>
      </trkpt>
      <trkpt lat="45.91948" lon="4.73735">
        <ele>170</ele>
        <time>2018-05-08T08:23:55Z</time>
      </trkpt>
      <trkpt lat="45.91943" lon="4.73735">
        <ele>170</ele>
        <time>2018-05-08T08:23:56Z</time>
      </trkpt>
      <trkpt lat="45.91937" lon="4.73736">
        <ele>170</ele>
        <time>2018-05-08T08:23:57Z</time>
      </trkpt>
      <trkpt lat="45.91931" lon="4.73737">
        <ele>170</ele>
        <time>2018-05-08T08:23:58Z</time>
      </trkpt>
      <trkpt lat="45.91925" lon="4.73737">
        <ele>170</ele>
        <time>2018-05-08T08:23:59Z</time>
      </trkpt>
      <trkpt lat="45.9192" lon="4.73737">
        <ele>170</ele>
        <time>2018-05-08T08:24:00Z</time>
      </trkpt>
      <trkpt lat="45.91915" lon="4.73737">
        <ele>171</ele>
        <time>2018-05-08T08:24:01Z</time>
      </trkpt>
      <trkpt lat="45.91909" lon="4.73737">
        <ele>171</ele>
        <time>2018-05-08T08:24:02Z</time>
      </trkpt>
      <trkpt lat="45.91903" lon="4.73736">
        <ele>171</ele>
        <time>2018-05-08T08:24:03Z</time>
      </trkpt>
      <trkpt lat="45.91899" lon="4.73736">
        <ele>171</ele>
        <time>2018-05-08T08:24:04Z</time>
      </trkpt>
      <trkpt lat="45.91894" lon="4.73735">
        <ele>171</ele>
        <time>2018-05-08T08:24:05Z</time>
      </trkpt>
      <trkpt lat="45.91889" lon="4.73734">
        <ele>171</ele>
        <time>2018-05-08T08:24:06Z</time>
      </trkpt>
      <trkpt lat="45.91882" lon="4.73735">
        <ele>171</ele>
        <time>2018-05-08T08:24:07Z</time>
      </trkpt>
      <trkpt lat="45.91877" lon="4.73735">
        <ele>171</ele>
        <time>2018-05-08T08:24:08Z</time>
      </trkpt>
      <trkpt lat="45.91872" lon="4.73735">
        <ele>171</ele>
        <time>2018-05-08T08:24:09Z</time>
      </trkpt>
      <trkpt lat="45.91867" lon="4.73735">
        <ele>171</ele>
        <time>2018-05-08T08:24:10Z</time>
      </trkpt>
      <trkpt lat="45.91861" lon="4.73736">
        <ele>171</ele>
        <time>2018-05-08T08:24:11Z</time>
      </trkpt>
      <trkpt lat="45.91855" lon="4.73735">
        <ele>171</ele>
        <time>2018-05-08T08:24:12Z</time>
      </trkpt>
      <trkpt lat="45.9185" lon="4.73735">
        <ele>172</ele>
        <time>2018-05-08T08:24:13Z</time>
      </trkpt>
      <trkpt lat="45.91844" lon="4.73735">
        <ele>172</ele>
        <time>2018-05-08T08:24:14Z</time>
      </trkpt>
      <trkpt lat="45.91837" lon="4.73734">
        <ele>172</ele>
        <time>2018-05-08T08:24:15Z</time>
      </trkpt>
      <trkpt lat="45.91831" lon="4.73734">
        <ele>172</ele>
        <time>2018-05-08T08:24:16Z</time>
      </trkpt>
      <trkpt lat="45.91825" lon="4.73735">
        <ele>172</ele>
        <time>2018-05-08T08:24:17Z</time>
      </trkpt>
      <trkpt lat="45.91819" lon="4.73735">
        <ele>172</ele>
        <time>2018-05-08T08:24:18Z</time>
      </trkpt>
      <trkpt lat="45.91814" lon="4.73734">
        <ele>172</ele>
        <time>2018-05-08T08:24:19Z</time>
      </trkpt>
      <trkpt lat="45.91809" lon="4.73734">
        <ele>172</ele>
        <time>2018-05-08T08:24:20Z</time>
      </trkpt>
      <trkpt lat="45.91803" lon="4.73734">
        <ele>172</ele>
        <time>2018-05-08T08:24:21Z</time>
      </trkpt>
      <trkpt lat="45.91798" lon="4.73734">
        <ele>172</ele>
        <time>2018-05-08T08:24:22Z</time>
      </trkpt>
      <trkpt lat="45.91792" lon="4.73735">
        <ele>172</ele>
        <time>2018-05-08T08:24:23Z</time>
      </trkpt>
      <trkpt lat="45.91787" lon="4.73735">
        <ele>173</ele>
        <time>2018-05-08T08:24:24Z</time>
      </trkpt>
      <trkpt lat="45.91781" lon="4.73735">
        <ele>173</ele>
        <time>2018-05-08T08:24:25Z</time>
      </trkpt>
      <trkpt lat="45.91775" lon="4.73734">
        <ele>173</ele>
        <time>2018-05-08T08:24:26Z</time>
      </trkpt>
      <trkpt lat="45.91769" lon="4.73734">
        <ele>173</ele>
        <time>2018-05-08T08:24:27Z</time>
      </trkpt>
      <trkpt lat="45.91763" lon="4.73734">
        <ele>173</ele>
        <time>2018-05-08T08:24:28Z</time>
      </trkpt>
      <trkpt lat="45.91758" lon="4.73733">
        <ele>173</ele>
        <time>2018-05-08T08:24:29Z</time>
      </trkpt>
      <trkpt lat="45.91751" lon="4.73733">
        <ele>173</ele>
        <time>2018-05-08T08:24:30Z</time>
      </trkpt>
      <trkpt lat="45.91746" lon="4.73736">
        <ele>173</ele>
        <time>2018-05-08T08:24:31Z</time>
      </trkpt>
      <trkpt lat="45.91741" lon="4.73737">
        <ele>173</ele>
        <time>2018-05-08T08:24:32Z</time>
      </trkpt>
      <trkpt lat="45.91734" lon="4.73737">
        <ele>173</ele>
        <time>2018-05-08T08:24:33Z</time>
      </trkpt>
      <trkpt lat="45.91729" lon="4.73737">
        <ele>173</ele>
        <time>2018-05-08T08:24:34Z</time>
      </trkpt>
      <trkpt lat="45.91723" lon="4.73736">
        <ele>173</ele>
        <time>2018-05-08T08:24:35Z</time>
      </trkpt>
      <trkpt lat="45.91717" lon="4.73736">
        <ele>173</ele>
        <time>2018-05-08T08:24:36Z</time>
      </trkpt>
      <trkpt lat="45.91711" lon="4.73737">
        <ele>173</ele>
        <time>2018-05-08T08:24:37Z</time>
      </trkpt>
      <trkpt lat="45.91706" lon="4.73738">
        <ele>172</ele>
        <time>2018-05-08T08:24:38Z</time>
      </trkpt>
      <trkpt lat="45.917" lon="4.73738">
        <ele>172</ele>
        <time>2018-05-08T08:24:39Z</time>
      </trkpt>
      <trkpt lat="45.91694" lon="4.73737">
        <ele>172</ele>
        <time>2018-05-08T08:24:40Z</time>
      </trkpt>
      <trkpt lat="45.91689" lon="4.73738">
        <ele>172</ele>
        <time>2018-05-08T08:24:41Z</time>
      </trkpt>
      <trkpt lat="45.91683" lon="4.73738">
        <ele>172</ele>
        <time>2018-05-08T08:24:42Z</time>
      </trkpt>
      <trkpt lat="45.91677" lon="4.73738">
        <ele>172</ele>
        <time>2018-05-08T08:24:43Z</time>
      </trkpt>
      <trkpt lat="45.91672" lon="4.73738">
        <ele>172</ele>
        <time>2018-05-08T08:24:44Z</time>
      </trkpt>
      <trkpt lat="45.91666" lon="4.73738">
        <ele>172</ele>
        <time>2018-05-08T08:24:45Z</time>
      </trkpt>
      <trkpt lat="45.9166" lon="4.73738">
        <ele>172</ele>
        <time>2018-05-08T08:24:46Z</time>
      </trkpt>
      <trkpt lat="45.91655" lon="4.73739">
        <ele>172</ele>
        <time>2018-05-08T08:24:47Z</time>
      </trkpt>
      <trkpt lat="45.9165" lon="4.73738">
        <ele>172</ele>
        <time>2018-05-08T08:24:48Z</time>
      </trkpt>
      <trkpt lat="45.91644" lon="4.73739">
        <ele>172</ele>
        <time>2018-05-08T08:24:49Z</time>
      </trkpt>
      <trkpt lat="45.91638" lon="4.73739">
        <ele>172</ele>
        <time>2018-05-08T08:24:50Z</time>
      </trkpt>
      <trkpt lat="45.91633" lon="4.73739">
        <ele>172</ele>
        <time>2018-05-08T08:24:51Z</time>
      </trkpt>
      <trkpt lat="45.91626" lon="4.73739">
        <ele>172</ele>
        <time>2018-05-08T08:24:52Z</time>
      </trkpt>
      <trkpt lat="45.91621" lon="4.73738">
        <ele>173</ele>
        <time>2018-05-08T08:24:53Z</time>
      </trkpt>
      <trkpt lat="45.91614" lon="4.73739">
        <ele>173</ele>
        <time>2018-05-08T08:24:54Z</time>
      </trkpt>
      <trkpt lat="45.91607" lon="4.73738">
        <ele>173</ele>
        <time>2018-05-08T08:24:55Z</time>
      </trkpt>
      <trkpt lat="45.91602" lon="4.73738">
        <ele>173</ele>
        <time>2018-05-08T08:24:56Z</time>
      </trkpt>
      <trkpt lat="45.91596" lon="4.73738">
        <ele>173</ele>
        <time>2018-05-08T08:24:57Z</time>
      </trkpt>
      <trkpt lat="45.91591" lon="4.73736">
        <ele>173</ele>
        <time>2018-05-08T08:24:58Z</time>
      </trkpt>
      <trkpt lat="45.91586" lon="4.73737">
        <ele>173</ele>
        <time>2018-05-08T08:24:59Z</time>
      </trkpt>
      <trkpt lat="45.9158" lon="4.73737">
        <ele>173</ele>
        <time>2018-05-08T08:25:00Z</time>
      </trkpt>
      <trkpt lat="45.91573" lon="4.73737">
        <ele>173</ele>
        <time>2018-05-08T08:25:01Z</time>
      </trkpt>
      <trkpt lat="45.91567" lon="4.73738">
        <ele>173</ele>
        <time>2018-05-08T08:25:02Z</time>
      </trkpt>
      <trkpt lat="45.91561" lon="4.73739">
        <ele>173</ele>
        <time>2018-05-08T08:25:03Z</time>
      </trkpt>
      <trkpt lat="45.91555" lon="4.73739">
        <ele>174</ele>
        <time>2018-05-08T08:25:04Z</time>
      </trkpt>
      <trkpt lat="45.91549" lon="4.73739">
        <ele>174</ele>
        <time>2018-05-08T08:25:05Z</time>
      </trkpt>
      <trkpt lat="45.91543" lon="4.7374">
        <ele>174</ele>
        <time>2018-05-08T08:25:06Z</time>
      </trkpt>
      <trkpt lat="45.91537" lon="4.7374">
        <ele>174</ele>
        <time>2018-05-08T08:25:07Z</time>
      </trkpt>
      <trkpt lat="45.91531" lon="4.7374">
        <ele>174</ele>
        <time>2018-05-08T08:25:08Z</time>
      </trkpt>
      <trkpt lat="45.91525" lon="4.7374">
        <ele>174</ele>
        <time>2018-05-08T08:25:09Z</time>
      </trkpt>
      <trkpt lat="45.91519" lon="4.7374">
        <ele>174</ele>
        <time>2018-05-08T08:25:10Z</time>
      </trkpt>
      <trkpt lat="45.91513" lon="4.73741">
        <ele>174</ele>
        <time>2018-05-08T08:25:11Z</time>
      </trkpt>
      <trkpt lat="45.91506" lon="4.73741">
        <ele>174</ele>
        <time>2018-05-08T08:25:12Z</time>
      </trkpt>
      <trkpt lat="45.915" lon="4.73741">
        <ele>174</ele>
        <time>2018-05-08T08:25:13Z</time>
      </trkpt>
      <trkpt lat="45.91494" lon="4.73741">
        <ele>174</ele>
        <time>2018-05-08T08:25:14Z</time>
      </trkpt>
      <trkpt lat="45.91488" lon="4.73742">
        <ele>174</ele>
        <time>2018-05-08T08:25:15Z</time>
      </trkpt>
      <trkpt lat="45.91482" lon="4.73744">
        <ele>174</ele>
        <time>2018-05-08T08:25:16Z</time>
      </trkpt>
      <trkpt lat="45.91476" lon="4.73743">
        <ele>174</ele>
        <time>2018-05-08T08:25:17Z</time>
      </trkpt>
      <trkpt lat="45.91471" lon="4.73744">
        <ele>174</ele>
        <time>2018-05-08T08:25:18Z</time>
      </trkpt>
      <trkpt lat="45.91465" lon="4.73744">
        <ele>174</ele>
        <time>2018-05-08T08:25:19Z</time>
      </trkpt>
      <trkpt lat="45.91458" lon="4.73744">
        <ele>173</ele>
        <time>2018-05-08T08:25:20Z</time>
      </trkpt>
      <trkpt lat="45.91452" lon="4.73744">
        <ele>173</ele>
        <time>2018-05-08T08:25:21Z</time>
      </trkpt>
      <trkpt lat="45.91447" lon="4.73743">
        <ele>173</ele>
        <time>2018-05-08T08:25:22Z</time>
      </trkpt>
      <trkpt lat="45.91441" lon="4.73743">
        <ele>173</ele>
        <time>2018-05-08T08:25:23Z</time>
      </trkpt>
      <trkpt lat="45.91435" lon="4.73743">
        <ele>173</ele>
        <time>2018-05-08T08:25:24Z</time>
      </trkpt>
      <trkpt lat="45.91429" lon="4.73745">
        <ele>173</ele>
        <time>2018-05-08T08:25:25Z</time>
      </trkpt>
      <trkpt lat="45.91422" lon="4.73745">
        <ele>172</ele>
        <time>2018-05-08T08:25:26Z</time>
      </trkpt>
      <trkpt lat="45.91417" lon="4.73745">
        <ele>172</ele>
        <time>2018-05-08T08:25:27Z</time>
      </trkpt>
      <trkpt lat="45.91411" lon="4.73745">
        <ele>172</ele>
        <time>2018-05-08T08:25:28Z</time>
      </trkpt>
      <trkpt lat="45.91405" lon="4.73746">
        <ele>172</ele>
        <time>2018-05-08T08:25:29Z</time>
      </trkpt>
      <trkpt lat="45.91399" lon="4.73746">
        <ele>173</ele>
        <time>2018-05-08T08:25:30Z</time>
      </trkpt>
      <trkpt lat="45.91393" lon="4.73746">
        <ele>173</ele>
        <time>2018-05-08T08:25:31Z</time>
      </trkpt>
      <trkpt lat="45.91387" lon="4.73746">
        <ele>173</ele>
        <time>2018-05-08T08:25:32Z</time>
      </trkpt>
      <trkpt lat="45.91382" lon="4.73745">
        <ele>173</ele>
        <time>2018-05-08T08:25:33Z</time>
      </trkpt>
      <trkpt lat="45.91376" lon="4.73745">
        <ele>173</ele>
        <time>2018-05-08T08:25:34Z</time>
      </trkpt>
      <trkpt lat="45.91371" lon="4.73747">
        <ele>173</ele>
        <time>2018-05-08T08:25:35Z</time>
      </trkpt>
      <trkpt lat="45.91365" lon="4.73747">
        <ele>173</ele>
        <time>2018-05-08T08:25:36Z</time>
      </trkpt>
      <trkpt lat="45.91359" lon="4.73748">
        <ele>173</ele>
        <time>2018-05-08T08:25:37Z</time>
      </trkpt>
      <trkpt lat="45.91355" lon="4.73748">
        <ele>173</ele>
        <time>2018-05-08T08:25:38Z</time>
      </trkpt>
      <trkpt lat="45.91349" lon="4.73748">
        <ele>173</ele>
        <time>2018-05-08T08:25:39Z</time>
      </trkpt>
      <trkpt lat="45.91343" lon="4.73749">
        <ele>173</ele>
        <time>2018-05-08T08:25:40Z</time>
      </trkpt>
      <trkpt lat="45.91337" lon="4.73749">
        <ele>173</ele>
        <time>2018-05-08T08:25:41Z</time>
      </trkpt>
      <trkpt lat="45.91332" lon="4.73748">
        <ele>173</ele>
        <time>2018-05-08T08:25:42Z</time>
      </trkpt>
      <trkpt lat="45.91327" lon="4.73748">
        <ele>173</ele>
        <time>2018-05-08T08:25:43Z</time>
      </trkpt>
      <trkpt lat="45.91321" lon="4.73748">
        <ele>173</ele>
        <time>2018-05-08T08:25:44Z</time>
      </trkpt>
      <trkpt lat="45.91315" lon="4.73748">
        <ele>174</ele>
        <time>2018-05-08T08:25:45Z</time>
      </trkpt>
      <trkpt lat="45.91309" lon="4.73748">
        <ele>174</ele>
        <time>2018-05-08T08:25:46Z</time>
      </trkpt>
      <trkpt lat="45.91304" lon="4.73748">
        <ele>174</ele>
        <time>2018-05-08T08:25:47Z</time>
      </trkpt>
      <trkpt lat="45.91298" lon="4.73747">
        <ele>174</ele>
        <time>2018-05-08T08:25:48Z</time>
      </trkpt>
      <trkpt lat="45.91293" lon="4.73746">
        <ele>174</ele>
        <time>2018-05-08T08:25:49Z</time>
      </trkpt>
      <trkpt lat="45.91287" lon="4.73745">
        <ele>174</ele>
        <time>2018-05-08T08:25:50Z</time>
      </trkpt>
      <trkpt lat="45.91281" lon="4.73745">
        <ele>174</ele>
        <time>2018-05-08T08:25:51Z</time>
      </trkpt>
      <trkpt lat="45.91275" lon="4.73745">
        <ele>174</ele>
        <time>2018-05-08T08:25:52Z</time>
      </trkpt>
      <trkpt lat="45.9127" lon="4.73745">
        <ele>174</ele>
        <time>2018-05-08T08:25:53Z</time>
      </trkpt>
      <trkpt lat="45.91264" lon="4.73745">
        <ele>175</ele>
        <time>2018-05-08T08:25:54Z</time>
      </trkpt>
      <trkpt lat="45.91259" lon="4.73747">
        <ele>175</ele>
        <time>2018-05-08T08:25:55Z</time>
      </trkpt>
      <trkpt lat="45.91254" lon="4.73747">
        <ele>175</ele>
        <time>2018-05-08T08:25:56Z</time>
      </trkpt>
      <trkpt lat="45.91248" lon="4.73747">
        <ele>175</ele>
        <time>2018-05-08T08:25:57Z</time>
      </trkpt>
      <trkpt lat="45.91242" lon="4.73748">
        <ele>175</ele>
        <time>2018-05-08T08:25:58Z</time>
      </trkpt>
      <trkpt lat="45.91236" lon="4.73748">
        <ele>175</ele>
        <time>2018-05-08T08:25:59Z</time>
      </trkpt>
      <trkpt lat="45.9123" lon="4.73749">
        <ele>175</ele>
        <time>2018-05-08T08:26:00Z</time>
      </trkpt>
      <trkpt lat="45.91224" lon="4.73748">
        <ele>175</ele>
        <time>2018-05-08T08:26:01Z</time>
      </trkpt>
      <trkpt lat="45.91219" lon="4.73748">
        <ele>175</ele>
        <time>2018-05-08T08:26:02Z</time>
      </trkpt>
      <trkpt lat="45.91213" lon="4.73751">
        <ele>175</ele>
        <time>2018-05-08T08:26:03Z</time>
      </trkpt>
      <trkpt lat="45.91208" lon="4.7375">
        <ele>175</ele>
        <time>2018-05-08T08:26:04Z</time>
      </trkpt>
      <trkpt lat="45.91202" lon="4.73749">
        <ele>175</ele>
        <time>2018-05-08T08:26:05Z</time>
      </trkpt>
      <trkpt lat="45.91197" lon="4.73747">
        <ele>175</ele>
        <time>2018-05-08T08:26:06Z</time>
      </trkpt>
      <trkpt lat="45.91192" lon="4.73746">
        <ele>175</ele>
        <time>2018-05-08T08:26:07Z</time>
      </trkpt>
      <trkpt lat="45.91187" lon="4.73745">
        <ele>175</ele>
        <time>2018-05-08T08:26:08Z</time>
      </trkpt>
      <trkpt lat="45.91178" lon="4.73741">
        <ele>175</ele>
        <time>2018-05-08T08:26:10Z</time>
      </trkpt>
      <trkpt lat="45.91174" lon="4.73739">
        <ele>175</ele>
        <time>2018-05-08T08:26:11Z</time>
      </trkpt>
      <trkpt lat="45.91166" lon="4.73738">
        <ele>175</ele>
        <time>2018-05-08T08:26:15Z</time>
      </trkpt>
      <trkpt lat="45.91165" lon="4.73737">
        <ele>175</ele>
        <time>2018-05-08T08:26:16Z</time>
      </trkpt>
      <trkpt lat="45.91158" lon="4.73745">
        <ele>175</ele>
        <time>2018-05-08T08:26:22Z</time>
      </trkpt>
      <trkpt lat="45.91158" lon="4.73748">
        <ele>175</ele>
        <time>2018-05-08T08:26:23Z</time>
      </trkpt>
      <trkpt lat="45.91161" lon="4.73757">
        <ele>175</ele>
        <time>2018-05-08T08:26:24Z</time>
      </trkpt>
      <trkpt lat="45.91163" lon="4.73762">
        <ele>175</ele>
        <time>2018-05-08T08:26:25Z</time>
      </trkpt>
      <trkpt lat="45.91168" lon="4.73771">
        <ele>175</ele>
        <time>2018-05-08T08:26:27Z</time>
      </trkpt>
      <trkpt lat="45.9117" lon="4.73776">
        <ele>175</ele>
        <time>2018-05-08T08:26:28Z</time>
      </trkpt>
      <trkpt lat="45.91173" lon="4.73781">
        <ele>175</ele>
        <time>2018-05-08T08:26:29Z</time>
      </trkpt>
      <trkpt lat="45.91176" lon="4.73786">
        <ele>175</ele>
        <time>2018-05-08T08:26:30Z</time>
      </trkpt>
      <trkpt lat="45.91181" lon="4.73797">
        <ele>175</ele>
        <time>2018-05-08T08:26:32Z</time>
      </trkpt>
      <trkpt lat="45.91183" lon="4.73802">
        <ele>175</ele>
        <time>2018-05-08T08:26:33Z</time>
      </trkpt>
      <trkpt lat="45.91186" lon="4.73808">
        <ele>175</ele>
        <time>2018-05-08T08:26:34Z</time>
      </trkpt>
      <trkpt lat="45.91188" lon="4.73814">
        <ele>175</ele>
        <time>2018-05-08T08:26:35Z</time>
      </trkpt>
      <trkpt lat="45.91192" lon="4.73825">
        <ele>175</ele>
        <time>2018-05-08T08:26:37Z</time>
      </trkpt>
      <trkpt lat="45.91194" lon="4.73829">
        <ele>175</ele>
        <time>2018-05-08T08:26:38Z</time>
      </trkpt>
      <trkpt lat="45.91199" lon="4.73838">
        <ele>174</ele>
        <time>2018-05-08T08:26:40Z</time>
      </trkpt>
      <trkpt lat="45.91202" lon="4.73843">
        <ele>174</ele>
        <time>2018-05-08T08:26:41Z</time>
      </trkpt>
      <trkpt lat="45.91206" lon="4.73854">
        <ele>174</ele>
        <time>2018-05-08T08:26:43Z</time>
      </trkpt>
      <trkpt lat="45.91208" lon="4.73859">
        <ele>174</ele>
        <time>2018-05-08T08:26:44Z</time>
      </trkpt>
      <trkpt lat="45.91213" lon="4.73868">
        <ele>174</ele>
        <time>2018-05-08T08:26:46Z</time>
      </trkpt>
      <trkpt lat="45.91215" lon="4.73873">
        <ele>174</ele>
        <time>2018-05-08T08:26:47Z</time>
      </trkpt>
      <trkpt lat="45.91218" lon="4.73883">
        <ele>174</ele>
        <time>2018-05-08T08:26:49Z</time>
      </trkpt>
      <trkpt lat="45.91219" lon="4.73886">
        <ele>174</ele>
        <time>2018-05-08T08:26:50Z</time>
      </trkpt>
      <trkpt lat="45.91221" lon="4.73893">
        <ele>174</ele>
        <time>2018-05-08T08:26:51Z</time>
      </trkpt>
      <trkpt lat="45.91222" lon="4.73898">
        <ele>174</ele>
        <time>2018-05-08T08:26:52Z</time>
      </trkpt>
      <trkpt lat="45.91224" lon="4.7391">
        <ele>174</ele>
        <time>2018-05-08T08:26:54Z</time>
      </trkpt>
      <trkpt lat="45.91225" lon="4.73915">
        <ele>174</ele>
        <time>2018-05-08T08:26:55Z</time>
      </trkpt>
      <trkpt lat="45.91228" lon="4.73926">
        <ele>173</ele>
        <time>2018-05-08T08:26:57Z</time>
      </trkpt>
      <trkpt lat="45.91228" lon="4.73931">
        <ele>173</ele>
        <time>2018-05-08T08:26:58Z</time>
      </trkpt>
      <trkpt lat="45.91229" lon="4.73941">
        <ele>173</ele>
        <time>2018-05-08T08:27:00Z</time>
      </trkpt>
      <trkpt lat="45.9123" lon="4.73947">
        <ele>173</ele>
        <time>2018-05-08T08:27:01Z</time>
      </trkpt>
      <trkpt lat="45.91229" lon="4.73958">
        <ele>173</ele>
        <time>2018-05-08T08:27:03Z</time>
      </trkpt>
      <trkpt lat="45.91229" lon="4.73964">
        <ele>173</ele>
        <time>2018-05-08T08:27:04Z</time>
      </trkpt>
      <trkpt lat="45.91229" lon="4.73974">
        <ele>173</ele>
        <time>2018-05-08T08:27:06Z</time>
      </trkpt>
      <trkpt lat="45.91229" lon="4.7398">
        <ele>173</ele>
        <time>2018-05-08T08:27:07Z</time>
      </trkpt>
      <trkpt lat="45.91228" lon="4.73991">
        <ele>173</ele>
        <time>2018-05-08T08:27:09Z</time>
      </trkpt>
      <trkpt lat="45.91227" lon="4.73997">
        <ele>173</ele>
        <time>2018-05-08T08:27:10Z</time>
      </trkpt>
      <trkpt lat="45.91225" lon="4.74008">
        <ele>173</ele>
        <time>2018-05-08T08:27:12Z</time>
      </trkpt>
      <trkpt lat="45.91223" lon="4.74013">
        <ele>173</ele>
        <time>2018-05-08T08:27:13Z</time>
      </trkpt>
      <trkpt lat="45.91221" lon="4.74024">
        <ele>173</ele>
        <time>2018-05-08T08:27:15Z</time>
      </trkpt>
      <trkpt lat="45.9122" lon="4.74029">
        <ele>173</ele>
        <time>2018-05-08T08:27:16Z</time>
      </trkpt>
      <trkpt lat="45.91218" lon="4.74041">
        <ele>173</ele>
        <time>2018-05-08T08:27:18Z</time>
      </trkpt>
      <trkpt lat="45.91216" lon="4.74047">
        <ele>173</ele>
        <time>2018-05-08T08:27:19Z</time>
      </trkpt>
      <trkpt lat="45.91213" lon="4.74059">
        <ele>173</ele>
        <time>2018-05-08T08:27:21Z</time>
      </trkpt>
      <trkpt lat="45.91212" lon="4.74065">
        <ele>173</ele>
        <time>2018-05-08T08:27:22Z</time>
      </trkpt>
      <trkpt lat="45.9121" lon="4.74071">
        <ele>173</ele>
        <time>2018-05-08T08:27:23Z</time>
      </trkpt>
      <trkpt lat="45.91209" lon="4.74077">
        <ele>173</ele>
        <time>2018-05-08T08:27:24Z</time>
      </trkpt>
      <trkpt lat="45.91207" lon="4.74084">
        <ele>173</ele>
        <time>2018-05-08T08:27:25Z</time>
      </trkpt>
      <trkpt lat="45.91206" lon="4.7409">
        <ele>173</ele>
        <time>2018-05-08T08:27:26Z</time>
      </trkpt>
      <trkpt lat="45.91204" lon="4.74102">
        <ele>173</ele>
        <time>2018-05-08T08:27:28Z</time>
      </trkpt>
      <trkpt lat="45.91202" lon="4.74108">
        <ele>173</ele>
        <time>2018-05-08T08:27:29Z</time>
      </trkpt>
      <trkpt lat="45.912" lon="4.74115">
        <ele>174</ele>
        <time>2018-05-08T08:27:30Z</time>
      </trkpt>
      <trkpt lat="45.91198" lon="4.7412">
        <ele>174</ele>
        <time>2018-05-08T08:27:31Z</time>
      </trkpt>
      <trkpt lat="45.91197" lon="4.74127">
        <ele>174</ele>
        <time>2018-05-08T08:27:32Z</time>
      </trkpt>
      <trkpt lat="45.91195" lon="4.74134">
        <ele>174</ele>
        <time>2018-05-08T08:27:33Z</time>
      </trkpt>
      <trkpt lat="45.91194" lon="4.74141">
        <ele>174</ele>
        <time>2018-05-08T08:27:34Z</time>
      </trkpt>
      <trkpt lat="45.91193" lon="4.74149">
        <ele>174</ele>
        <time>2018-05-08T08:27:35Z</time>
      </trkpt>
      <trkpt lat="45.91191" lon="4.74157">
        <ele>174</ele>
        <time>2018-05-08T08:27:36Z</time>
      </trkpt>
      <trkpt lat="45.91189" lon="4.74164">
        <ele>174</ele>
        <time>2018-05-08T08:27:37Z</time>
      </trkpt>
      <trkpt lat="45.91188" lon="4.74171">
        <ele>174</ele>
        <time>2018-05-08T08:27:38Z</time>
      </trkpt>
      <trkpt lat="45.91188" lon="4.74178">
        <ele>174</ele>
        <time>2018-05-08T08:27:39Z</time>
      </trkpt>
      <trkpt lat="45.91187" lon="4.74185">
        <ele>174</ele>
        <time>2018-05-08T08:27:40Z</time>
      </trkpt>
      <trkpt lat="45.91186" lon="4.74193">
        <ele>175</ele>
        <time>2018-05-08T08:27:41Z</time>
      </trkpt>
      <trkpt lat="45.91186" lon="4.74201">
        <ele>175</ele>
        <time>2018-05-08T08:27:42Z</time>
      </trkpt>
      <trkpt lat="45.91185" lon="4.74208">
        <ele>175</ele>
        <time>2018-05-08T08:27:43Z</time>
      </trkpt>
      <trkpt lat="45.91184" lon="4.74218">
        <ele>175</ele>
        <time>2018-05-08T08:27:44Z</time>
      </trkpt>
      <trkpt lat="45.91184" lon="4.74225">
        <ele>175</ele>
        <time>2018-05-08T08:27:45Z</time>
      </trkpt>
      <trkpt lat="45.91184" lon="4.74235">
        <ele>175</ele>
        <time>2018-05-08T08:27:46Z</time>
      </trkpt>
      <trkpt lat="45.91184" lon="4.74244">
        <ele>175</ele>
        <time>2018-05-08T08:27:47Z</time>
      </trkpt>
      <trkpt lat="45.91186" lon="4.74254">
        <ele>175</ele>
        <time>2018-05-08T08:27:48Z</time>
      </trkpt>
      <trkpt lat="45.91188" lon="4.74263">
        <ele>175</ele>
        <time>2018-05-08T08:27:49Z</time>
      </trkpt>
      <trkpt lat="45.91189" lon="4.74273">
        <ele>175</ele>
        <time>2018-05-08T08:27:50Z</time>
      </trkpt>
      <trkpt lat="45.91191" lon="4.74284">
        <ele>175</ele>
        <time>2018-05-08T08:27:51Z</time>
      </trkpt>
      <trkpt lat="45.91194" lon="4.74293">
        <ele>175</ele>
        <time>2018-05-08T08:27:52Z</time>
      </trkpt>
      <trkpt lat="45.91197" lon="4.74305">
        <ele>175</ele>
        <time>2018-05-08T08:27:53Z</time>
      </trkpt>
      <trkpt lat="45.912" lon="4.74317">
        <ele>175</ele>
        <time>2018-05-08T08:27:54Z</time>
      </trkpt>
      <trkpt lat="45.91203" lon="4.74328">
        <ele>175</ele>
        <time>2018-05-08T08:27:55Z</time>
      </trkpt>
      <trkpt lat="45.91206" lon="4.74339">
        <ele>175</ele>
        <time>2018-05-08T08:27:56Z</time>
      </trkpt>
      <trkpt lat="45.9121" lon="4.74348">
        <ele>175</ele>
        <time>2018-05-08T08:27:57Z</time>
      </trkpt>
      <trkpt lat="45.91213" lon="4.74357">
        <ele>175</ele>
        <time>2018-05-08T08:27:58Z</time>
      </trkpt>
      <trkpt lat="45.91216" lon="4.74368">
        <ele>174</ele>
        <time>2018-05-08T08:27:59Z</time>
      </trkpt>
      <trkpt lat="45.9122" lon="4.74379">
        <ele>174</ele>
        <time>2018-05-08T08:28:00Z</time>
      </trkpt>
      <trkpt lat="45.91222" lon="4.7439">
        <ele>174</ele>
        <time>2018-05-08T08:28:01Z</time>
      </trkpt>
      <trkpt lat="45.91225" lon="4.74401">
        <ele>174</ele>
        <time>2018-05-08T08:28:02Z</time>
      </trkpt>
      <trkpt lat="45.91229" lon="4.74411">
        <ele>174</ele>
        <time>2018-05-08T08:28:03Z</time>
      </trkpt>
      <trkpt lat="45.91232" lon="4.74422">
        <ele>174</ele>
        <time>2018-05-08T08:28:04Z</time>
      </trkpt>
      <trkpt lat="45.91233" lon="4.74432">
        <ele>174</ele>
        <time>2018-05-08T08:28:05Z</time>
      </trkpt>
      <trkpt lat="45.91236" lon="4.74442">
        <ele>174</ele>
        <time>2018-05-08T08:28:06Z</time>
      </trkpt>
      <trkpt lat="45.91238" lon="4.74452">
        <ele>174</ele>
        <time>2018-05-08T08:28:07Z</time>
      </trkpt>
      <trkpt lat="45.91241" lon="4.7446">
        <ele>174</ele>
        <time>2018-05-08T08:28:08Z</time>
      </trkpt>
      <trkpt lat="45.91244" lon="4.7447">
        <ele>174</ele>
        <time>2018-05-08T08:28:09Z</time>
      </trkpt>
      <trkpt lat="45.91248" lon="4.74479">
        <ele>174</ele>
        <time>2018-05-08T08:28:10Z</time>
      </trkpt>
      <trkpt lat="45.91251" lon="4.74488">
        <ele>174</ele>
        <time>2018-05-08T08:28:11Z</time>
      </trkpt>
      <trkpt lat="45.91253" lon="4.74496">
        <ele>174</ele>
        <time>2018-05-08T08:28:12Z</time>
      </trkpt>
      <trkpt lat="45.91256" lon="4.74504">
        <ele>174</ele>
        <time>2018-05-08T08:28:13Z</time>
      </trkpt>
      <trkpt lat="45.91258" lon="4.74511">
        <ele>174</ele>
        <time>2018-05-08T08:28:14Z</time>
      </trkpt>
      <trkpt lat="45.91261" lon="4.74519">
        <ele>174</ele>
        <time>2018-05-08T08:28:15Z</time>
      </trkpt>
      <trkpt lat="45.91263" lon="4.74527">
        <ele>173</ele>
        <time>2018-05-08T08:28:16Z</time>
      </trkpt>
      <trkpt lat="45.91266" lon="4.74535">
        <ele>173</ele>
        <time>2018-05-08T08:28:17Z</time>
      </trkpt>
      <trkpt lat="45.91269" lon="4.74543">
        <ele>173</ele>
        <time>2018-05-08T08:28:18Z</time>
      </trkpt>
      <trkpt lat="45.91272" lon="4.74551">
        <ele>173</ele>
        <time>2018-05-08T08:28:19Z</time>
      </trkpt>
      <trkpt lat="45.91275" lon="4.74557">
        <ele>173</ele>
        <time>2018-05-08T08:28:20Z</time>
      </trkpt>
      <trkpt lat="45.91278" lon="4.74564">
        <ele>173</ele>
        <time>2018-05-08T08:28:21Z</time>
      </trkpt>
      <trkpt lat="45.91282" lon="4.74571">
        <ele>173</ele>
        <time>2018-05-08T08:28:22Z</time>
      </trkpt>
      <trkpt lat="45.91284" lon="4.74578">
        <ele>173</ele>
        <time>2018-05-08T08:28:23Z</time>
      </trkpt>
      <trkpt lat="45.91287" lon="4.74585">
        <ele>173</ele>
        <time>2018-05-08T08:28:24Z</time>
      </trkpt>
      <trkpt lat="45.9129" lon="4.74592">
        <ele>173</ele>
        <time>2018-05-08T08:28:25Z</time>
      </trkpt>
      <trkpt lat="45.91292" lon="4.74599">
        <ele>173</ele>
        <time>2018-05-08T08:28:26Z</time>
      </trkpt>
      <trkpt lat="45.91295" lon="4.74606">
        <ele>173</ele>
        <time>2018-05-08T08:28:27Z</time>
      </trkpt>
      <trkpt lat="45.91298" lon="4.74611">
        <ele>173</ele>
        <time>2018-05-08T08:28:28Z</time>
      </trkpt>
      <trkpt lat="45.913" lon="4.74618">
        <ele>173</ele>
        <time>2018-05-08T08:28:29Z</time>
      </trkpt>
      <trkpt lat="45.91303" lon="4.74625">
        <ele>173</ele>
        <time>2018-05-08T08:28:30Z</time>
      </trkpt>
      <trkpt lat="45.91306" lon="4.74631">
        <ele>173</ele>
        <time>2018-05-08T08:28:31Z</time>
      </trkpt>
      <trkpt lat="45.91309" lon="4.74642">
        <ele>173</ele>
        <time>2018-05-08T08:28:33Z</time>
      </trkpt>
      <trkpt lat="45.91313" lon="4.74649">
        <ele>173</ele>
        <time>2018-05-08T08:28:34Z</time>
      </trkpt>
      <trkpt lat="45.91316" lon="4.74657">
        <ele>173</ele>
        <time>2018-05-08T08:28:35Z</time>
      </trkpt>
      <trkpt lat="45.91317" lon="4.74662">
        <ele>173</ele>
        <time>2018-05-08T08:28:36Z</time>
      </trkpt>
      <trkpt lat="45.91319" lon="4.74669">
        <ele>173</ele>
        <time>2018-05-08T08:28:37Z</time>
      </trkpt>
      <trkpt lat="45.91322" lon="4.74676">
        <ele>173</ele>
        <time>2018-05-08T08:28:38Z</time>
      </trkpt>
      <trkpt lat="45.91324" lon="4.74683">
        <ele>173</ele>
        <time>2018-05-08T08:28:39Z</time>
      </trkpt>
      <trkpt lat="45.91326" lon="4.74691">
        <ele>173</ele>
        <time>2018-05-08T08:28:40Z</time>
      </trkpt>
      <trkpt lat="45.91327" lon="4.74699">
        <ele>173</ele>
        <time>2018-05-08T08:28:41Z</time>
      </trkpt>
      <trkpt lat="45.91329" lon="4.74706">
        <ele>173</ele>
        <time>2018-05-08T08:28:42Z</time>
      </trkpt>
      <trkpt lat="45.91329" lon="4.74715">
        <ele>173</ele>
        <time>2018-05-08T08:28:43Z</time>
      </trkpt>
      <trkpt lat="45.91329" lon="4.74721">
        <ele>173</ele>
        <time>2018-05-08T08:28:44Z</time>
      </trkpt>
      <trkpt lat="45.91328" lon="4.74734">
        <ele>173</ele>
        <time>2018-05-08T08:28:46Z</time>
      </trkpt>
      <trkpt lat="45.91324" lon="4.74738">
        <ele>173</ele>
        <time>2018-05-08T08:28:47Z</time>
      </trkpt>
      <trkpt lat="45.91323" lon="4.74748">
        <ele>173</ele>
        <time>2018-05-08T08:28:48Z</time>
      </trkpt>
      <trkpt lat="45.91319" lon="4.74754">
        <ele>174</ele>
        <time>2018-05-08T08:28:49Z</time>
      </trkpt>
      <trkpt lat="45.91318" lon="4.7476">
        <ele>174</ele>
        <time>2018-05-08T08:28:50Z</time>
      </trkpt>
      <trkpt lat="45.91317" lon="4.74768">
        <ele>174</ele>
        <time>2018-05-08T08:28:51Z</time>
      </trkpt>
      <trkpt lat="45.91315" lon="4.74776">
        <ele>174</ele>
        <time>2018-05-08T08:28:52Z</time>
      </trkpt>
      <trkpt lat="45.91315" lon="4.74784">
        <ele>174</ele>
        <time>2018-05-08T08:28:53Z</time>
      </trkpt>
      <trkpt lat="45.91313" lon="4.74792">
        <ele>174</ele>
        <time>2018-05-08T08:28:54Z</time>
      </trkpt>
      <trkpt lat="45.91311" lon="4.748">
        <ele>174</ele>
        <time>2018-05-08T08:28:55Z</time>
      </trkpt>
      <trkpt lat="45.9131" lon="4.74808">
        <ele>175</ele>
        <time>2018-05-08T08:28:56Z</time>
      </trkpt>
      <trkpt lat="45.9131" lon="4.74814">
        <ele>175</ele>
        <time>2018-05-08T08:28:57Z</time>
      </trkpt>
      <trkpt lat="45.91309" lon="4.74821">
        <ele>175</ele>
        <time>2018-05-08T08:28:58Z</time>
      </trkpt>
      <trkpt lat="45.9131" lon="4.74829">
        <ele>175</ele>
        <time>2018-05-08T08:28:59Z</time>
      </trkpt>
      <trkpt lat="45.9131" lon="4.74836">
        <ele>176</ele>
        <time>2018-05-08T08:29:00Z</time>
      </trkpt>
      <trkpt lat="45.9131" lon="4.74844">
        <ele>176</ele>
        <time>2018-05-08T08:29:01Z</time>
      </trkpt>
      <trkpt lat="45.91311" lon="4.74855">
        <ele>176</ele>
        <time>2018-05-08T08:29:03Z</time>
      </trkpt>
      <trkpt lat="45.91312" lon="4.74863">
        <ele>176</ele>
        <time>2018-05-08T08:29:04Z</time>
      </trkpt>
      <trkpt lat="45.91312" lon="4.74875">
        <ele>176</ele>
        <time>2018-05-08T08:29:06Z</time>
      </trkpt>
      <trkpt lat="45.91311" lon="4.74883">
        <ele>176</ele>
        <time>2018-05-08T08:29:07Z</time>
      </trkpt>
      <trkpt lat="45.91312" lon="4.74895">
        <ele>176</ele>
        <time>2018-05-08T08:29:09Z</time>
      </trkpt>
      <trkpt lat="45.9131" lon="4.74902">
        <ele>176</ele>
        <time>2018-05-08T08:29:10Z</time>
      </trkpt>
      <trkpt lat="45.91309" lon="4.74909">
        <ele>176</ele>
        <time>2018-05-08T08:29:11Z</time>
      </trkpt>
      <trkpt lat="45.91308" lon="4.74915">
        <ele>176</ele>
        <time>2018-05-08T08:29:12Z</time>
      </trkpt>
      <trkpt lat="45.91307" lon="4.74923">
        <ele>177</ele>
        <time>2018-05-08T08:29:13Z</time>
      </trkpt>
      <trkpt lat="45.91308" lon="4.7493">
        <ele>177</ele>
        <time>2018-05-08T08:29:14Z</time>
      </trkpt>
      <trkpt lat="45.91307" lon="4.74937">
        <ele>177</ele>
        <time>2018-05-08T08:29:15Z</time>
      </trkpt>
      <trkpt lat="45.91306" lon="4.74943">
        <ele>177</ele>
        <time>2018-05-08T08:29:16Z</time>
      </trkpt>
      <trkpt lat="45.91306" lon="4.7495">
        <ele>177</ele>
        <time>2018-05-08T08:29:17Z</time>
      </trkpt>
      <trkpt lat="45.91305" lon="4.74957">
        <ele>177</ele>
        <time>2018-05-08T08:29:18Z</time>
      </trkpt>
      <trkpt lat="45.91305" lon="4.74965">
        <ele>177</ele>
        <time>2018-05-08T08:29:19Z</time>
      </trkpt>
      <trkpt lat="45.91304" lon="4.74972">
        <ele>177</ele>
        <time>2018-05-08T08:29:20Z</time>
      </trkpt>
      <trkpt lat="45.91303" lon="4.74979">
        <ele>177</ele>
        <time>2018-05-08T08:29:21Z</time>
      </trkpt>
      <trkpt lat="45.91301" lon="4.74985">
        <ele>177</ele>
        <time>2018-05-08T08:29:22Z</time>
      </trkpt>
      <trkpt lat="45.913" lon="4.74993">
        <ele>177</ele>
        <time>2018-05-08T08:29:23Z</time>
      </trkpt>
      <trkpt lat="45.913" lon="4.74999">
        <ele>177</ele>
        <time>2018-05-08T08:29:24Z</time>
      </trkpt>
      <trkpt lat="45.91299" lon="4.75005">
        <ele>177</ele>
        <time>2018-05-08T08:29:25Z</time>
      </trkpt>
      <trkpt lat="45.91298" lon="4.75011">
        <ele>177</ele>
        <time>2018-05-08T08:29:26Z</time>
      </trkpt>
      <trkpt lat="45.91298" lon="4.75018">
        <ele>177</ele>
        <time>2018-05-08T08:29:27Z</time>
      </trkpt>
      <trkpt lat="45.91298" lon="4.75025">
        <ele>177</ele>
        <time>2018-05-08T08:29:28Z</time>
      </trkpt>
      <trkpt lat="45.91298" lon="4.75037">
        <ele>177</ele>
        <time>2018-05-08T08:29:30Z</time>
      </trkpt>
      <trkpt lat="45.91297" lon="4.75045">
        <ele>177</ele>
        <time>2018-05-08T08:29:31Z</time>
      </trkpt>
      <trkpt lat="45.91295" lon="4.75052">
        <ele>177</ele>
        <time>2018-05-08T08:29:32Z</time>
      </trkpt>
      <trkpt lat="45.91295" lon="4.75058">
        <ele>177</ele>
        <time>2018-05-08T08:29:33Z</time>
      </trkpt>
      <trkpt lat="45.91297" lon="4.75065">
        <ele>177</ele>
        <time>2018-05-08T08:29:34Z</time>
      </trkpt>
      <trkpt lat="45.91298" lon="4.75072">
        <ele>177</ele>
        <time>2018-05-08T08:29:35Z</time>
      </trkpt>
      <trkpt lat="45.91298" lon="4.75078">
        <ele>177</ele>
        <time>2018-05-08T08:29:36Z</time>
      </trkpt>
      <trkpt lat="45.91299" lon="4.75085">
        <ele>177</ele>
        <time>2018-05-08T08:29:37Z</time>
      </trkpt>
      <trkpt lat="45.913" lon="4.75093">
        <ele>177</ele>
        <time>2018-05-08T08:29:38Z</time>
      </trkpt>
      <trkpt lat="45.913" lon="4.75101">
        <ele>177</ele>
        <time>2018-05-08T08:29:39Z</time>
      </trkpt>
      <trkpt lat="45.913" lon="4.75108">
        <ele>177</ele>
        <time>2018-05-08T08:29:40Z</time>
      </trkpt>
      <trkpt lat="45.91303" lon="4.75117">
        <ele>177</ele>
        <time>2018-05-08T08:29:41Z</time>
      </trkpt>
      <trkpt lat="45.91304" lon="4.75124">
        <ele>177</ele>
        <time>2018-05-08T08:29:42Z</time>
      </trkpt>
      <trkpt lat="45.91304" lon="4.75131">
        <ele>177</ele>
        <time>2018-05-08T08:29:43Z</time>
      </trkpt>
      <trkpt lat="45.91304" lon="4.75138">
        <ele>177</ele>
        <time>2018-05-08T08:29:44Z</time>
      </trkpt>
      <trkpt lat="45.91304" lon="4.75145">
        <ele>177</ele>
        <time>2018-05-08T08:29:45Z</time>
      </trkpt>
      <trkpt lat="45.91306" lon="4.75156">
        <ele>177</ele>
        <time>2018-05-08T08:29:47Z</time>
      </trkpt>
      <trkpt lat="45.91307" lon="4.75162">
        <ele>177</ele>
        <time>2018-05-08T08:29:48Z</time>
      </trkpt>
      <trkpt lat="45.913" lon="4.7516">
        <ele>177</ele>
        <time>2018-05-08T08:29:50Z</time>
      </trkpt>
      <trkpt lat="45.91297" lon="4.75159">
        <ele>177</ele>
        <time>2018-05-08T08:29:51Z</time>
      </trkpt>
      <trkpt lat="45.91288" lon="4.75158">
        <ele>177</ele>
        <time>2018-05-08T08:29:54Z</time>
      </trkpt>
      <trkpt lat="45.91284" lon="4.75156">
        <ele>177</ele>
        <time>2018-05-08T08:29:55Z</time>
      </trkpt>
      <trkpt lat="45.91279" lon="4.75153">
        <ele>177</ele>
        <time>2018-05-08T08:29:56Z</time>
      </trkpt>
      <trkpt lat="45.91275" lon="4.7515">
        <ele>177</ele>
        <time>2018-05-08T08:29:57Z</time>
      </trkpt>
      <trkpt lat="45.91267" lon="4.75145">
        <ele>177</ele>
        <time>2018-05-08T08:29:59Z</time>
      </trkpt>
      <trkpt lat="45.91263" lon="4.75142">
        <ele>177</ele>
        <time>2018-05-08T08:30:00Z</time>
      </trkpt>
      <trkpt lat="45.91259" lon="4.75139">
        <ele>177</ele>
        <time>2018-05-08T08:30:01Z</time>
      </trkpt>
      <trkpt lat="45.91255" lon="4.75136">
        <ele>177</ele>
        <time>2018-05-08T08:30:02Z</time>
      </trkpt>
      <trkpt lat="45.91249" lon="4.75134">
        <ele>177</ele>
        <time>2018-05-08T08:30:03Z</time>
      </trkpt>
      <trkpt lat="45.91244" lon="4.75132">
        <ele>177</ele>
        <time>2018-05-08T08:30:04Z</time>
      </trkpt>
      <trkpt lat="45.91239" lon="4.7513">
        <ele>177</ele>
        <time>2018-05-08T08:30:05Z</time>
      </trkpt>
      <trkpt lat="45.91234" lon="4.75129">
        <ele>177</ele>
        <time>2018-05-08T08:30:06Z</time>
      </trkpt>
      <trkpt lat="45.91229" lon="4.75126">
        <ele>177</ele>
        <time>2018-05-08T08:30:07Z</time>
      </trkpt>
      <trkpt lat="45.91225" lon="4.75125">
        <ele>177</ele>
        <time>2018-05-08T08:30:08Z</time>
      </trkpt>
      <trkpt lat="45.91216" lon="4.75123">
        <ele>177</ele>
        <time>2018-05-08T08:30:10Z</time>
      </trkpt>
      <trkpt lat="45.91211" lon="4.75122">
        <ele>177</ele>
        <time>2018-05-08T08:30:11Z</time>
      </trkpt>
      <trkpt lat="45.91207" lon="4.75121">
        <ele>178</ele>
        <time>2018-05-08T08:30:12Z</time>
      </trkpt>
      <trkpt lat="45.91202" lon="4.75119">
        <ele>178</ele>
        <time>2018-05-08T08:30:13Z</time>
      </trkpt>
      <trkpt lat="45.91198" lon="4.75119">
        <ele>178</ele>
        <time>2018-05-08T08:30:14Z</time>
      </trkpt>
      <trkpt lat="45.91192" lon="4.75118">
        <ele>178</ele>
        <time>2018-05-08T08:30:15Z</time>
      </trkpt>
      <trkpt lat="45.91187" lon="4.75116">
        <ele>178</ele>
        <time>2018-05-08T08:30:16Z</time>
      </trkpt>
      <trkpt lat="45.91182" lon="4.75115">
        <ele>178</ele>
        <time>2018-05-08T08:30:17Z</time>
      </trkpt>
      <trkpt lat="45.91177" lon="4.75113">
        <ele>178</ele>
        <time>2018-05-08T08:30:18Z</time>
      </trkpt>
      <trkpt lat="45.91172" lon="4.75112">
        <ele>178</ele>
        <time>2018-05-08T08:30:19Z</time>
      </trkpt>
      <trkpt lat="45.91167" lon="4.75112">
        <ele>178</ele>
        <time>2018-05-08T08:30:20Z</time>
      </trkpt>
      <trkpt lat="45.91162" lon="4.75111">
        <ele>179</ele>
        <time>2018-05-08T08:30:21Z</time>
      </trkpt>
      <trkpt lat="45.91157" lon="4.7511">
        <ele>179</ele>
        <time>2018-05-08T08:30:22Z</time>
      </trkpt>
      <trkpt lat="45.91152" lon="4.75109">
        <ele>179</ele>
        <time>2018-05-08T08:30:23Z</time>
      </trkpt>
      <trkpt lat="45.91147" lon="4.75107">
        <ele>179</ele>
        <time>2018-05-08T08:30:24Z</time>
      </trkpt>
      <trkpt lat="45.91142" lon="4.75106">
        <ele>179</ele>
        <time>2018-05-08T08:30:25Z</time>
      </trkpt>
      <trkpt lat="45.91137" lon="4.75105">
        <ele>179</ele>
        <time>2018-05-08T08:30:26Z</time>
      </trkpt>
      <trkpt lat="45.91132" lon="4.75103">
        <ele>179</ele>
        <time>2018-05-08T08:30:27Z</time>
      </trkpt>
      <trkpt lat="45.91128" lon="4.75101">
        <ele>179</ele>
        <time>2018-05-08T08:30:28Z</time>
      </trkpt>
      <trkpt lat="45.91123" lon="4.751">
        <ele>179</ele>
        <time>2018-05-08T08:30:29Z</time>
      </trkpt>
      <trkpt lat="45.91114" lon="4.751">
        <ele>179</ele>
        <time>2018-05-08T08:30:31Z</time>
      </trkpt>
      <trkpt lat="45.9111" lon="4.75098">
        <ele>179</ele>
        <time>2018-05-08T08:30:32Z</time>
      </trkpt>
      <trkpt lat="45.91102" lon="4.75092">
        <ele>180</ele>
        <time>2018-05-08T08:30:34Z</time>
      </trkpt>
      <trkpt lat="45.91097" lon="4.7509">
        <ele>180</ele>
        <time>2018-05-08T08:30:35Z</time>
      </trkpt>
      <trkpt lat="45.91093" lon="4.75089">
        <ele>180</ele>
        <time>2018-05-08T08:30:36Z</time>
      </trkpt>
      <trkpt lat="45.91088" lon="4.75087">
        <ele>180</ele>
        <time>2018-05-08T08:30:37Z</time>
      </trkpt>
      <trkpt lat="45.91083" lon="4.75085">
        <ele>180</ele>
        <time>2018-05-08T08:30:38Z</time>
      </trkpt>
      <trkpt lat="45.91078" lon="4.75084">
        <ele>180</ele>
        <time>2018-05-08T08:30:39Z</time>
      </trkpt>
      <trkpt lat="45.9107" lon="4.75079">
        <ele>179</ele>
        <time>2018-05-08T08:30:41Z</time>
      </trkpt>
      <trkpt lat="45.91065" lon="4.75077">
        <ele>179</ele>
        <time>2018-05-08T08:30:42Z</time>
      </trkpt>
      <trkpt lat="45.91057" lon="4.75074">
        <ele>179</ele>
        <time>2018-05-08T08:30:44Z</time>
      </trkpt>
      <trkpt lat="45.91052" lon="4.75072">
        <ele>179</ele>
        <time>2018-05-08T08:30:45Z</time>
      </trkpt>
      <trkpt lat="45.91047" lon="4.75069">
        <ele>179</ele>
        <time>2018-05-08T08:30:46Z</time>
      </trkpt>
      <trkpt lat="45.91043" lon="4.75068">
        <ele>179</ele>
        <time>2018-05-08T08:30:47Z</time>
      </trkpt>
      <trkpt lat="45.91039" lon="4.75065">
        <ele>179</ele>
        <time>2018-05-08T08:30:48Z</time>
      </trkpt>
      <trkpt lat="45.91034" lon="4.75063">
        <ele>179</ele>
        <time>2018-05-08T08:30:49Z</time>
      </trkpt>
      <trkpt lat="45.91029" lon="4.75061">
        <ele>179</ele>
        <time>2018-05-08T08:30:50Z</time>
      </trkpt>
      <trkpt lat="45.91025" lon="4.75059">
        <ele>179</ele>
        <time>2018-05-08T08:30:51Z</time>
      </trkpt>
      <trkpt lat="45.91017" lon="4.75059">
        <ele>179</ele>
        <time>2018-05-08T08:30:53Z</time>
      </trkpt>
      <trkpt lat="45.91011" lon="4.75057">
        <ele>179</ele>
        <time>2018-05-08T08:30:54Z</time>
      </trkpt>
      <trkpt lat="45.91006" lon="4.75054">
        <ele>179</ele>
        <time>2018-05-08T08:30:55Z</time>
      </trkpt>
      <trkpt lat="45.91001" lon="4.75053">
        <ele>179</ele>
        <time>2018-05-08T08:30:56Z</time>
      </trkpt>
      <trkpt lat="45.90997" lon="4.75052">
        <ele>179</ele>
        <time>2018-05-08T08:30:57Z</time>
      </trkpt>
      <trkpt lat="45.90992" lon="4.75049">
        <ele>179</ele>
        <time>2018-05-08T08:30:58Z</time>
      </trkpt>
      <trkpt lat="45.90987" lon="4.75047">
        <ele>179</ele>
        <time>2018-05-08T08:30:59Z</time>
      </trkpt>
      <trkpt lat="45.90983" lon="4.75045">
        <ele>179</ele>
        <time>2018-05-08T08:31:00Z</time>
      </trkpt>
      <trkpt lat="45.90978" lon="4.75043">
        <ele>179</ele>
        <time>2018-05-08T08:31:01Z</time>
      </trkpt>
      <trkpt lat="45.90974" lon="4.75041">
        <ele>179</ele>
        <time>2018-05-08T08:31:02Z</time>
      </trkpt>
      <trkpt lat="45.90969" lon="4.75039">
        <ele>179</ele>
        <time>2018-05-08T08:31:03Z</time>
      </trkpt>
      <trkpt lat="45.90963" lon="4.75038">
        <ele>179</ele>
        <time>2018-05-08T08:31:04Z</time>
      </trkpt>
      <trkpt lat="45.90955" lon="4.75034">
        <ele>179</ele>
        <time>2018-05-08T08:31:06Z</time>
      </trkpt>
      <trkpt lat="45.90951" lon="4.75032">
        <ele>179</ele>
        <time>2018-05-08T08:31:07Z</time>
      </trkpt>
      <trkpt lat="45.90947" lon="4.7503">
        <ele>179</ele>
        <time>2018-05-08T08:31:08Z</time>
      </trkpt>
      <trkpt lat="45.90942" lon="4.75028">
        <ele>179</ele>
        <time>2018-05-08T08:31:09Z</time>
      </trkpt>
      <trkpt lat="45.90937" lon="4.75026">
        <ele>179</ele>
        <time>2018-05-08T08:31:10Z</time>
      </trkpt>
      <trkpt lat="45.90932" lon="4.75025">
        <ele>179</ele>
        <time>2018-05-08T08:31:11Z</time>
      </trkpt>
      <trkpt lat="45.90927" lon="4.75023">
        <ele>179</ele>
        <time>2018-05-08T08:31:12Z</time>
      </trkpt>
      <trkpt lat="45.90922" lon="4.75022">
        <ele>179</ele>
        <time>2018-05-08T08:31:13Z</time>
      </trkpt>
      <trkpt lat="45.90917" lon="4.7502">
        <ele>179</ele>
        <time>2018-05-08T08:31:14Z</time>
      </trkpt>
      <trkpt lat="45.90913" lon="4.75018">
        <ele>179</ele>
        <time>2018-05-08T08:31:15Z</time>
      </trkpt>
      <trkpt lat="45.90907" lon="4.75016">
        <ele>179</ele>
        <time>2018-05-08T08:31:16Z</time>
      </trkpt>
      <trkpt lat="45.90903" lon="4.75014">
        <ele>179</ele>
        <time>2018-05-08T08:31:17Z</time>
      </trkpt>
      <trkpt lat="45.90898" lon="4.75013">
        <ele>179</ele>
        <time>2018-05-08T08:31:18Z</time>
      </trkpt>
      <trkpt lat="45.90893" lon="4.7501">
        <ele>179</ele>
        <time>2018-05-08T08:31:19Z</time>
      </trkpt>
      <trkpt lat="45.90886" lon="4.75008">
        <ele>179</ele>
        <time>2018-05-08T08:31:21Z</time>
      </trkpt>
      <trkpt lat="45.90881" lon="4.75006">
        <ele>179</ele>
        <time>2018-05-08T08:31:22Z</time>
      </trkpt>
      <trkpt lat="45.90877" lon="4.75004">
        <ele>179</ele>
        <time>2018-05-08T08:31:23Z</time>
      </trkpt>
      <trkpt lat="45.90873" lon="4.75001">
        <ele>179</ele>
        <time>2018-05-08T08:31:24Z</time>
      </trkpt>
      <trkpt lat="45.90869" lon="4.75">
        <ele>179</ele>
        <time>2018-05-08T08:31:25Z</time>
      </trkpt>
      <trkpt lat="45.90863" lon="4.74998">
        <ele>179</ele>
        <time>2018-05-08T08:31:26Z</time>
      </trkpt>
      <trkpt lat="45.90858" lon="4.74997">
        <ele>179</ele>
        <time>2018-05-08T08:31:27Z</time>
      </trkpt>
      <trkpt lat="45.90854" lon="4.74995">
        <ele>179</ele>
        <time>2018-05-08T08:31:28Z</time>
      </trkpt>
      <trkpt lat="45.90849" lon="4.74993">
        <ele>179</ele>
        <time>2018-05-08T08:31:29Z</time>
      </trkpt>
      <trkpt lat="45.90844" lon="4.7499">
        <ele>179</ele>
        <time>2018-05-08T08:31:30Z</time>
      </trkpt>
      <trkpt lat="45.90836" lon="4.74987">
        <ele>179</ele>
        <time>2018-05-08T08:31:32Z</time>
      </trkpt>
      <trkpt lat="45.90831" lon="4.74985">
        <ele>179</ele>
        <time>2018-05-08T08:31:33Z</time>
      </trkpt>
      <trkpt lat="45.90827" lon="4.74984">
        <ele>179</ele>
        <time>2018-05-08T08:31:34Z</time>
      </trkpt>
      <trkpt lat="45.90821" lon="4.74982">
        <ele>179</ele>
        <time>2018-05-08T08:31:35Z</time>
      </trkpt>
      <trkpt lat="45.90817" lon="4.7498">
        <ele>179</ele>
        <time>2018-05-08T08:31:36Z</time>
      </trkpt>
      <trkpt lat="45.90812" lon="4.74978">
        <ele>179</ele>
        <time>2018-05-08T08:31:37Z</time>
      </trkpt>
      <trkpt lat="45.90806" lon="4.74975">
        <ele>179</ele>
        <time>2018-05-08T08:31:38Z</time>
      </trkpt>
      <trkpt lat="45.90802" lon="4.74973">
        <ele>179</ele>
        <time>2018-05-08T08:31:39Z</time>
      </trkpt>
      <trkpt lat="45.90797" lon="4.74972">
        <ele>179</ele>
        <time>2018-05-08T08:31:40Z</time>
      </trkpt>
      <trkpt lat="45.90792" lon="4.74969">
        <ele>179</ele>
        <time>2018-05-08T08:31:41Z</time>
      </trkpt>
      <trkpt lat="45.90788" lon="4.74968">
        <ele>180</ele>
        <time>2018-05-08T08:31:42Z</time>
      </trkpt>
      <trkpt lat="45.90783" lon="4.74966">
        <ele>180</ele>
        <time>2018-05-08T08:31:43Z</time>
      </trkpt>
      <trkpt lat="45.90779" lon="4.74964">
        <ele>180</ele>
        <time>2018-05-08T08:31:44Z</time>
      </trkpt>
      <trkpt lat="45.90775" lon="4.74962">
        <ele>180</ele>
        <time>2018-05-08T08:31:45Z</time>
      </trkpt>
      <trkpt lat="45.9077" lon="4.74959">
        <ele>180</ele>
        <time>2018-05-08T08:31:46Z</time>
      </trkpt>
      <trkpt lat="45.90765" lon="4.74958">
        <ele>180</ele>
        <time>2018-05-08T08:31:47Z</time>
      </trkpt>
      <trkpt lat="45.90761" lon="4.74956">
        <ele>180</ele>
        <time>2018-05-08T08:31:48Z</time>
      </trkpt>
      <trkpt lat="45.90756" lon="4.74954">
        <ele>180</ele>
        <time>2018-05-08T08:31:49Z</time>
      </trkpt>
      <trkpt lat="45.90751" lon="4.74951">
        <ele>180</ele>
        <time>2018-05-08T08:31:50Z</time>
      </trkpt>
      <trkpt lat="45.90748" lon="4.7495">
        <ele>181</ele>
        <time>2018-05-08T08:31:51Z</time>
      </trkpt>
      <trkpt lat="45.90743" lon="4.74948">
        <ele>181</ele>
        <time>2018-05-08T08:31:52Z</time>
      </trkpt>
      <trkpt lat="45.90738" lon="4.74948">
        <ele>181</ele>
        <time>2018-05-08T08:31:53Z</time>
      </trkpt>
      <trkpt lat="45.90731" lon="4.74944">
        <ele>181</ele>
        <time>2018-05-08T08:31:55Z</time>
      </trkpt>
      <trkpt lat="45.90727" lon="4.74943">
        <ele>181</ele>
        <time>2018-05-08T08:31:56Z</time>
      </trkpt>
      <trkpt lat="45.90719" lon="4.74941">
        <ele>181</ele>
        <time>2018-05-08T08:31:58Z</time>
      </trkpt>
      <trkpt lat="45.90714" lon="4.74942">
        <ele>181</ele>
        <time>2018-05-08T08:31:59Z</time>
      </trkpt>
      <trkpt lat="45.9071" lon="4.74943">
        <ele>181</ele>
        <time>2018-05-08T08:32:00Z</time>
      </trkpt>
      <trkpt lat="45.90705" lon="4.74945">
        <ele>181</ele>
        <time>2018-05-08T08:32:01Z</time>
      </trkpt>
      <trkpt lat="45.90698" lon="4.74949">
        <ele>181</ele>
        <time>2018-05-08T08:32:03Z</time>
      </trkpt>
      <trkpt lat="45.90694" lon="4.74951">
        <ele>181</ele>
        <time>2018-05-08T08:32:04Z</time>
      </trkpt>
      <trkpt lat="45.90686" lon="4.74955">
        <ele>181</ele>
        <time>2018-05-08T08:32:06Z</time>
      </trkpt>
      <trkpt lat="45.90682" lon="4.74957">
        <ele>182</ele>
        <time>2018-05-08T08:32:07Z</time>
      </trkpt>
      <trkpt lat="45.90677" lon="4.74959">
        <ele>182</ele>
        <time>2018-05-08T08:32:08Z</time>
      </trkpt>
      <trkpt lat="45.90673" lon="4.74961">
        <ele>182</ele>
        <time>2018-05-08T08:32:09Z</time>
      </trkpt>
      <trkpt lat="45.90668" lon="4.74963">
        <ele>182</ele>
        <time>2018-05-08T08:32:10Z</time>
      </trkpt>
      <trkpt lat="45.90663" lon="4.74964">
        <ele>183</ele>
        <time>2018-05-08T08:32:11Z</time>
      </trkpt>
      <trkpt lat="45.90656" lon="4.74971">
        <ele>183</ele>
        <time>2018-05-08T08:32:13Z</time>
      </trkpt>
      <trkpt lat="45.90653" lon="4.74973">
        <ele>183</ele>
        <time>2018-05-08T08:32:14Z</time>
      </trkpt>
      <trkpt lat="45.90649" lon="4.74974">
        <ele>183</ele>
        <time>2018-05-08T08:32:15Z</time>
      </trkpt>
      <trkpt lat="45.90644" lon="4.74975">
        <ele>183</ele>
        <time>2018-05-08T08:32:16Z</time>
      </trkpt>
      <trkpt lat="45.90635" lon="4.74975">
        <ele>183</ele>
        <time>2018-05-08T08:32:18Z</time>
      </trkpt>
      <trkpt lat="45.90632" lon="4.74976">
        <ele>183</ele>
        <time>2018-05-08T08:32:19Z</time>
      </trkpt>
      <trkpt lat="45.90628" lon="4.74977">
        <ele>183</ele>
        <time>2018-05-08T08:32:20Z</time>
      </trkpt>
      <trkpt lat="45.90624" lon="4.74978">
        <ele>184</ele>
        <time>2018-05-08T08:32:21Z</time>
      </trkpt>
      <trkpt lat="45.90619" lon="4.74979">
        <ele>184</ele>
        <time>2018-05-08T08:32:22Z</time>
      </trkpt>
      <trkpt lat="45.90615" lon="4.7498">
        <ele>184</ele>
        <time>2018-05-08T08:32:23Z</time>
      </trkpt>
      <trkpt lat="45.90606" lon="4.7498">
        <ele>184</ele>
        <time>2018-05-08T08:32:25Z</time>
      </trkpt>
      <trkpt lat="45.90602" lon="4.74981">
        <ele>184</ele>
        <time>2018-05-08T08:32:26Z</time>
      </trkpt>
      <trkpt lat="45.90593" lon="4.74982">
        <ele>184</ele>
        <time>2018-05-08T08:32:28Z</time>
      </trkpt>
      <trkpt lat="45.90589" lon="4.74983">
        <ele>184</ele>
        <time>2018-05-08T08:32:29Z</time>
      </trkpt>
      <trkpt lat="45.90581" lon="4.74984">
        <ele>185</ele>
        <time>2018-05-08T08:32:31Z</time>
      </trkpt>
      <trkpt lat="45.90576" lon="4.74985">
        <ele>185</ele>
        <time>2018-05-08T08:32:32Z</time>
      </trkpt>
      <trkpt lat="45.90572" lon="4.74985">
        <ele>185</ele>
        <time>2018-05-08T08:32:33Z</time>
      </trkpt>
      <trkpt lat="45.90567" lon="4.74985">
        <ele>185</ele>
        <time>2018-05-08T08:32:34Z</time>
      </trkpt>
      <trkpt lat="45.90562" lon="4.74986">
        <ele>185</ele>
        <time>2018-05-08T08:32:35Z</time>
      </trkpt>
      <trkpt lat="45.90558" lon="4.74987">
        <ele>185</ele>
        <time>2018-05-08T08:32:36Z</time>
      </trkpt>
      <trkpt lat="45.90553" lon="4.74988">
        <ele>185</ele>
        <time>2018-05-08T08:32:37Z</time>
      </trkpt>
      <trkpt lat="45.90549" lon="4.74989">
        <ele>185</ele>
        <time>2018-05-08T08:32:38Z</time>
      </trkpt>
      <trkpt lat="45.9054" lon="4.74991">
        <ele>185</ele>
        <time>2018-05-08T08:32:40Z</time>
      </trkpt>
      <trkpt lat="45.90536" lon="4.74991">
        <ele>185</ele>
        <time>2018-05-08T08:32:41Z</time>
      </trkpt>
      <trkpt lat="45.90528" lon="4.74992">
        <ele>185</ele>
        <time>2018-05-08T08:32:43Z</time>
      </trkpt>
      <trkpt lat="45.90524" lon="4.74994">
        <ele>185</ele>
        <time>2018-05-08T08:32:44Z</time>
      </trkpt>
      <trkpt lat="45.90516" lon="4.74996">
        <ele>185</ele>
        <time>2018-05-08T08:32:46Z</time>
      </trkpt>
      <trkpt lat="45.90511" lon="4.74996">
        <ele>185</ele>
        <time>2018-05-08T08:32:47Z</time>
      </trkpt>
      <trkpt lat="45.90503" lon="4.74998">
        <ele>186</ele>
        <time>2018-05-08T08:32:49Z</time>
      </trkpt>
      <trkpt lat="45.90499" lon="4.74998">
        <ele>186</ele>
        <time>2018-05-08T08:32:50Z</time>
      </trkpt>
      <trkpt lat="45.90491" lon="4.74999">
        <ele>186</ele>
        <time>2018-05-08T08:32:52Z</time>
      </trkpt>
      <trkpt lat="45.90487" lon="4.75">
        <ele>186</ele>
        <time>2018-05-08T08:32:53Z</time>
      </trkpt>
      <trkpt lat="45.90478" lon="4.75001">
        <ele>187</ele>
        <time>2018-05-08T08:32:55Z</time>
      </trkpt>
      <trkpt lat="45.90474" lon="4.75001">
        <ele>187</ele>
        <time>2018-05-08T08:32:56Z</time>
      </trkpt>
      <trkpt lat="45.90466" lon="4.75002">
        <ele>187</ele>
        <time>2018-05-08T08:32:58Z</time>
      </trkpt>
      <trkpt lat="45.90462" lon="4.75003">
        <ele>187</ele>
        <time>2018-05-08T08:32:59Z</time>
      </trkpt>
      <trkpt lat="45.90453" lon="4.75004">
        <ele>187</ele>
        <time>2018-05-08T08:33:01Z</time>
      </trkpt>
      <trkpt lat="45.90449" lon="4.75004">
        <ele>187</ele>
        <time>2018-05-08T08:33:02Z</time>
      </trkpt>
      <trkpt lat="45.9044" lon="4.75006">
        <ele>188</ele>
        <time>2018-05-08T08:33:04Z</time>
      </trkpt>
      <trkpt lat="45.90436" lon="4.75007">
        <ele>188</ele>
        <time>2018-05-08T08:33:05Z</time>
      </trkpt>
      <trkpt lat="45.90428" lon="4.75009">
        <ele>188</ele>
        <time>2018-05-08T08:33:07Z</time>
      </trkpt>
      <trkpt lat="45.90423" lon="4.7501">
        <ele>188</ele>
        <time>2018-05-08T08:33:08Z</time>
      </trkpt>
      <trkpt lat="45.90415" lon="4.75013">
        <ele>188</ele>
        <time>2018-05-08T08:33:10Z</time>
      </trkpt>
      <trkpt lat="45.9041" lon="4.75014">
        <ele>188</ele>
        <time>2018-05-08T08:33:11Z</time>
      </trkpt>
      <trkpt lat="45.90402" lon="4.75017">
        <ele>188</ele>
        <time>2018-05-08T08:33:13Z</time>
      </trkpt>
      <trkpt lat="45.90398" lon="4.75019">
        <ele>188</ele>
        <time>2018-05-08T08:33:14Z</time>
      </trkpt>
      <trkpt lat="45.90389" lon="4.75021">
        <ele>188</ele>
        <time>2018-05-08T08:33:16Z</time>
      </trkpt>
      <trkpt lat="45.90385" lon="4.75022">
        <ele>188</ele>
        <time>2018-05-08T08:33:17Z</time>
      </trkpt>
      <trkpt lat="45.90376" lon="4.75024">
        <ele>188</ele>
        <time>2018-05-08T08:33:19Z</time>
      </trkpt>
      <trkpt lat="45.90372" lon="4.75025">
        <ele>188</ele>
        <time>2018-05-08T08:33:20Z</time>
      </trkpt>
      <trkpt lat="45.90363" lon="4.75028">
        <ele>188</ele>
        <time>2018-05-08T08:33:22Z</time>
      </trkpt>
      <trkpt lat="45.90359" lon="4.75029">
        <ele>188</ele>
        <time>2018-05-08T08:33:23Z</time>
      </trkpt>
      <trkpt lat="45.90351" lon="4.75031">
        <ele>188</ele>
        <time>2018-05-08T08:33:25Z</time>
      </trkpt>
      <trkpt lat="45.90347" lon="4.75032">
        <ele>188</ele>
        <time>2018-05-08T08:33:26Z</time>
      </trkpt>
      <trkpt lat="45.90339" lon="4.75034">
        <ele>188</ele>
        <time>2018-05-08T08:33:28Z</time>
      </trkpt>
      <trkpt lat="45.90335" lon="4.75035">
        <ele>188</ele>
        <time>2018-05-08T08:33:29Z</time>
      </trkpt>
      <trkpt lat="45.90327" lon="4.75037">
        <ele>189</ele>
        <time>2018-05-08T08:33:31Z</time>
      </trkpt>
      <trkpt lat="45.90323" lon="4.75038">
        <ele>189</ele>
        <time>2018-05-08T08:33:32Z</time>
      </trkpt>
      <trkpt lat="45.90315" lon="4.75041">
        <ele>189</ele>
        <time>2018-05-08T08:33:34Z</time>
      </trkpt>
      <trkpt lat="45.90311" lon="4.75042">
        <ele>189</ele>
        <time>2018-05-08T08:33:35Z</time>
      </trkpt>
      <trkpt lat="45.90302" lon="4.75045">
        <ele>189</ele>
        <time>2018-05-08T08:33:37Z</time>
      </trkpt>
      <trkpt lat="45.90298" lon="4.75046">
        <ele>189</ele>
        <time>2018-05-08T08:33:38Z</time>
      </trkpt>
      <trkpt lat="45.90289" lon="4.75047">
        <ele>190</ele>
        <time>2018-05-08T08:33:40Z</time>
      </trkpt>
      <trkpt lat="45.90285" lon="4.75048">
        <ele>190</ele>
        <time>2018-05-08T08:33:41Z</time>
      </trkpt>
      <trkpt lat="45.90276" lon="4.7505">
        <ele>190</ele>
        <time>2018-05-08T08:33:43Z</time>
      </trkpt>
      <trkpt lat="45.90272" lon="4.75051">
        <ele>190</ele>
        <time>2018-05-08T08:33:44Z</time>
      </trkpt>
      <trkpt lat="45.90264" lon="4.75053">
        <ele>190</ele>
        <time>2018-05-08T08:33:46Z</time>
      </trkpt>
      <trkpt lat="45.90259" lon="4.75054">
        <ele>190</ele>
        <time>2018-05-08T08:33:47Z</time>
      </trkpt>
      <trkpt lat="45.90251" lon="4.75056">
        <ele>190</ele>
        <time>2018-05-08T08:33:49Z</time>
      </trkpt>
      <trkpt lat="45.90247" lon="4.75057">
        <ele>191</ele>
        <time>2018-05-08T08:33:50Z</time>
      </trkpt>
      <trkpt lat="45.9024" lon="4.75059">
        <ele>191</ele>
        <time>2018-05-08T08:33:52Z</time>
      </trkpt>
      <trkpt lat="45.90236" lon="4.7506">
        <ele>191</ele>
        <time>2018-05-08T08:33:53Z</time>
      </trkpt>
      <trkpt lat="45.90229" lon="4.75062">
        <ele>191</ele>
        <time>2018-05-08T08:33:55Z</time>
      </trkpt>
      <trkpt lat="45.90225" lon="4.75062">
        <ele>191</ele>
        <time>2018-05-08T08:33:56Z</time>
      </trkpt>
      <trkpt lat="45.90218" lon="4.75065">
        <ele>191</ele>
        <time>2018-05-08T08:33:58Z</time>
      </trkpt>
      <trkpt lat="45.90214" lon="4.75066">
        <ele>191</ele>
        <time>2018-05-08T08:33:59Z</time>
      </trkpt>
      <trkpt lat="45.90206" lon="4.75068">
        <ele>191</ele>
        <time>2018-05-08T08:34:02Z</time>
      </trkpt>
      <trkpt lat="45.90204" lon="4.75068">
        <ele>191</ele>
        <time>2018-05-08T08:34:03Z</time>
      </trkpt>
      <trkpt lat="45.90195" lon="4.75071">
        <ele>191</ele>
        <time>2018-05-08T08:34:06Z</time>
      </trkpt>
      <trkpt lat="45.90192" lon="4.75072">
        <ele>191</ele>
        <time>2018-05-08T08:34:07Z</time>
      </trkpt>
      <trkpt lat="45.90189" lon="4.75073">
        <ele>191</ele>
        <time>2018-05-08T08:34:08Z</time>
      </trkpt>
      <trkpt lat="45.90179" lon="4.75078">
        <ele>191</ele>
        <time>2018-05-08T08:34:09Z</time>
      </trkpt>
      <trkpt lat="45.90173" lon="4.75084">
        <ele>191</ele>
        <time>2018-05-08T08:34:11Z</time>
      </trkpt>
      <trkpt lat="45.9017" lon="4.75087">
        <ele>191</ele>
        <time>2018-05-08T08:34:12Z</time>
      </trkpt>
      <trkpt lat="45.90163" lon="4.7509">
        <ele>192</ele>
        <time>2018-05-08T08:34:14Z</time>
      </trkpt>
      <trkpt lat="45.90159" lon="4.75089">
        <ele>192</ele>
        <time>2018-05-08T08:34:15Z</time>
      </trkpt>
      <trkpt lat="45.90152" lon="4.75083">
        <ele>191</ele>
        <time>2018-05-08T08:34:17Z</time>
      </trkpt>
      <trkpt lat="45.90149" lon="4.75079">
        <ele>191</ele>
        <time>2018-05-08T08:34:18Z</time>
      </trkpt>
      <trkpt lat="45.90142" lon="4.75073">
        <ele>192</ele>
        <time>2018-05-08T08:34:20Z</time>
      </trkpt>
      <trkpt lat="45.90139" lon="4.7507">
        <ele>192</ele>
        <time>2018-05-08T08:34:21Z</time>
      </trkpt>
      <trkpt lat="45.90132" lon="4.75065">
        <ele>192</ele>
        <time>2018-05-08T08:34:23Z</time>
      </trkpt>
      <trkpt lat="45.90129" lon="4.75062">
        <ele>192</ele>
        <time>2018-05-08T08:34:24Z</time>
      </trkpt>
      <trkpt lat="45.90122" lon="4.75057">
        <ele>192</ele>
        <time>2018-05-08T08:34:26Z</time>
      </trkpt>
      <trkpt lat="45.90118" lon="4.75055">
        <ele>192</ele>
        <time>2018-05-08T08:34:27Z</time>
      </trkpt>
      <trkpt lat="45.90109" lon="4.75051">
        <ele>192</ele>
        <time>2018-05-08T08:34:29Z</time>
      </trkpt>
      <trkpt lat="45.90105" lon="4.75048">
        <ele>192</ele>
        <time>2018-05-08T08:34:30Z</time>
      </trkpt>
      <trkpt lat="45.90096" lon="4.75043">
        <ele>192</ele>
        <time>2018-05-08T08:34:32Z</time>
      </trkpt>
      <trkpt lat="45.90092" lon="4.75041">
        <ele>192</ele>
        <time>2018-05-08T08:34:33Z</time>
      </trkpt>
      <trkpt lat="45.90087" lon="4.7504">
        <ele>192</ele>
        <time>2018-05-08T08:34:34Z</time>
      </trkpt>
      <trkpt lat="45.90082" lon="4.75038">
        <ele>193</ele>
        <time>2018-05-08T08:34:35Z</time>
      </trkpt>
      <trkpt lat="45.90078" lon="4.75036">
        <ele>193</ele>
        <time>2018-05-08T08:34:36Z</time>
      </trkpt>
      <trkpt lat="45.90074" lon="4.75034">
        <ele>193</ele>
        <time>2018-05-08T08:34:37Z</time>
      </trkpt>
      <trkpt lat="45.90069" lon="4.75032">
        <ele>193</ele>
        <time>2018-05-08T08:34:38Z</time>
      </trkpt>
      <trkpt lat="45.90065" lon="4.75032">
        <ele>193</ele>
        <time>2018-05-08T08:34:39Z</time>
      </trkpt>
      <trkpt lat="45.90061" lon="4.7503">
        <ele>193</ele>
        <time>2018-05-08T08:34:40Z</time>
      </trkpt>
      <trkpt lat="45.90056" lon="4.75028">
        <ele>193</ele>
        <time>2018-05-08T08:34:41Z</time>
      </trkpt>
      <trkpt lat="45.90051" lon="4.75026">
        <ele>193</ele>
        <time>2018-05-08T08:34:42Z</time>
      </trkpt>
      <trkpt lat="45.90046" lon="4.75023">
        <ele>193</ele>
        <time>2018-05-08T08:34:43Z</time>
      </trkpt>
      <trkpt lat="45.90041" lon="4.75021">
        <ele>193</ele>
        <time>2018-05-08T08:34:44Z</time>
      </trkpt>
      <trkpt lat="45.90036" lon="4.7502">
        <ele>193</ele>
        <time>2018-05-08T08:34:45Z</time>
      </trkpt>
      <trkpt lat="45.9003" lon="4.75019">
        <ele>193</ele>
        <time>2018-05-08T08:34:46Z</time>
      </trkpt>
      <trkpt lat="45.90025" lon="4.75016">
        <ele>193</ele>
        <time>2018-05-08T08:34:47Z</time>
      </trkpt>
      <trkpt lat="45.90017" lon="4.75012">
        <ele>193</ele>
        <time>2018-05-08T08:34:49Z</time>
      </trkpt>
      <trkpt lat="45.90012" lon="4.75011">
        <ele>193</ele>
        <time>2018-05-08T08:34:50Z</time>
      </trkpt>
      <trkpt lat="45.90008" lon="4.75008">
        <ele>192</ele>
        <time>2018-05-08T08:34:51Z</time>
      </trkpt>
      <trkpt lat="45.90003" lon="4.75007">
        <ele>192</ele>
        <time>2018-05-08T08:34:52Z</time>
      </trkpt>
      <trkpt lat="45.89998" lon="4.75006">
        <ele>192</ele>
        <time>2018-05-08T08:34:53Z</time>
      </trkpt>
      <trkpt lat="45.89993" lon="4.75006">
        <ele>193</ele>
        <time>2018-05-08T08:34:54Z</time>
      </trkpt>
      <trkpt lat="45.89988" lon="4.75005">
        <ele>193</ele>
        <time>2018-05-08T08:34:55Z</time>
      </trkpt>
      <trkpt lat="45.89984" lon="4.75004">
        <ele>193</ele>
        <time>2018-05-08T08:34:56Z</time>
      </trkpt>
      <trkpt lat="45.89978" lon="4.75003">
        <ele>193</ele>
        <time>2018-05-08T08:34:57Z</time>
      </trkpt>
      <trkpt lat="45.89974" lon="4.75001">
        <ele>193</ele>
        <time>2018-05-08T08:34:58Z</time>
      </trkpt>
      <trkpt lat="45.89968" lon="4.75">
        <ele>193</ele>
        <time>2018-05-08T08:34:59Z</time>
      </trkpt>
      <trkpt lat="45.89963" lon="4.74998">
        <ele>193</ele>
        <time>2018-05-08T08:35:00Z</time>
      </trkpt>
      <trkpt lat="45.89958" lon="4.74997">
        <ele>193</ele>
        <time>2018-05-08T08:35:01Z</time>
      </trkpt>
      <trkpt lat="45.89953" lon="4.74996">
        <ele>193</ele>
        <time>2018-05-08T08:35:02Z</time>
      </trkpt>
      <trkpt lat="45.89945" lon="4.74993">
        <ele>193</ele>
        <time>2018-05-08T08:35:04Z</time>
      </trkpt>
      <trkpt lat="45.8994" lon="4.74994">
        <ele>193</ele>
        <time>2018-05-08T08:35:05Z</time>
      </trkpt>
      <trkpt lat="45.89932" lon="4.7499">
        <ele>193</ele>
        <time>2018-05-08T08:35:07Z</time>
      </trkpt>
      <trkpt lat="45.89928" lon="4.74988">
        <ele>193</ele>
        <time>2018-05-08T08:35:08Z</time>
      </trkpt>
      <trkpt lat="45.89924" lon="4.74986">
        <ele>193</ele>
        <time>2018-05-08T08:35:09Z</time>
      </trkpt>
      <trkpt lat="45.89918" lon="4.74985">
        <ele>193</ele>
        <time>2018-05-08T08:35:10Z</time>
      </trkpt>
      <trkpt lat="45.89914" lon="4.74983">
        <ele>194</ele>
        <time>2018-05-08T08:35:11Z</time>
      </trkpt>
      <trkpt lat="45.89909" lon="4.74982">
        <ele>194</ele>
        <time>2018-05-08T08:35:12Z</time>
      </trkpt>
      <trkpt lat="45.89904" lon="4.74982">
        <ele>194</ele>
        <time>2018-05-08T08:35:13Z</time>
      </trkpt>
      <trkpt lat="45.899" lon="4.7498">
        <ele>194</ele>
        <time>2018-05-08T08:35:14Z</time>
      </trkpt>
      <trkpt lat="45.89895" lon="4.7498">
        <ele>194</ele>
        <time>2018-05-08T08:35:15Z</time>
      </trkpt>
      <trkpt lat="45.89891" lon="4.74978">
        <ele>194</ele>
        <time>2018-05-08T08:35:16Z</time>
      </trkpt>
      <trkpt lat="45.89883" lon="4.74975">
        <ele>194</ele>
        <time>2018-05-08T08:35:18Z</time>
      </trkpt>
      <trkpt lat="45.89878" lon="4.74973">
        <ele>194</ele>
        <time>2018-05-08T08:35:19Z</time>
      </trkpt>
      <trkpt lat="45.8987" lon="4.74971">
        <ele>194</ele>
        <time>2018-05-08T08:35:21Z</time>
      </trkpt>
      <trkpt lat="45.89865" lon="4.74971">
        <ele>194</ele>
        <time>2018-05-08T08:35:22Z</time>
      </trkpt>
      <trkpt lat="45.8986" lon="4.74972">
        <ele>194</ele>
        <time>2018-05-08T08:35:23Z</time>
      </trkpt>
      <trkpt lat="45.89856" lon="4.74972">
        <ele>194</ele>
        <time>2018-05-08T08:35:24Z</time>
      </trkpt>
      <trkpt lat="45.89851" lon="4.74971">
        <ele>194</ele>
        <time>2018-05-08T08:35:25Z</time>
      </trkpt>
      <trkpt lat="45.89846" lon="4.7497">
        <ele>194</ele>
        <time>2018-05-08T08:35:26Z</time>
      </trkpt>
      <trkpt lat="45.89841" lon="4.74968">
        <ele>194</ele>
        <time>2018-05-08T08:35:27Z</time>
      </trkpt>
      <trkpt lat="45.89836" lon="4.74966">
        <ele>194</ele>
        <time>2018-05-08T08:35:28Z</time>
      </trkpt>
      <trkpt lat="45.8983" lon="4.74966">
        <ele>194</ele>
        <time>2018-05-08T08:35:29Z</time>
      </trkpt>
      <trkpt lat="45.89825" lon="4.74964">
        <ele>194</ele>
        <time>2018-05-08T08:35:30Z</time>
      </trkpt>
      <trkpt lat="45.8982" lon="4.74962">
        <ele>195</ele>
        <time>2018-05-08T08:35:31Z</time>
      </trkpt>
      <trkpt lat="45.89815" lon="4.74961">
        <ele>195</ele>
        <time>2018-05-08T08:35:32Z</time>
      </trkpt>
      <trkpt lat="45.89806" lon="4.74959">
        <ele>195</ele>
        <time>2018-05-08T08:35:34Z</time>
      </trkpt>
      <trkpt lat="45.898" lon="4.74959">
        <ele>195</ele>
        <time>2018-05-08T08:35:35Z</time>
      </trkpt>
      <trkpt lat="45.89795" lon="4.74956">
        <ele>195</ele>
        <time>2018-05-08T08:35:36Z</time>
      </trkpt>
      <trkpt lat="45.8979" lon="4.74953">
        <ele>195</ele>
        <time>2018-05-08T08:35:37Z</time>
      </trkpt>
      <trkpt lat="45.89784" lon="4.74952">
        <ele>195</ele>
        <time>2018-05-08T08:35:38Z</time>
      </trkpt>
      <trkpt lat="45.8978" lon="4.74949">
        <ele>195</ele>
        <time>2018-05-08T08:35:39Z</time>
      </trkpt>
      <trkpt lat="45.89771" lon="4.74946">
        <ele>195</ele>
        <time>2018-05-08T08:35:41Z</time>
      </trkpt>
      <trkpt lat="45.89766" lon="4.74944">
        <ele>195</ele>
        <time>2018-05-08T08:35:42Z</time>
      </trkpt>
      <trkpt lat="45.89762" lon="4.74942">
        <ele>195</ele>
        <time>2018-05-08T08:35:43Z</time>
      </trkpt>
      <trkpt lat="45.89756" lon="4.74941">
        <ele>195</ele>
        <time>2018-05-08T08:35:44Z</time>
      </trkpt>
      <trkpt lat="45.89751" lon="4.74938">
        <ele>195</ele>
        <time>2018-05-08T08:35:45Z</time>
      </trkpt>
      <trkpt lat="45.89746" lon="4.74935">
        <ele>196</ele>
        <time>2018-05-08T08:35:46Z</time>
      </trkpt>
      <trkpt lat="45.8974" lon="4.74931">
        <ele>196</ele>
        <time>2018-05-08T08:35:47Z</time>
      </trkpt>
      <trkpt lat="45.89736" lon="4.74929">
        <ele>196</ele>
        <time>2018-05-08T08:35:48Z</time>
      </trkpt>
      <trkpt lat="45.89731" lon="4.74926">
        <ele>196</ele>
        <time>2018-05-08T08:35:49Z</time>
      </trkpt>
      <trkpt lat="45.89725" lon="4.74928">
        <ele>196</ele>
        <time>2018-05-08T08:35:50Z</time>
      </trkpt>
      <trkpt lat="45.8972" lon="4.74926">
        <ele>196</ele>
        <time>2018-05-08T08:35:51Z</time>
      </trkpt>
      <trkpt lat="45.89714" lon="4.74926">
        <ele>196</ele>
        <time>2018-05-08T08:35:52Z</time>
      </trkpt>
      <trkpt lat="45.8971" lon="4.74924">
        <ele>196</ele>
        <time>2018-05-08T08:35:53Z</time>
      </trkpt>
      <trkpt lat="45.89704" lon="4.74924">
        <ele>196</ele>
        <time>2018-05-08T08:35:54Z</time>
      </trkpt>
      <trkpt lat="45.897" lon="4.74924">
        <ele>196</ele>
        <time>2018-05-08T08:35:55Z</time>
      </trkpt>
      <trkpt lat="45.89694" lon="4.74923">
        <ele>196</ele>
        <time>2018-05-08T08:35:56Z</time>
      </trkpt>
      <trkpt lat="45.89689" lon="4.74923">
        <ele>196</ele>
        <time>2018-05-08T08:35:57Z</time>
      </trkpt>
      <trkpt lat="45.89684" lon="4.74922">
        <ele>196</ele>
        <time>2018-05-08T08:35:58Z</time>
      </trkpt>
      <trkpt lat="45.89678" lon="4.74922">
        <ele>196</ele>
        <time>2018-05-08T08:35:59Z</time>
      </trkpt>
      <trkpt lat="45.89673" lon="4.74921">
        <ele>196</ele>
        <time>2018-05-08T08:36:00Z</time>
      </trkpt>
      <trkpt lat="45.89664" lon="4.74921">
        <ele>196</ele>
        <time>2018-05-08T08:36:02Z</time>
      </trkpt>
      <trkpt lat="45.89659" lon="4.74921">
        <ele>196</ele>
        <time>2018-05-08T08:36:03Z</time>
      </trkpt>
      <trkpt lat="45.89654" lon="4.74921">
        <ele>197</ele>
        <time>2018-05-08T08:36:04Z</time>
      </trkpt>
      <trkpt lat="45.89648" lon="4.74921">
        <ele>197</ele>
        <time>2018-05-08T08:36:05Z</time>
      </trkpt>
      <trkpt lat="45.89644" lon="4.74919">
        <ele>197</ele>
        <time>2018-05-08T08:36:06Z</time>
      </trkpt>
      <trkpt lat="45.89638" lon="4.74918">
        <ele>197</ele>
        <time>2018-05-08T08:36:07Z</time>
      </trkpt>
      <trkpt lat="45.89632" lon="4.74918">
        <ele>197</ele>
        <time>2018-05-08T08:36:08Z</time>
      </trkpt>
      <trkpt lat="45.89627" lon="4.74918">
        <ele>197</ele>
        <time>2018-05-08T08:36:09Z</time>
      </trkpt>
      <trkpt lat="45.89622" lon="4.74918">
        <ele>197</ele>
        <time>2018-05-08T08:36:10Z</time>
      </trkpt>
      <trkpt lat="45.89617" lon="4.74918">
        <ele>197</ele>
        <time>2018-05-08T08:36:11Z</time>
      </trkpt>
      <trkpt lat="45.89612" lon="4.74917">
        <ele>198</ele>
        <time>2018-05-08T08:36:12Z</time>
      </trkpt>
      <trkpt lat="45.89607" lon="4.74916">
        <ele>197</ele>
        <time>2018-05-08T08:36:13Z</time>
      </trkpt>
      <trkpt lat="45.89602" lon="4.74915">
        <ele>197</ele>
        <time>2018-05-08T08:36:14Z</time>
      </trkpt>
      <trkpt lat="45.89597" lon="4.74915">
        <ele>197</ele>
        <time>2018-05-08T08:36:15Z</time>
      </trkpt>
      <trkpt lat="45.89593" lon="4.74914">
        <ele>197</ele>
        <time>2018-05-08T08:36:16Z</time>
      </trkpt>
      <trkpt lat="45.89588" lon="4.74913">
        <ele>198</ele>
        <time>2018-05-08T08:36:17Z</time>
      </trkpt>
      <trkpt lat="45.89583" lon="4.74911">
        <ele>198</ele>
        <time>2018-05-08T08:36:18Z</time>
      </trkpt>
      <trkpt lat="45.89578" lon="4.74911">
        <ele>198</ele>
        <time>2018-05-08T08:36:19Z</time>
      </trkpt>
      <trkpt lat="45.89573" lon="4.7491">
        <ele>198</ele>
        <time>2018-05-08T08:36:20Z</time>
      </trkpt>
      <trkpt lat="45.89568" lon="4.74907">
        <ele>198</ele>
        <time>2018-05-08T08:36:21Z</time>
      </trkpt>
      <trkpt lat="45.89563" lon="4.74905">
        <ele>198</ele>
        <time>2018-05-08T08:36:22Z</time>
      </trkpt>
      <trkpt lat="45.89558" lon="4.74904">
        <ele>198</ele>
        <time>2018-05-08T08:36:23Z</time>
      </trkpt>
      <trkpt lat="45.8955" lon="4.74902">
        <ele>198</ele>
        <time>2018-05-08T08:36:25Z</time>
      </trkpt>
      <trkpt lat="45.89545" lon="4.74899">
        <ele>198</ele>
        <time>2018-05-08T08:36:26Z</time>
      </trkpt>
      <trkpt lat="45.89541" lon="4.74897">
        <ele>198</ele>
        <time>2018-05-08T08:36:27Z</time>
      </trkpt>
      <trkpt lat="45.89536" lon="4.74897">
        <ele>198</ele>
        <time>2018-05-08T08:36:28Z</time>
      </trkpt>
      <trkpt lat="45.89531" lon="4.74895">
        <ele>198</ele>
        <time>2018-05-08T08:36:29Z</time>
      </trkpt>
      <trkpt lat="45.89525" lon="4.74895">
        <ele>198</ele>
        <time>2018-05-08T08:36:30Z</time>
      </trkpt>
      <trkpt lat="45.8952" lon="4.74894">
        <ele>198</ele>
        <time>2018-05-08T08:36:31Z</time>
      </trkpt>
      <trkpt lat="45.89516" lon="4.74893">
        <ele>198</ele>
        <time>2018-05-08T08:36:32Z</time>
      </trkpt>
      <trkpt lat="45.8951" lon="4.74892">
        <ele>198</ele>
        <time>2018-05-08T08:36:33Z</time>
      </trkpt>
      <trkpt lat="45.89505" lon="4.74892">
        <ele>198</ele>
        <time>2018-05-08T08:36:34Z</time>
      </trkpt>
      <trkpt lat="45.89497" lon="4.74894">
        <ele>199</ele>
        <time>2018-05-08T08:36:36Z</time>
      </trkpt>
      <trkpt lat="45.89492" lon="4.74893">
        <ele>199</ele>
        <time>2018-05-08T08:36:37Z</time>
      </trkpt>
      <trkpt lat="45.89486" lon="4.74891">
        <ele>199</ele>
        <time>2018-05-08T08:36:38Z</time>
      </trkpt>
      <trkpt lat="45.89482" lon="4.74889">
        <ele>199</ele>
        <time>2018-05-08T08:36:39Z</time>
      </trkpt>
      <trkpt lat="45.89476" lon="4.74888">
        <ele>199</ele>
        <time>2018-05-08T08:36:40Z</time>
      </trkpt>
      <trkpt lat="45.89472" lon="4.74884">
        <ele>199</ele>
        <time>2018-05-08T08:36:41Z</time>
      </trkpt>
      <trkpt lat="45.89467" lon="4.74885">
        <ele>199</ele>
        <time>2018-05-08T08:36:42Z</time>
      </trkpt>
      <trkpt lat="45.89463" lon="4.74885">
        <ele>199</ele>
        <time>2018-05-08T08:36:43Z</time>
      </trkpt>
      <trkpt lat="45.89458" lon="4.74883">
        <ele>199</ele>
        <time>2018-05-08T08:36:44Z</time>
      </trkpt>
      <trkpt lat="45.89454" lon="4.74882">
        <ele>199</ele>
        <time>2018-05-08T08:36:45Z</time>
      </trkpt>
      <trkpt lat="45.89449" lon="4.74881">
        <ele>199</ele>
        <time>2018-05-08T08:36:46Z</time>
      </trkpt>
      <trkpt lat="45.89444" lon="4.7488">
        <ele>199</ele>
        <time>2018-05-08T08:36:47Z</time>
      </trkpt>
      <trkpt lat="45.89435" lon="4.7488">
        <ele>199</ele>
        <time>2018-05-08T08:36:49Z</time>
      </trkpt>
      <trkpt lat="45.89432" lon="4.74878">
        <ele>199</ele>
        <time>2018-05-08T08:36:50Z</time>
      </trkpt>
      <trkpt lat="45.89424" lon="4.74876">
        <ele>199</ele>
        <time>2018-05-08T08:36:52Z</time>
      </trkpt>
      <trkpt lat="45.89418" lon="4.74875">
        <ele>199</ele>
        <time>2018-05-08T08:36:53Z</time>
      </trkpt>
      <trkpt lat="45.89412" lon="4.74874">
        <ele>199</ele>
        <time>2018-05-08T08:36:54Z</time>
      </trkpt>
      <trkpt lat="45.89408" lon="4.74873">
        <ele>199</ele>
        <time>2018-05-08T08:36:55Z</time>
      </trkpt>
      <trkpt lat="45.89404" lon="4.74874">
        <ele>199</ele>
        <time>2018-05-08T08:36:56Z</time>
      </trkpt>
      <trkpt lat="45.89398" lon="4.74874">
        <ele>199</ele>
        <time>2018-05-08T08:36:57Z</time>
      </trkpt>
      <trkpt lat="45.89391" lon="4.74872">
        <ele>199</ele>
        <time>2018-05-08T08:36:59Z</time>
      </trkpt>
      <trkpt lat="45.89387" lon="4.74872">
        <ele>199</ele>
        <time>2018-05-08T08:37:00Z</time>
      </trkpt>
      <trkpt lat="45.89381" lon="4.74872">
        <ele>199</ele>
        <time>2018-05-08T08:37:01Z</time>
      </trkpt>
      <trkpt lat="45.89377" lon="4.7487">
        <ele>199</ele>
        <time>2018-05-08T08:37:02Z</time>
      </trkpt>
      <trkpt lat="45.8937" lon="4.7487">
        <ele>199</ele>
        <time>2018-05-08T08:37:03Z</time>
      </trkpt>
      <trkpt lat="45.89366" lon="4.74869">
        <ele>199</ele>
        <time>2018-05-08T08:37:04Z</time>
      </trkpt>
      <trkpt lat="45.89358" lon="4.74869">
        <ele>199</ele>
        <time>2018-05-08T08:37:06Z</time>
      </trkpt>
      <trkpt lat="45.89352" lon="4.74869">
        <ele>199</ele>
        <time>2018-05-08T08:37:07Z</time>
      </trkpt>
      <trkpt lat="45.89345" lon="4.74869">
        <ele>199</ele>
        <time>2018-05-08T08:37:09Z</time>
      </trkpt>
      <trkpt lat="45.89341" lon="4.74867">
        <ele>199</ele>
        <time>2018-05-08T08:37:10Z</time>
      </trkpt>
      <trkpt lat="45.89333" lon="4.74867">
        <ele>198</ele>
        <time>2018-05-08T08:37:12Z</time>
      </trkpt>
      <trkpt lat="45.89326" lon="4.74868">
        <ele>198</ele>
        <time>2018-05-08T08:37:13Z</time>
      </trkpt>
      <trkpt lat="45.89321" lon="4.74865">
        <ele>198</ele>
        <time>2018-05-08T08:37:14Z</time>
      </trkpt>
      <trkpt lat="45.89317" lon="4.74863">
        <ele>198</ele>
        <time>2018-05-08T08:37:15Z</time>
      </trkpt>
      <trkpt lat="45.89312" lon="4.7486">
        <ele>198</ele>
        <time>2018-05-08T08:37:16Z</time>
      </trkpt>
      <trkpt lat="45.89307" lon="4.7486">
        <ele>198</ele>
        <time>2018-05-08T08:37:17Z</time>
      </trkpt>
      <trkpt lat="45.893" lon="4.74861">
        <ele>198</ele>
        <time>2018-05-08T08:37:18Z</time>
      </trkpt>
      <trkpt lat="45.89292" lon="4.74861">
        <ele>198</ele>
        <time>2018-05-08T08:37:19Z</time>
      </trkpt>
      <trkpt lat="45.89285" lon="4.74862">
        <ele>198</ele>
        <time>2018-05-08T08:37:20Z</time>
      </trkpt>
      <trkpt lat="45.89276" lon="4.74866">
        <ele>198</ele>
        <time>2018-05-08T08:37:21Z</time>
      </trkpt>
      <trkpt lat="45.89269" lon="4.74876">
        <ele>198</ele>
        <time>2018-05-08T08:37:22Z</time>
      </trkpt>
      <trkpt lat="45.89262" lon="4.7487">
        <ele>198</ele>
        <time>2018-05-08T08:37:24Z</time>
      </trkpt>
      <trkpt lat="45.89261" lon="4.74866">
        <ele>198</ele>
        <time>2018-05-08T08:37:25Z</time>
      </trkpt>
      <trkpt lat="45.89254" lon="4.74863">
        <ele>198</ele>
        <time>2018-05-08T08:37:26Z</time>
      </trkpt>
      <trkpt lat="45.89247" lon="4.74864">
        <ele>198</ele>
        <time>2018-05-08T08:37:27Z</time>
      </trkpt>
      <trkpt lat="45.89241" lon="4.74862">
        <ele>198</ele>
        <time>2018-05-08T08:37:28Z</time>
      </trkpt>
      <trkpt lat="45.89237" lon="4.74861">
        <ele>198</ele>
        <time>2018-05-08T08:37:29Z</time>
      </trkpt>
      <trkpt lat="45.89232" lon="4.74862">
        <ele>198</ele>
        <time>2018-05-08T08:37:30Z</time>
      </trkpt>
      <trkpt lat="45.89226" lon="4.74864">
        <ele>198</ele>
        <time>2018-05-08T08:37:31Z</time>
      </trkpt>
      <trkpt lat="45.89221" lon="4.74863">
        <ele>198</ele>
        <time>2018-05-08T08:37:32Z</time>
      </trkpt>
      <trkpt lat="45.89217" lon="4.74861">
        <ele>198</ele>
        <time>2018-05-08T08:37:33Z</time>
      </trkpt>
      <trkpt lat="45.89212" lon="4.7486">
        <ele>198</ele>
        <time>2018-05-08T08:37:34Z</time>
      </trkpt>
      <trkpt lat="45.89206" lon="4.7486">
        <ele>198</ele>
        <time>2018-05-08T08:37:35Z</time>
      </trkpt>
      <trkpt lat="45.89201" lon="4.74861">
        <ele>198</ele>
        <time>2018-05-08T08:37:36Z</time>
      </trkpt>
      <trkpt lat="45.89195" lon="4.74861">
        <ele>198</ele>
        <time>2018-05-08T08:37:37Z</time>
      </trkpt>
      <trkpt lat="45.89186" lon="4.7486">
        <ele>198</ele>
        <time>2018-05-08T08:37:39Z</time>
      </trkpt>
      <trkpt lat="45.89182" lon="4.7486">
        <ele>198</ele>
        <time>2018-05-08T08:37:40Z</time>
      </trkpt>
      <trkpt lat="45.89177" lon="4.7486">
        <ele>198</ele>
        <time>2018-05-08T08:37:41Z</time>
      </trkpt>
      <trkpt lat="45.89171" lon="4.74861">
        <ele>198</ele>
        <time>2018-05-08T08:37:42Z</time>
      </trkpt>
      <trkpt lat="45.89163" lon="4.74861">
        <ele>199</ele>
        <time>2018-05-08T08:37:44Z</time>
      </trkpt>
      <trkpt lat="45.89158" lon="4.74862">
        <ele>199</ele>
        <time>2018-05-08T08:37:45Z</time>
      </trkpt>
      <trkpt lat="45.8915" lon="4.74861">
        <ele>199</ele>
        <time>2018-05-08T08:37:47Z</time>
      </trkpt>
      <trkpt lat="45.89145" lon="4.74861">
        <ele>199</ele>
        <time>2018-05-08T08:37:48Z</time>
      </trkpt>
      <trkpt lat="45.89137" lon="4.74862">
        <ele>199</ele>
        <time>2018-05-08T08:37:50Z</time>
      </trkpt>
      <trkpt lat="45.89132" lon="4.74863">
        <ele>199</ele>
        <time>2018-05-08T08:37:51Z</time>
      </trkpt>
      <trkpt lat="45.89125" lon="4.74864">
        <ele>199</ele>
        <time>2018-05-08T08:37:53Z</time>
      </trkpt>
      <trkpt lat="45.8912" lon="4.74864">
        <ele>199</ele>
        <time>2018-05-08T08:37:54Z</time>
      </trkpt>
      <trkpt lat="45.89114" lon="4.74864">
        <ele>199</ele>
        <time>2018-05-08T08:37:56Z</time>
      </trkpt>
      <trkpt lat="45.8911" lon="4.74864">
        <ele>199</ele>
        <time>2018-05-08T08:37:57Z</time>
      </trkpt>
      <trkpt lat="45.89101" lon="4.74866">
        <ele>199</ele>
        <time>2018-05-08T08:37:59Z</time>
      </trkpt>
      <trkpt lat="45.89097" lon="4.74866">
        <ele>199</ele>
        <time>2018-05-08T08:38:00Z</time>
      </trkpt>
      <trkpt lat="45.89089" lon="4.74868">
        <ele>199</ele>
        <time>2018-05-08T08:38:02Z</time>
      </trkpt>
      <trkpt lat="45.89085" lon="4.74869">
        <ele>199</ele>
        <time>2018-05-08T08:38:03Z</time>
      </trkpt>
      <trkpt lat="45.89077" lon="4.74869">
        <ele>199</ele>
        <time>2018-05-08T08:38:05Z</time>
      </trkpt>
      <trkpt lat="45.89073" lon="4.7487">
        <ele>199</ele>
        <time>2018-05-08T08:38:06Z</time>
      </trkpt>
      <trkpt lat="45.89065" lon="4.74872">
        <ele>199</ele>
        <time>2018-05-08T08:38:09Z</time>
      </trkpt>
      <trkpt lat="45.89057" lon="4.74875">
        <ele>199</ele>
        <time>2018-05-08T08:38:10Z</time>
      </trkpt>
      <trkpt lat="45.89049" lon="4.74878">
        <ele>199</ele>
        <time>2018-05-08T08:38:12Z</time>
      </trkpt>
      <trkpt lat="45.89046" lon="4.7488">
        <ele>199</ele>
        <time>2018-05-08T08:38:13Z</time>
      </trkpt>
      <trkpt lat="45.89038" lon="4.74884">
        <ele>199</ele>
        <time>2018-05-08T08:38:15Z</time>
      </trkpt>
      <trkpt lat="45.89035" lon="4.74887">
        <ele>199</ele>
        <time>2018-05-08T08:38:16Z</time>
      </trkpt>
      <trkpt lat="45.89028" lon="4.74895">
        <ele>199</ele>
        <time>2018-05-08T08:38:18Z</time>
      </trkpt>
      <trkpt lat="45.89025" lon="4.74898">
        <ele>199</ele>
        <time>2018-05-08T08:38:19Z</time>
      </trkpt>
      <trkpt lat="45.8902" lon="4.74902">
        <ele>199</ele>
        <time>2018-05-08T08:38:20Z</time>
      </trkpt>
      <trkpt lat="45.89016" lon="4.74904">
        <ele>199</ele>
        <time>2018-05-08T08:38:21Z</time>
      </trkpt>
      <trkpt lat="45.89009" lon="4.7491">
        <ele>199</ele>
        <time>2018-05-08T08:38:23Z</time>
      </trkpt>
      <trkpt lat="45.89004" lon="4.74911">
        <ele>199</ele>
        <time>2018-05-08T08:38:24Z</time>
      </trkpt>
      <trkpt lat="45.89" lon="4.74916">
        <ele>199</ele>
        <time>2018-05-08T08:38:25Z</time>
      </trkpt>
      <trkpt lat="45.88994" lon="4.74915">
        <ele>199</ele>
        <time>2018-05-08T08:38:26Z</time>
      </trkpt>
      <trkpt lat="45.8899" lon="4.74917">
        <ele>199</ele>
        <time>2018-05-08T08:38:28Z</time>
      </trkpt>
      <trkpt lat="45.88985" lon="4.74919">
        <ele>199</ele>
        <time>2018-05-08T08:38:29Z</time>
      </trkpt>
      <trkpt lat="45.88981" lon="4.74923">
        <ele>199</ele>
        <time>2018-05-08T08:38:30Z</time>
      </trkpt>
      <trkpt lat="45.88976" lon="4.74925">
        <ele>200</ele>
        <time>2018-05-08T08:38:31Z</time>
      </trkpt>
      <trkpt lat="45.88968" lon="4.7493">
        <ele>200</ele>
        <time>2018-05-08T08:38:33Z</time>
      </trkpt>
      <trkpt lat="45.88963" lon="4.74934">
        <ele>200</ele>
        <time>2018-05-08T08:38:34Z</time>
      </trkpt>
      <trkpt lat="45.88958" lon="4.74936">
        <ele>200</ele>
        <time>2018-05-08T08:38:35Z</time>
      </trkpt>
      <trkpt lat="45.88953" lon="4.74937">
        <ele>200</ele>
        <time>2018-05-08T08:38:36Z</time>
      </trkpt>
      <trkpt lat="45.88948" lon="4.7494">
        <ele>200</ele>
        <time>2018-05-08T08:38:37Z</time>
      </trkpt>
      <trkpt lat="45.88944" lon="4.74942">
        <ele>200</ele>
        <time>2018-05-08T08:38:38Z</time>
      </trkpt>
      <trkpt lat="45.8894" lon="4.74944">
        <ele>200</ele>
        <time>2018-05-08T08:38:39Z</time>
      </trkpt>
      <trkpt lat="45.88934" lon="4.74947">
        <ele>200</ele>
        <time>2018-05-08T08:38:40Z</time>
      </trkpt>
      <trkpt lat="45.8893" lon="4.7495">
        <ele>200</ele>
        <time>2018-05-08T08:38:41Z</time>
      </trkpt>
      <trkpt lat="45.88926" lon="4.74953">
        <ele>200</ele>
        <time>2018-05-08T08:38:42Z</time>
      </trkpt>
      <trkpt lat="45.88923" lon="4.74955">
        <ele>200</ele>
        <time>2018-05-08T08:38:43Z</time>
      </trkpt>
      <trkpt lat="45.88917" lon="4.74958">
        <ele>201</ele>
        <time>2018-05-08T08:38:44Z</time>
      </trkpt>
      <trkpt lat="45.88912" lon="4.7496">
        <ele>201</ele>
        <time>2018-05-08T08:38:45Z</time>
      </trkpt>
      <trkpt lat="45.88907" lon="4.74962">
        <ele>201</ele>
        <time>2018-05-08T08:38:46Z</time>
      </trkpt>
      <trkpt lat="45.88903" lon="4.74963">
        <ele>201</ele>
        <time>2018-05-08T08:38:47Z</time>
      </trkpt>
      <trkpt lat="45.88897" lon="4.74964">
        <ele>201</ele>
        <time>2018-05-08T08:38:48Z</time>
      </trkpt>
      <trkpt lat="45.88892" lon="4.74964">
        <ele>201</ele>
        <time>2018-05-08T08:38:49Z</time>
      </trkpt>
      <trkpt lat="45.88886" lon="4.74964">
        <ele>201</ele>
        <time>2018-05-08T08:38:50Z</time>
      </trkpt>
      <trkpt lat="45.88881" lon="4.74963">
        <ele>201</ele>
        <time>2018-05-08T08:38:51Z</time>
      </trkpt>
      <trkpt lat="45.88876" lon="4.74963">
        <ele>201</ele>
        <time>2018-05-08T08:38:52Z</time>
      </trkpt>
      <trkpt lat="45.88871" lon="4.74962">
        <ele>201</ele>
        <time>2018-05-08T08:38:53Z</time>
      </trkpt>
      <trkpt lat="45.88867" lon="4.74961">
        <ele>201</ele>
        <time>2018-05-08T08:38:54Z</time>
      </trkpt>
      <trkpt lat="45.88858" lon="4.7496">
        <ele>201</ele>
        <time>2018-05-08T08:38:56Z</time>
      </trkpt>
      <trkpt lat="45.88854" lon="4.7496">
        <ele>201</ele>
        <time>2018-05-08T08:38:57Z</time>
      </trkpt>
      <trkpt lat="45.88845" lon="4.7496">
        <ele>201</ele>
        <time>2018-05-08T08:38:59Z</time>
      </trkpt>
      <trkpt lat="45.8884" lon="4.74959">
        <ele>201</ele>
        <time>2018-05-08T08:39:00Z</time>
      </trkpt>
      <trkpt lat="45.88831" lon="4.74958">
        <ele>201</ele>
        <time>2018-05-08T08:39:02Z</time>
      </trkpt>
      <trkpt lat="45.88827" lon="4.74958">
        <ele>201</ele>
        <time>2018-05-08T08:39:03Z</time>
      </trkpt>
      <trkpt lat="45.8882" lon="4.74954">
        <ele>201</ele>
        <time>2018-05-08T08:39:05Z</time>
      </trkpt>
      <trkpt lat="45.88815" lon="4.74953">
        <ele>201</ele>
        <time>2018-05-08T08:39:06Z</time>
      </trkpt>
      <trkpt lat="45.88806" lon="4.74954">
        <ele>201</ele>
        <time>2018-05-08T08:39:08Z</time>
      </trkpt>
      <trkpt lat="45.88801" lon="4.74953">
        <ele>201</ele>
        <time>2018-05-08T08:39:09Z</time>
      </trkpt>
      <trkpt lat="45.88793" lon="4.74951">
        <ele>201</ele>
        <time>2018-05-08T08:39:11Z</time>
      </trkpt>
      <trkpt lat="45.88787" lon="4.7495">
        <ele>201</ele>
        <time>2018-05-08T08:39:12Z</time>
      </trkpt>
      <trkpt lat="45.88778" lon="4.74948">
        <ele>201</ele>
        <time>2018-05-08T08:39:14Z</time>
      </trkpt>
      <trkpt lat="45.88775" lon="4.74947">
        <ele>201</ele>
        <time>2018-05-08T08:39:15Z</time>
      </trkpt>
      <trkpt lat="45.88766" lon="4.74946">
        <ele>201</ele>
        <time>2018-05-08T08:39:17Z</time>
      </trkpt>
      <trkpt lat="45.88762" lon="4.74944">
        <ele>201</ele>
        <time>2018-05-08T08:39:18Z</time>
      </trkpt>
      <trkpt lat="45.88754" lon="4.74942">
        <ele>201</ele>
        <time>2018-05-08T08:39:20Z</time>
      </trkpt>
      <trkpt lat="45.8875" lon="4.74941">
        <ele>201</ele>
        <time>2018-05-08T08:39:21Z</time>
      </trkpt>
      <trkpt lat="45.88745" lon="4.7494">
        <ele>201</ele>
        <time>2018-05-08T08:39:22Z</time>
      </trkpt>
      <trkpt lat="45.8874" lon="4.74941">
        <ele>201</ele>
        <time>2018-05-08T08:39:23Z</time>
      </trkpt>
      <trkpt lat="45.88735" lon="4.74939">
        <ele>201</ele>
        <time>2018-05-08T08:39:24Z</time>
      </trkpt>
      <trkpt lat="45.8873" lon="4.74938">
        <ele>201</ele>
        <time>2018-05-08T08:39:25Z</time>
      </trkpt>
      <trkpt lat="45.88722" lon="4.74934">
        <ele>201</ele>
        <time>2018-05-08T08:39:27Z</time>
      </trkpt>
      <trkpt lat="45.88716" lon="4.74933">
        <ele>201</ele>
        <time>2018-05-08T08:39:28Z</time>
      </trkpt>
      <trkpt lat="45.88708" lon="4.74932">
        <ele>202</ele>
        <time>2018-05-08T08:39:30Z</time>
      </trkpt>
      <trkpt lat="45.88704" lon="4.7493">
        <ele>202</ele>
        <time>2018-05-08T08:39:31Z</time>
      </trkpt>
      <trkpt lat="45.88695" lon="4.7493">
        <ele>202</ele>
        <time>2018-05-08T08:39:33Z</time>
      </trkpt>
      <trkpt lat="45.88691" lon="4.74929">
        <ele>202</ele>
        <time>2018-05-08T08:39:34Z</time>
      </trkpt>
      <trkpt lat="45.88683" lon="4.74925">
        <ele>202</ele>
        <time>2018-05-08T08:39:36Z</time>
      </trkpt>
      <trkpt lat="45.88681" lon="4.74924">
        <ele>202</ele>
        <time>2018-05-08T08:39:37Z</time>
      </trkpt>
      <trkpt lat="45.88675" lon="4.74923">
        <ele>202</ele>
        <time>2018-05-08T08:39:38Z</time>
      </trkpt>
      <trkpt lat="45.88672" lon="4.74922">
        <ele>202</ele>
        <time>2018-05-08T08:39:39Z</time>
      </trkpt>
      <trkpt lat="45.88664" lon="4.74923">
        <ele>202</ele>
        <time>2018-05-08T08:39:41Z</time>
      </trkpt>
      <trkpt lat="45.8866" lon="4.74926">
        <ele>202</ele>
        <time>2018-05-08T08:39:42Z</time>
      </trkpt>
      <trkpt lat="45.88654" lon="4.74933">
        <ele>202</ele>
        <time>2018-05-08T08:39:44Z</time>
      </trkpt>
      <trkpt lat="45.8865" lon="4.74937">
        <ele>202</ele>
        <time>2018-05-08T08:39:45Z</time>
      </trkpt>
      <trkpt lat="45.88643" lon="4.74944">
        <ele>201</ele>
        <time>2018-05-08T08:39:47Z</time>
      </trkpt>
      <trkpt lat="45.88641" lon="4.74949">
        <ele>201</ele>
        <time>2018-05-08T08:39:48Z</time>
      </trkpt>
      <trkpt lat="45.88638" lon="4.74959">
        <ele>201</ele>
        <time>2018-05-08T08:39:50Z</time>
      </trkpt>
      <trkpt lat="45.88636" lon="4.74965">
        <ele>201</ele>
        <time>2018-05-08T08:39:51Z</time>
      </trkpt>
      <trkpt lat="45.88636" lon="4.74972">
        <ele>201</ele>
        <time>2018-05-08T08:39:52Z</time>
      </trkpt>
      <trkpt lat="45.88636" lon="4.74979">
        <ele>201</ele>
        <time>2018-05-08T08:39:53Z</time>
      </trkpt>
      <trkpt lat="45.88632" lon="4.74989">
        <ele>201</ele>
        <time>2018-05-08T08:39:55Z</time>
      </trkpt>
      <trkpt lat="45.88631" lon="4.74996">
        <ele>201</ele>
        <time>2018-05-08T08:39:56Z</time>
      </trkpt>
      <trkpt lat="45.88629" lon="4.75008">
        <ele>202</ele>
        <time>2018-05-08T08:39:58Z</time>
      </trkpt>
      <trkpt lat="45.88628" lon="4.75014">
        <ele>202</ele>
        <time>2018-05-08T08:39:59Z</time>
      </trkpt>
      <trkpt lat="45.88627" lon="4.7502">
        <ele>202</ele>
        <time>2018-05-08T08:40:00Z</time>
      </trkpt>
      <trkpt lat="45.88626" lon="4.75027">
        <ele>202</ele>
        <time>2018-05-08T08:40:01Z</time>
      </trkpt>
      <trkpt lat="45.88624" lon="4.75035">
        <ele>202</ele>
        <time>2018-05-08T08:40:02Z</time>
      </trkpt>
      <trkpt lat="45.88623" lon="4.7504">
        <ele>202</ele>
        <time>2018-05-08T08:40:03Z</time>
      </trkpt>
      <trkpt lat="45.88621" lon="4.75047">
        <ele>202</ele>
        <time>2018-05-08T08:40:04Z</time>
      </trkpt>
      <trkpt lat="45.8862" lon="4.75053">
        <ele>202</ele>
        <time>2018-05-08T08:40:05Z</time>
      </trkpt>
      <trkpt lat="45.88619" lon="4.75061">
        <ele>202</ele>
        <time>2018-05-08T08:40:06Z</time>
      </trkpt>
      <trkpt lat="45.88617" lon="4.75068">
        <ele>202</ele>
        <time>2018-05-08T08:40:07Z</time>
      </trkpt>
      <trkpt lat="45.88614" lon="4.7508">
        <ele>202</ele>
        <time>2018-05-08T08:40:09Z</time>
      </trkpt>
      <trkpt lat="45.88612" lon="4.75086">
        <ele>202</ele>
        <time>2018-05-08T08:40:10Z</time>
      </trkpt>
      <trkpt lat="45.88606" lon="4.75089">
        <ele>202</ele>
        <time>2018-05-08T08:40:11Z</time>
      </trkpt>
      <trkpt lat="45.88604" lon="4.75095">
        <ele>202</ele>
        <time>2018-05-08T08:40:12Z</time>
      </trkpt>
      <trkpt lat="45.886" lon="4.75099">
        <ele>202</ele>
        <time>2018-05-08T08:40:13Z</time>
      </trkpt>
      <trkpt lat="45.88596" lon="4.75104">
        <ele>202</ele>
        <time>2018-05-08T08:40:14Z</time>
      </trkpt>
      <trkpt lat="45.88592" lon="4.75109">
        <ele>202</ele>
        <time>2018-05-08T08:40:15Z</time>
      </trkpt>
      <trkpt lat="45.88588" lon="4.75113">
        <ele>202</ele>
        <time>2018-05-08T08:40:16Z</time>
      </trkpt>
      <trkpt lat="45.88582" lon="4.75121">
        <ele>201</ele>
        <time>2018-05-08T08:40:18Z</time>
      </trkpt>
      <trkpt lat="45.88579" lon="4.75126">
        <ele>201</ele>
        <time>2018-05-08T08:40:19Z</time>
      </trkpt>
      <trkpt lat="45.88576" lon="4.7513">
        <ele>201</ele>
        <time>2018-05-08T08:40:20Z</time>
      </trkpt>
      <trkpt lat="45.88571" lon="4.75136">
        <ele>201</ele>
        <time>2018-05-08T08:40:21Z</time>
      </trkpt>
      <trkpt lat="45.88565" lon="4.75144">
        <ele>201</ele>
        <time>2018-05-08T08:40:23Z</time>
      </trkpt>
      <trkpt lat="45.88562" lon="4.75149">
        <ele>201</ele>
        <time>2018-05-08T08:40:24Z</time>
      </trkpt>
      <trkpt lat="45.88557" lon="4.75159">
        <ele>201</ele>
        <time>2018-05-08T08:40:26Z</time>
      </trkpt>
      <trkpt lat="45.88555" lon="4.75163">
        <ele>201</ele>
        <time>2018-05-08T08:40:27Z</time>
      </trkpt>
      <trkpt lat="45.88552" lon="4.75169">
        <ele>201</ele>
        <time>2018-05-08T08:40:28Z</time>
      </trkpt>
      <trkpt lat="45.88549" lon="4.75174">
        <ele>201</ele>
        <time>2018-05-08T08:40:29Z</time>
      </trkpt>
      <trkpt lat="45.88546" lon="4.75182">
        <ele>201</ele>
        <time>2018-05-08T08:40:30Z</time>
      </trkpt>
      <trkpt lat="45.88543" lon="4.75187">
        <ele>201</ele>
        <time>2018-05-08T08:40:31Z</time>
      </trkpt>
      <trkpt lat="45.8854" lon="4.75194">
        <ele>201</ele>
        <time>2018-05-08T08:40:32Z</time>
      </trkpt>
      <trkpt lat="45.88538" lon="4.75198">
        <ele>201</ele>
        <time>2018-05-08T08:40:33Z</time>
      </trkpt>
      <trkpt lat="45.88535" lon="4.75204">
        <ele>201</ele>
        <time>2018-05-08T08:40:34Z</time>
      </trkpt>
      <trkpt lat="45.88532" lon="4.7521">
        <ele>201</ele>
        <time>2018-05-08T08:40:35Z</time>
      </trkpt>
      <trkpt lat="45.88527" lon="4.75221">
        <ele>201</ele>
        <time>2018-05-08T08:40:37Z</time>
      </trkpt>
      <trkpt lat="45.88525" lon="4.75226">
        <ele>201</ele>
        <time>2018-05-08T08:40:38Z</time>
      </trkpt>
      <trkpt lat="45.88522" lon="4.75231">
        <ele>201</ele>
        <time>2018-05-08T08:40:39Z</time>
      </trkpt>
      <trkpt lat="45.88519" lon="4.75236">
        <ele>201</ele>
        <time>2018-05-08T08:40:40Z</time>
      </trkpt>
      <trkpt lat="45.88512" lon="4.75243">
        <ele>201</ele>
        <time>2018-05-08T08:40:42Z</time>
      </trkpt>
      <trkpt lat="45.88508" lon="4.75248">
        <ele>201</ele>
        <time>2018-05-08T08:40:43Z</time>
      </trkpt>
      <trkpt lat="45.885" lon="4.75253">
        <ele>201</ele>
        <time>2018-05-08T08:40:45Z</time>
      </trkpt>
      <trkpt lat="45.88495" lon="4.75255">
        <ele>201</ele>
        <time>2018-05-08T08:40:46Z</time>
      </trkpt>
      <trkpt lat="45.8849" lon="4.75257">
        <ele>201</ele>
        <time>2018-05-08T08:40:47Z</time>
      </trkpt>
      <trkpt lat="45.88486" lon="4.75259">
        <ele>201</ele>
        <time>2018-05-08T08:40:48Z</time>
      </trkpt>
      <trkpt lat="45.88478" lon="4.75264">
        <ele>201</ele>
        <time>2018-05-08T08:40:50Z</time>
      </trkpt>
      <trkpt lat="45.88474" lon="4.75268">
        <ele>201</ele>
        <time>2018-05-08T08:40:51Z</time>
      </trkpt>
      <trkpt lat="45.8847" lon="4.7527">
        <ele>201</ele>
        <time>2018-05-08T08:40:52Z</time>
      </trkpt>
      <trkpt lat="45.88465" lon="4.75273">
        <ele>201</ele>
        <time>2018-05-08T08:40:53Z</time>
      </trkpt>
      <trkpt lat="45.88461" lon="4.75275">
        <ele>201</ele>
        <time>2018-05-08T08:40:54Z</time>
      </trkpt>
      <trkpt lat="45.88456" lon="4.75278">
        <ele>201</ele>
        <time>2018-05-08T08:40:55Z</time>
      </trkpt>
      <trkpt lat="45.88452" lon="4.7528">
        <ele>201</ele>
        <time>2018-05-08T08:40:56Z</time>
      </trkpt>
      <trkpt lat="45.88447" lon="4.75283">
        <ele>201</ele>
        <time>2018-05-08T08:40:57Z</time>
      </trkpt>
      <trkpt lat="45.88439" lon="4.75288">
        <ele>201</ele>
        <time>2018-05-08T08:40:59Z</time>
      </trkpt>
      <trkpt lat="45.88435" lon="4.75292">
        <ele>201</ele>
        <time>2018-05-08T08:41:00Z</time>
      </trkpt>
      <trkpt lat="45.88432" lon="4.75296">
        <ele>201</ele>
        <time>2018-05-08T08:41:01Z</time>
      </trkpt>
      <trkpt lat="45.88428" lon="4.753">
        <ele>201</ele>
        <time>2018-05-08T08:41:02Z</time>
      </trkpt>
      <trkpt lat="45.88425" lon="4.75305">
        <ele>201</ele>
        <time>2018-05-08T08:41:03Z</time>
      </trkpt>
      <trkpt lat="45.88422" lon="4.7531">
        <ele>200</ele>
        <time>2018-05-08T08:41:04Z</time>
      </trkpt>
      <trkpt lat="45.88419" lon="4.75316">
        <ele>200</ele>
        <time>2018-05-08T08:41:05Z</time>
      </trkpt>
      <trkpt lat="45.88415" lon="4.75321">
        <ele>200</ele>
        <time>2018-05-08T08:41:06Z</time>
      </trkpt>
      <trkpt lat="45.88413" lon="4.75328">
        <ele>200</ele>
        <time>2018-05-08T08:41:07Z</time>
      </trkpt>
      <trkpt lat="45.88411" lon="4.75333">
        <ele>200</ele>
        <time>2018-05-08T08:41:08Z</time>
      </trkpt>
      <trkpt lat="45.88407" lon="4.75339">
        <ele>200</ele>
        <time>2018-05-08T08:41:09Z</time>
      </trkpt>
      <trkpt lat="45.88406" lon="4.75344">
        <ele>201</ele>
        <time>2018-05-08T08:41:10Z</time>
      </trkpt>
      <trkpt lat="45.88403" lon="4.75351">
        <ele>201</ele>
        <time>2018-05-08T08:41:11Z</time>
      </trkpt>
      <trkpt lat="45.88401" lon="4.75356">
        <ele>201</ele>
        <time>2018-05-08T08:41:12Z</time>
      </trkpt>
      <trkpt lat="45.88397" lon="4.75361">
        <ele>201</ele>
        <time>2018-05-08T08:41:13Z</time>
      </trkpt>
      <trkpt lat="45.88394" lon="4.75365">
        <ele>201</ele>
        <time>2018-05-08T08:41:14Z</time>
      </trkpt>
      <trkpt lat="45.88389" lon="4.75374">
        <ele>201</ele>
        <time>2018-05-08T08:41:16Z</time>
      </trkpt>
      <trkpt lat="45.88387" lon="4.7538">
        <ele>201</ele>
        <time>2018-05-08T08:41:17Z</time>
      </trkpt>
      <trkpt lat="45.88385" lon="4.75386">
        <ele>201</ele>
        <time>2018-05-08T08:41:18Z</time>
      </trkpt>
      <trkpt lat="45.88383" lon="4.75393">
        <ele>201</ele>
        <time>2018-05-08T08:41:19Z</time>
      </trkpt>
      <trkpt lat="45.88384" lon="4.75406">
        <ele>202</ele>
        <time>2018-05-08T08:41:21Z</time>
      </trkpt>
      <trkpt lat="45.88384" lon="4.75412">
        <ele>202</ele>
        <time>2018-05-08T08:41:22Z</time>
      </trkpt>
      <trkpt lat="45.88383" lon="4.75418">
        <ele>203</ele>
        <time>2018-05-08T08:41:23Z</time>
      </trkpt>
      <trkpt lat="45.88381" lon="4.75428">
        <ele>203</ele>
        <time>2018-05-08T08:41:24Z</time>
      </trkpt>
      <trkpt lat="45.8838" lon="4.75434">
        <ele>203</ele>
        <time>2018-05-08T08:41:25Z</time>
      </trkpt>
      <trkpt lat="45.88378" lon="4.75441">
        <ele>203</ele>
        <time>2018-05-08T08:41:26Z</time>
      </trkpt>
      <trkpt lat="45.88376" lon="4.7545">
        <ele>203</ele>
        <time>2018-05-08T08:41:27Z</time>
      </trkpt>
      <trkpt lat="45.88375" lon="4.75457">
        <ele>203</ele>
        <time>2018-05-08T08:41:28Z</time>
      </trkpt>
      <trkpt lat="45.88374" lon="4.75463">
        <ele>203</ele>
        <time>2018-05-08T08:41:29Z</time>
      </trkpt>
      <trkpt lat="45.88373" lon="4.7547">
        <ele>203</ele>
        <time>2018-05-08T08:41:30Z</time>
      </trkpt>
      <trkpt lat="45.88373" lon="4.75477">
        <ele>203</ele>
        <time>2018-05-08T08:41:31Z</time>
      </trkpt>
      <trkpt lat="45.88372" lon="4.75484">
        <ele>203</ele>
        <time>2018-05-08T08:41:32Z</time>
      </trkpt>
      <trkpt lat="45.8837" lon="4.75496">
        <ele>203</ele>
        <time>2018-05-08T08:41:34Z</time>
      </trkpt>
      <trkpt lat="45.8837" lon="4.75502">
        <ele>204</ele>
        <time>2018-05-08T08:41:35Z</time>
      </trkpt>
      <trkpt lat="45.88369" lon="4.75514">
        <ele>204</ele>
        <time>2018-05-08T08:41:37Z</time>
      </trkpt>
      <trkpt lat="45.8837" lon="4.7552">
        <ele>204</ele>
        <time>2018-05-08T08:41:38Z</time>
      </trkpt>
      <trkpt lat="45.8837" lon="4.75527">
        <ele>204</ele>
        <time>2018-05-08T08:41:39Z</time>
      </trkpt>
      <trkpt lat="45.8837" lon="4.75534">
        <ele>204</ele>
        <time>2018-05-08T08:41:40Z</time>
      </trkpt>
      <trkpt lat="45.8837" lon="4.75541">
        <ele>204</ele>
        <time>2018-05-08T08:41:41Z</time>
      </trkpt>
      <trkpt lat="45.8837" lon="4.75548">
        <ele>204</ele>
        <time>2018-05-08T08:41:42Z</time>
      </trkpt>
      <trkpt lat="45.88369" lon="4.75555">
        <ele>204</ele>
        <time>2018-05-08T08:41:43Z</time>
      </trkpt>
      <trkpt lat="45.88369" lon="4.75562">
        <ele>204</ele>
        <time>2018-05-08T08:41:44Z</time>
      </trkpt>
      <trkpt lat="45.8837" lon="4.75568">
        <ele>204</ele>
        <time>2018-05-08T08:41:45Z</time>
      </trkpt>
      <trkpt lat="45.8837" lon="4.75575">
        <ele>204</ele>
        <time>2018-05-08T08:41:46Z</time>
      </trkpt>
      <trkpt lat="45.88369" lon="4.75587">
        <ele>204</ele>
        <time>2018-05-08T08:41:48Z</time>
      </trkpt>
      <trkpt lat="45.88369" lon="4.75594">
        <ele>204</ele>
        <time>2018-05-08T08:41:49Z</time>
      </trkpt>
      <trkpt lat="45.88368" lon="4.75601">
        <ele>204</ele>
        <time>2018-05-08T08:41:50Z</time>
      </trkpt>
      <trkpt lat="45.88367" lon="4.75608">
        <ele>204</ele>
        <time>2018-05-08T08:41:51Z</time>
      </trkpt>
      <trkpt lat="45.88366" lon="4.7562">
        <ele>204</ele>
        <time>2018-05-08T08:41:53Z</time>
      </trkpt>
      <trkpt lat="45.88366" lon="4.75626">
        <ele>204</ele>
        <time>2018-05-08T08:41:54Z</time>
      </trkpt>
      <trkpt lat="45.88365" lon="4.75638">
        <ele>204</ele>
        <time>2018-05-08T08:41:56Z</time>
      </trkpt>
      <trkpt lat="45.88363" lon="4.75643">
        <ele>204</ele>
        <time>2018-05-08T08:41:57Z</time>
      </trkpt>
      <trkpt lat="45.88363" lon="4.75649">
        <ele>204</ele>
        <time>2018-05-08T08:41:58Z</time>
      </trkpt>
      <trkpt lat="45.88362" lon="4.75658">
        <ele>204</ele>
        <time>2018-05-08T08:41:59Z</time>
      </trkpt>
      <trkpt lat="45.88362" lon="4.7567">
        <ele>204</ele>
        <time>2018-05-08T08:42:01Z</time>
      </trkpt>
      <trkpt lat="45.88362" lon="4.75675">
        <ele>204</ele>
        <time>2018-05-08T08:42:02Z</time>
      </trkpt>
      <trkpt lat="45.88362" lon="4.75684">
        <ele>204</ele>
        <time>2018-05-08T08:42:03Z</time>
      </trkpt>
      <trkpt lat="45.88361" lon="4.75691">
        <ele>204</ele>
        <time>2018-05-08T08:42:04Z</time>
      </trkpt>
      <trkpt lat="45.88358" lon="4.75703">
        <ele>204</ele>
        <time>2018-05-08T08:42:06Z</time>
      </trkpt>
      <trkpt lat="45.88357" lon="4.75709">
        <ele>204</ele>
        <time>2018-05-08T08:42:07Z</time>
      </trkpt>
      <trkpt lat="45.88354" lon="4.75719">
        <ele>204</ele>
        <time>2018-05-08T08:42:09Z</time>
      </trkpt>
      <trkpt lat="45.88353" lon="4.75725">
        <ele>204</ele>
        <time>2018-05-08T08:42:10Z</time>
      </trkpt>
      <trkpt lat="45.88351" lon="4.75735">
        <ele>203</ele>
        <time>2018-05-08T08:42:12Z</time>
      </trkpt>
      <trkpt lat="45.8835" lon="4.75741">
        <ele>203</ele>
        <time>2018-05-08T08:42:13Z</time>
      </trkpt>
      <trkpt lat="45.88348" lon="4.75752">
        <ele>203</ele>
        <time>2018-05-08T08:42:15Z</time>
      </trkpt>
      <trkpt lat="45.88347" lon="4.75758">
        <ele>203</ele>
        <time>2018-05-08T08:42:16Z</time>
      </trkpt>
      <trkpt lat="45.88345" lon="4.7577">
        <ele>203</ele>
        <time>2018-05-08T08:42:18Z</time>
      </trkpt>
      <trkpt lat="45.88344" lon="4.75776">
        <ele>203</ele>
        <time>2018-05-08T08:42:19Z</time>
      </trkpt>
      <trkpt lat="45.88343" lon="4.75788">
        <ele>204</ele>
        <time>2018-05-08T08:42:21Z</time>
      </trkpt>
      <trkpt lat="45.88343" lon="4.75794">
        <ele>203</ele>
        <time>2018-05-08T08:42:22Z</time>
      </trkpt>
      <trkpt lat="45.88343" lon="4.75806">
        <ele>203</ele>
        <time>2018-05-08T08:42:24Z</time>
      </trkpt>
      <trkpt lat="45.88343" lon="4.75813">
        <ele>203</ele>
        <time>2018-05-08T08:42:25Z</time>
      </trkpt>
      <trkpt lat="45.88343" lon="4.75824">
        <ele>203</ele>
        <time>2018-05-08T08:42:27Z</time>
      </trkpt>
      <trkpt lat="45.88343" lon="4.75831">
        <ele>203</ele>
        <time>2018-05-08T08:42:28Z</time>
      </trkpt>
      <trkpt lat="45.88341" lon="4.75842">
        <ele>203</ele>
        <time>2018-05-08T08:42:30Z</time>
      </trkpt>
      <trkpt lat="45.88341" lon="4.75848">
        <ele>204</ele>
        <time>2018-05-08T08:42:31Z</time>
      </trkpt>
      <trkpt lat="45.8834" lon="4.75854">
        <ele>204</ele>
        <time>2018-05-08T08:42:32Z</time>
      </trkpt>
      <trkpt lat="45.88339" lon="4.75861">
        <ele>204</ele>
        <time>2018-05-08T08:42:33Z</time>
      </trkpt>
      <trkpt lat="45.88338" lon="4.75872">
        <ele>204</ele>
        <time>2018-05-08T08:42:35Z</time>
      </trkpt>
      <trkpt lat="45.88337" lon="4.75878">
        <ele>204</ele>
        <time>2018-05-08T08:42:36Z</time>
      </trkpt>
      <trkpt lat="45.88336" lon="4.75885">
        <ele>204</ele>
        <time>2018-05-08T08:42:37Z</time>
      </trkpt>
      <trkpt lat="45.88335" lon="4.75891">
        <ele>204</ele>
        <time>2018-05-08T08:42:38Z</time>
      </trkpt>
      <trkpt lat="45.88334" lon="4.75897">
        <ele>204</ele>
        <time>2018-05-08T08:42:39Z</time>
      </trkpt>
      <trkpt lat="45.88334" lon="4.75905">
        <ele>205</ele>
        <time>2018-05-08T08:42:40Z</time>
      </trkpt>
      <trkpt lat="45.88331" lon="4.75915">
        <ele>205</ele>
        <time>2018-05-08T08:42:42Z</time>
      </trkpt>
      <trkpt lat="45.88329" lon="4.75922">
        <ele>205</ele>
        <time>2018-05-08T08:42:43Z</time>
      </trkpt>
      <trkpt lat="45.88328" lon="4.75928">
        <ele>205</ele>
        <time>2018-05-08T08:42:44Z</time>
      </trkpt>
      <trkpt lat="45.88326" lon="4.75936">
        <ele>205</ele>
        <time>2018-05-08T08:42:45Z</time>
      </trkpt>
      <trkpt lat="45.88325" lon="4.75942">
        <ele>206</ele>
        <time>2018-05-08T08:42:46Z</time>
      </trkpt>
      <trkpt lat="45.88323" lon="4.75948">
        <ele>206</ele>
        <time>2018-05-08T08:42:47Z</time>
      </trkpt>
      <trkpt lat="45.88319" lon="4.75959">
        <ele>206</ele>
        <time>2018-05-08T08:42:49Z</time>
      </trkpt>
      <trkpt lat="45.88316" lon="4.75964">
        <ele>206</ele>
        <time>2018-05-08T08:42:50Z</time>
      </trkpt>
      <trkpt lat="45.88313" lon="4.75974">
        <ele>206</ele>
        <time>2018-05-08T08:42:52Z</time>
      </trkpt>
      <trkpt lat="45.88311" lon="4.7598">
        <ele>206</ele>
        <time>2018-05-08T08:42:53Z</time>
      </trkpt>
      <trkpt lat="45.88307" lon="4.7599">
        <ele>206</ele>
        <time>2018-05-08T08:42:55Z</time>
      </trkpt>
      <trkpt lat="45.88305" lon="4.75995">
        <ele>206</ele>
        <time>2018-05-08T08:42:56Z</time>
      </trkpt>
      <trkpt lat="45.88302" lon="4.76006">
        <ele>207</ele>
        <time>2018-05-08T08:42:58Z</time>
      </trkpt>
      <trkpt lat="45.88301" lon="4.76011">
        <ele>207</ele>
        <time>2018-05-08T08:42:59Z</time>
      </trkpt>
      <trkpt lat="45.88299" lon="4.76022">
        <ele>207</ele>
        <time>2018-05-08T08:43:01Z</time>
      </trkpt>
      <trkpt lat="45.88298" lon="4.76027">
        <ele>207</ele>
        <time>2018-05-08T08:43:02Z</time>
      </trkpt>
      <trkpt lat="45.88297" lon="4.76039">
        <ele>207</ele>
        <time>2018-05-08T08:43:04Z</time>
      </trkpt>
      <trkpt lat="45.88296" lon="4.76045">
        <ele>207</ele>
        <time>2018-05-08T08:43:05Z</time>
      </trkpt>
      <trkpt lat="45.88295" lon="4.76056">
        <ele>208</ele>
        <time>2018-05-08T08:43:07Z</time>
      </trkpt>
      <trkpt lat="45.88294" lon="4.76061">
        <ele>208</ele>
        <time>2018-05-08T08:43:08Z</time>
      </trkpt>
      <trkpt lat="45.88293" lon="4.76073">
        <ele>208</ele>
        <time>2018-05-08T08:43:10Z</time>
      </trkpt>
      <trkpt lat="45.88293" lon="4.76075">
        <ele>208</ele>
        <time>2018-05-08T08:43:11Z</time>
      </trkpt>
      <trkpt lat="45.88293" lon="4.76083">
        <ele>208</ele>
        <time>2018-05-08T08:43:12Z</time>
      </trkpt>
      <trkpt lat="45.88293" lon="4.76089">
        <ele>209</ele>
        <time>2018-05-08T08:43:13Z</time>
      </trkpt>
      <trkpt lat="45.88292" lon="4.761">
        <ele>210</ele>
        <time>2018-05-08T08:43:15Z</time>
      </trkpt>
      <trkpt lat="45.88292" lon="4.76104">
        <ele>210</ele>
        <time>2018-05-08T08:43:16Z</time>
      </trkpt>
      <trkpt lat="45.88291" lon="4.76111">
        <ele>210</ele>
        <time>2018-05-08T08:43:18Z</time>
      </trkpt>
      <trkpt lat="45.88291" lon="4.76122">
        <ele>210</ele>
        <time>2018-05-08T08:43:19Z</time>
      </trkpt>
      <trkpt lat="45.88291" lon="4.76132">
        <ele>210</ele>
        <time>2018-05-08T08:43:22Z</time>
      </trkpt>
      <trkpt lat="45.8829" lon="4.76144">
        <ele>210</ele>
        <time>2018-05-08T08:43:23Z</time>
      </trkpt>
      <trkpt lat="45.8829" lon="4.76152">
        <ele>211</ele>
        <time>2018-05-08T08:43:25Z</time>
      </trkpt>
      <trkpt lat="45.88289" lon="4.7616">
        <ele>211</ele>
        <time>2018-05-08T08:43:26Z</time>
      </trkpt>
      <trkpt lat="45.88288" lon="4.76171">
        <ele>212</ele>
        <time>2018-05-08T08:43:28Z</time>
      </trkpt>
      <trkpt lat="45.88288" lon="4.76176">
        <ele>212</ele>
        <time>2018-05-08T08:43:29Z</time>
      </trkpt>
      <trkpt lat="45.88287" lon="4.76187">
        <ele>212</ele>
        <time>2018-05-08T08:43:31Z</time>
      </trkpt>
      <trkpt lat="45.88287" lon="4.76192">
        <ele>212</ele>
        <time>2018-05-08T08:43:32Z</time>
      </trkpt>
      <trkpt lat="45.88287" lon="4.76203">
        <ele>213</ele>
        <time>2018-05-08T08:43:34Z</time>
      </trkpt>
      <trkpt lat="45.88286" lon="4.76209">
        <ele>213</ele>
        <time>2018-05-08T08:43:35Z</time>
      </trkpt>
      <trkpt lat="45.88286" lon="4.76219">
        <ele>213</ele>
        <time>2018-05-08T08:43:37Z</time>
      </trkpt>
      <trkpt lat="45.88286" lon="4.76224">
        <ele>213</ele>
        <time>2018-05-08T08:43:38Z</time>
      </trkpt>
      <trkpt lat="45.88285" lon="4.76235">
        <ele>213</ele>
        <time>2018-05-08T08:43:40Z</time>
      </trkpt>
      <trkpt lat="45.88284" lon="4.7624">
        <ele>213</ele>
        <time>2018-05-08T08:43:41Z</time>
      </trkpt>
      <trkpt lat="45.88283" lon="4.7625">
        <ele>214</ele>
        <time>2018-05-08T08:43:43Z</time>
      </trkpt>
      <trkpt lat="45.88282" lon="4.76256">
        <ele>214</ele>
        <time>2018-05-08T08:43:44Z</time>
      </trkpt>
      <trkpt lat="45.8828" lon="4.76267">
        <ele>214</ele>
        <time>2018-05-08T08:43:46Z</time>
      </trkpt>
      <trkpt lat="45.8828" lon="4.76272">
        <ele>214</ele>
        <time>2018-05-08T08:43:47Z</time>
      </trkpt>
      <trkpt lat="45.88278" lon="4.76284">
        <ele>214</ele>
        <time>2018-05-08T08:43:49Z</time>
      </trkpt>
      <trkpt lat="45.88277" lon="4.7629">
        <ele>214</ele>
        <time>2018-05-08T08:43:50Z</time>
      </trkpt>
      <trkpt lat="45.88275" lon="4.763">
        <ele>214</ele>
        <time>2018-05-08T08:43:52Z</time>
      </trkpt>
      <trkpt lat="45.88274" lon="4.76306">
        <ele>214</ele>
        <time>2018-05-08T08:43:53Z</time>
      </trkpt>
      <trkpt lat="45.88271" lon="4.76317">
        <ele>214</ele>
        <time>2018-05-08T08:43:55Z</time>
      </trkpt>
      <trkpt lat="45.88269" lon="4.76322">
        <ele>214</ele>
        <time>2018-05-08T08:43:56Z</time>
      </trkpt>
      <trkpt lat="45.88266" lon="4.76333">
        <ele>214</ele>
        <time>2018-05-08T08:43:58Z</time>
      </trkpt>
      <trkpt lat="45.88264" lon="4.76338">
        <ele>214</ele>
        <time>2018-05-08T08:43:59Z</time>
      </trkpt>
      <trkpt lat="45.8826" lon="4.76348">
        <ele>214</ele>
        <time>2018-05-08T08:44:01Z</time>
      </trkpt>
      <trkpt lat="45.88258" lon="4.76353">
        <ele>214</ele>
        <time>2018-05-08T08:44:02Z</time>
      </trkpt>
      <trkpt lat="45.88254" lon="4.76364">
        <ele>214</ele>
        <time>2018-05-08T08:44:04Z</time>
      </trkpt>
      <trkpt lat="45.88252" lon="4.76369">
        <ele>214</ele>
        <time>2018-05-08T08:44:05Z</time>
      </trkpt>
      <trkpt lat="45.88248" lon="4.7638">
        <ele>215</ele>
        <time>2018-05-08T08:44:07Z</time>
      </trkpt>
      <trkpt lat="45.88246" lon="4.76385">
        <ele>215</ele>
        <time>2018-05-08T08:44:08Z</time>
      </trkpt>
      <trkpt lat="45.88245" lon="4.76392">
        <ele>215</ele>
        <time>2018-05-08T08:44:09Z</time>
      </trkpt>
      <trkpt lat="45.88243" lon="4.76398">
        <ele>215</ele>
        <time>2018-05-08T08:44:10Z</time>
      </trkpt>
      <trkpt lat="45.8824" lon="4.76403">
        <ele>214</ele>
        <time>2018-05-08T08:44:11Z</time>
      </trkpt>
      <trkpt lat="45.88238" lon="4.76409">
        <ele>214</ele>
        <time>2018-05-08T08:44:12Z</time>
      </trkpt>
      <trkpt lat="45.88237" lon="4.76416">
        <ele>214</ele>
        <time>2018-05-08T08:44:13Z</time>
      </trkpt>
      <trkpt lat="45.88235" lon="4.76421">
        <ele>214</ele>
        <time>2018-05-08T08:44:14Z</time>
      </trkpt>
      <trkpt lat="45.88233" lon="4.76428">
        <ele>214</ele>
        <time>2018-05-08T08:44:15Z</time>
      </trkpt>
      <trkpt lat="45.8823" lon="4.76434">
        <ele>214</ele>
        <time>2018-05-08T08:44:16Z</time>
      </trkpt>
      <trkpt lat="45.88228" lon="4.76441">
        <ele>214</ele>
        <time>2018-05-08T08:44:17Z</time>
      </trkpt>
      <trkpt lat="45.88226" lon="4.76447">
        <ele>214</ele>
        <time>2018-05-08T08:44:18Z</time>
      </trkpt>
      <trkpt lat="45.88223" lon="4.76453">
        <ele>214</ele>
        <time>2018-05-08T08:44:19Z</time>
      </trkpt>
      <trkpt lat="45.88221" lon="4.76458">
        <ele>214</ele>
        <time>2018-05-08T08:44:20Z</time>
      </trkpt>
      <trkpt lat="45.88218" lon="4.7647">
        <ele>214</ele>
        <time>2018-05-08T08:44:22Z</time>
      </trkpt>
      <trkpt lat="45.88216" lon="4.76476">
        <ele>214</ele>
        <time>2018-05-08T08:44:23Z</time>
      </trkpt>
      <trkpt lat="45.88214" lon="4.76482">
        <ele>214</ele>
        <time>2018-05-08T08:44:24Z</time>
      </trkpt>
      <trkpt lat="45.88212" lon="4.76488">
        <ele>214</ele>
        <time>2018-05-08T08:44:25Z</time>
      </trkpt>
      <trkpt lat="45.88208" lon="4.76499">
        <ele>214</ele>
        <time>2018-05-08T08:44:27Z</time>
      </trkpt>
      <trkpt lat="45.88205" lon="4.76505">
        <ele>214</ele>
        <time>2018-05-08T08:44:28Z</time>
      </trkpt>
      <trkpt lat="45.88203" lon="4.76511">
        <ele>214</ele>
        <time>2018-05-08T08:44:29Z</time>
      </trkpt>
      <trkpt lat="45.88201" lon="4.76517">
        <ele>214</ele>
        <time>2018-05-08T08:44:30Z</time>
      </trkpt>
      <trkpt lat="45.88199" lon="4.76525">
        <ele>214</ele>
        <time>2018-05-08T08:44:31Z</time>
      </trkpt>
      <trkpt lat="45.88198" lon="4.76533">
        <ele>214</ele>
        <time>2018-05-08T08:44:32Z</time>
      </trkpt>
      <trkpt lat="45.88195" lon="4.7654">
        <ele>214</ele>
        <time>2018-05-08T08:44:33Z</time>
      </trkpt>
      <trkpt lat="45.88193" lon="4.76547">
        <ele>214</ele>
        <time>2018-05-08T08:44:34Z</time>
      </trkpt>
      <trkpt lat="45.88191" lon="4.76553">
        <ele>214</ele>
        <time>2018-05-08T08:44:35Z</time>
      </trkpt>
      <trkpt lat="45.88188" lon="4.7656">
        <ele>214</ele>
        <time>2018-05-08T08:44:36Z</time>
      </trkpt>
      <trkpt lat="45.88186" lon="4.76566">
        <ele>214</ele>
        <time>2018-05-08T08:44:37Z</time>
      </trkpt>
      <trkpt lat="45.88186" lon="4.76573">
        <ele>214</ele>
        <time>2018-05-08T08:44:38Z</time>
      </trkpt>
      <trkpt lat="45.88185" lon="4.7658">
        <ele>214</ele>
        <time>2018-05-08T08:44:39Z</time>
      </trkpt>
      <trkpt lat="45.88182" lon="4.76585">
        <ele>214</ele>
        <time>2018-05-08T08:44:40Z</time>
      </trkpt>
      <trkpt lat="45.8818" lon="4.76591">
        <ele>214</ele>
        <time>2018-05-08T08:44:41Z</time>
      </trkpt>
      <trkpt lat="45.88178" lon="4.76596">
        <ele>214</ele>
        <time>2018-05-08T08:44:42Z</time>
      </trkpt>
      <trkpt lat="45.88175" lon="4.76602">
        <ele>214</ele>
        <time>2018-05-08T08:44:43Z</time>
      </trkpt>
      <trkpt lat="45.88173" lon="4.76608">
        <ele>214</ele>
        <time>2018-05-08T08:44:44Z</time>
      </trkpt>
      <trkpt lat="45.88171" lon="4.76615">
        <ele>214</ele>
        <time>2018-05-08T08:44:45Z</time>
      </trkpt>
      <trkpt lat="45.88169" lon="4.7662">
        <ele>214</ele>
        <time>2018-05-08T08:44:46Z</time>
      </trkpt>
      <trkpt lat="45.88165" lon="4.7663">
        <ele>215</ele>
        <time>2018-05-08T08:44:48Z</time>
      </trkpt>
      <trkpt lat="45.88164" lon="4.76634">
        <ele>215</ele>
        <time>2018-05-08T08:44:49Z</time>
      </trkpt>
      <trkpt lat="45.88162" lon="4.76639">
        <ele>215</ele>
        <time>2018-05-08T08:44:50Z</time>
      </trkpt>
      <trkpt lat="45.8816" lon="4.76647">
        <ele>214</ele>
        <time>2018-05-08T08:44:51Z</time>
      </trkpt>
      <trkpt lat="45.88157" lon="4.76653">
        <ele>214</ele>
        <time>2018-05-08T08:44:52Z</time>
      </trkpt>
      <trkpt lat="45.88154" lon="4.76658">
        <ele>214</ele>
        <time>2018-05-08T08:44:53Z</time>
      </trkpt>
      <trkpt lat="45.88151" lon="4.76664">
        <ele>214</ele>
        <time>2018-05-08T08:44:54Z</time>
      </trkpt>
      <trkpt lat="45.88148" lon="4.76671">
        <ele>214</ele>
        <time>2018-05-08T08:44:55Z</time>
      </trkpt>
      <trkpt lat="45.88146" lon="4.76678">
        <ele>214</ele>
        <time>2018-05-08T08:44:56Z</time>
      </trkpt>
      <trkpt lat="45.88143" lon="4.76684">
        <ele>214</ele>
        <time>2018-05-08T08:44:57Z</time>
      </trkpt>
      <trkpt lat="45.8814" lon="4.7669">
        <ele>214</ele>
        <time>2018-05-08T08:44:58Z</time>
      </trkpt>
      <trkpt lat="45.88137" lon="4.76697">
        <ele>214</ele>
        <time>2018-05-08T08:44:59Z</time>
      </trkpt>
      <trkpt lat="45.88134" lon="4.76704">
        <ele>214</ele>
        <time>2018-05-08T08:45:00Z</time>
      </trkpt>
      <trkpt lat="45.88131" lon="4.7671">
        <ele>214</ele>
        <time>2018-05-08T08:45:01Z</time>
      </trkpt>
      <trkpt lat="45.88128" lon="4.76717">
        <ele>214</ele>
        <time>2018-05-08T08:45:02Z</time>
      </trkpt>
      <trkpt lat="45.88125" lon="4.76724">
        <ele>214</ele>
        <time>2018-05-08T08:45:03Z</time>
      </trkpt>
      <trkpt lat="45.88123" lon="4.76728">
        <ele>214</ele>
        <time>2018-05-08T08:45:04Z</time>
      </trkpt>
      <trkpt lat="45.88119" lon="4.76735">
        <ele>214</ele>
        <time>2018-05-08T08:45:05Z</time>
      </trkpt>
      <trkpt lat="45.88118" lon="4.76741">
        <ele>214</ele>
        <time>2018-05-08T08:45:06Z</time>
      </trkpt>
      <trkpt lat="45.88115" lon="4.76746">
        <ele>214</ele>
        <time>2018-05-08T08:45:07Z</time>
      </trkpt>
      <trkpt lat="45.88114" lon="4.76753">
        <ele>213</ele>
        <time>2018-05-08T08:45:08Z</time>
      </trkpt>
      <trkpt lat="45.88113" lon="4.7676">
        <ele>213</ele>
        <time>2018-05-08T08:45:09Z</time>
      </trkpt>
      <trkpt lat="45.88112" lon="4.76766">
        <ele>213</ele>
        <time>2018-05-08T08:45:10Z</time>
      </trkpt>
      <trkpt lat="45.88112" lon="4.76773">
        <ele>213</ele>
        <time>2018-05-08T08:45:11Z</time>
      </trkpt>
      <trkpt lat="45.8811" lon="4.76781">
        <ele>213</ele>
        <time>2018-05-08T08:45:12Z</time>
      </trkpt>
      <trkpt lat="45.88109" lon="4.76787">
        <ele>213</ele>
        <time>2018-05-08T08:45:13Z</time>
      </trkpt>
      <trkpt lat="45.88109" lon="4.76799">
        <ele>213</ele>
        <time>2018-05-08T08:45:15Z</time>
      </trkpt>
      <trkpt lat="45.88108" lon="4.76806">
        <ele>213</ele>
        <time>2018-05-08T08:45:16Z</time>
      </trkpt>
      <trkpt lat="45.88108" lon="4.76814">
        <ele>213</ele>
        <time>2018-05-08T08:45:17Z</time>
      </trkpt>
      <trkpt lat="45.88108" lon="4.76822">
        <ele>213</ele>
        <time>2018-05-08T08:45:18Z</time>
      </trkpt>
      <trkpt lat="45.88107" lon="4.76829">
        <ele>213</ele>
        <time>2018-05-08T08:45:19Z</time>
      </trkpt>
      <trkpt lat="45.88106" lon="4.76835">
        <ele>212</ele>
        <time>2018-05-08T08:45:20Z</time>
      </trkpt>
      <trkpt lat="45.88105" lon="4.76842">
        <ele>212</ele>
        <time>2018-05-08T08:45:21Z</time>
      </trkpt>
      <trkpt lat="45.88104" lon="4.76848">
        <ele>212</ele>
        <time>2018-05-08T08:45:22Z</time>
      </trkpt>
      <trkpt lat="45.88102" lon="4.76855">
        <ele>212</ele>
        <time>2018-05-08T08:45:23Z</time>
      </trkpt>
      <trkpt lat="45.88101" lon="4.76862">
        <ele>212</ele>
        <time>2018-05-08T08:45:24Z</time>
      </trkpt>
      <trkpt lat="45.881" lon="4.76868">
        <ele>212</ele>
        <time>2018-05-08T08:45:25Z</time>
      </trkpt>
      <trkpt lat="45.881" lon="4.76875">
        <ele>212</ele>
        <time>2018-05-08T08:45:26Z</time>
      </trkpt>
      <trkpt lat="45.88099" lon="4.76882">
        <ele>212</ele>
        <time>2018-05-08T08:45:27Z</time>
      </trkpt>
      <trkpt lat="45.88098" lon="4.76889">
        <ele>212</ele>
        <time>2018-05-08T08:45:28Z</time>
      </trkpt>
      <trkpt lat="45.88096" lon="4.76895">
        <ele>212</ele>
        <time>2018-05-08T08:45:29Z</time>
      </trkpt>
      <trkpt lat="45.88095" lon="4.76903">
        <ele>212</ele>
        <time>2018-05-08T08:45:30Z</time>
      </trkpt>
      <trkpt lat="45.88094" lon="4.76912">
        <ele>213</ele>
        <time>2018-05-08T08:45:31Z</time>
      </trkpt>
      <trkpt lat="45.88093" lon="4.76919">
        <ele>213</ele>
        <time>2018-05-08T08:45:32Z</time>
      </trkpt>
      <trkpt lat="45.88093" lon="4.76927">
        <ele>212</ele>
        <time>2018-05-08T08:45:33Z</time>
      </trkpt>
      <trkpt lat="45.88091" lon="4.76934">
        <ele>212</ele>
        <time>2018-05-08T08:45:34Z</time>
      </trkpt>
      <trkpt lat="45.88089" lon="4.7694">
        <ele>212</ele>
        <time>2018-05-08T08:45:35Z</time>
      </trkpt>
      <trkpt lat="45.88087" lon="4.76946">
        <ele>212</ele>
        <time>2018-05-08T08:45:36Z</time>
      </trkpt>
      <trkpt lat="45.88085" lon="4.76953">
        <ele>212</ele>
        <time>2018-05-08T08:45:37Z</time>
      </trkpt>
      <trkpt lat="45.88083" lon="4.76959">
        <ele>213</ele>
        <time>2018-05-08T08:45:38Z</time>
      </trkpt>
      <trkpt lat="45.88082" lon="4.76965">
        <ele>213</ele>
        <time>2018-05-08T08:45:39Z</time>
      </trkpt>
      <trkpt lat="45.88081" lon="4.76972">
        <ele>213</ele>
        <time>2018-05-08T08:45:40Z</time>
      </trkpt>
      <trkpt lat="45.88079" lon="4.76978">
        <ele>213</ele>
        <time>2018-05-08T08:45:41Z</time>
      </trkpt>
      <trkpt lat="45.88078" lon="4.76984">
        <ele>213</ele>
        <time>2018-05-08T08:45:42Z</time>
      </trkpt>
      <trkpt lat="45.88076" lon="4.76993">
        <ele>213</ele>
        <time>2018-05-08T08:45:43Z</time>
      </trkpt>
      <trkpt lat="45.88075" lon="4.76999">
        <ele>213</ele>
        <time>2018-05-08T08:45:44Z</time>
      </trkpt>
      <trkpt lat="45.88072" lon="4.7701">
        <ele>213</ele>
        <time>2018-05-08T08:45:46Z</time>
      </trkpt>
      <trkpt lat="45.88071" lon="4.77015">
        <ele>214</ele>
        <time>2018-05-08T08:45:47Z</time>
      </trkpt>
      <trkpt lat="45.88068" lon="4.77027">
        <ele>214</ele>
        <time>2018-05-08T08:45:49Z</time>
      </trkpt>
      <trkpt lat="45.88066" lon="4.77032">
        <ele>214</ele>
        <time>2018-05-08T08:45:50Z</time>
      </trkpt>
      <trkpt lat="45.88064" lon="4.77039">
        <ele>214</ele>
        <time>2018-05-08T08:45:51Z</time>
      </trkpt>
      <trkpt lat="45.88063" lon="4.77045">
        <ele>214</ele>
        <time>2018-05-08T08:45:52Z</time>
      </trkpt>
      <trkpt lat="45.8806" lon="4.77057">
        <ele>214</ele>
        <time>2018-05-08T08:45:54Z</time>
      </trkpt>
      <trkpt lat="45.88059" lon="4.77063">
        <ele>214</ele>
        <time>2018-05-08T08:45:55Z</time>
      </trkpt>
      <trkpt lat="45.88058" lon="4.77069">
        <ele>214</ele>
        <time>2018-05-08T08:45:56Z</time>
      </trkpt>
      <trkpt lat="45.88056" lon="4.77075">
        <ele>214</ele>
        <time>2018-05-08T08:45:57Z</time>
      </trkpt>
      <trkpt lat="45.88055" lon="4.77081">
        <ele>214</ele>
        <time>2018-05-08T08:45:58Z</time>
      </trkpt>
      <trkpt lat="45.88052" lon="4.77088">
        <ele>215</ele>
        <time>2018-05-08T08:45:59Z</time>
      </trkpt>
      <trkpt lat="45.88051" lon="4.77094">
        <ele>215</ele>
        <time>2018-05-08T08:46:00Z</time>
      </trkpt>
      <trkpt lat="45.88049" lon="4.77102">
        <ele>215</ele>
        <time>2018-05-08T08:46:01Z</time>
      </trkpt>
      <trkpt lat="45.88047" lon="4.77109">
        <ele>215</ele>
        <time>2018-05-08T08:46:02Z</time>
      </trkpt>
      <trkpt lat="45.88046" lon="4.77115">
        <ele>215</ele>
        <time>2018-05-08T08:46:03Z</time>
      </trkpt>
      <trkpt lat="45.88045" lon="4.77122">
        <ele>215</ele>
        <time>2018-05-08T08:46:04Z</time>
      </trkpt>
      <trkpt lat="45.88043" lon="4.77128">
        <ele>215</ele>
        <time>2018-05-08T08:46:05Z</time>
      </trkpt>
      <trkpt lat="45.88043" lon="4.77134">
        <ele>215</ele>
        <time>2018-05-08T08:46:06Z</time>
      </trkpt>
      <trkpt lat="45.88042" lon="4.7714">
        <ele>215</ele>
        <time>2018-05-08T08:46:07Z</time>
      </trkpt>
      <trkpt lat="45.88042" lon="4.77153">
        <ele>215</ele>
        <time>2018-05-08T08:46:09Z</time>
      </trkpt>
      <trkpt lat="45.88042" lon="4.77156">
        <ele>215</ele>
        <time>2018-05-08T08:46:10Z</time>
      </trkpt>
      <trkpt lat="45.88042" lon="4.77169">
        <ele>216</ele>
        <time>2018-05-08T08:46:12Z</time>
      </trkpt>
      <trkpt lat="45.88041" lon="4.77176">
        <ele>216</ele>
        <time>2018-05-08T08:46:13Z</time>
      </trkpt>
      <trkpt lat="45.8804" lon="4.77182">
        <ele>216</ele>
        <time>2018-05-08T08:46:14Z</time>
      </trkpt>
      <trkpt lat="45.88039" lon="4.77189">
        <ele>216</ele>
        <time>2018-05-08T08:46:15Z</time>
      </trkpt>
      <trkpt lat="45.88038" lon="4.77195">
        <ele>216</ele>
        <time>2018-05-08T08:46:16Z</time>
      </trkpt>
      <trkpt lat="45.88039" lon="4.77204">
        <ele>216</ele>
        <time>2018-05-08T08:46:17Z</time>
      </trkpt>
      <trkpt lat="45.88037" lon="4.77215">
        <ele>216</ele>
        <time>2018-05-08T08:46:19Z</time>
      </trkpt>
      <trkpt lat="45.88036" lon="4.77221">
        <ele>216</ele>
        <time>2018-05-08T08:46:20Z</time>
      </trkpt>
      <trkpt lat="45.88034" lon="4.77232">
        <ele>216</ele>
        <time>2018-05-08T08:46:22Z</time>
      </trkpt>
      <trkpt lat="45.88033" lon="4.77238">
        <ele>216</ele>
        <time>2018-05-08T08:46:23Z</time>
      </trkpt>
      <trkpt lat="45.88032" lon="4.7725">
        <ele>215</ele>
        <time>2018-05-08T08:46:25Z</time>
      </trkpt>
      <trkpt lat="45.88031" lon="4.77255">
        <ele>215</ele>
        <time>2018-05-08T08:46:26Z</time>
      </trkpt>
      <trkpt lat="45.8803" lon="4.77268">
        <ele>215</ele>
        <time>2018-05-08T08:46:28Z</time>
      </trkpt>
      <trkpt lat="45.88029" lon="4.77275">
        <ele>215</ele>
        <time>2018-05-08T08:46:29Z</time>
      </trkpt>
      <trkpt lat="45.88028" lon="4.77282">
        <ele>215</ele>
        <time>2018-05-08T08:46:30Z</time>
      </trkpt>
      <trkpt lat="45.88027" lon="4.77288">
        <ele>215</ele>
        <time>2018-05-08T08:46:31Z</time>
      </trkpt>
      <trkpt lat="45.88025" lon="4.77301">
        <ele>215</ele>
        <time>2018-05-08T08:46:33Z</time>
      </trkpt>
      <trkpt lat="45.88024" lon="4.77307">
        <ele>215</ele>
        <time>2018-05-08T08:46:34Z</time>
      </trkpt>
      <trkpt lat="45.88023" lon="4.77314">
        <ele>215</ele>
        <time>2018-05-08T08:46:35Z</time>
      </trkpt>
      <trkpt lat="45.88022" lon="4.7732">
        <ele>215</ele>
        <time>2018-05-08T08:46:36Z</time>
      </trkpt>
      <trkpt lat="45.88021" lon="4.77328">
        <ele>215</ele>
        <time>2018-05-08T08:46:37Z</time>
      </trkpt>
      <trkpt lat="45.8802" lon="4.77335">
        <ele>215</ele>
        <time>2018-05-08T08:46:38Z</time>
      </trkpt>
      <trkpt lat="45.88019" lon="4.77342">
        <ele>215</ele>
        <time>2018-05-08T08:46:39Z</time>
      </trkpt>
      <trkpt lat="45.88019" lon="4.77348">
        <ele>215</ele>
        <time>2018-05-08T08:46:40Z</time>
      </trkpt>
      <trkpt lat="45.88017" lon="4.77355">
        <ele>215</ele>
        <time>2018-05-08T08:46:41Z</time>
      </trkpt>
      <trkpt lat="45.88016" lon="4.77361">
        <ele>215</ele>
        <time>2018-05-08T08:46:42Z</time>
      </trkpt>
      <trkpt lat="45.88014" lon="4.77373">
        <ele>215</ele>
        <time>2018-05-08T08:46:44Z</time>
      </trkpt>
      <trkpt lat="45.88013" lon="4.77381">
        <ele>215</ele>
        <time>2018-05-08T08:46:45Z</time>
      </trkpt>
      <trkpt lat="45.88013" lon="4.77388">
        <ele>215</ele>
        <time>2018-05-08T08:46:46Z</time>
      </trkpt>
      <trkpt lat="45.88012" lon="4.77394">
        <ele>215</ele>
        <time>2018-05-08T08:46:47Z</time>
      </trkpt>
      <trkpt lat="45.88011" lon="4.77402">
        <ele>215</ele>
        <time>2018-05-08T08:46:48Z</time>
      </trkpt>
      <trkpt lat="45.8801" lon="4.77408">
        <ele>215</ele>
        <time>2018-05-08T08:46:49Z</time>
      </trkpt>
      <trkpt lat="45.88009" lon="4.77415">
        <ele>215</ele>
        <time>2018-05-08T08:46:50Z</time>
      </trkpt>
      <trkpt lat="45.88008" lon="4.77421">
        <ele>215</ele>
        <time>2018-05-08T08:46:51Z</time>
      </trkpt>
      <trkpt lat="45.88004" lon="4.77433">
        <ele>215</ele>
        <time>2018-05-08T08:46:53Z</time>
      </trkpt>
      <trkpt lat="45.88003" lon="4.77439">
        <ele>215</ele>
        <time>2018-05-08T08:46:54Z</time>
      </trkpt>
      <trkpt lat="45.88" lon="4.77445">
        <ele>215</ele>
        <time>2018-05-08T08:46:55Z</time>
      </trkpt>
      <trkpt lat="45.88001" lon="4.77452">
        <ele>215</ele>
        <time>2018-05-08T08:46:56Z</time>
      </trkpt>
      <trkpt lat="45.87999" lon="4.77459">
        <ele>217</ele>
        <time>2018-05-08T08:46:57Z</time>
      </trkpt>
      <trkpt lat="45.87999" lon="4.77465">
        <ele>217</ele>
        <time>2018-05-08T08:46:58Z</time>
      </trkpt>
      <trkpt lat="45.87998" lon="4.77472">
        <ele>217</ele>
        <time>2018-05-08T08:46:59Z</time>
      </trkpt>
      <trkpt lat="45.87998" lon="4.77479">
        <ele>217</ele>
        <time>2018-05-08T08:47:00Z</time>
      </trkpt>
      <trkpt lat="45.87997" lon="4.77487">
        <ele>216</ele>
        <time>2018-05-08T08:47:01Z</time>
      </trkpt>
      <trkpt lat="45.87999" lon="4.77493">
        <ele>216</ele>
        <time>2018-05-08T08:47:02Z</time>
      </trkpt>
      <trkpt lat="45.87999" lon="4.77505">
        <ele>216</ele>
        <time>2018-05-08T08:47:04Z</time>
      </trkpt>
      <trkpt lat="45.87998" lon="4.77512">
        <ele>217</ele>
        <time>2018-05-08T08:47:05Z</time>
      </trkpt>
      <trkpt lat="45.87997" lon="4.77523">
        <ele>217</ele>
        <time>2018-05-08T08:47:07Z</time>
      </trkpt>
      <trkpt lat="45.87996" lon="4.77529">
        <ele>217</ele>
        <time>2018-05-08T08:47:08Z</time>
      </trkpt>
      <trkpt lat="45.87996" lon="4.77535">
        <ele>217</ele>
        <time>2018-05-08T08:47:09Z</time>
      </trkpt>
      <trkpt lat="45.87993" lon="4.77542">
        <ele>217</ele>
        <time>2018-05-08T08:47:10Z</time>
      </trkpt>
      <trkpt lat="45.87992" lon="4.77549">
        <ele>217</ele>
        <time>2018-05-08T08:47:11Z</time>
      </trkpt>
      <trkpt lat="45.87992" lon="4.77555">
        <ele>217</ele>
        <time>2018-05-08T08:47:12Z</time>
      </trkpt>
      <trkpt lat="45.87991" lon="4.77562">
        <ele>217</ele>
        <time>2018-05-08T08:47:13Z</time>
      </trkpt>
      <trkpt lat="45.8799" lon="4.77569">
        <ele>217</ele>
        <time>2018-05-08T08:47:14Z</time>
      </trkpt>
      <trkpt lat="45.87988" lon="4.77576">
        <ele>217</ele>
        <time>2018-05-08T08:47:15Z</time>
      </trkpt>
      <trkpt lat="45.87987" lon="4.77581">
        <ele>217</ele>
        <time>2018-05-08T08:47:16Z</time>
      </trkpt>
      <trkpt lat="45.87984" lon="4.77593">
        <ele>218</ele>
        <time>2018-05-08T08:47:18Z</time>
      </trkpt>
      <trkpt lat="45.87981" lon="4.77599">
        <ele>218</ele>
        <time>2018-05-08T08:47:19Z</time>
      </trkpt>
      <trkpt lat="45.87979" lon="4.77606">
        <ele>218</ele>
        <time>2018-05-08T08:47:20Z</time>
      </trkpt>
      <trkpt lat="45.87978" lon="4.77612">
        <ele>218</ele>
        <time>2018-05-08T08:47:21Z</time>
      </trkpt>
      <trkpt lat="45.87976" lon="4.77622">
        <ele>218</ele>
        <time>2018-05-08T08:47:23Z</time>
      </trkpt>
      <trkpt lat="45.87975" lon="4.77628">
        <ele>218</ele>
        <time>2018-05-08T08:47:24Z</time>
      </trkpt>
      <trkpt lat="45.87972" lon="4.7764">
        <ele>218</ele>
        <time>2018-05-08T08:47:26Z</time>
      </trkpt>
      <trkpt lat="45.87971" lon="4.77646">
        <ele>218</ele>
        <time>2018-05-08T08:47:27Z</time>
      </trkpt>
      <trkpt lat="45.8797" lon="4.77652">
        <ele>218</ele>
        <time>2018-05-08T08:47:28Z</time>
      </trkpt>
      <trkpt lat="45.87967" lon="4.77659">
        <ele>218</ele>
        <time>2018-05-08T08:47:29Z</time>
      </trkpt>
      <trkpt lat="45.87963" lon="4.77669">
        <ele>218</ele>
        <time>2018-05-08T08:47:31Z</time>
      </trkpt>
      <trkpt lat="45.8796" lon="4.77675">
        <ele>218</ele>
        <time>2018-05-08T08:47:32Z</time>
      </trkpt>
      <trkpt lat="45.87959" lon="4.77682">
        <ele>218</ele>
        <time>2018-05-08T08:47:33Z</time>
      </trkpt>
      <trkpt lat="45.87959" lon="4.77689">
        <ele>218</ele>
        <time>2018-05-08T08:47:34Z</time>
      </trkpt>
      <trkpt lat="45.87956" lon="4.77701">
        <ele>218</ele>
        <time>2018-05-08T08:47:36Z</time>
      </trkpt>
      <trkpt lat="45.87955" lon="4.77708">
        <ele>218</ele>
        <time>2018-05-08T08:47:37Z</time>
      </trkpt>
      <trkpt lat="45.87956" lon="4.7772">
        <ele>218</ele>
        <time>2018-05-08T08:47:39Z</time>
      </trkpt>
      <trkpt lat="45.87956" lon="4.77724">
        <ele>218</ele>
        <time>2018-05-08T08:47:40Z</time>
      </trkpt>
      <trkpt lat="45.87958" lon="4.7773">
        <ele>218</ele>
        <time>2018-05-08T08:47:41Z</time>
      </trkpt>
      <trkpt lat="45.87958" lon="4.77737">
        <ele>218</ele>
        <time>2018-05-08T08:47:42Z</time>
      </trkpt>
      <trkpt lat="45.87958" lon="4.77744">
        <ele>218</ele>
        <time>2018-05-08T08:47:43Z</time>
      </trkpt>
      <trkpt lat="45.87958" lon="4.7775">
        <ele>219</ele>
        <time>2018-05-08T08:47:44Z</time>
      </trkpt>
      <trkpt lat="45.87958" lon="4.77757">
        <ele>219</ele>
        <time>2018-05-08T08:47:45Z</time>
      </trkpt>
      <trkpt lat="45.8796" lon="4.77765">
        <ele>219</ele>
        <time>2018-05-08T08:47:46Z</time>
      </trkpt>
      <trkpt lat="45.87961" lon="4.77775">
        <ele>219</ele>
        <time>2018-05-08T08:47:48Z</time>
      </trkpt>
      <trkpt lat="45.87961" lon="4.77785">
        <ele>219</ele>
        <time>2018-05-08T08:47:49Z</time>
      </trkpt>
      <trkpt lat="45.87963" lon="4.77793">
        <ele>219</ele>
        <time>2018-05-08T08:47:50Z</time>
      </trkpt>
      <trkpt lat="45.87965" lon="4.778">
        <ele>219</ele>
        <time>2018-05-08T08:47:51Z</time>
      </trkpt>
      <trkpt lat="45.87967" lon="4.77807">
        <ele>218</ele>
        <time>2018-05-08T08:47:52Z</time>
      </trkpt>
      <trkpt lat="45.87968" lon="4.77813">
        <ele>218</ele>
        <time>2018-05-08T08:47:53Z</time>
      </trkpt>
      <trkpt lat="45.8797" lon="4.77825">
        <ele>218</ele>
        <time>2018-05-08T08:47:55Z</time>
      </trkpt>
      <trkpt lat="45.87968" lon="4.77832">
        <ele>218</ele>
        <time>2018-05-08T08:47:56Z</time>
      </trkpt>
      <trkpt lat="45.87968" lon="4.77838">
        <ele>219</ele>
        <time>2018-05-08T08:47:57Z</time>
      </trkpt>
      <trkpt lat="45.87967" lon="4.77845">
        <ele>219</ele>
        <time>2018-05-08T08:47:58Z</time>
      </trkpt>
      <trkpt lat="45.87967" lon="4.77852">
        <ele>219</ele>
        <time>2018-05-08T08:47:59Z</time>
      </trkpt>
      <trkpt lat="45.87967" lon="4.77859">
        <ele>219</ele>
        <time>2018-05-08T08:48:00Z</time>
      </trkpt>
      <trkpt lat="45.87967" lon="4.77865">
        <ele>219</ele>
        <time>2018-05-08T08:48:01Z</time>
      </trkpt>
      <trkpt lat="45.87967" lon="4.77872">
        <ele>219</ele>
        <time>2018-05-08T08:48:02Z</time>
      </trkpt>
      <trkpt lat="45.87968" lon="4.77879">
        <ele>219</ele>
        <time>2018-05-08T08:48:03Z</time>
      </trkpt>
      <trkpt lat="45.87968" lon="4.77886">
        <ele>219</ele>
        <time>2018-05-08T08:48:04Z</time>
      </trkpt>
      <trkpt lat="45.87966" lon="4.77897">
        <ele>220</ele>
        <time>2018-05-08T08:48:06Z</time>
      </trkpt>
      <trkpt lat="45.87967" lon="4.77905">
        <ele>220</ele>
        <time>2018-05-08T08:48:07Z</time>
      </trkpt>
      <trkpt lat="45.87967" lon="4.77917">
        <ele>220</ele>
        <time>2018-05-08T08:48:09Z</time>
      </trkpt>
      <trkpt lat="45.87968" lon="4.77923">
        <ele>220</ele>
        <time>2018-05-08T08:48:10Z</time>
      </trkpt>
      <trkpt lat="45.8797" lon="4.77931">
        <ele>220</ele>
        <time>2018-05-08T08:48:11Z</time>
      </trkpt>
      <trkpt lat="45.87972" lon="4.77937">
        <ele>219</ele>
        <time>2018-05-08T08:48:12Z</time>
      </trkpt>
      <trkpt lat="45.87971" lon="4.77949">
        <ele>220</ele>
        <time>2018-05-08T08:48:15Z</time>
      </trkpt>
      <trkpt lat="45.87972" lon="4.77955">
        <ele>220</ele>
        <time>2018-05-08T08:48:16Z</time>
      </trkpt>
      <trkpt lat="45.87976" lon="4.77964">
        <ele>219</ele>
        <time>2018-05-08T08:48:18Z</time>
      </trkpt>
      <trkpt lat="45.87978" lon="4.7797">
        <ele>219</ele>
        <time>2018-05-08T08:48:19Z</time>
      </trkpt>
      <trkpt lat="45.87979" lon="4.77982">
        <ele>219</ele>
        <time>2018-05-08T08:48:21Z</time>
      </trkpt>
      <trkpt lat="45.87981" lon="4.77989">
        <ele>219</ele>
        <time>2018-05-08T08:48:22Z</time>
      </trkpt>
      <trkpt lat="45.87983" lon="4.77995">
        <ele>219</ele>
        <time>2018-05-08T08:48:23Z</time>
      </trkpt>
      <trkpt lat="45.87984" lon="4.78002">
        <ele>218</ele>
        <time>2018-05-08T08:48:24Z</time>
      </trkpt>
      <trkpt lat="45.87984" lon="4.7801">
        <ele>218</ele>
        <time>2018-05-08T08:48:25Z</time>
      </trkpt>
      <trkpt lat="45.87985" lon="4.78017">
        <ele>218</ele>
        <time>2018-05-08T08:48:26Z</time>
      </trkpt>
      <trkpt lat="45.87987" lon="4.78025">
        <ele>218</ele>
        <time>2018-05-08T08:48:27Z</time>
      </trkpt>
      <trkpt lat="45.87987" lon="4.78033">
        <ele>218</ele>
        <time>2018-05-08T08:48:28Z</time>
      </trkpt>
      <trkpt lat="45.87989" lon="4.7804">
        <ele>217</ele>
        <time>2018-05-08T08:48:29Z</time>
      </trkpt>
      <trkpt lat="45.8799" lon="4.78047">
        <ele>217</ele>
        <time>2018-05-08T08:48:30Z</time>
      </trkpt>
      <trkpt lat="45.87992" lon="4.78054">
        <ele>217</ele>
        <time>2018-05-08T08:48:31Z</time>
      </trkpt>
      <trkpt lat="45.87994" lon="4.78061">
        <ele>217</ele>
        <time>2018-05-08T08:48:32Z</time>
      </trkpt>
      <trkpt lat="45.87995" lon="4.78068">
        <ele>216</ele>
        <time>2018-05-08T08:48:33Z</time>
      </trkpt>
      <trkpt lat="45.87996" lon="4.78074">
        <ele>216</ele>
        <time>2018-05-08T08:48:34Z</time>
      </trkpt>
      <trkpt lat="45.87997" lon="4.78082">
        <ele>215</ele>
        <time>2018-05-08T08:48:35Z</time>
      </trkpt>
      <trkpt lat="45.88" lon="4.78089">
        <ele>215</ele>
        <time>2018-05-08T08:48:36Z</time>
      </trkpt>
      <trkpt lat="45.88001" lon="4.78096">
        <ele>214</ele>
        <time>2018-05-08T08:48:37Z</time>
      </trkpt>
      <trkpt lat="45.88003" lon="4.78103">
        <ele>214</ele>
        <time>2018-05-08T08:48:38Z</time>
      </trkpt>
      <trkpt lat="45.88003" lon="4.78111">
        <ele>214</ele>
        <time>2018-05-08T08:48:39Z</time>
      </trkpt>
      <trkpt lat="45.88004" lon="4.78118">
        <ele>214</ele>
        <time>2018-05-08T08:48:40Z</time>
      </trkpt>
      <trkpt lat="45.88005" lon="4.78125">
        <ele>214</ele>
        <time>2018-05-08T08:48:41Z</time>
      </trkpt>
      <trkpt lat="45.88007" lon="4.78132">
        <ele>214</ele>
        <time>2018-05-08T08:48:42Z</time>
      </trkpt>
      <trkpt lat="45.88007" lon="4.78144">
        <ele>214</ele>
        <time>2018-05-08T08:48:44Z</time>
      </trkpt>
      <trkpt lat="45.88008" lon="4.78152">
        <ele>214</ele>
        <time>2018-05-08T08:48:45Z</time>
      </trkpt>
      <trkpt lat="45.88009" lon="4.7816">
        <ele>214</ele>
        <time>2018-05-08T08:48:46Z</time>
      </trkpt>
      <trkpt lat="45.88009" lon="4.78168">
        <ele>214</ele>
        <time>2018-05-08T08:48:47Z</time>
      </trkpt>
      <trkpt lat="45.8801" lon="4.78176">
        <ele>214</ele>
        <time>2018-05-08T08:48:48Z</time>
      </trkpt>
      <trkpt lat="45.88011" lon="4.78183">
        <ele>214</ele>
        <time>2018-05-08T08:48:49Z</time>
      </trkpt>
      <trkpt lat="45.88012" lon="4.78191">
        <ele>214</ele>
        <time>2018-05-08T08:48:50Z</time>
      </trkpt>
      <trkpt lat="45.88011" lon="4.78199">
        <ele>214</ele>
        <time>2018-05-08T08:48:51Z</time>
      </trkpt>
      <trkpt lat="45.8801" lon="4.78206">
        <ele>214</ele>
        <time>2018-05-08T08:48:52Z</time>
      </trkpt>
      <trkpt lat="45.88009" lon="4.78215">
        <ele>213</ele>
        <time>2018-05-08T08:48:53Z</time>
      </trkpt>
      <trkpt lat="45.88008" lon="4.78223">
        <ele>213</ele>
        <time>2018-05-08T08:48:54Z</time>
      </trkpt>
      <trkpt lat="45.88007" lon="4.7823">
        <ele>214</ele>
        <time>2018-05-08T08:48:55Z</time>
      </trkpt>
      <trkpt lat="45.88006" lon="4.78238">
        <ele>214</ele>
        <time>2018-05-08T08:48:56Z</time>
      </trkpt>
      <trkpt lat="45.88005" lon="4.78245">
        <ele>214</ele>
        <time>2018-05-08T08:48:57Z</time>
      </trkpt>
      <trkpt lat="45.88005" lon="4.78252">
        <ele>214</ele>
        <time>2018-05-08T08:48:58Z</time>
      </trkpt>
      <trkpt lat="45.88004" lon="4.78259">
        <ele>214</ele>
        <time>2018-05-08T08:48:59Z</time>
      </trkpt>
      <trkpt lat="45.88003" lon="4.78265">
        <ele>213</ele>
        <time>2018-05-08T08:49:00Z</time>
      </trkpt>
      <trkpt lat="45.88001" lon="4.78273">
        <ele>213</ele>
        <time>2018-05-08T08:49:01Z</time>
      </trkpt>
      <trkpt lat="45.88" lon="4.78279">
        <ele>215</ele>
        <time>2018-05-08T08:49:02Z</time>
      </trkpt>
      <trkpt lat="45.87999" lon="4.78286">
        <ele>215</ele>
        <time>2018-05-08T08:49:03Z</time>
      </trkpt>
      <trkpt lat="45.87999" lon="4.78294">
        <ele>215</ele>
        <time>2018-05-08T08:49:04Z</time>
      </trkpt>
      <trkpt lat="45.87998" lon="4.78301">
        <ele>215</ele>
        <time>2018-05-08T08:49:05Z</time>
      </trkpt>
      <trkpt lat="45.87996" lon="4.78307">
        <ele>215</ele>
        <time>2018-05-08T08:49:06Z</time>
      </trkpt>
      <trkpt lat="45.87995" lon="4.78313">
        <ele>215</ele>
        <time>2018-05-08T08:49:07Z</time>
      </trkpt>
      <trkpt lat="45.87994" lon="4.78321">
        <ele>215</ele>
        <time>2018-05-08T08:49:08Z</time>
      </trkpt>
      <trkpt lat="45.87994" lon="4.78328">
        <ele>214</ele>
        <time>2018-05-08T08:49:09Z</time>
      </trkpt>
      <trkpt lat="45.87992" lon="4.78335">
        <ele>214</ele>
        <time>2018-05-08T08:49:10Z</time>
      </trkpt>
      <trkpt lat="45.8799" lon="4.78342">
        <ele>214</ele>
        <time>2018-05-08T08:49:11Z</time>
      </trkpt>
      <trkpt lat="45.87989" lon="4.78349">
        <ele>215</ele>
        <time>2018-05-08T08:49:12Z</time>
      </trkpt>
      <trkpt lat="45.87988" lon="4.78356">
        <ele>215</ele>
        <time>2018-05-08T08:49:13Z</time>
      </trkpt>
      <trkpt lat="45.87987" lon="4.78361">
        <ele>215</ele>
        <time>2018-05-08T08:49:14Z</time>
      </trkpt>
      <trkpt lat="45.87988" lon="4.7837">
        <ele>215</ele>
        <time>2018-05-08T08:49:15Z</time>
      </trkpt>
      <trkpt lat="45.87988" lon="4.78377">
        <ele>215</ele>
        <time>2018-05-08T08:49:16Z</time>
      </trkpt>
      <trkpt lat="45.87987" lon="4.78383">
        <ele>215</ele>
        <time>2018-05-08T08:49:17Z</time>
      </trkpt>
      <trkpt lat="45.87988" lon="4.78389">
        <ele>215</ele>
        <time>2018-05-08T08:49:18Z</time>
      </trkpt>
      <trkpt lat="45.87989" lon="4.78396">
        <ele>214</ele>
        <time>2018-05-08T08:49:19Z</time>
      </trkpt>
      <trkpt lat="45.87991" lon="4.78408">
        <ele>214</ele>
        <time>2018-05-08T08:49:21Z</time>
      </trkpt>
      <trkpt lat="45.87991" lon="4.78413">
        <ele>214</ele>
        <time>2018-05-08T08:49:22Z</time>
      </trkpt>
      <trkpt lat="45.87987" lon="4.78423">
        <ele>214</ele>
        <time>2018-05-08T08:49:25Z</time>
      </trkpt>
      <trkpt lat="45.87983" lon="4.78427">
        <ele>215</ele>
        <time>2018-05-08T08:49:26Z</time>
      </trkpt>
      <trkpt lat="45.87975" lon="4.78428">
        <ele>215</ele>
        <time>2018-05-08T08:49:29Z</time>
      </trkpt>
      <trkpt lat="45.87973" lon="4.78428">
        <ele>215</ele>
        <time>2018-05-08T08:49:30Z</time>
      </trkpt>
      <trkpt lat="45.87966" lon="4.78429">
        <ele>215</ele>
        <time>2018-05-08T08:49:33Z</time>
      </trkpt>
      <trkpt lat="45.87964" lon="4.78429">
        <ele>215</ele>
        <time>2018-05-08T08:49:34Z</time>
      </trkpt>
      <trkpt lat="45.87957" lon="4.7843">
        <ele>216</ele>
        <time>2018-05-08T08:49:37Z</time>
      </trkpt>
      <trkpt lat="45.87955" lon="4.7843">
        <ele>216</ele>
        <time>2018-05-08T08:49:38Z</time>
      </trkpt>
      <trkpt lat="45.87947" lon="4.78433">
        <ele>216</ele>
        <time>2018-05-08T08:49:41Z</time>
      </trkpt>
      <trkpt lat="45.87944" lon="4.78434">
        <ele>216</ele>
        <time>2018-05-08T08:49:42Z</time>
      </trkpt>
      <trkpt lat="45.87938" lon="4.78436">
        <ele>216</ele>
        <time>2018-05-08T08:49:44Z</time>
      </trkpt>
      <trkpt lat="45.87935" lon="4.78437">
        <ele>216</ele>
        <time>2018-05-08T08:49:45Z</time>
      </trkpt>
      <trkpt lat="45.87926" lon="4.78439">
        <ele>216</ele>
        <time>2018-05-08T08:49:48Z</time>
      </trkpt>
      <trkpt lat="45.87923" lon="4.78439">
        <ele>216</ele>
        <time>2018-05-08T08:49:49Z</time>
      </trkpt>
      <trkpt lat="45.87915" lon="4.78441">
        <ele>219</ele>
        <time>2018-05-08T08:49:52Z</time>
      </trkpt>
      <trkpt lat="45.87912" lon="4.78441">
        <ele>220</ele>
        <time>2018-05-08T08:49:53Z</time>
      </trkpt>
      <trkpt lat="45.87904" lon="4.78443">
        <ele>220</ele>
        <time>2018-05-08T08:49:56Z</time>
      </trkpt>
      <trkpt lat="45.87901" lon="4.78443">
        <ele>220</ele>
        <time>2018-05-08T08:49:57Z</time>
      </trkpt>
      <trkpt lat="45.87892" lon="4.78444">
        <ele>220</ele>
        <time>2018-05-08T08:50:00Z</time>
      </trkpt>
      <trkpt lat="45.87889" lon="4.78445">
        <ele>220</ele>
        <time>2018-05-08T08:50:01Z</time>
      </trkpt>
      <trkpt lat="45.87881" lon="4.78447">
        <ele>221</ele>
        <time>2018-05-08T08:50:04Z</time>
      </trkpt>
      <trkpt lat="45.87878" lon="4.78448">
        <ele>221</ele>
        <time>2018-05-08T08:50:05Z</time>
      </trkpt>
      <trkpt lat="45.8787" lon="4.78451">
        <ele>221</ele>
        <time>2018-05-08T08:50:08Z</time>
      </trkpt>
      <trkpt lat="45.87867" lon="4.78452">
        <ele>221</ele>
        <time>2018-05-08T08:50:09Z</time>
      </trkpt>
      <trkpt lat="45.87858" lon="4.78456">
        <ele>222</ele>
        <time>2018-05-08T08:50:12Z</time>
      </trkpt>
      <trkpt lat="45.87855" lon="4.78457">
        <ele>222</ele>
        <time>2018-05-08T08:50:13Z</time>
      </trkpt>
      <trkpt lat="45.87847" lon="4.7846">
        <ele>222</ele>
        <time>2018-05-08T08:50:16Z</time>
      </trkpt>
      <trkpt lat="45.87845" lon="4.78461">
        <ele>222</ele>
        <time>2018-05-08T08:50:17Z</time>
      </trkpt>
      <trkpt lat="45.87836" lon="4.78462">
        <ele>223</ele>
        <time>2018-05-08T08:50:20Z</time>
      </trkpt>
      <trkpt lat="45.87833" lon="4.78462">
        <ele>226</ele>
        <time>2018-05-08T08:50:21Z</time>
      </trkpt>
      <trkpt lat="45.87825" lon="4.7846">
        <ele>226</ele>
        <time>2018-05-08T08:50:24Z</time>
      </trkpt>
      <trkpt lat="45.87822" lon="4.7846">
        <ele>226</ele>
        <time>2018-05-08T08:50:25Z</time>
      </trkpt>
      <trkpt lat="45.87819" lon="4.7846">
        <ele>226</ele>
        <time>2018-05-08T08:50:26Z</time>
      </trkpt>
      <trkpt lat="45.87811" lon="4.78465">
        <ele>226</ele>
        <time>2018-05-08T08:50:27Z</time>
      </trkpt>
      <trkpt lat="45.8781" lon="4.78477">
        <ele>226</ele>
        <time>2018-05-08T08:50:29Z</time>
      </trkpt>
      <trkpt lat="45.87811" lon="4.78482">
        <ele>226</ele>
        <time>2018-05-08T08:50:30Z</time>
      </trkpt>
      <trkpt lat="45.87814" lon="4.78492">
        <ele>226</ele>
        <time>2018-05-08T08:50:33Z</time>
      </trkpt>
      <trkpt lat="45.87815" lon="4.78496">
        <ele>226</ele>
        <time>2018-05-08T08:50:34Z</time>
      </trkpt>
      <trkpt lat="45.87817" lon="4.78505">
        <ele>227</ele>
        <time>2018-05-08T08:50:36Z</time>
      </trkpt>
      <trkpt lat="45.8782" lon="4.78518">
        <ele>228</ele>
        <time>2018-05-08T08:50:37Z</time>
      </trkpt>
      <trkpt lat="45.87823" lon="4.78527">
        <ele>228</ele>
        <time>2018-05-08T08:50:40Z</time>
      </trkpt>
      <trkpt lat="45.87824" lon="4.78531">
        <ele>228</ele>
        <time>2018-05-08T08:50:41Z</time>
      </trkpt>
      <trkpt lat="45.87826" lon="4.7854">
        <ele>228</ele>
        <time>2018-05-08T08:50:43Z</time>
      </trkpt>
      <trkpt lat="45.87829" lon="4.78552">
        <ele>228</ele>
        <time>2018-05-08T08:50:44Z</time>
      </trkpt>
      <trkpt lat="45.87832" lon="4.78563">
        <ele>228</ele>
        <time>2018-05-08T08:50:47Z</time>
      </trkpt>
      <trkpt lat="45.87832" lon="4.78566">
        <ele>228</ele>
        <time>2018-05-08T08:50:48Z</time>
      </trkpt>
      <trkpt lat="45.87835" lon="4.78578">
        <ele>227</ele>
        <time>2018-05-08T08:50:51Z</time>
      </trkpt>
      <trkpt lat="45.87836" lon="4.78582">
        <ele>228</ele>
        <time>2018-05-08T08:50:52Z</time>
      </trkpt>
      <trkpt lat="45.87837" lon="4.78591">
        <ele>227</ele>
        <time>2018-05-08T08:50:54Z</time>
      </trkpt>
      <trkpt lat="45.87839" lon="4.78605">
        <ele>226</ele>
        <time>2018-05-08T08:50:55Z</time>
      </trkpt>
      <trkpt lat="45.87841" lon="4.78615">
        <ele>226</ele>
        <time>2018-05-08T08:50:57Z</time>
      </trkpt>
      <trkpt lat="45.87841" lon="4.78618">
        <ele>226</ele>
        <time>2018-05-08T08:50:58Z</time>
      </trkpt>
      <trkpt lat="45.87843" lon="4.78629">
        <ele>226</ele>
        <time>2018-05-08T08:51:00Z</time>
      </trkpt>
      <trkpt lat="45.87845" lon="4.78636">
        <ele>226</ele>
        <time>2018-05-08T08:51:01Z</time>
      </trkpt>
      <trkpt lat="45.87847" lon="4.78646">
        <ele>226</ele>
        <time>2018-05-08T08:51:03Z</time>
      </trkpt>
      <trkpt lat="45.87848" lon="4.78652">
        <ele>226</ele>
        <time>2018-05-08T08:51:04Z</time>
      </trkpt>
      <trkpt lat="45.87851" lon="4.78663">
        <ele>226</ele>
        <time>2018-05-08T08:51:06Z</time>
      </trkpt>
      <trkpt lat="45.87851" lon="4.78665">
        <ele>226</ele>
        <time>2018-05-08T08:51:07Z</time>
      </trkpt>
      <trkpt lat="45.87852" lon="4.78677">
        <ele>226</ele>
        <time>2018-05-08T08:51:09Z</time>
      </trkpt>
      <trkpt lat="45.87853" lon="4.78683">
        <ele>226</ele>
        <time>2018-05-08T08:51:10Z</time>
      </trkpt>
      <trkpt lat="45.87853" lon="4.78695">
        <ele>225</ele>
        <time>2018-05-08T08:51:12Z</time>
      </trkpt>
      <trkpt lat="45.87854" lon="4.78701">
        <ele>225</ele>
        <time>2018-05-08T08:51:13Z</time>
      </trkpt>
      <trkpt lat="45.87855" lon="4.78713">
        <ele>225</ele>
        <time>2018-05-08T08:51:15Z</time>
      </trkpt>
      <trkpt lat="45.87856" lon="4.78718">
        <ele>225</ele>
        <time>2018-05-08T08:51:16Z</time>
      </trkpt>
      <trkpt lat="45.87857" lon="4.7873">
        <ele>225</ele>
        <time>2018-05-08T08:51:18Z</time>
      </trkpt>
      <trkpt lat="45.87857" lon="4.78736">
        <ele>226</ele>
        <time>2018-05-08T08:51:19Z</time>
      </trkpt>
      <trkpt lat="45.87858" lon="4.78747">
        <ele>226</ele>
        <time>2018-05-08T08:51:21Z</time>
      </trkpt>
      <trkpt lat="45.87859" lon="4.78753">
        <ele>226</ele>
        <time>2018-05-08T08:51:22Z</time>
      </trkpt>
      <trkpt lat="45.87859" lon="4.78765">
        <ele>226</ele>
        <time>2018-05-08T08:51:24Z</time>
      </trkpt>
      <trkpt lat="45.87859" lon="4.78772">
        <ele>226</ele>
        <time>2018-05-08T08:51:25Z</time>
      </trkpt>
      <trkpt lat="45.87859" lon="4.78784">
        <ele>226</ele>
        <time>2018-05-08T08:51:27Z</time>
      </trkpt>
      <trkpt lat="45.87858" lon="4.78791">
        <ele>226</ele>
        <time>2018-05-08T08:51:28Z</time>
      </trkpt>
      <trkpt lat="45.87858" lon="4.78803">
        <ele>226</ele>
        <time>2018-05-08T08:51:30Z</time>
      </trkpt>
      <trkpt lat="45.87857" lon="4.78805">
        <ele>226</ele>
        <time>2018-05-08T08:51:31Z</time>
      </trkpt>
      <trkpt lat="45.87857" lon="4.78813">
        <ele>226</ele>
        <time>2018-05-08T08:51:32Z</time>
      </trkpt>
      <trkpt lat="45.87857" lon="4.78819">
        <ele>226</ele>
        <time>2018-05-08T08:51:33Z</time>
      </trkpt>
      <trkpt lat="45.87855" lon="4.7883">
        <ele>227</ele>
        <time>2018-05-08T08:51:35Z</time>
      </trkpt>
      <trkpt lat="45.87854" lon="4.78836">
        <ele>226</ele>
        <time>2018-05-08T08:51:36Z</time>
      </trkpt>
      <trkpt lat="45.87852" lon="4.78847">
        <ele>226</ele>
        <time>2018-05-08T08:51:38Z</time>
      </trkpt>
      <trkpt lat="45.87851" lon="4.78853">
        <ele>226</ele>
        <time>2018-05-08T08:51:39Z</time>
      </trkpt>
      <trkpt lat="45.8785" lon="4.78864">
        <ele>226</ele>
        <time>2018-05-08T08:51:41Z</time>
      </trkpt>
      <trkpt lat="45.87849" lon="4.7887">
        <ele>225</ele>
        <time>2018-05-08T08:51:42Z</time>
      </trkpt>
      <trkpt lat="45.87848" lon="4.78881">
        <ele>225</ele>
        <time>2018-05-08T08:51:44Z</time>
      </trkpt>
      <trkpt lat="45.87847" lon="4.78887">
        <ele>225</ele>
        <time>2018-05-08T08:51:45Z</time>
      </trkpt>
      <trkpt lat="45.87845" lon="4.78898">
        <ele>225</ele>
        <time>2018-05-08T08:51:48Z</time>
      </trkpt>
      <trkpt lat="45.87845" lon="4.78902">
        <ele>226</ele>
        <time>2018-05-08T08:51:49Z</time>
      </trkpt>
      <trkpt lat="45.87845" lon="4.78906">
        <ele>226</ele>
        <time>2018-05-08T08:51:50Z</time>
      </trkpt>
      <trkpt lat="45.87843" lon="4.7892">
        <ele>226</ele>
        <time>2018-05-08T08:51:51Z</time>
      </trkpt>
      <trkpt lat="45.87842" lon="4.78927">
        <ele>226</ele>
        <time>2018-05-08T08:51:53Z</time>
      </trkpt>
      <trkpt lat="45.8784" lon="4.78936">
        <ele>225</ele>
        <time>2018-05-08T08:51:54Z</time>
      </trkpt>
      <trkpt lat="45.87839" lon="4.78948">
        <ele>225</ele>
        <time>2018-05-08T08:51:56Z</time>
      </trkpt>
      <trkpt lat="45.87838" lon="4.78954">
        <ele>225</ele>
        <time>2018-05-08T08:51:57Z</time>
      </trkpt>
      <trkpt lat="45.87838" lon="4.78965">
        <ele>226</ele>
        <time>2018-05-08T08:51:59Z</time>
      </trkpt>
      <trkpt lat="45.87838" lon="4.78968">
        <ele>226</ele>
        <time>2018-05-08T08:52:00Z</time>
      </trkpt>
      <trkpt lat="45.87837" lon="4.78978">
        <ele>226</ele>
        <time>2018-05-08T08:52:03Z</time>
      </trkpt>
      <trkpt lat="45.87837" lon="4.78982">
        <ele>226</ele>
        <time>2018-05-08T08:52:04Z</time>
      </trkpt>
      <trkpt lat="45.87838" lon="4.78993">
        <ele>228</ele>
        <time>2018-05-08T08:52:07Z</time>
      </trkpt>
      <trkpt lat="45.87839" lon="4.78997">
        <ele>228</ele>
        <time>2018-05-08T08:52:08Z</time>
      </trkpt>
      <trkpt lat="45.8784" lon="4.79006">
        <ele>228</ele>
        <time>2018-05-08T08:52:10Z</time>
      </trkpt>
      <trkpt lat="45.8784" lon="4.79011">
        <ele>228</ele>
        <time>2018-05-08T08:52:11Z</time>
      </trkpt>
      <trkpt lat="45.87842" lon="4.7902">
        <ele>228</ele>
        <time>2018-05-08T08:52:13Z</time>
      </trkpt>
      <trkpt lat="45.87842" lon="4.79024">
        <ele>228</ele>
        <time>2018-05-08T08:52:14Z</time>
      </trkpt>
      <trkpt lat="45.87844" lon="4.79034">
        <ele>228</ele>
        <time>2018-05-08T08:52:16Z</time>
      </trkpt>
      <trkpt lat="45.87845" lon="4.79039">
        <ele>228</ele>
        <time>2018-05-08T08:52:17Z</time>
      </trkpt>
      <trkpt lat="45.87847" lon="4.79049">
        <ele>228</ele>
        <time>2018-05-08T08:52:19Z</time>
      </trkpt>
      <trkpt lat="45.87849" lon="4.79054">
        <ele>228</ele>
        <time>2018-05-08T08:52:20Z</time>
      </trkpt>
      <trkpt lat="45.87851" lon="4.79063">
        <ele>228</ele>
        <time>2018-05-08T08:52:22Z</time>
      </trkpt>
      <trkpt lat="45.87852" lon="4.79067">
        <ele>229</ele>
        <time>2018-05-08T08:52:23Z</time>
      </trkpt>
      <trkpt lat="45.87853" lon="4.79077">
        <ele>229</ele>
        <time>2018-05-08T08:52:25Z</time>
      </trkpt>
      <trkpt lat="45.87854" lon="4.79081">
        <ele>229</ele>
        <time>2018-05-08T08:52:26Z</time>
      </trkpt>
      <trkpt lat="45.87855" lon="4.79089">
        <ele>230</ele>
        <time>2018-05-08T08:52:28Z</time>
      </trkpt>
      <trkpt lat="45.87855" lon="4.79094">
        <ele>230</ele>
        <time>2018-05-08T08:52:29Z</time>
      </trkpt>
      <trkpt lat="45.87857" lon="4.79102">
        <ele>230</ele>
        <time>2018-05-08T08:52:31Z</time>
      </trkpt>
      <trkpt lat="45.87858" lon="4.79107">
        <ele>230</ele>
        <time>2018-05-08T08:52:32Z</time>
      </trkpt>
      <trkpt lat="45.87859" lon="4.79115">
        <ele>230</ele>
        <time>2018-05-08T08:52:34Z</time>
      </trkpt>
      <trkpt lat="45.8786" lon="4.7912">
        <ele>230</ele>
        <time>2018-05-08T08:52:35Z</time>
      </trkpt>
      <trkpt lat="45.8786" lon="4.79129">
        <ele>230</ele>
        <time>2018-05-08T08:52:37Z</time>
      </trkpt>
      <trkpt lat="45.87861" lon="4.79133">
        <ele>230</ele>
        <time>2018-05-08T08:52:38Z</time>
      </trkpt>
      <trkpt lat="45.87862" lon="4.79142">
        <ele>230</ele>
        <time>2018-05-08T08:52:40Z</time>
      </trkpt>
      <trkpt lat="45.87862" lon="4.79146">
        <ele>230</ele>
        <time>2018-05-08T08:52:41Z</time>
      </trkpt>
      <trkpt lat="45.87864" lon="4.79155">
        <ele>231</ele>
        <time>2018-05-08T08:52:43Z</time>
      </trkpt>
      <trkpt lat="45.87864" lon="4.7916">
        <ele>231</ele>
        <time>2018-05-08T08:52:44Z</time>
      </trkpt>
      <trkpt lat="45.87866" lon="4.79168">
        <ele>232</ele>
        <time>2018-05-08T08:52:46Z</time>
      </trkpt>
      <trkpt lat="45.87867" lon="4.79172">
        <ele>232</ele>
        <time>2018-05-08T08:52:47Z</time>
      </trkpt>
      <trkpt lat="45.87868" lon="4.7918">
        <ele>232</ele>
        <time>2018-05-08T08:52:49Z</time>
      </trkpt>
      <trkpt lat="45.87869" lon="4.79185">
        <ele>232</ele>
        <time>2018-05-08T08:52:50Z</time>
      </trkpt>
      <trkpt lat="45.8787" lon="4.79194">
        <ele>233</ele>
        <time>2018-05-08T08:52:52Z</time>
      </trkpt>
      <trkpt lat="45.8787" lon="4.79198">
        <ele>233</ele>
        <time>2018-05-08T08:52:53Z</time>
      </trkpt>
      <trkpt lat="45.87872" lon="4.7921">
        <ele>233</ele>
        <time>2018-05-08T08:52:56Z</time>
      </trkpt>
      <trkpt lat="45.87873" lon="4.79215">
        <ele>233</ele>
        <time>2018-05-08T08:52:57Z</time>
      </trkpt>
      <trkpt lat="45.87874" lon="4.79227">
        <ele>233</ele>
        <time>2018-05-08T08:53:00Z</time>
      </trkpt>
      <trkpt lat="45.87875" lon="4.79231">
        <ele>233</ele>
        <time>2018-05-08T08:53:01Z</time>
      </trkpt>
      <trkpt lat="45.87876" lon="4.79239">
        <ele>233</ele>
        <time>2018-05-08T08:53:03Z</time>
      </trkpt>
      <trkpt lat="45.87877" lon="4.79244">
        <ele>233</ele>
        <time>2018-05-08T08:53:04Z</time>
      </trkpt>
      <trkpt lat="45.87879" lon="4.79255">
        <ele>236</ele>
        <time>2018-05-08T08:53:07Z</time>
      </trkpt>
      <trkpt lat="45.87879" lon="4.79259">
        <ele>236</ele>
        <time>2018-05-08T08:53:08Z</time>
      </trkpt>
      <trkpt lat="45.87881" lon="4.79271">
        <ele>236</ele>
        <time>2018-05-08T08:53:11Z</time>
      </trkpt>
      <trkpt lat="45.87881" lon="4.79275">
        <ele>236</ele>
        <time>2018-05-08T08:53:12Z</time>
      </trkpt>
      <trkpt lat="45.87883" lon="4.79286">
        <ele>236</ele>
        <time>2018-05-08T08:53:15Z</time>
      </trkpt>
      <trkpt lat="45.87884" lon="4.7929">
        <ele>236</ele>
        <time>2018-05-08T08:53:16Z</time>
      </trkpt>
      <trkpt lat="45.87886" lon="4.79302">
        <ele>237</ele>
        <time>2018-05-08T08:53:19Z</time>
      </trkpt>
      <trkpt lat="45.87886" lon="4.79305">
        <ele>237</ele>
        <time>2018-05-08T08:53:20Z</time>
      </trkpt>
      <trkpt lat="45.87887" lon="4.79314">
        <ele>237</ele>
        <time>2018-05-08T08:53:22Z</time>
      </trkpt>
      <trkpt lat="45.87887" lon="4.79318">
        <ele>237</ele>
        <time>2018-05-08T08:53:23Z</time>
      </trkpt>
      <trkpt lat="45.87888" lon="4.79327">
        <ele>236</ele>
        <time>2018-05-08T08:53:25Z</time>
      </trkpt>
      <trkpt lat="45.87889" lon="4.79331">
        <ele>236</ele>
        <time>2018-05-08T08:53:26Z</time>
      </trkpt>
      <trkpt lat="45.8789" lon="4.7934">
        <ele>239</ele>
        <time>2018-05-08T08:53:28Z</time>
      </trkpt>
      <trkpt lat="45.8789" lon="4.79345">
        <ele>240</ele>
        <time>2018-05-08T08:53:29Z</time>
      </trkpt>
      <trkpt lat="45.87892" lon="4.79357">
        <ele>240</ele>
        <time>2018-05-08T08:53:32Z</time>
      </trkpt>
      <trkpt lat="45.87893" lon="4.7936">
        <ele>240</ele>
        <time>2018-05-08T08:53:33Z</time>
      </trkpt>
      <trkpt lat="45.87895" lon="4.79371">
        <ele>241</ele>
        <time>2018-05-08T08:53:36Z</time>
      </trkpt>
      <trkpt lat="45.87896" lon="4.79375">
        <ele>241</ele>
        <time>2018-05-08T08:53:37Z</time>
      </trkpt>
      <trkpt lat="45.87898" lon="4.79387">
        <ele>241</ele>
        <time>2018-05-08T08:53:40Z</time>
      </trkpt>
      <trkpt lat="45.87898" lon="4.79391">
        <ele>241</ele>
        <time>2018-05-08T08:53:41Z</time>
      </trkpt>
      <trkpt lat="45.879" lon="4.79403">
        <ele>241</ele>
        <time>2018-05-08T08:53:44Z</time>
      </trkpt>
      <trkpt lat="45.87901" lon="4.79406">
        <ele>240</ele>
        <time>2018-05-08T08:53:45Z</time>
      </trkpt>
      <trkpt lat="45.87902" lon="4.79418">
        <ele>242</ele>
        <time>2018-05-08T08:53:48Z</time>
      </trkpt>
      <trkpt lat="45.87903" lon="4.79421">
        <ele>242</ele>
        <time>2018-05-08T08:53:49Z</time>
      </trkpt>
      <trkpt lat="45.87904" lon="4.79433">
        <ele>244</ele>
        <time>2018-05-08T08:53:52Z</time>
      </trkpt>
      <trkpt lat="45.87905" lon="4.79436">
        <ele>244</ele>
        <time>2018-05-08T08:53:53Z</time>
      </trkpt>
      <trkpt lat="45.87906" lon="4.79448">
        <ele>245</ele>
        <time>2018-05-08T08:53:56Z</time>
      </trkpt>
      <trkpt lat="45.87907" lon="4.79452">
        <ele>245</ele>
        <time>2018-05-08T08:53:57Z</time>
      </trkpt>
      <trkpt lat="45.87909" lon="4.7946">
        <ele>246</ele>
        <time>2018-05-08T08:53:59Z</time>
      </trkpt>
      <trkpt lat="45.8791" lon="4.79464">
        <ele>246</ele>
        <time>2018-05-08T08:54:00Z</time>
      </trkpt>
      <trkpt lat="45.87912" lon="4.79473">
        <ele>246</ele>
        <time>2018-05-08T08:54:02Z</time>
      </trkpt>
      <trkpt lat="45.87916" lon="4.79485">
        <ele>246</ele>
        <time>2018-05-08T08:54:03Z</time>
      </trkpt>
      <trkpt lat="45.8792" lon="4.79495">
        <ele>243</ele>
        <time>2018-05-08T08:54:05Z</time>
      </trkpt>
      <trkpt lat="45.87922" lon="4.795">
        <ele>243</ele>
        <time>2018-05-08T08:54:06Z</time>
      </trkpt>
      <trkpt lat="45.87925" lon="4.7951">
        <ele>243</ele>
        <time>2018-05-08T08:54:08Z</time>
      </trkpt>
      <trkpt lat="45.87926" lon="4.79515">
        <ele>242</ele>
        <time>2018-05-08T08:54:09Z</time>
      </trkpt>
      <trkpt lat="45.8793" lon="4.79526">
        <ele>241</ele>
        <time>2018-05-08T08:54:11Z</time>
      </trkpt>
      <trkpt lat="45.87932" lon="4.79532">
        <ele>241</ele>
        <time>2018-05-08T08:54:12Z</time>
      </trkpt>
      <trkpt lat="45.87935" lon="4.79537">
        <ele>240</ele>
        <time>2018-05-08T08:54:13Z</time>
      </trkpt>
      <trkpt lat="45.87936" lon="4.79544">
        <ele>240</ele>
        <time>2018-05-08T08:54:14Z</time>
      </trkpt>
      <trkpt lat="45.87939" lon="4.79551">
        <ele>240</ele>
        <time>2018-05-08T08:54:15Z</time>
      </trkpt>
      <trkpt lat="45.87942" lon="4.79557">
        <ele>240</ele>
        <time>2018-05-08T08:54:16Z</time>
      </trkpt>
      <trkpt lat="45.87943" lon="4.79566">
        <ele>240</ele>
        <time>2018-05-08T08:54:17Z</time>
      </trkpt>
      <trkpt lat="45.87946" lon="4.79573">
        <ele>240</ele>
        <time>2018-05-08T08:54:18Z</time>
      </trkpt>
      <trkpt lat="45.87948" lon="4.79581">
        <ele>240</ele>
        <time>2018-05-08T08:54:19Z</time>
      </trkpt>
      <trkpt lat="45.87951" lon="4.79591">
        <ele>241</ele>
        <time>2018-05-08T08:54:20Z</time>
      </trkpt>
      <trkpt lat="45.87953" lon="4.796">
        <ele>240</ele>
        <time>2018-05-08T08:54:21Z</time>
      </trkpt>
      <trkpt lat="45.87957" lon="4.79608">
        <ele>240</ele>
        <time>2018-05-08T08:54:22Z</time>
      </trkpt>
      <trkpt lat="45.8796" lon="4.79617">
        <ele>240</ele>
        <time>2018-05-08T08:54:23Z</time>
      </trkpt>
      <trkpt lat="45.87965" lon="4.79626">
        <ele>239</ele>
        <time>2018-05-08T08:54:24Z</time>
      </trkpt>
      <trkpt lat="45.87969" lon="4.79634">
        <ele>239</ele>
        <time>2018-05-08T08:54:25Z</time>
      </trkpt>
      <trkpt lat="45.87973" lon="4.79642">
        <ele>239</ele>
        <time>2018-05-08T08:54:26Z</time>
      </trkpt>
      <trkpt lat="45.87977" lon="4.7965">
        <ele>238</ele>
        <time>2018-05-08T08:54:27Z</time>
      </trkpt>
      <trkpt lat="45.87981" lon="4.79659">
        <ele>238</ele>
        <time>2018-05-08T08:54:28Z</time>
      </trkpt>
      <trkpt lat="45.87984" lon="4.79667">
        <ele>239</ele>
        <time>2018-05-08T08:54:29Z</time>
      </trkpt>
      <trkpt lat="45.87987" lon="4.79676">
        <ele>239</ele>
        <time>2018-05-08T08:54:30Z</time>
      </trkpt>
      <trkpt lat="45.87991" lon="4.79684">
        <ele>239</ele>
        <time>2018-05-08T08:54:31Z</time>
      </trkpt>
      <trkpt lat="45.87994" lon="4.79691">
        <ele>240</ele>
        <time>2018-05-08T08:54:32Z</time>
      </trkpt>
      <trkpt lat="45.87998" lon="4.79697">
        <ele>241</ele>
        <time>2018-05-08T08:54:33Z</time>
      </trkpt>
      <trkpt lat="45.88002" lon="4.79704">
        <ele>236</ele>
        <time>2018-05-08T08:54:34Z</time>
      </trkpt>
      <trkpt lat="45.88007" lon="4.79714">
        <ele>236</ele>
        <time>2018-05-08T08:54:36Z</time>
      </trkpt>
      <trkpt lat="45.8801" lon="4.79718">
        <ele>237</ele>
        <time>2018-05-08T08:54:37Z</time>
      </trkpt>
      <trkpt lat="45.88013" lon="4.79726">
        <ele>237</ele>
        <time>2018-05-08T08:54:40Z</time>
      </trkpt>
      <trkpt lat="45.88014" lon="4.79729">
        <ele>237</ele>
        <time>2018-05-08T08:54:41Z</time>
      </trkpt>
      <trkpt lat="45.88019" lon="4.79739">
        <ele>238</ele>
        <time>2018-05-08T08:54:44Z</time>
      </trkpt>
      <trkpt lat="45.8802" lon="4.79742">
        <ele>238</ele>
        <time>2018-05-08T08:54:45Z</time>
      </trkpt>
      <trkpt lat="45.88024" lon="4.79753">
        <ele>241</ele>
        <time>2018-05-08T08:54:48Z</time>
      </trkpt>
      <trkpt lat="45.88025" lon="4.79757">
        <ele>241</ele>
        <time>2018-05-08T08:54:49Z</time>
      </trkpt>
      <trkpt lat="45.88028" lon="4.79768">
        <ele>241</ele>
        <time>2018-05-08T08:54:52Z</time>
      </trkpt>
      <trkpt lat="45.88028" lon="4.79772">
        <ele>241</ele>
        <time>2018-05-08T08:54:53Z</time>
      </trkpt>
      <trkpt lat="45.88031" lon="4.79784">
        <ele>242</ele>
        <time>2018-05-08T08:54:56Z</time>
      </trkpt>
      <trkpt lat="45.88032" lon="4.79788">
        <ele>242</ele>
        <time>2018-05-08T08:54:57Z</time>
      </trkpt>
      <trkpt lat="45.88034" lon="4.798">
        <ele>242</ele>
        <time>2018-05-08T08:55:00Z</time>
      </trkpt>
      <trkpt lat="45.88034" lon="4.79804">
        <ele>242</ele>
        <time>2018-05-08T08:55:01Z</time>
      </trkpt>
      <trkpt lat="45.88036" lon="4.79814">
        <ele>243</ele>
        <time>2018-05-08T08:55:04Z</time>
      </trkpt>
      <trkpt lat="45.88036" lon="4.79817">
        <ele>243</ele>
        <time>2018-05-08T08:55:05Z</time>
      </trkpt>
      <trkpt lat="45.88037" lon="4.79829">
        <ele>243</ele>
        <time>2018-05-08T08:55:09Z</time>
      </trkpt>
      <trkpt lat="45.88037" lon="4.79833">
        <ele>243</ele>
        <time>2018-05-08T08:55:10Z</time>
      </trkpt>
      <trkpt lat="45.88038" lon="4.79845">
        <ele>246</ele>
        <time>2018-05-08T08:55:14Z</time>
      </trkpt>
      <trkpt lat="45.88038" lon="4.79848">
        <ele>246</ele>
        <time>2018-05-08T08:55:15Z</time>
      </trkpt>
      <trkpt lat="45.88036" lon="4.79861">
        <ele>247</ele>
        <time>2018-05-08T08:55:19Z</time>
      </trkpt>
      <trkpt lat="45.88035" lon="4.79864">
        <ele>247</ele>
        <time>2018-05-08T08:55:20Z</time>
      </trkpt>
      <trkpt lat="45.88033" lon="4.79873">
        <ele>247</ele>
        <time>2018-05-08T08:55:23Z</time>
      </trkpt>
      <trkpt lat="45.88033" lon="4.79877">
        <ele>247</ele>
        <time>2018-05-08T08:55:24Z</time>
      </trkpt>
      <trkpt lat="45.88031" lon="4.79887">
        <ele>247</ele>
        <time>2018-05-08T08:55:27Z</time>
      </trkpt>
      <trkpt lat="45.8803" lon="4.7989">
        <ele>248</ele>
        <time>2018-05-08T08:55:28Z</time>
      </trkpt>
      <trkpt lat="45.88027" lon="4.79901">
        <ele>248</ele>
        <time>2018-05-08T08:55:31Z</time>
      </trkpt>
      <trkpt lat="45.88026" lon="4.79904">
        <ele>248</ele>
        <time>2018-05-08T08:55:32Z</time>
      </trkpt>
      <trkpt lat="45.88024" lon="4.79915">
        <ele>248</ele>
        <time>2018-05-08T08:55:35Z</time>
      </trkpt>
      <trkpt lat="45.88023" lon="4.79918">
        <ele>250</ele>
        <time>2018-05-08T08:55:36Z</time>
      </trkpt>
      <trkpt lat="45.8802" lon="4.79928">
        <ele>250</ele>
        <time>2018-05-08T08:55:39Z</time>
      </trkpt>
      <trkpt lat="45.8802" lon="4.79932">
        <ele>250</ele>
        <time>2018-05-08T08:55:40Z</time>
      </trkpt>
      <trkpt lat="45.88018" lon="4.79942">
        <ele>250</ele>
        <time>2018-05-08T08:55:43Z</time>
      </trkpt>
      <trkpt lat="45.88017" lon="4.79946">
        <ele>250</ele>
        <time>2018-05-08T08:55:44Z</time>
      </trkpt>
      <trkpt lat="45.88014" lon="4.79955">
        <ele>250</ele>
        <time>2018-05-08T08:55:47Z</time>
      </trkpt>
      <trkpt lat="45.88013" lon="4.79958">
        <ele>250</ele>
        <time>2018-05-08T08:55:48Z</time>
      </trkpt>
      <trkpt lat="45.8801" lon="4.79968">
        <ele>250</ele>
        <time>2018-05-08T08:55:51Z</time>
      </trkpt>
      <trkpt lat="45.88009" lon="4.79971">
        <ele>250</ele>
        <time>2018-05-08T08:55:52Z</time>
      </trkpt>
      <trkpt lat="45.88008" lon="4.7998">
        <ele>250</ele>
        <time>2018-05-08T08:55:55Z</time>
      </trkpt>
      <trkpt lat="45.88007" lon="4.79984">
        <ele>250</ele>
        <time>2018-05-08T08:55:56Z</time>
      </trkpt>
      <trkpt lat="45.88006" lon="4.79993">
        <ele>250</ele>
        <time>2018-05-08T08:55:59Z</time>
      </trkpt>
      <trkpt lat="45.88005" lon="4.79996">
        <ele>251</ele>
        <time>2018-05-08T08:56:00Z</time>
      </trkpt>
      <trkpt lat="45.88002" lon="4.80005">
        <ele>251</ele>
        <time>2018-05-08T08:56:03Z</time>
      </trkpt>
      <trkpt lat="45.88001" lon="4.80008">
        <ele>251</ele>
        <time>2018-05-08T08:56:04Z</time>
      </trkpt>
      <trkpt lat="45.87996" lon="4.80017">
        <ele>254</ele>
        <time>2018-05-08T08:56:07Z</time>
      </trkpt>
      <trkpt lat="45.87995" lon="4.80021">
        <ele>254</ele>
        <time>2018-05-08T08:56:08Z</time>
      </trkpt>
      <trkpt lat="45.8799" lon="4.80031">
        <ele>255</ele>
        <time>2018-05-08T08:56:11Z</time>
      </trkpt>
      <trkpt lat="45.87989" lon="4.80034">
        <ele>255</ele>
        <time>2018-05-08T08:56:12Z</time>
      </trkpt>
      <trkpt lat="45.87984" lon="4.80043">
        <ele>256</ele>
        <time>2018-05-08T08:56:15Z</time>
      </trkpt>
      <trkpt lat="45.87982" lon="4.80046">
        <ele>256</ele>
        <time>2018-05-08T08:56:16Z</time>
      </trkpt>
      <trkpt lat="45.87977" lon="4.80054">
        <ele>256</ele>
        <time>2018-05-08T08:56:19Z</time>
      </trkpt>
      <trkpt lat="45.87975" lon="4.80057">
        <ele>256</ele>
        <time>2018-05-08T08:56:20Z</time>
      </trkpt>
      <trkpt lat="45.8797" lon="4.80064">
        <ele>257</ele>
        <time>2018-05-08T08:56:23Z</time>
      </trkpt>
      <trkpt lat="45.87968" lon="4.80066">
        <ele>257</ele>
        <time>2018-05-08T08:56:24Z</time>
      </trkpt>
      <trkpt lat="45.87962" lon="4.80071">
        <ele>257</ele>
        <time>2018-05-08T08:56:27Z</time>
      </trkpt>
      <trkpt lat="45.8796" lon="4.80073">
        <ele>257</ele>
        <time>2018-05-08T08:56:28Z</time>
      </trkpt>
      <trkpt lat="45.87953" lon="4.80079">
        <ele>258</ele>
        <time>2018-05-08T08:56:31Z</time>
      </trkpt>
      <trkpt lat="45.8795" lon="4.8008">
        <ele>258</ele>
        <time>2018-05-08T08:56:32Z</time>
      </trkpt>
      <trkpt lat="45.87943" lon="4.80084">
        <ele>258</ele>
        <time>2018-05-08T08:56:35Z</time>
      </trkpt>
      <trkpt lat="45.8794" lon="4.80085">
        <ele>259</ele>
        <time>2018-05-08T08:56:36Z</time>
      </trkpt>
      <trkpt lat="45.87932" lon="4.80088">
        <ele>259</ele>
        <time>2018-05-08T08:56:39Z</time>
      </trkpt>
      <trkpt lat="45.87929" lon="4.80089">
        <ele>260</ele>
        <time>2018-05-08T08:56:40Z</time>
      </trkpt>
      <trkpt lat="45.87921" lon="4.80093">
        <ele>260</ele>
        <time>2018-05-08T08:56:43Z</time>
      </trkpt>
      <trkpt lat="45.87919" lon="4.80094">
        <ele>260</ele>
        <time>2018-05-08T08:56:44Z</time>
      </trkpt>
      <trkpt lat="45.87911" lon="4.80098">
        <ele>262</ele>
        <time>2018-05-08T08:56:47Z</time>
      </trkpt>
      <trkpt lat="45.87908" lon="4.801">
        <ele>262</ele>
        <time>2018-05-08T08:56:48Z</time>
      </trkpt>
      <trkpt lat="45.87902" lon="4.80107">
        <ele>262</ele>
        <time>2018-05-08T08:56:51Z</time>
      </trkpt>
      <trkpt lat="45.879" lon="4.8011">
        <ele>262</ele>
        <time>2018-05-08T08:56:52Z</time>
      </trkpt>
      <trkpt lat="45.87898" lon="4.80115">
        <ele>262</ele>
        <time>2018-05-08T08:56:53Z</time>
      </trkpt>
      <trkpt lat="45.87895" lon="4.80127">
        <ele>262</ele>
        <time>2018-05-08T08:56:54Z</time>
      </trkpt>
      <trkpt lat="45.87893" lon="4.80139">
        <ele>262</ele>
        <time>2018-05-08T08:56:56Z</time>
      </trkpt>
      <trkpt lat="45.87894" lon="4.80149">
        <ele>261</ele>
        <time>2018-05-08T08:56:57Z</time>
      </trkpt>
      <trkpt lat="45.87893" lon="4.80156">
        <ele>261</ele>
        <time>2018-05-08T08:56:58Z</time>
      </trkpt>
      <trkpt lat="45.87893" lon="4.80164">
        <ele>261</ele>
        <time>2018-05-08T08:56:59Z</time>
      </trkpt>
      <trkpt lat="45.87893" lon="4.80175">
        <ele>257</ele>
        <time>2018-05-08T08:57:00Z</time>
      </trkpt>
      <trkpt lat="45.87892" lon="4.80184">
        <ele>257</ele>
        <time>2018-05-08T08:57:01Z</time>
      </trkpt>
      <trkpt lat="45.87892" lon="4.80195">
        <ele>257</ele>
        <time>2018-05-08T08:57:02Z</time>
      </trkpt>
      <trkpt lat="45.87892" lon="4.80205">
        <ele>256</ele>
        <time>2018-05-08T08:57:03Z</time>
      </trkpt>
      <trkpt lat="45.87892" lon="4.80216">
        <ele>256</ele>
        <time>2018-05-08T08:57:04Z</time>
      </trkpt>
      <trkpt lat="45.87891" lon="4.80228">
        <ele>255</ele>
        <time>2018-05-08T08:57:05Z</time>
      </trkpt>
      <trkpt lat="45.87891" lon="4.80239">
        <ele>255</ele>
        <time>2018-05-08T08:57:06Z</time>
      </trkpt>
      <trkpt lat="45.87889" lon="4.80251">
        <ele>252</ele>
        <time>2018-05-08T08:57:07Z</time>
      </trkpt>
      <trkpt lat="45.8789" lon="4.80263">
        <ele>252</ele>
        <time>2018-05-08T08:57:08Z</time>
      </trkpt>
      <trkpt lat="45.87889" lon="4.80274">
        <ele>252</ele>
        <time>2018-05-08T08:57:09Z</time>
      </trkpt>
      <trkpt lat="45.8789" lon="4.80286">
        <ele>252</ele>
        <time>2018-05-08T08:57:10Z</time>
      </trkpt>
      <trkpt lat="45.87889" lon="4.80298">
        <ele>252</ele>
        <time>2018-05-08T08:57:11Z</time>
      </trkpt>
      <trkpt lat="45.87889" lon="4.8031">
        <ele>252</ele>
        <time>2018-05-08T08:57:12Z</time>
      </trkpt>
      <trkpt lat="45.87888" lon="4.80321">
        <ele>251</ele>
        <time>2018-05-08T08:57:13Z</time>
      </trkpt>
      <trkpt lat="45.87886" lon="4.80331">
        <ele>251</ele>
        <time>2018-05-08T08:57:14Z</time>
      </trkpt>
      <trkpt lat="45.87884" lon="4.80341">
        <ele>249</ele>
        <time>2018-05-08T08:57:15Z</time>
      </trkpt>
      <trkpt lat="45.87883" lon="4.80351">
        <ele>249</ele>
        <time>2018-05-08T08:57:16Z</time>
      </trkpt>
      <trkpt lat="45.87882" lon="4.8036">
        <ele>249</ele>
        <time>2018-05-08T08:57:17Z</time>
      </trkpt>
      <trkpt lat="45.87881" lon="4.80371">
        <ele>249</ele>
        <time>2018-05-08T08:57:18Z</time>
      </trkpt>
      <trkpt lat="45.8788" lon="4.80381">
        <ele>249</ele>
        <time>2018-05-08T08:57:19Z</time>
      </trkpt>
      <trkpt lat="45.8788" lon="4.80392">
        <ele>248</ele>
        <time>2018-05-08T08:57:20Z</time>
      </trkpt>
      <trkpt lat="45.87882" lon="4.80405">
        <ele>248</ele>
        <time>2018-05-08T08:57:21Z</time>
      </trkpt>
      <trkpt lat="45.87882" lon="4.80415">
        <ele>247</ele>
        <time>2018-05-08T08:57:22Z</time>
      </trkpt>
      <trkpt lat="45.8788" lon="4.80426">
        <ele>247</ele>
        <time>2018-05-08T08:57:23Z</time>
      </trkpt>
      <trkpt lat="45.8788" lon="4.80435">
        <ele>247</ele>
        <time>2018-05-08T08:57:24Z</time>
      </trkpt>
      <trkpt lat="45.8788" lon="4.80443">
        <ele>247</ele>
        <time>2018-05-08T08:57:25Z</time>
      </trkpt>
      <trkpt lat="45.8788" lon="4.8045">
        <ele>247</ele>
        <time>2018-05-08T08:57:26Z</time>
      </trkpt>
      <trkpt lat="45.87879" lon="4.80459">
        <ele>248</ele>
        <time>2018-05-08T08:57:27Z</time>
      </trkpt>
      <trkpt lat="45.87879" lon="4.80467">
        <ele>248</ele>
        <time>2018-05-08T08:57:28Z</time>
      </trkpt>
      <trkpt lat="45.87879" lon="4.80474">
        <ele>248</ele>
        <time>2018-05-08T08:57:29Z</time>
      </trkpt>
      <trkpt lat="45.8788" lon="4.80482">
        <ele>248</ele>
        <time>2018-05-08T08:57:30Z</time>
      </trkpt>
      <trkpt lat="45.8788" lon="4.80488">
        <ele>248</ele>
        <time>2018-05-08T08:57:31Z</time>
      </trkpt>
      <trkpt lat="45.87879" lon="4.80496">
        <ele>248</ele>
        <time>2018-05-08T08:57:32Z</time>
      </trkpt>
      <trkpt lat="45.87879" lon="4.80501">
        <ele>250</ele>
        <time>2018-05-08T08:57:33Z</time>
      </trkpt>
      <trkpt lat="45.87877" lon="4.80513">
        <ele>250</ele>
        <time>2018-05-08T08:57:37Z</time>
      </trkpt>
      <trkpt lat="45.87876" lon="4.80517">
        <ele>250</ele>
        <time>2018-05-08T08:57:38Z</time>
      </trkpt>
      <trkpt lat="45.87874" lon="4.80526">
        <ele>250</ele>
        <time>2018-05-08T08:57:41Z</time>
      </trkpt>
      <trkpt lat="45.87874" lon="4.8053">
        <ele>251</ele>
        <time>2018-05-08T08:57:42Z</time>
      </trkpt>
      <trkpt lat="45.87872" lon="4.8054">
        <ele>251</ele>
        <time>2018-05-08T08:57:45Z</time>
      </trkpt>
      <trkpt lat="45.87871" lon="4.80544">
        <ele>251</ele>
        <time>2018-05-08T08:57:46Z</time>
      </trkpt>
      <trkpt lat="45.8787" lon="4.80557">
        <ele>251</ele>
        <time>2018-05-08T08:57:49Z</time>
      </trkpt>
      <trkpt lat="45.8787" lon="4.80561">
        <ele>251</ele>
        <time>2018-05-08T08:57:50Z</time>
      </trkpt>
      <trkpt lat="45.87868" lon="4.80574">
        <ele>252</ele>
        <time>2018-05-08T08:57:53Z</time>
      </trkpt>
      <trkpt lat="45.87868" lon="4.80577">
        <ele>252</ele>
        <time>2018-05-08T08:57:54Z</time>
      </trkpt>
      <trkpt lat="45.87866" lon="4.80588">
        <ele>254</ele>
        <time>2018-05-08T08:57:57Z</time>
      </trkpt>
      <trkpt lat="45.87865" lon="4.80591">
        <ele>254</ele>
        <time>2018-05-08T08:57:58Z</time>
      </trkpt>
      <trkpt lat="45.87863" lon="4.80602">
        <ele>254</ele>
        <time>2018-05-08T08:58:01Z</time>
      </trkpt>
      <trkpt lat="45.87863" lon="4.80606">
        <ele>254</ele>
        <time>2018-05-08T08:58:02Z</time>
      </trkpt>
      <trkpt lat="45.87863" lon="4.80617">
        <ele>255</ele>
        <time>2018-05-08T08:58:05Z</time>
      </trkpt>
      <trkpt lat="45.87863" lon="4.80621">
        <ele>255</ele>
        <time>2018-05-08T08:58:06Z</time>
      </trkpt>
      <trkpt lat="45.87864" lon="4.80633">
        <ele>255</ele>
        <time>2018-05-08T08:58:09Z</time>
      </trkpt>
      <trkpt lat="45.87864" lon="4.80637">
        <ele>255</ele>
        <time>2018-05-08T08:58:10Z</time>
      </trkpt>
      <trkpt lat="45.87864" lon="4.80648">
        <ele>256</ele>
        <time>2018-05-08T08:58:13Z</time>
      </trkpt>
      <trkpt lat="45.87864" lon="4.80651">
        <ele>256</ele>
        <time>2018-05-08T08:58:14Z</time>
      </trkpt>
      <trkpt lat="45.87863" lon="4.80662">
        <ele>256</ele>
        <time>2018-05-08T08:58:17Z</time>
      </trkpt>
      <trkpt lat="45.87864" lon="4.80667">
        <ele>257</ele>
        <time>2018-05-08T08:58:18Z</time>
      </trkpt>
      <trkpt lat="45.87865" lon="4.80676">
        <ele>257</ele>
        <time>2018-05-08T08:58:20Z</time>
      </trkpt>
      <trkpt lat="45.87865" lon="4.80681">
        <ele>257</ele>
        <time>2018-05-08T08:58:21Z</time>
      </trkpt>
      <trkpt lat="45.87867" lon="4.80693">
        <ele>257</ele>
        <time>2018-05-08T08:58:24Z</time>
      </trkpt>
      <trkpt lat="45.87867" lon="4.80697">
        <ele>257</ele>
        <time>2018-05-08T08:58:25Z</time>
      </trkpt>
      <trkpt lat="45.87868" lon="4.80709">
        <ele>257</ele>
        <time>2018-05-08T08:58:28Z</time>
      </trkpt>
      <trkpt lat="45.87869" lon="4.80713">
        <ele>257</ele>
        <time>2018-05-08T08:58:29Z</time>
      </trkpt>
      <trkpt lat="45.87869" lon="4.80726">
        <ele>257</ele>
        <time>2018-05-08T08:58:32Z</time>
      </trkpt>
      <trkpt lat="45.87869" lon="4.8073">
        <ele>257</ele>
        <time>2018-05-08T08:58:33Z</time>
      </trkpt>
      <trkpt lat="45.87868" lon="4.80742">
        <ele>257</ele>
        <time>2018-05-08T08:58:36Z</time>
      </trkpt>
      <trkpt lat="45.87867" lon="4.80746">
        <ele>257</ele>
        <time>2018-05-08T08:58:37Z</time>
      </trkpt>
      <trkpt lat="45.87864" lon="4.80756">
        <ele>256</ele>
        <time>2018-05-08T08:58:40Z</time>
      </trkpt>
      <trkpt lat="45.87862" lon="4.8076">
        <ele>256</ele>
        <time>2018-05-08T08:58:41Z</time>
      </trkpt>
      <trkpt lat="45.87857" lon="4.8077">
        <ele>256</ele>
        <time>2018-05-08T08:58:44Z</time>
      </trkpt>
      <trkpt lat="45.87855" lon="4.80773">
        <ele>256</ele>
        <time>2018-05-08T08:58:45Z</time>
      </trkpt>
      <trkpt lat="45.8785" lon="4.80779">
        <ele>256</ele>
        <time>2018-05-08T08:58:47Z</time>
      </trkpt>
      <trkpt lat="45.87843" lon="4.80789">
        <ele>255</ele>
        <time>2018-05-08T08:58:48Z</time>
      </trkpt>
      <trkpt lat="45.87838" lon="4.80798">
        <ele>255</ele>
        <time>2018-05-08T08:58:50Z</time>
      </trkpt>
      <trkpt lat="45.87835" lon="4.80803">
        <ele>255</ele>
        <time>2018-05-08T08:58:51Z</time>
      </trkpt>
      <trkpt lat="45.87832" lon="4.80809">
        <ele>256</ele>
        <time>2018-05-08T08:58:52Z</time>
      </trkpt>
      <trkpt lat="45.87829" lon="4.80813">
        <ele>256</ele>
        <time>2018-05-08T08:58:53Z</time>
      </trkpt>
      <trkpt lat="45.87826" lon="4.80818">
        <ele>256</ele>
        <time>2018-05-08T08:58:54Z</time>
      </trkpt>
      <trkpt lat="45.87822" lon="4.80821">
        <ele>256</ele>
        <time>2018-05-08T08:58:55Z</time>
      </trkpt>
      <trkpt lat="45.87819" lon="4.80826">
        <ele>256</ele>
        <time>2018-05-08T08:58:56Z</time>
      </trkpt>
      <trkpt lat="45.87815" lon="4.80832">
        <ele>256</ele>
        <time>2018-05-08T08:58:57Z</time>
      </trkpt>
      <trkpt lat="45.87811" lon="4.80836">
        <ele>254</ele>
        <time>2018-05-08T08:58:58Z</time>
      </trkpt>
      <trkpt lat="45.87807" lon="4.80843">
        <ele>253</ele>
        <time>2018-05-08T08:58:59Z</time>
      </trkpt>
      <trkpt lat="45.87802" lon="4.80849">
        <ele>253</ele>
        <time>2018-05-08T08:59:00Z</time>
      </trkpt>
      <trkpt lat="45.87799" lon="4.80854">
        <ele>253</ele>
        <time>2018-05-08T08:59:01Z</time>
      </trkpt>
      <trkpt lat="45.87795" lon="4.8086">
        <ele>253</ele>
        <time>2018-05-08T08:59:02Z</time>
      </trkpt>
      <trkpt lat="45.87792" lon="4.80866">
        <ele>253</ele>
        <time>2018-05-08T08:59:03Z</time>
      </trkpt>
      <trkpt lat="45.87789" lon="4.80872">
        <ele>253</ele>
        <time>2018-05-08T08:59:04Z</time>
      </trkpt>
      <trkpt lat="45.87784" lon="4.80879">
        <ele>253</ele>
        <time>2018-05-08T08:59:05Z</time>
      </trkpt>
      <trkpt lat="45.8778" lon="4.80885">
        <ele>252</ele>
        <time>2018-05-08T08:59:06Z</time>
      </trkpt>
      <trkpt lat="45.87777" lon="4.80893">
        <ele>252</ele>
        <time>2018-05-08T08:59:07Z</time>
      </trkpt>
      <trkpt lat="45.87772" lon="4.80899">
        <ele>252</ele>
        <time>2018-05-08T08:59:08Z</time>
      </trkpt>
      <trkpt lat="45.87768" lon="4.80907">
        <ele>252</ele>
        <time>2018-05-08T08:59:09Z</time>
      </trkpt>
      <trkpt lat="45.87765" lon="4.80915">
        <ele>251</ele>
        <time>2018-05-08T08:59:10Z</time>
      </trkpt>
      <trkpt lat="45.87761" lon="4.80924">
        <ele>249</ele>
        <time>2018-05-08T08:59:11Z</time>
      </trkpt>
      <trkpt lat="45.87758" lon="4.80934">
        <ele>249</ele>
        <time>2018-05-08T08:59:12Z</time>
      </trkpt>
      <trkpt lat="45.87755" lon="4.80943">
        <ele>249</ele>
        <time>2018-05-08T08:59:13Z</time>
      </trkpt>
      <trkpt lat="45.87753" lon="4.80953">
        <ele>249</ele>
        <time>2018-05-08T08:59:14Z</time>
      </trkpt>
      <trkpt lat="45.87752" lon="4.80964">
        <ele>249</ele>
        <time>2018-05-08T08:59:15Z</time>
      </trkpt>
      <trkpt lat="45.87751" lon="4.80975">
        <ele>249</ele>
        <time>2018-05-08T08:59:16Z</time>
      </trkpt>
      <trkpt lat="45.87751" lon="4.80985">
        <ele>249</ele>
        <time>2018-05-08T08:59:17Z</time>
      </trkpt>
      <trkpt lat="45.87752" lon="4.80995">
        <ele>249</ele>
        <time>2018-05-08T08:59:18Z</time>
      </trkpt>
      <trkpt lat="45.87752" lon="4.81005">
        <ele>248</ele>
        <time>2018-05-08T08:59:19Z</time>
      </trkpt>
      <trkpt lat="45.87752" lon="4.81017">
        <ele>247</ele>
        <time>2018-05-08T08:59:20Z</time>
      </trkpt>
      <trkpt lat="45.87752" lon="4.81027">
        <ele>246</ele>
        <time>2018-05-08T08:59:21Z</time>
      </trkpt>
      <trkpt lat="45.87752" lon="4.81036">
        <ele>246</ele>
        <time>2018-05-08T08:59:22Z</time>
      </trkpt>
      <trkpt lat="45.87752" lon="4.81046">
        <ele>246</ele>
        <time>2018-05-08T08:59:23Z</time>
      </trkpt>
      <trkpt lat="45.87751" lon="4.81055">
        <ele>246</ele>
        <time>2018-05-08T08:59:24Z</time>
      </trkpt>
      <trkpt lat="45.8775" lon="4.81064">
        <ele>246</ele>
        <time>2018-05-08T08:59:25Z</time>
      </trkpt>
      <trkpt lat="45.8775" lon="4.81073">
        <ele>247</ele>
        <time>2018-05-08T08:59:26Z</time>
      </trkpt>
      <trkpt lat="45.87748" lon="4.81083">
        <ele>246</ele>
        <time>2018-05-08T08:59:27Z</time>
      </trkpt>
      <trkpt lat="45.87742" lon="4.81089">
        <ele>246</ele>
        <time>2018-05-08T08:59:28Z</time>
      </trkpt>
      <trkpt lat="45.87737" lon="4.81096">
        <ele>246</ele>
        <time>2018-05-08T08:59:29Z</time>
      </trkpt>
      <trkpt lat="45.87732" lon="4.81103">
        <ele>246</ele>
        <time>2018-05-08T08:59:30Z</time>
      </trkpt>
      <trkpt lat="45.87728" lon="4.81112">
        <ele>246</ele>
        <time>2018-05-08T08:59:31Z</time>
      </trkpt>
      <trkpt lat="45.87723" lon="4.81119">
        <ele>246</ele>
        <time>2018-05-08T08:59:32Z</time>
      </trkpt>
      <trkpt lat="45.87719" lon="4.81124">
        <ele>246</ele>
        <time>2018-05-08T08:59:33Z</time>
      </trkpt>
      <trkpt lat="45.87714" lon="4.81129">
        <ele>246</ele>
        <time>2018-05-08T08:59:34Z</time>
      </trkpt>
      <trkpt lat="45.87709" lon="4.81133">
        <ele>246</ele>
        <time>2018-05-08T08:59:35Z</time>
      </trkpt>
      <trkpt lat="45.87705" lon="4.8114">
        <ele>246</ele>
        <time>2018-05-08T08:59:36Z</time>
      </trkpt>
      <trkpt lat="45.877" lon="4.81147">
        <ele>246</ele>
        <time>2018-05-08T08:59:37Z</time>
      </trkpt>
      <trkpt lat="45.87692" lon="4.81151">
        <ele>246</ele>
        <time>2018-05-08T08:59:39Z</time>
      </trkpt>
      <trkpt lat="45.87689" lon="4.81156">
        <ele>246</ele>
        <time>2018-05-08T08:59:40Z</time>
      </trkpt>
      <trkpt lat="45.87685" lon="4.81157">
        <ele>246</ele>
        <time>2018-05-08T08:59:41Z</time>
      </trkpt>
      <trkpt lat="45.8768" lon="4.81161">
        <ele>246</ele>
        <time>2018-05-08T08:59:42Z</time>
      </trkpt>
      <trkpt lat="45.87675" lon="4.81165">
        <ele>247</ele>
        <time>2018-05-08T08:59:43Z</time>
      </trkpt>
      <trkpt lat="45.87671" lon="4.81169">
        <ele>246</ele>
        <time>2018-05-08T08:59:44Z</time>
      </trkpt>
      <trkpt lat="45.87667" lon="4.81173">
        <ele>246</ele>
        <time>2018-05-08T08:59:45Z</time>
      </trkpt>
      <trkpt lat="45.87662" lon="4.81177">
        <ele>247</ele>
        <time>2018-05-08T08:59:46Z</time>
      </trkpt>
      <trkpt lat="45.87658" lon="4.81181">
        <ele>247</ele>
        <time>2018-05-08T08:59:47Z</time>
      </trkpt>
      <trkpt lat="45.87653" lon="4.81185">
        <ele>247</ele>
        <time>2018-05-08T08:59:48Z</time>
      </trkpt>
      <trkpt lat="45.87648" lon="4.81187">
        <ele>247</ele>
        <time>2018-05-08T08:59:49Z</time>
      </trkpt>
      <trkpt lat="45.87644" lon="4.8119">
        <ele>247</ele>
        <time>2018-05-08T08:59:50Z</time>
      </trkpt>
      <trkpt lat="45.8764" lon="4.81194">
        <ele>247</ele>
        <time>2018-05-08T08:59:51Z</time>
      </trkpt>
      <trkpt lat="45.87635" lon="4.81197">
        <ele>247</ele>
        <time>2018-05-08T08:59:52Z</time>
      </trkpt>
      <trkpt lat="45.8763" lon="4.81201">
        <ele>247</ele>
        <time>2018-05-08T08:59:53Z</time>
      </trkpt>
      <trkpt lat="45.87626" lon="4.81205">
        <ele>247</ele>
        <time>2018-05-08T08:59:54Z</time>
      </trkpt>
      <trkpt lat="45.87622" lon="4.81208">
        <ele>247</ele>
        <time>2018-05-08T08:59:55Z</time>
      </trkpt>
      <trkpt lat="45.87618" lon="4.81212">
        <ele>247</ele>
        <time>2018-05-08T08:59:56Z</time>
      </trkpt>
      <trkpt lat="45.8761" lon="4.81219">
        <ele>247</ele>
        <time>2018-05-08T08:59:58Z</time>
      </trkpt>
      <trkpt lat="45.87607" lon="4.81221">
        <ele>247</ele>
        <time>2018-05-08T08:59:59Z</time>
      </trkpt>
      <trkpt lat="45.87603" lon="4.81223">
        <ele>247</ele>
        <time>2018-05-08T09:00:00Z</time>
      </trkpt>
      <trkpt lat="45.87592" lon="4.81226">
        <ele>247</ele>
        <time>2018-05-08T09:00:02Z</time>
      </trkpt>
      <trkpt lat="45.87584" lon="4.81227">
        <ele>247</ele>
        <time>2018-05-08T09:00:04Z</time>
      </trkpt>
      <trkpt lat="45.87578" lon="4.81233">
        <ele>250</ele>
        <time>2018-05-08T09:00:05Z</time>
      </trkpt>
      <trkpt lat="45.87572" lon="4.81234">
        <ele>250</ele>
        <time>2018-05-08T09:00:06Z</time>
      </trkpt>
      <trkpt lat="45.87568" lon="4.81237">
        <ele>250</ele>
        <time>2018-05-08T09:00:07Z</time>
      </trkpt>
      <trkpt lat="45.87563" lon="4.81239">
        <ele>250</ele>
        <time>2018-05-08T09:00:08Z</time>
      </trkpt>
      <trkpt lat="45.87559" lon="4.8124">
        <ele>251</ele>
        <time>2018-05-08T09:00:09Z</time>
      </trkpt>
      <trkpt lat="45.87554" lon="4.81241">
        <ele>251</ele>
        <time>2018-05-08T09:00:10Z</time>
      </trkpt>
      <trkpt lat="45.8755" lon="4.81241">
        <ele>251</ele>
        <time>2018-05-08T09:00:11Z</time>
      </trkpt>
      <trkpt lat="45.87545" lon="4.81241">
        <ele>252</ele>
        <time>2018-05-08T09:00:12Z</time>
      </trkpt>
      <trkpt lat="45.8754" lon="4.8124">
        <ele>252</ele>
        <time>2018-05-08T09:00:13Z</time>
      </trkpt>
      <trkpt lat="45.87532" lon="4.81242">
        <ele>252</ele>
        <time>2018-05-08T09:00:15Z</time>
      </trkpt>
      <trkpt lat="45.87528" lon="4.81244">
        <ele>252</ele>
        <time>2018-05-08T09:00:16Z</time>
      </trkpt>
      <trkpt lat="45.87521" lon="4.8125">
        <ele>253</ele>
        <time>2018-05-08T09:00:19Z</time>
      </trkpt>
      <trkpt lat="45.87516" lon="4.81254">
        <ele>250</ele>
        <time>2018-05-08T09:00:20Z</time>
      </trkpt>
      <trkpt lat="45.87512" lon="4.81261">
        <ele>250</ele>
        <time>2018-05-08T09:00:22Z</time>
      </trkpt>
      <trkpt lat="45.87509" lon="4.81265">
        <ele>250</ele>
        <time>2018-05-08T09:00:23Z</time>
      </trkpt>
      <trkpt lat="45.87506" lon="4.81275">
        <ele>249</ele>
        <time>2018-05-08T09:00:25Z</time>
      </trkpt>
      <trkpt lat="45.87504" lon="4.8128">
        <ele>249</ele>
        <time>2018-05-08T09:00:26Z</time>
      </trkpt>
      <trkpt lat="45.87503" lon="4.81285">
        <ele>248</ele>
        <time>2018-05-08T09:00:27Z</time>
      </trkpt>
      <trkpt lat="45.87501" lon="4.81293">
        <ele>248</ele>
        <time>2018-05-08T09:00:28Z</time>
      </trkpt>
      <trkpt lat="45.87501" lon="4.81301">
        <ele>248</ele>
        <time>2018-05-08T09:00:29Z</time>
      </trkpt>
      <trkpt lat="45.87502" lon="4.8131">
        <ele>247</ele>
        <time>2018-05-08T09:00:30Z</time>
      </trkpt>
      <trkpt lat="45.875" lon="4.81317">
        <ele>251</ele>
        <time>2018-05-08T09:00:31Z</time>
      </trkpt>
      <trkpt lat="45.87499" lon="4.81327">
        <ele>250</ele>
        <time>2018-05-08T09:00:32Z</time>
      </trkpt>
      <trkpt lat="45.87498" lon="4.81335">
        <ele>248</ele>
        <time>2018-05-08T09:00:33Z</time>
      </trkpt>
      <trkpt lat="45.87494" lon="4.81342">
        <ele>248</ele>
        <time>2018-05-08T09:00:34Z</time>
      </trkpt>
      <trkpt lat="45.87491" lon="4.81351">
        <ele>248</ele>
        <time>2018-05-08T09:00:35Z</time>
      </trkpt>
      <trkpt lat="45.87487" lon="4.81359">
        <ele>248</ele>
        <time>2018-05-08T09:00:36Z</time>
      </trkpt>
      <trkpt lat="45.87482" lon="4.81366">
        <ele>248</ele>
        <time>2018-05-08T09:00:37Z</time>
      </trkpt>
      <trkpt lat="45.87479" lon="4.81373">
        <ele>248</ele>
        <time>2018-05-08T09:00:38Z</time>
      </trkpt>
      <trkpt lat="45.87477" lon="4.8138">
        <ele>247</ele>
        <time>2018-05-08T09:00:39Z</time>
      </trkpt>
      <trkpt lat="45.87475" lon="4.81387">
        <ele>247</ele>
        <time>2018-05-08T09:00:40Z</time>
      </trkpt>
      <trkpt lat="45.87469" lon="4.81396">
        <ele>247</ele>
        <time>2018-05-08T09:00:41Z</time>
      </trkpt>
      <trkpt lat="45.87465" lon="4.81403">
        <ele>247</ele>
        <time>2018-05-08T09:00:42Z</time>
      </trkpt>
      <trkpt lat="45.87461" lon="4.81411">
        <ele>247</ele>
        <time>2018-05-08T09:00:43Z</time>
      </trkpt>
      <trkpt lat="45.87455" lon="4.81418">
        <ele>242</ele>
        <time>2018-05-08T09:00:44Z</time>
      </trkpt>
      <trkpt lat="45.87451" lon="4.81425">
        <ele>243</ele>
        <time>2018-05-08T09:00:45Z</time>
      </trkpt>
      <trkpt lat="45.87447" lon="4.81435">
        <ele>242</ele>
        <time>2018-05-08T09:00:46Z</time>
      </trkpt>
      <trkpt lat="45.87443" lon="4.81443">
        <ele>242</ele>
        <time>2018-05-08T09:00:47Z</time>
      </trkpt>
      <trkpt lat="45.87438" lon="4.81451">
        <ele>242</ele>
        <time>2018-05-08T09:00:48Z</time>
      </trkpt>
      <trkpt lat="45.87434" lon="4.81459">
        <ele>242</ele>
        <time>2018-05-08T09:00:49Z</time>
      </trkpt>
      <trkpt lat="45.87431" lon="4.81468">
        <ele>242</ele>
        <time>2018-05-08T09:00:50Z</time>
      </trkpt>
      <trkpt lat="45.87426" lon="4.81478">
        <ele>241</ele>
        <time>2018-05-08T09:00:51Z</time>
      </trkpt>
      <trkpt lat="45.87423" lon="4.81486">
        <ele>242</ele>
        <time>2018-05-08T09:00:52Z</time>
      </trkpt>
      <trkpt lat="45.8742" lon="4.81494">
        <ele>242</ele>
        <time>2018-05-08T09:00:53Z</time>
      </trkpt>
      <trkpt lat="45.87416" lon="4.81503">
        <ele>242</ele>
        <time>2018-05-08T09:00:54Z</time>
      </trkpt>
      <trkpt lat="45.87412" lon="4.81512">
        <ele>243</ele>
        <time>2018-05-08T09:00:55Z</time>
      </trkpt>
      <trkpt lat="45.87409" lon="4.81523">
        <ele>243</ele>
        <time>2018-05-08T09:00:56Z</time>
      </trkpt>
      <trkpt lat="45.87406" lon="4.81529">
        <ele>244</ele>
        <time>2018-05-08T09:00:57Z</time>
      </trkpt>
      <trkpt lat="45.87404" lon="4.8154">
        <ele>243</ele>
        <time>2018-05-08T09:00:58Z</time>
      </trkpt>
      <trkpt lat="45.87401" lon="4.81546">
        <ele>243</ele>
        <time>2018-05-08T09:00:59Z</time>
      </trkpt>
      <trkpt lat="45.87398" lon="4.81554">
        <ele>243</ele>
        <time>2018-05-08T09:01:00Z</time>
      </trkpt>
      <trkpt lat="45.87394" lon="4.81563">
        <ele>242</ele>
        <time>2018-05-08T09:01:01Z</time>
      </trkpt>
      <trkpt lat="45.87393" lon="4.81572">
        <ele>242</ele>
        <time>2018-05-08T09:01:02Z</time>
      </trkpt>
      <trkpt lat="45.8739" lon="4.8158">
        <ele>242</ele>
        <time>2018-05-08T09:01:03Z</time>
      </trkpt>
      <trkpt lat="45.87388" lon="4.81589">
        <ele>239</ele>
        <time>2018-05-08T09:01:04Z</time>
      </trkpt>
      <trkpt lat="45.87387" lon="4.81598">
        <ele>239</ele>
        <time>2018-05-08T09:01:05Z</time>
      </trkpt>
      <trkpt lat="45.87384" lon="4.81607">
        <ele>239</ele>
        <time>2018-05-08T09:01:06Z</time>
      </trkpt>
      <trkpt lat="45.87381" lon="4.81616">
        <ele>239</ele>
        <time>2018-05-08T09:01:07Z</time>
      </trkpt>
      <trkpt lat="45.87375" lon="4.81625">
        <ele>239</ele>
        <time>2018-05-08T09:01:08Z</time>
      </trkpt>
      <trkpt lat="45.87372" lon="4.81635">
        <ele>239</ele>
        <time>2018-05-08T09:01:09Z</time>
      </trkpt>
      <trkpt lat="45.8737" lon="4.81647">
        <ele>239</ele>
        <time>2018-05-08T09:01:10Z</time>
      </trkpt>
      <trkpt lat="45.87367" lon="4.81658">
        <ele>239</ele>
        <time>2018-05-08T09:01:11Z</time>
      </trkpt>
      <trkpt lat="45.87362" lon="4.81668">
        <ele>237</ele>
        <time>2018-05-08T09:01:12Z</time>
      </trkpt>
      <trkpt lat="45.87357" lon="4.81677">
        <ele>237</ele>
        <time>2018-05-08T09:01:13Z</time>
      </trkpt>
      <trkpt lat="45.87354" lon="4.81686">
        <ele>237</ele>
        <time>2018-05-08T09:01:14Z</time>
      </trkpt>
      <trkpt lat="45.8735" lon="4.81694">
        <ele>237</ele>
        <time>2018-05-08T09:01:15Z</time>
      </trkpt>
      <trkpt lat="45.87346" lon="4.81706">
        <ele>236</ele>
        <time>2018-05-08T09:01:16Z</time>
      </trkpt>
      <trkpt lat="45.87347" lon="4.81717">
        <ele>236</ele>
        <time>2018-05-08T09:01:17Z</time>
      </trkpt>
      <trkpt lat="45.87344" lon="4.81727">
        <ele>236</ele>
        <time>2018-05-08T09:01:18Z</time>
      </trkpt>
      <trkpt lat="45.8734" lon="4.81737">
        <ele>237</ele>
        <time>2018-05-08T09:01:19Z</time>
      </trkpt>
      <trkpt lat="45.87337" lon="4.81747">
        <ele>237</ele>
        <time>2018-05-08T09:01:20Z</time>
      </trkpt>
      <trkpt lat="45.87335" lon="4.81758">
        <ele>236</ele>
        <time>2018-05-08T09:01:21Z</time>
      </trkpt>
      <trkpt lat="45.87333" lon="4.81766">
        <ele>238</ele>
        <time>2018-05-08T09:01:22Z</time>
      </trkpt>
      <trkpt lat="45.87327" lon="4.81776">
        <ele>238</ele>
        <time>2018-05-08T09:01:23Z</time>
      </trkpt>
      <trkpt lat="45.87322" lon="4.81785">
        <ele>238</ele>
        <time>2018-05-08T09:01:24Z</time>
      </trkpt>
      <trkpt lat="45.87322" lon="4.81796">
        <ele>238</ele>
        <time>2018-05-08T09:01:25Z</time>
      </trkpt>
      <trkpt lat="45.87319" lon="4.81806">
        <ele>238</ele>
        <time>2018-05-08T09:01:26Z</time>
      </trkpt>
      <trkpt lat="45.87316" lon="4.81813">
        <ele>238</ele>
        <time>2018-05-08T09:01:27Z</time>
      </trkpt>
      <trkpt lat="45.87312" lon="4.81822">
        <ele>238</ele>
        <time>2018-05-08T09:01:28Z</time>
      </trkpt>
      <trkpt lat="45.87312" lon="4.81832">
        <ele>238</ele>
        <time>2018-05-08T09:01:29Z</time>
      </trkpt>
      <trkpt lat="45.87309" lon="4.81842">
        <ele>236</ele>
        <time>2018-05-08T09:01:30Z</time>
      </trkpt>
      <trkpt lat="45.87308" lon="4.81852">
        <ele>236</ele>
        <time>2018-05-08T09:01:31Z</time>
      </trkpt>
      <trkpt lat="45.87305" lon="4.81861">
        <ele>235</ele>
        <time>2018-05-08T09:01:32Z</time>
      </trkpt>
      <trkpt lat="45.87304" lon="4.81871">
        <ele>235</ele>
        <time>2018-05-08T09:01:33Z</time>
      </trkpt>
      <trkpt lat="45.87303" lon="4.81881">
        <ele>235</ele>
        <time>2018-05-08T09:01:34Z</time>
      </trkpt>
      <trkpt lat="45.873" lon="4.81891">
        <ele>235</ele>
        <time>2018-05-08T09:01:35Z</time>
      </trkpt>
      <trkpt lat="45.87298" lon="4.81901">
        <ele>234</ele>
        <time>2018-05-08T09:01:36Z</time>
      </trkpt>
      <trkpt lat="45.87293" lon="4.8191">
        <ele>234</ele>
        <time>2018-05-08T09:01:37Z</time>
      </trkpt>
      <trkpt lat="45.87287" lon="4.81918">
        <ele>230</ele>
        <time>2018-05-08T09:01:38Z</time>
      </trkpt>
      <trkpt lat="45.87284" lon="4.81919">
        <ele>230</ele>
        <time>2018-05-08T09:01:39Z</time>
      </trkpt>
      <trkpt lat="45.87277" lon="4.81921">
        <ele>231</ele>
        <time>2018-05-08T09:01:40Z</time>
      </trkpt>
      <trkpt lat="45.87272" lon="4.81926">
        <ele>231</ele>
        <time>2018-05-08T09:01:41Z</time>
      </trkpt>
      <trkpt lat="45.87268" lon="4.81931">
        <ele>231</ele>
        <time>2018-05-08T09:01:42Z</time>
      </trkpt>
      <trkpt lat="45.87261" lon="4.81933">
        <ele>231</ele>
        <time>2018-05-08T09:01:43Z</time>
      </trkpt>
      <trkpt lat="45.87255" lon="4.81936">
        <ele>231</ele>
        <time>2018-05-08T09:01:44Z</time>
      </trkpt>
      <trkpt lat="45.8725" lon="4.81938">
        <ele>232</ele>
        <time>2018-05-08T09:01:45Z</time>
      </trkpt>
      <trkpt lat="45.87245" lon="4.8194">
        <ele>232</ele>
        <time>2018-05-08T09:01:46Z</time>
      </trkpt>
      <trkpt lat="45.87238" lon="4.81942">
        <ele>232</ele>
        <time>2018-05-08T09:01:47Z</time>
      </trkpt>
      <trkpt lat="45.87232" lon="4.81947">
        <ele>231</ele>
        <time>2018-05-08T09:01:48Z</time>
      </trkpt>
      <trkpt lat="45.87227" lon="4.81951">
        <ele>231</ele>
        <time>2018-05-08T09:01:49Z</time>
      </trkpt>
      <trkpt lat="45.87222" lon="4.81954">
        <ele>231</ele>
        <time>2018-05-08T09:01:50Z</time>
      </trkpt>
      <trkpt lat="45.87216" lon="4.81956">
        <ele>231</ele>
        <time>2018-05-08T09:01:51Z</time>
      </trkpt>
      <trkpt lat="45.87211" lon="4.81958">
        <ele>231</ele>
        <time>2018-05-08T09:01:52Z</time>
      </trkpt>
      <trkpt lat="45.87204" lon="4.81961">
        <ele>231</ele>
        <time>2018-05-08T09:01:53Z</time>
      </trkpt>
      <trkpt lat="45.87197" lon="4.81962">
        <ele>231</ele>
        <time>2018-05-08T09:01:54Z</time>
      </trkpt>
      <trkpt lat="45.87193" lon="4.81964">
        <ele>231</ele>
        <time>2018-05-08T09:01:55Z</time>
      </trkpt>
      <trkpt lat="45.87187" lon="4.81965">
        <ele>231</ele>
        <time>2018-05-08T09:01:56Z</time>
      </trkpt>
      <trkpt lat="45.8718" lon="4.81966">
        <ele>231</ele>
        <time>2018-05-08T09:01:57Z</time>
      </trkpt>
      <trkpt lat="45.87173" lon="4.81969">
        <ele>230</ele>
        <time>2018-05-08T09:01:58Z</time>
      </trkpt>
      <trkpt lat="45.87167" lon="4.8197">
        <ele>230</ele>
        <time>2018-05-08T09:01:59Z</time>
      </trkpt>
      <trkpt lat="45.87161" lon="4.81971">
        <ele>230</ele>
        <time>2018-05-08T09:02:00Z</time>
      </trkpt>
      <trkpt lat="45.87153" lon="4.81971">
        <ele>231</ele>
        <time>2018-05-08T09:02:01Z</time>
      </trkpt>
      <trkpt lat="45.87146" lon="4.81972">
        <ele>231</ele>
        <time>2018-05-08T09:02:02Z</time>
      </trkpt>
      <trkpt lat="45.8714" lon="4.81972">
        <ele>231</ele>
        <time>2018-05-08T09:02:03Z</time>
      </trkpt>
      <trkpt lat="45.87131" lon="4.81972">
        <ele>231</ele>
        <time>2018-05-08T09:02:04Z</time>
      </trkpt>
      <trkpt lat="45.87124" lon="4.81973">
        <ele>230</ele>
        <time>2018-05-08T09:02:05Z</time>
      </trkpt>
      <trkpt lat="45.87115" lon="4.81971">
        <ele>230</ele>
        <time>2018-05-08T09:02:06Z</time>
      </trkpt>
      <trkpt lat="45.87107" lon="4.8197">
        <ele>230</ele>
        <time>2018-05-08T09:02:07Z</time>
      </trkpt>
      <trkpt lat="45.87099" lon="4.81969">
        <ele>230</ele>
        <time>2018-05-08T09:02:08Z</time>
      </trkpt>
      <trkpt lat="45.87091" lon="4.81967">
        <ele>230</ele>
        <time>2018-05-08T09:02:09Z</time>
      </trkpt>
      <trkpt lat="45.87082" lon="4.81965">
        <ele>228</ele>
        <time>2018-05-08T09:02:10Z</time>
      </trkpt>
      <trkpt lat="45.87073" lon="4.81961">
        <ele>229</ele>
        <time>2018-05-08T09:02:11Z</time>
      </trkpt>
      <trkpt lat="45.87064" lon="4.81957">
        <ele>229</ele>
        <time>2018-05-08T09:02:12Z</time>
      </trkpt>
      <trkpt lat="45.87056" lon="4.81954">
        <ele>230</ele>
        <time>2018-05-08T09:02:13Z</time>
      </trkpt>
      <trkpt lat="45.87048" lon="4.8195">
        <ele>230</ele>
        <time>2018-05-08T09:02:14Z</time>
      </trkpt>
      <trkpt lat="45.87039" lon="4.81948">
        <ele>230</ele>
        <time>2018-05-08T09:02:15Z</time>
      </trkpt>
      <trkpt lat="45.87032" lon="4.81946">
        <ele>229</ele>
        <time>2018-05-08T09:02:16Z</time>
      </trkpt>
      <trkpt lat="45.87024" lon="4.81944">
        <ele>229</ele>
        <time>2018-05-08T09:02:17Z</time>
      </trkpt>
      <trkpt lat="45.87017" lon="4.81943">
        <ele>229</ele>
        <time>2018-05-08T09:02:18Z</time>
      </trkpt>
      <trkpt lat="45.8701" lon="4.81944">
        <ele>229</ele>
        <time>2018-05-08T09:02:19Z</time>
      </trkpt>
      <trkpt lat="45.87002" lon="4.81946">
        <ele>229</ele>
        <time>2018-05-08T09:02:20Z</time>
      </trkpt>
      <trkpt lat="45.86998" lon="4.8195">
        <ele>227</ele>
        <time>2018-05-08T09:02:21Z</time>
      </trkpt>
      <trkpt lat="45.86993" lon="4.81955">
        <ele>226</ele>
        <time>2018-05-08T09:02:22Z</time>
      </trkpt>
      <trkpt lat="45.86993" lon="4.81964">
        <ele>225</ele>
        <time>2018-05-08T09:02:23Z</time>
      </trkpt>
      <trkpt lat="45.86992" lon="4.81972">
        <ele>224</ele>
        <time>2018-05-08T09:02:24Z</time>
      </trkpt>
      <trkpt lat="45.86992" lon="4.81979">
        <ele>223</ele>
        <time>2018-05-08T09:02:25Z</time>
      </trkpt>
      <trkpt lat="45.86993" lon="4.81986">
        <ele>222</ele>
        <time>2018-05-08T09:02:26Z</time>
      </trkpt>
      <trkpt lat="45.86991" lon="4.81996">
        <ele>221</ele>
        <time>2018-05-08T09:02:29Z</time>
      </trkpt>
      <trkpt lat="45.86991" lon="4.81999">
        <ele>221</ele>
        <time>2018-05-08T09:02:30Z</time>
      </trkpt>
      <trkpt lat="45.86991" lon="4.8201">
        <ele>221</ele>
        <time>2018-05-08T09:02:33Z</time>
      </trkpt>
      <trkpt lat="45.8699" lon="4.82014">
        <ele>222</ele>
        <time>2018-05-08T09:02:34Z</time>
      </trkpt>
      <trkpt lat="45.8699" lon="4.82023">
        <ele>223</ele>
        <time>2018-05-08T09:02:36Z</time>
      </trkpt>
      <trkpt lat="45.86995" lon="4.82033">
        <ele>223</ele>
        <time>2018-05-08T09:02:37Z</time>
      </trkpt>
      <trkpt lat="45.87" lon="4.82035">
        <ele>223</ele>
        <time>2018-05-08T09:02:38Z</time>
      </trkpt>
      <trkpt lat="45.87004" lon="4.82037">
        <ele>218</ele>
        <time>2018-05-08T09:02:39Z</time>
      </trkpt>
      <trkpt lat="45.87008" lon="4.82038">
        <ele>218</ele>
        <time>2018-05-08T09:02:40Z</time>
      </trkpt>
      <trkpt lat="45.87014" lon="4.82041">
        <ele>218</ele>
        <time>2018-05-08T09:02:41Z</time>
      </trkpt>
      <trkpt lat="45.8702" lon="4.82046">
        <ele>218</ele>
        <time>2018-05-08T09:02:42Z</time>
      </trkpt>
      <trkpt lat="45.87025" lon="4.8205">
        <ele>218</ele>
        <time>2018-05-08T09:02:43Z</time>
      </trkpt>
      <trkpt lat="45.87032" lon="4.82054">
        <ele>218</ele>
        <time>2018-05-08T09:02:44Z</time>
      </trkpt>
      <trkpt lat="45.87038" lon="4.82059">
        <ele>218</ele>
        <time>2018-05-08T09:02:45Z</time>
      </trkpt>
      <trkpt lat="45.87045" lon="4.82062">
        <ele>218</ele>
        <time>2018-05-08T09:02:46Z</time>
      </trkpt>
      <trkpt lat="45.87052" lon="4.82067">
        <ele>217</ele>
        <time>2018-05-08T09:02:47Z</time>
      </trkpt>
      <trkpt lat="45.8706" lon="4.82071">
        <ele>217</ele>
        <time>2018-05-08T09:02:48Z</time>
      </trkpt>
      <trkpt lat="45.87067" lon="4.82076">
        <ele>216</ele>
        <time>2018-05-08T09:02:49Z</time>
      </trkpt>
      <trkpt lat="45.87074" lon="4.8208">
        <ele>215</ele>
        <time>2018-05-08T09:02:50Z</time>
      </trkpt>
      <trkpt lat="45.87082" lon="4.82085">
        <ele>215</ele>
        <time>2018-05-08T09:02:51Z</time>
      </trkpt>
      <trkpt lat="45.8709" lon="4.8209">
        <ele>214</ele>
        <time>2018-05-08T09:02:52Z</time>
      </trkpt>
      <trkpt lat="45.87098" lon="4.82095">
        <ele>213</ele>
        <time>2018-05-08T09:02:53Z</time>
      </trkpt>
      <trkpt lat="45.87104" lon="4.821">
        <ele>213</ele>
        <time>2018-05-08T09:02:54Z</time>
      </trkpt>
      <trkpt lat="45.8711" lon="4.82105">
        <ele>213</ele>
        <time>2018-05-08T09:02:55Z</time>
      </trkpt>
      <trkpt lat="45.87117" lon="4.8211">
        <ele>213</ele>
        <time>2018-05-08T09:02:56Z</time>
      </trkpt>
      <trkpt lat="45.87126" lon="4.82116">
        <ele>212</ele>
        <time>2018-05-08T09:02:57Z</time>
      </trkpt>
      <trkpt lat="45.87133" lon="4.82122">
        <ele>212</ele>
        <time>2018-05-08T09:02:58Z</time>
      </trkpt>
      <trkpt lat="45.87141" lon="4.82128">
        <ele>212</ele>
        <time>2018-05-08T09:02:59Z</time>
      </trkpt>
      <trkpt lat="45.87149" lon="4.82134">
        <ele>211</ele>
        <time>2018-05-08T09:03:00Z</time>
      </trkpt>
      <trkpt lat="45.87156" lon="4.82142">
        <ele>211</ele>
        <time>2018-05-08T09:03:01Z</time>
      </trkpt>
      <trkpt lat="45.87162" lon="4.82153">
        <ele>210</ele>
        <time>2018-05-08T09:03:02Z</time>
      </trkpt>
      <trkpt lat="45.87167" lon="4.82163">
        <ele>208</ele>
        <time>2018-05-08T09:03:03Z</time>
      </trkpt>
      <trkpt lat="45.87172" lon="4.82174">
        <ele>208</ele>
        <time>2018-05-08T09:03:04Z</time>
      </trkpt>
      <trkpt lat="45.87176" lon="4.82185">
        <ele>208</ele>
        <time>2018-05-08T09:03:05Z</time>
      </trkpt>
      <trkpt lat="45.8718" lon="4.82196">
        <ele>208</ele>
        <time>2018-05-08T09:03:06Z</time>
      </trkpt>
      <trkpt lat="45.87184" lon="4.82209">
        <ele>208</ele>
        <time>2018-05-08T09:03:07Z</time>
      </trkpt>
      <trkpt lat="45.87188" lon="4.82221">
        <ele>208</ele>
        <time>2018-05-08T09:03:08Z</time>
      </trkpt>
      <trkpt lat="45.87192" lon="4.82232">
        <ele>208</ele>
        <time>2018-05-08T09:03:09Z</time>
      </trkpt>
      <trkpt lat="45.87196" lon="4.82244">
        <ele>208</ele>
        <time>2018-05-08T09:03:10Z</time>
      </trkpt>
      <trkpt lat="45.87199" lon="4.82254">
        <ele>209</ele>
        <time>2018-05-08T09:03:11Z</time>
      </trkpt>
      <trkpt lat="45.87202" lon="4.82264">
        <ele>209</ele>
        <time>2018-05-08T09:03:12Z</time>
      </trkpt>
      <trkpt lat="45.87205" lon="4.82273">
        <ele>209</ele>
        <time>2018-05-08T09:03:13Z</time>
      </trkpt>
      <trkpt lat="45.87209" lon="4.82281">
        <ele>210</ele>
        <time>2018-05-08T09:03:14Z</time>
      </trkpt>
      <trkpt lat="45.87212" lon="4.82288">
        <ele>210</ele>
        <time>2018-05-08T09:03:15Z</time>
      </trkpt>
      <trkpt lat="45.87215" lon="4.82295">
        <ele>210</ele>
        <time>2018-05-08T09:03:16Z</time>
      </trkpt>
      <trkpt lat="45.8722" lon="4.82301">
        <ele>210</ele>
        <time>2018-05-08T09:03:17Z</time>
      </trkpt>
      <trkpt lat="45.87223" lon="4.82306">
        <ele>210</ele>
        <time>2018-05-08T09:03:18Z</time>
      </trkpt>
      <trkpt lat="45.87225" lon="4.82312">
        <ele>210</ele>
        <time>2018-05-08T09:03:19Z</time>
      </trkpt>
      <trkpt lat="45.87228" lon="4.82318">
        <ele>210</ele>
        <time>2018-05-08T09:03:20Z</time>
      </trkpt>
      <trkpt lat="45.8723" lon="4.82323">
        <ele>209</ele>
        <time>2018-05-08T09:03:21Z</time>
      </trkpt>
      <trkpt lat="45.87233" lon="4.82329">
        <ele>209</ele>
        <time>2018-05-08T09:03:22Z</time>
      </trkpt>
      <trkpt lat="45.87237" lon="4.82338">
        <ele>212</ele>
        <time>2018-05-08T09:03:24Z</time>
      </trkpt>
      <trkpt lat="45.8724" lon="4.82342">
        <ele>212</ele>
        <time>2018-05-08T09:03:25Z</time>
      </trkpt>
      <trkpt lat="45.87245" lon="4.82351">
        <ele>213</ele>
        <time>2018-05-08T09:03:27Z</time>
      </trkpt>
      <trkpt lat="45.87247" lon="4.82353">
        <ele>213</ele>
        <time>2018-05-08T09:03:28Z</time>
      </trkpt>
      <trkpt lat="45.8725" lon="4.8236">
        <ele>214</ele>
        <time>2018-05-08T09:03:29Z</time>
      </trkpt>
      <trkpt lat="45.87252" lon="4.82364">
        <ele>208</ele>
        <time>2018-05-08T09:03:30Z</time>
      </trkpt>
      <trkpt lat="45.87258" lon="4.82373">
        <ele>209</ele>
        <time>2018-05-08T09:03:33Z</time>
      </trkpt>
      <trkpt lat="45.87262" lon="4.82381">
        <ele>209</ele>
        <time>2018-05-08T09:03:34Z</time>
      </trkpt>
      <trkpt lat="45.87266" lon="4.8239">
        <ele>209</ele>
        <time>2018-05-08T09:03:36Z</time>
      </trkpt>
      <trkpt lat="45.87267" lon="4.82392">
        <ele>210</ele>
        <time>2018-05-08T09:03:37Z</time>
      </trkpt>
      <trkpt lat="45.87272" lon="4.824">
        <ele>210</ele>
        <time>2018-05-08T09:03:40Z</time>
      </trkpt>
      <trkpt lat="45.87274" lon="4.82403">
        <ele>210</ele>
        <time>2018-05-08T09:03:41Z</time>
      </trkpt>
      <trkpt lat="45.87276" lon="4.82406">
        <ele>210</ele>
        <time>2018-05-08T09:03:42Z</time>
      </trkpt>
      <trkpt lat="45.87282" lon="4.82415">
        <ele>209</ele>
        <time>2018-05-08T09:03:43Z</time>
      </trkpt>
      <trkpt lat="45.87286" lon="4.82424">
        <ele>213</ele>
        <time>2018-05-08T09:03:45Z</time>
      </trkpt>
      <trkpt lat="45.87287" lon="4.82426">
        <ele>212</ele>
        <time>2018-05-08T09:03:46Z</time>
      </trkpt>
      <trkpt lat="45.87291" lon="4.82434">
        <ele>212</ele>
        <time>2018-05-08T09:03:49Z</time>
      </trkpt>
      <trkpt lat="45.87293" lon="4.82437">
        <ele>212</ele>
        <time>2018-05-08T09:03:50Z</time>
      </trkpt>
      <trkpt lat="45.87296" lon="4.82442">
        <ele>212</ele>
        <time>2018-05-08T09:03:52Z</time>
      </trkpt>
      <trkpt lat="45.87301" lon="4.82452">
        <ele>212</ele>
        <time>2018-05-08T09:03:53Z</time>
      </trkpt>
      <trkpt lat="45.87304" lon="4.82457">
        <ele>212</ele>
        <time>2018-05-08T09:03:55Z</time>
      </trkpt>
      <trkpt lat="45.87308" lon="4.82464">
        <ele>212</ele>
        <time>2018-05-08T09:03:56Z</time>
      </trkpt>
      <trkpt lat="45.87311" lon="4.82468">
        <ele>212</ele>
        <time>2018-05-08T09:03:58Z</time>
      </trkpt>
      <trkpt lat="45.87315" lon="4.82475">
        <ele>212</ele>
        <time>2018-05-08T09:03:59Z</time>
      </trkpt>
      <trkpt lat="45.87321" lon="4.82483">
        <ele>211</ele>
        <time>2018-05-08T09:04:01Z</time>
      </trkpt>
      <trkpt lat="45.87323" lon="4.82488">
        <ele>211</ele>
        <time>2018-05-08T09:04:02Z</time>
      </trkpt>
      <trkpt lat="45.87326" lon="4.82493">
        <ele>210</ele>
        <time>2018-05-08T09:04:04Z</time>
      </trkpt>
      <trkpt lat="45.87329" lon="4.82501">
        <ele>210</ele>
        <time>2018-05-08T09:04:05Z</time>
      </trkpt>
      <trkpt lat="45.87334" lon="4.8251">
        <ele>208</ele>
        <time>2018-05-08T09:04:07Z</time>
      </trkpt>
      <trkpt lat="45.87336" lon="4.82513">
        <ele>208</ele>
        <time>2018-05-08T09:04:08Z</time>
      </trkpt>
      <trkpt lat="45.87339" lon="4.82519">
        <ele>208</ele>
        <time>2018-05-08T09:04:09Z</time>
      </trkpt>
      <trkpt lat="45.87341" lon="4.82524">
        <ele>208</ele>
        <time>2018-05-08T09:04:10Z</time>
      </trkpt>
      <trkpt lat="45.87345" lon="4.82534">
        <ele>208</ele>
        <time>2018-05-08T09:04:12Z</time>
      </trkpt>
      <trkpt lat="45.87347" lon="4.82539">
        <ele>208</ele>
        <time>2018-05-08T09:04:13Z</time>
      </trkpt>
      <trkpt lat="45.87352" lon="4.8255">
        <ele>209</ele>
        <time>2018-05-08T09:04:15Z</time>
      </trkpt>
      <trkpt lat="45.87354" lon="4.82554">
        <ele>209</ele>
        <time>2018-05-08T09:04:16Z</time>
      </trkpt>
      <trkpt lat="45.87357" lon="4.8256">
        <ele>209</ele>
        <time>2018-05-08T09:04:17Z</time>
      </trkpt>
      <trkpt lat="45.87359" lon="4.82566">
        <ele>209</ele>
        <time>2018-05-08T09:04:18Z</time>
      </trkpt>
      <trkpt lat="45.87362" lon="4.82573">
        <ele>209</ele>
        <time>2018-05-08T09:04:19Z</time>
      </trkpt>
      <trkpt lat="45.87364" lon="4.82579">
        <ele>209</ele>
        <time>2018-05-08T09:04:20Z</time>
      </trkpt>
      <trkpt lat="45.87367" lon="4.82585">
        <ele>213</ele>
        <time>2018-05-08T09:04:21Z</time>
      </trkpt>
      <trkpt lat="45.8737" lon="4.82591">
        <ele>213</ele>
        <time>2018-05-08T09:04:22Z</time>
      </trkpt>
      <trkpt lat="45.87372" lon="4.82597">
        <ele>213</ele>
        <time>2018-05-08T09:04:23Z</time>
      </trkpt>
      <trkpt lat="45.87374" lon="4.82603">
        <ele>212</ele>
        <time>2018-05-08T09:04:24Z</time>
      </trkpt>
      <trkpt lat="45.87377" lon="4.8261">
        <ele>212</ele>
        <time>2018-05-08T09:04:25Z</time>
      </trkpt>
      <trkpt lat="45.8738" lon="4.82616">
        <ele>212</ele>
        <time>2018-05-08T09:04:26Z</time>
      </trkpt>
      <trkpt lat="45.87383" lon="4.82622">
        <ele>212</ele>
        <time>2018-05-08T09:04:27Z</time>
      </trkpt>
      <trkpt lat="45.87385" lon="4.82628">
        <ele>212</ele>
        <time>2018-05-08T09:04:28Z</time>
      </trkpt>
      <trkpt lat="45.87388" lon="4.82633">
        <ele>213</ele>
        <time>2018-05-08T09:04:29Z</time>
      </trkpt>
      <trkpt lat="45.8739" lon="4.82641">
        <ele>213</ele>
        <time>2018-05-08T09:04:30Z</time>
      </trkpt>
      <trkpt lat="45.87393" lon="4.82646">
        <ele>213</ele>
        <time>2018-05-08T09:04:31Z</time>
      </trkpt>
      <trkpt lat="45.87395" lon="4.82654">
        <ele>212</ele>
        <time>2018-05-08T09:04:32Z</time>
      </trkpt>
      <trkpt lat="45.87398" lon="4.82659">
        <ele>212</ele>
        <time>2018-05-08T09:04:33Z</time>
      </trkpt>
      <trkpt lat="45.87402" lon="4.82666">
        <ele>212</ele>
        <time>2018-05-08T09:04:34Z</time>
      </trkpt>
      <trkpt lat="45.87404" lon="4.82673">
        <ele>214</ele>
        <time>2018-05-08T09:04:35Z</time>
      </trkpt>
      <trkpt lat="45.87408" lon="4.8268">
        <ele>214</ele>
        <time>2018-05-08T09:04:36Z</time>
      </trkpt>
      <trkpt lat="45.87413" lon="4.82686">
        <ele>214</ele>
        <time>2018-05-08T09:04:37Z</time>
      </trkpt>
      <trkpt lat="45.87417" lon="4.82692">
        <ele>214</ele>
        <time>2018-05-08T09:04:38Z</time>
      </trkpt>
      <trkpt lat="45.8742" lon="4.82699">
        <ele>208</ele>
        <time>2018-05-08T09:04:39Z</time>
      </trkpt>
      <trkpt lat="45.87425" lon="4.82706">
        <ele>208</ele>
        <time>2018-05-08T09:04:40Z</time>
      </trkpt>
      <trkpt lat="45.87428" lon="4.82713">
        <ele>208</ele>
        <time>2018-05-08T09:04:41Z</time>
      </trkpt>
      <trkpt lat="45.87431" lon="4.82719">
        <ele>208</ele>
        <time>2018-05-08T09:04:42Z</time>
      </trkpt>
      <trkpt lat="45.87437" lon="4.82725">
        <ele>208</ele>
        <time>2018-05-08T09:04:43Z</time>
      </trkpt>
      <trkpt lat="45.8744" lon="4.82732">
        <ele>208</ele>
        <time>2018-05-08T09:04:44Z</time>
      </trkpt>
      <trkpt lat="45.87444" lon="4.82738">
        <ele>208</ele>
        <time>2018-05-08T09:04:45Z</time>
      </trkpt>
      <trkpt lat="45.87447" lon="4.82745">
        <ele>208</ele>
        <time>2018-05-08T09:04:46Z</time>
      </trkpt>
      <trkpt lat="45.87451" lon="4.82753">
        <ele>210</ele>
        <time>2018-05-08T09:04:47Z</time>
      </trkpt>
      <trkpt lat="45.87454" lon="4.8276">
        <ele>209</ele>
        <time>2018-05-08T09:04:48Z</time>
      </trkpt>
      <trkpt lat="45.87457" lon="4.82765">
        <ele>209</ele>
        <time>2018-05-08T09:04:49Z</time>
      </trkpt>
      <trkpt lat="45.87459" lon="4.82772">
        <ele>209</ele>
        <time>2018-05-08T09:04:50Z</time>
      </trkpt>
      <trkpt lat="45.87462" lon="4.82778">
        <ele>209</ele>
        <time>2018-05-08T09:04:51Z</time>
      </trkpt>
      <trkpt lat="45.87465" lon="4.82784">
        <ele>209</ele>
        <time>2018-05-08T09:04:52Z</time>
      </trkpt>
      <trkpt lat="45.87467" lon="4.8279">
        <ele>209</ele>
        <time>2018-05-08T09:04:53Z</time>
      </trkpt>
      <trkpt lat="45.8747" lon="4.82797">
        <ele>209</ele>
        <time>2018-05-08T09:04:54Z</time>
      </trkpt>
      <trkpt lat="45.87472" lon="4.82804">
        <ele>209</ele>
        <time>2018-05-08T09:04:55Z</time>
      </trkpt>
      <trkpt lat="45.87475" lon="4.8281">
        <ele>209</ele>
        <time>2018-05-08T09:04:56Z</time>
      </trkpt>
      <trkpt lat="45.87477" lon="4.82818">
        <ele>209</ele>
        <time>2018-05-08T09:04:57Z</time>
      </trkpt>
      <trkpt lat="45.87481" lon="4.82824">
        <ele>208</ele>
        <time>2018-05-08T09:04:58Z</time>
      </trkpt>
      <trkpt lat="45.87484" lon="4.8283">
        <ele>208</ele>
        <time>2018-05-08T09:04:59Z</time>
      </trkpt>
      <trkpt lat="45.87486" lon="4.82838">
        <ele>209</ele>
        <time>2018-05-08T09:05:00Z</time>
      </trkpt>
      <trkpt lat="45.87489" lon="4.82845">
        <ele>209</ele>
        <time>2018-05-08T09:05:01Z</time>
      </trkpt>
      <trkpt lat="45.87492" lon="4.82852">
        <ele>209</ele>
        <time>2018-05-08T09:05:02Z</time>
      </trkpt>
      <trkpt lat="45.87495" lon="4.8286">
        <ele>210</ele>
        <time>2018-05-08T09:05:03Z</time>
      </trkpt>
      <trkpt lat="45.87498" lon="4.82868">
        <ele>210</ele>
        <time>2018-05-08T09:05:04Z</time>
      </trkpt>
      <trkpt lat="45.87501" lon="4.82875">
        <ele>205</ele>
        <time>2018-05-08T09:05:05Z</time>
      </trkpt>
      <trkpt lat="45.87504" lon="4.82884">
        <ele>206</ele>
        <time>2018-05-08T09:05:06Z</time>
      </trkpt>
      <trkpt lat="45.87506" lon="4.82892">
        <ele>206</ele>
        <time>2018-05-08T09:05:07Z</time>
      </trkpt>
      <trkpt lat="45.87511" lon="4.82901">
        <ele>207</ele>
        <time>2018-05-08T09:05:08Z</time>
      </trkpt>
      <trkpt lat="45.87515" lon="4.8291">
        <ele>207</ele>
        <time>2018-05-08T09:05:09Z</time>
      </trkpt>
      <trkpt lat="45.87518" lon="4.82921">
        <ele>208</ele>
        <time>2018-05-08T09:05:10Z</time>
      </trkpt>
      <trkpt lat="45.87522" lon="4.82931">
        <ele>207</ele>
        <time>2018-05-08T09:05:11Z</time>
      </trkpt>
      <trkpt lat="45.87525" lon="4.82943">
        <ele>207</ele>
        <time>2018-05-08T09:05:12Z</time>
      </trkpt>
      <trkpt lat="45.87528" lon="4.82954">
        <ele>206</ele>
        <time>2018-05-08T09:05:13Z</time>
      </trkpt>
      <trkpt lat="45.8753" lon="4.82967">
        <ele>206</ele>
        <time>2018-05-08T09:05:14Z</time>
      </trkpt>
      <trkpt lat="45.87533" lon="4.82979">
        <ele>206</ele>
        <time>2018-05-08T09:05:15Z</time>
      </trkpt>
      <trkpt lat="45.87536" lon="4.82991">
        <ele>206</ele>
        <time>2018-05-08T09:05:16Z</time>
      </trkpt>
      <trkpt lat="45.87538" lon="4.83003">
        <ele>202</ele>
        <time>2018-05-08T09:05:17Z</time>
      </trkpt>
      <trkpt lat="45.87539" lon="4.83015">
        <ele>202</ele>
        <time>2018-05-08T09:05:18Z</time>
      </trkpt>
      <trkpt lat="45.87538" lon="4.83028">
        <ele>201</ele>
        <time>2018-05-08T09:05:19Z</time>
      </trkpt>
      <trkpt lat="45.87537" lon="4.8304">
        <ele>201</ele>
        <time>2018-05-08T09:05:20Z</time>
      </trkpt>
      <trkpt lat="45.87535" lon="4.83052">
        <ele>200</ele>
        <time>2018-05-08T09:05:21Z</time>
      </trkpt>
      <trkpt lat="45.87532" lon="4.83063">
        <ele>200</ele>
        <time>2018-05-08T09:05:22Z</time>
      </trkpt>
      <trkpt lat="45.87527" lon="4.83072">
        <ele>200</ele>
        <time>2018-05-08T09:05:23Z</time>
      </trkpt>
      <trkpt lat="45.87523" lon="4.83083">
        <ele>199</ele>
        <time>2018-05-08T09:05:24Z</time>
      </trkpt>
      <trkpt lat="45.87517" lon="4.83091">
        <ele>195</ele>
        <time>2018-05-08T09:05:25Z</time>
      </trkpt>
      <trkpt lat="45.8751" lon="4.831">
        <ele>195</ele>
        <time>2018-05-08T09:05:26Z</time>
      </trkpt>
      <trkpt lat="45.87504" lon="4.83109">
        <ele>194</ele>
        <time>2018-05-08T09:05:27Z</time>
      </trkpt>
      <trkpt lat="45.87496" lon="4.83115">
        <ele>196</ele>
        <time>2018-05-08T09:05:28Z</time>
      </trkpt>
      <trkpt lat="45.87489" lon="4.83122">
        <ele>195</ele>
        <time>2018-05-08T09:05:29Z</time>
      </trkpt>
      <trkpt lat="45.87485" lon="4.8313">
        <ele>195</ele>
        <time>2018-05-08T09:05:30Z</time>
      </trkpt>
      <trkpt lat="45.87484" lon="4.8314">
        <ele>194</ele>
        <time>2018-05-08T09:05:31Z</time>
      </trkpt>
      <trkpt lat="45.87485" lon="4.83148">
        <ele>193</ele>
        <time>2018-05-08T09:05:32Z</time>
      </trkpt>
      <trkpt lat="45.87488" lon="4.83158">
        <ele>192</ele>
        <time>2018-05-08T09:05:33Z</time>
      </trkpt>
      <trkpt lat="45.87491" lon="4.83167">
        <ele>189</ele>
        <time>2018-05-08T09:05:34Z</time>
      </trkpt>
      <trkpt lat="45.875" lon="4.8317">
        <ele>190</ele>
        <time>2018-05-08T09:05:35Z</time>
      </trkpt>
      <trkpt lat="45.87506" lon="4.8317">
        <ele>188</ele>
        <time>2018-05-08T09:05:36Z</time>
      </trkpt>
      <trkpt lat="45.87512" lon="4.83168">
        <ele>187</ele>
        <time>2018-05-08T09:05:37Z</time>
      </trkpt>
      <trkpt lat="45.87519" lon="4.83164">
        <ele>190</ele>
        <time>2018-05-08T09:05:38Z</time>
      </trkpt>
      <trkpt lat="45.87526" lon="4.83164">
        <ele>190</ele>
        <time>2018-05-08T09:05:39Z</time>
      </trkpt>
      <trkpt lat="45.87531" lon="4.83165">
        <ele>190</ele>
        <time>2018-05-08T09:05:40Z</time>
      </trkpt>
      <trkpt lat="45.87538" lon="4.83166">
        <ele>189</ele>
        <time>2018-05-08T09:05:41Z</time>
      </trkpt>
      <trkpt lat="45.87544" lon="4.83169">
        <ele>184</ele>
        <time>2018-05-08T09:05:42Z</time>
      </trkpt>
      <trkpt lat="45.87549" lon="4.83176">
        <ele>183</ele>
        <time>2018-05-08T09:05:43Z</time>
      </trkpt>
      <trkpt lat="45.87554" lon="4.83184">
        <ele>183</ele>
        <time>2018-05-08T09:05:44Z</time>
      </trkpt>
      <trkpt lat="45.87559" lon="4.83193">
        <ele>182</ele>
        <time>2018-05-08T09:05:45Z</time>
      </trkpt>
      <trkpt lat="45.87564" lon="4.83201">
        <ele>182</ele>
        <time>2018-05-08T09:05:46Z</time>
      </trkpt>
      <trkpt lat="45.87568" lon="4.8321">
        <ele>182</ele>
        <time>2018-05-08T09:05:47Z</time>
      </trkpt>
      <trkpt lat="45.87572" lon="4.83218">
        <ele>181</ele>
        <time>2018-05-08T09:05:48Z</time>
      </trkpt>
      <trkpt lat="45.87574" lon="4.83226">
        <ele>181</ele>
        <time>2018-05-08T09:05:49Z</time>
      </trkpt>
      <trkpt lat="45.87574" lon="4.83236">
        <ele>180</ele>
        <time>2018-05-08T09:05:50Z</time>
      </trkpt>
      <trkpt lat="45.8757" lon="4.83242">
        <ele>180</ele>
        <time>2018-05-08T09:05:51Z</time>
      </trkpt>
      <trkpt lat="45.87565" lon="4.83246">
        <ele>180</ele>
        <time>2018-05-08T09:05:52Z</time>
      </trkpt>
      <trkpt lat="45.8756" lon="4.83249">
        <ele>180</ele>
        <time>2018-05-08T09:05:53Z</time>
      </trkpt>
      <trkpt lat="45.87556" lon="4.83253">
        <ele>178</ele>
        <time>2018-05-08T09:05:54Z</time>
      </trkpt>
      <trkpt lat="45.87551" lon="4.83256">
        <ele>178</ele>
        <time>2018-05-08T09:05:55Z</time>
      </trkpt>
      <trkpt lat="45.87545" lon="4.83261">
        <ele>178</ele>
        <time>2018-05-08T09:05:56Z</time>
      </trkpt>
      <trkpt lat="45.87543" lon="4.83272">
        <ele>178</ele>
        <time>2018-05-08T09:05:57Z</time>
      </trkpt>
      <trkpt lat="45.87543" lon="4.83282">
        <ele>178</ele>
        <time>2018-05-08T09:05:58Z</time>
      </trkpt>
      <trkpt lat="45.87543" lon="4.83291">
        <ele>178</ele>
        <time>2018-05-08T09:05:59Z</time>
      </trkpt>
      <trkpt lat="45.87546" lon="4.833">
        <ele>177</ele>
        <time>2018-05-08T09:06:00Z</time>
      </trkpt>
      <trkpt lat="45.87549" lon="4.83308">
        <ele>177</ele>
        <time>2018-05-08T09:06:01Z</time>
      </trkpt>
      <trkpt lat="45.87554" lon="4.83315">
        <ele>177</ele>
        <time>2018-05-08T09:06:02Z</time>
      </trkpt>
      <trkpt lat="45.87558" lon="4.83327">
        <ele>177</ele>
        <time>2018-05-08T09:06:03Z</time>
      </trkpt>
      <trkpt lat="45.87563" lon="4.83335">
        <ele>176</ele>
        <time>2018-05-08T09:06:04Z</time>
      </trkpt>
      <trkpt lat="45.87569" lon="4.83344">
        <ele>176</ele>
        <time>2018-05-08T09:06:05Z</time>
      </trkpt>
      <trkpt lat="45.87575" lon="4.83354">
        <ele>176</ele>
        <time>2018-05-08T09:06:06Z</time>
      </trkpt>
      <trkpt lat="45.87581" lon="4.83362">
        <ele>175</ele>
        <time>2018-05-08T09:06:07Z</time>
      </trkpt>
      <trkpt lat="45.87588" lon="4.83371">
        <ele>174</ele>
        <time>2018-05-08T09:06:08Z</time>
      </trkpt>
      <trkpt lat="45.87595" lon="4.83379">
        <ele>174</ele>
        <time>2018-05-08T09:06:09Z</time>
      </trkpt>
      <trkpt lat="45.87601" lon="4.83388">
        <ele>174</ele>
        <time>2018-05-08T09:06:10Z</time>
      </trkpt>
      <trkpt lat="45.87607" lon="4.83396">
        <ele>174</ele>
        <time>2018-05-08T09:06:11Z</time>
      </trkpt>
      <trkpt lat="45.87615" lon="4.83402">
        <ele>174</ele>
        <time>2018-05-08T09:06:12Z</time>
      </trkpt>
      <trkpt lat="45.87621" lon="4.8341">
        <ele>174</ele>
        <time>2018-05-08T09:06:13Z</time>
      </trkpt>
      <trkpt lat="45.87628" lon="4.83417">
        <ele>172</ele>
        <time>2018-05-08T09:06:14Z</time>
      </trkpt>
      <trkpt lat="45.87634" lon="4.83423">
        <ele>172</ele>
        <time>2018-05-08T09:06:15Z</time>
      </trkpt>
      <trkpt lat="45.87641" lon="4.8343">
        <ele>172</ele>
        <time>2018-05-08T09:06:16Z</time>
      </trkpt>
      <trkpt lat="45.87646" lon="4.83437">
        <ele>172</ele>
        <time>2018-05-08T09:06:17Z</time>
      </trkpt>
      <trkpt lat="45.87652" lon="4.83443">
        <ele>172</ele>
        <time>2018-05-08T09:06:18Z</time>
      </trkpt>
      <trkpt lat="45.87657" lon="4.83451">
        <ele>172</ele>
        <time>2018-05-08T09:06:19Z</time>
      </trkpt>
      <trkpt lat="45.87661" lon="4.8346">
        <ele>172</ele>
        <time>2018-05-08T09:06:20Z</time>
      </trkpt>
      <trkpt lat="45.87666" lon="4.83468">
        <ele>172</ele>
        <time>2018-05-08T09:06:21Z</time>
      </trkpt>
      <trkpt lat="45.8767" lon="4.83476">
        <ele>172</ele>
        <time>2018-05-08T09:06:22Z</time>
      </trkpt>
      <trkpt lat="45.87672" lon="4.83486">
        <ele>171</ele>
        <time>2018-05-08T09:06:23Z</time>
      </trkpt>
      <trkpt lat="45.87673" lon="4.83496">
        <ele>171</ele>
        <time>2018-05-08T09:06:24Z</time>
      </trkpt>
      <trkpt lat="45.87674" lon="4.83505">
        <ele>170</ele>
        <time>2018-05-08T09:06:25Z</time>
      </trkpt>
      <trkpt lat="45.87674" lon="4.83512">
        <ele>170</ele>
        <time>2018-05-08T09:06:26Z</time>
      </trkpt>
      <trkpt lat="45.87674" lon="4.83518">
        <ele>170</ele>
        <time>2018-05-08T09:06:27Z</time>
      </trkpt>
      <trkpt lat="45.87675" lon="4.83528">
        <ele>169</ele>
        <time>2018-05-08T09:06:30Z</time>
      </trkpt>
      <trkpt lat="45.87676" lon="4.83539">
        <ele>168</ele>
        <time>2018-05-08T09:06:31Z</time>
      </trkpt>
      <trkpt lat="45.87676" lon="4.8355">
        <ele>168</ele>
        <time>2018-05-08T09:06:33Z</time>
      </trkpt>
      <trkpt lat="45.87678" lon="4.83557">
        <ele>168</ele>
        <time>2018-05-08T09:06:34Z</time>
      </trkpt>
      <trkpt lat="45.8768" lon="4.83563">
        <ele>167</ele>
        <time>2018-05-08T09:06:35Z</time>
      </trkpt>
      <trkpt lat="45.87682" lon="4.83568">
        <ele>167</ele>
        <time>2018-05-08T09:06:36Z</time>
      </trkpt>
      <trkpt lat="45.87682" lon="4.8358">
        <ele>167</ele>
        <time>2018-05-08T09:06:38Z</time>
      </trkpt>
      <trkpt lat="45.87683" lon="4.83585">
        <ele>165</ele>
        <time>2018-05-08T09:06:39Z</time>
      </trkpt>
      <trkpt lat="45.87683" lon="4.83598">
        <ele>165</ele>
        <time>2018-05-08T09:06:41Z</time>
      </trkpt>
      <trkpt lat="45.87684" lon="4.83604">
        <ele>165</ele>
        <time>2018-05-08T09:06:42Z</time>
      </trkpt>
      <trkpt lat="45.87684" lon="4.83616">
        <ele>165</ele>
        <time>2018-05-08T09:06:44Z</time>
      </trkpt>
      <trkpt lat="45.87684" lon="4.83621">
        <ele>165</ele>
        <time>2018-05-08T09:06:45Z</time>
      </trkpt>
      <trkpt lat="45.87684" lon="4.83631">
        <ele>165</ele>
        <time>2018-05-08T09:06:47Z</time>
      </trkpt>
      <trkpt lat="45.87685" lon="4.83637">
        <ele>165</ele>
        <time>2018-05-08T09:06:48Z</time>
      </trkpt>
      <trkpt lat="45.87687" lon="4.83649">
        <ele>165</ele>
        <time>2018-05-08T09:06:50Z</time>
      </trkpt>
      <trkpt lat="45.87687" lon="4.83655">
        <ele>165</ele>
        <time>2018-05-08T09:06:51Z</time>
      </trkpt>
      <trkpt lat="45.87688" lon="4.83667">
        <ele>165</ele>
        <time>2018-05-08T09:06:53Z</time>
      </trkpt>
      <trkpt lat="45.87689" lon="4.83673">
        <ele>165</ele>
        <time>2018-05-08T09:06:54Z</time>
      </trkpt>
      <trkpt lat="45.87689" lon="4.83684">
        <ele>165</ele>
        <time>2018-05-08T09:06:56Z</time>
      </trkpt>
      <trkpt lat="45.8769" lon="4.83691">
        <ele>165</ele>
        <time>2018-05-08T09:06:57Z</time>
      </trkpt>
      <trkpt lat="45.87691" lon="4.83698">
        <ele>165</ele>
        <time>2018-05-08T09:06:58Z</time>
      </trkpt>
      <trkpt lat="45.87692" lon="4.83704">
        <ele>165</ele>
        <time>2018-05-08T09:06:59Z</time>
      </trkpt>
      <trkpt lat="45.87691" lon="4.83711">
        <ele>165</ele>
        <time>2018-05-08T09:07:00Z</time>
      </trkpt>
      <trkpt lat="45.87692" lon="4.83717">
        <ele>165</ele>
        <time>2018-05-08T09:07:01Z</time>
      </trkpt>
      <trkpt lat="45.87693" lon="4.83726">
        <ele>165</ele>
        <time>2018-05-08T09:07:02Z</time>
      </trkpt>
      <trkpt lat="45.87694" lon="4.83733">
        <ele>165</ele>
        <time>2018-05-08T09:07:03Z</time>
      </trkpt>
      <trkpt lat="45.87695" lon="4.83741">
        <ele>165</ele>
        <time>2018-05-08T09:07:04Z</time>
      </trkpt>
      <trkpt lat="45.87695" lon="4.83749">
        <ele>165</ele>
        <time>2018-05-08T09:07:05Z</time>
      </trkpt>
      <trkpt lat="45.87696" lon="4.83756">
        <ele>167</ele>
        <time>2018-05-08T09:07:06Z</time>
      </trkpt>
      <trkpt lat="45.87697" lon="4.83763">
        <ele>167</ele>
        <time>2018-05-08T09:07:07Z</time>
      </trkpt>
      <trkpt lat="45.87698" lon="4.83772">
        <ele>167</ele>
        <time>2018-05-08T09:07:08Z</time>
      </trkpt>
      <trkpt lat="45.87698" lon="4.8378">
        <ele>168</ele>
        <time>2018-05-08T09:07:09Z</time>
      </trkpt>
      <trkpt lat="45.87699" lon="4.83787">
        <ele>168</ele>
        <time>2018-05-08T09:07:10Z</time>
      </trkpt>
      <trkpt lat="45.877" lon="4.83796">
        <ele>168</ele>
        <time>2018-05-08T09:07:11Z</time>
      </trkpt>
      <trkpt lat="45.877" lon="4.83805">
        <ele>169</ele>
        <time>2018-05-08T09:07:12Z</time>
      </trkpt>
      <trkpt lat="45.877" lon="4.83814">
        <ele>169</ele>
        <time>2018-05-08T09:07:13Z</time>
      </trkpt>
      <trkpt lat="45.87701" lon="4.83821">
        <ele>169</ele>
        <time>2018-05-08T09:07:14Z</time>
      </trkpt>
      <trkpt lat="45.87701" lon="4.83828">
        <ele>170</ele>
        <time>2018-05-08T09:07:15Z</time>
      </trkpt>
      <trkpt lat="45.87701" lon="4.83836">
        <ele>172</ele>
        <time>2018-05-08T09:07:16Z</time>
      </trkpt>
      <trkpt lat="45.87702" lon="4.83844">
        <ele>172</ele>
        <time>2018-05-08T09:07:17Z</time>
      </trkpt>
      <trkpt lat="45.87705" lon="4.83852">
        <ele>172</ele>
        <time>2018-05-08T09:07:18Z</time>
      </trkpt>
      <trkpt lat="45.87707" lon="4.83858">
        <ele>172</ele>
        <time>2018-05-08T09:07:19Z</time>
      </trkpt>
      <trkpt lat="45.87711" lon="4.83862">
        <ele>172</ele>
        <time>2018-05-08T09:07:20Z</time>
      </trkpt>
      <trkpt lat="45.87715" lon="4.83863">
        <ele>172</ele>
        <time>2018-05-08T09:07:21Z</time>
      </trkpt>
      <trkpt lat="45.87723" lon="4.83861">
        <ele>172</ele>
        <time>2018-05-08T09:07:23Z</time>
      </trkpt>
      <trkpt lat="45.87728" lon="4.8386">
        <ele>172</ele>
        <time>2018-05-08T09:07:24Z</time>
      </trkpt>
      <trkpt lat="45.87733" lon="4.83858">
        <ele>172</ele>
        <time>2018-05-08T09:07:25Z</time>
      </trkpt>
      <trkpt lat="45.87737" lon="4.83856">
        <ele>172</ele>
        <time>2018-05-08T09:07:26Z</time>
      </trkpt>
      <trkpt lat="45.87743" lon="4.83855">
        <ele>172</ele>
        <time>2018-05-08T09:07:27Z</time>
      </trkpt>
      <trkpt lat="45.87748" lon="4.83853">
        <ele>172</ele>
        <time>2018-05-08T09:07:28Z</time>
      </trkpt>
      <trkpt lat="45.87753" lon="4.83852">
        <ele>172</ele>
        <time>2018-05-08T09:07:29Z</time>
      </trkpt>
      <trkpt lat="45.87759" lon="4.83849">
        <ele>172</ele>
        <time>2018-05-08T09:07:30Z</time>
      </trkpt>
      <trkpt lat="45.87764" lon="4.83847">
        <ele>172</ele>
        <time>2018-05-08T09:07:31Z</time>
      </trkpt>
      <trkpt lat="45.87769" lon="4.83844">
        <ele>172</ele>
        <time>2018-05-08T09:07:32Z</time>
      </trkpt>
      <trkpt lat="45.87774" lon="4.83841">
        <ele>172</ele>
        <time>2018-05-08T09:07:33Z</time>
      </trkpt>
      <trkpt lat="45.87779" lon="4.83836">
        <ele>172</ele>
        <time>2018-05-08T09:07:34Z</time>
      </trkpt>
      <trkpt lat="45.87783" lon="4.83831">
        <ele>170</ele>
        <time>2018-05-08T09:07:35Z</time>
      </trkpt>
      <trkpt lat="45.87787" lon="4.83827">
        <ele>170</ele>
        <time>2018-05-08T09:07:36Z</time>
      </trkpt>
      <trkpt lat="45.87792" lon="4.83823">
        <ele>170</ele>
        <time>2018-05-08T09:07:37Z</time>
      </trkpt>
      <trkpt lat="45.87797" lon="4.83817">
        <ele>170</ele>
        <time>2018-05-08T09:07:38Z</time>
      </trkpt>
      <trkpt lat="45.87804" lon="4.83812">
        <ele>170</ele>
        <time>2018-05-08T09:07:39Z</time>
      </trkpt>
      <trkpt lat="45.87809" lon="4.83806">
        <ele>169</ele>
        <time>2018-05-08T09:07:40Z</time>
      </trkpt>
      <trkpt lat="45.87815" lon="4.83802">
        <ele>169</ele>
        <time>2018-05-08T09:07:41Z</time>
      </trkpt>
      <trkpt lat="45.8782" lon="4.83796">
        <ele>169</ele>
        <time>2018-05-08T09:07:42Z</time>
      </trkpt>
      <trkpt lat="45.87823" lon="4.83792">
        <ele>169</ele>
        <time>2018-05-08T09:07:43Z</time>
      </trkpt>
      <trkpt lat="45.87829" lon="4.83787">
        <ele>168</ele>
        <time>2018-05-08T09:07:44Z</time>
      </trkpt>
      <trkpt lat="45.87834" lon="4.83781">
        <ele>170</ele>
        <time>2018-05-08T09:07:45Z</time>
      </trkpt>
      <trkpt lat="45.87838" lon="4.83778">
        <ele>169</ele>
        <time>2018-05-08T09:07:46Z</time>
      </trkpt>
      <trkpt lat="45.87844" lon="4.83773">
        <ele>169</ele>
        <time>2018-05-08T09:07:47Z</time>
      </trkpt>
      <trkpt lat="45.87848" lon="4.83768">
        <ele>169</ele>
        <time>2018-05-08T09:07:48Z</time>
      </trkpt>
      <trkpt lat="45.87852" lon="4.83762">
        <ele>169</ele>
        <time>2018-05-08T09:07:49Z</time>
      </trkpt>
      <trkpt lat="45.87857" lon="4.83757">
        <ele>169</ele>
        <time>2018-05-08T09:07:50Z</time>
      </trkpt>
      <trkpt lat="45.87862" lon="4.83752">
        <ele>169</ele>
        <time>2018-05-08T09:07:51Z</time>
      </trkpt>
      <trkpt lat="45.87868" lon="4.83746">
        <ele>168</ele>
        <time>2018-05-08T09:07:52Z</time>
      </trkpt>
      <trkpt lat="45.87874" lon="4.83739">
        <ele>169</ele>
        <time>2018-05-08T09:07:53Z</time>
      </trkpt>
      <trkpt lat="45.87879" lon="4.83734">
        <ele>169</ele>
        <time>2018-05-08T09:07:54Z</time>
      </trkpt>
      <trkpt lat="45.87882" lon="4.8373">
        <ele>169</ele>
        <time>2018-05-08T09:07:55Z</time>
      </trkpt>
      <trkpt lat="45.87887" lon="4.83726">
        <ele>169</ele>
        <time>2018-05-08T09:07:56Z</time>
      </trkpt>
      <trkpt lat="45.87892" lon="4.8372">
        <ele>169</ele>
        <time>2018-05-08T09:07:57Z</time>
      </trkpt>
      <trkpt lat="45.87897" lon="4.83716">
        <ele>169</ele>
        <time>2018-05-08T09:07:58Z</time>
      </trkpt>
      <trkpt lat="45.87903" lon="4.83709">
        <ele>170</ele>
        <time>2018-05-08T09:08:00Z</time>
      </trkpt>
      <trkpt lat="45.87907" lon="4.83706">
        <ele>170</ele>
        <time>2018-05-08T09:08:01Z</time>
      </trkpt>
      <trkpt lat="45.8791" lon="4.83702">
        <ele>170</ele>
        <time>2018-05-08T09:08:02Z</time>
      </trkpt>
      <trkpt lat="45.87917" lon="4.837">
        <ele>170</ele>
        <time>2018-05-08T09:08:03Z</time>
      </trkpt>
      <trkpt lat="45.87924" lon="4.83692">
        <ele>172</ele>
        <time>2018-05-08T09:08:07Z</time>
      </trkpt>
      <trkpt lat="45.87925" lon="4.83692">
        <ele>172</ele>
        <time>2018-05-08T09:08:08Z</time>
      </trkpt>
      <trkpt lat="45.87932" lon="4.83686">
        <ele>172</ele>
        <time>2018-05-08T09:08:21Z</time>
      </trkpt>
      <trkpt lat="45.87934" lon="4.83685">
        <ele>172</ele>
        <time>2018-05-08T09:08:22Z</time>
      </trkpt>
      <trkpt lat="45.87939" lon="4.83679">
        <ele>171</ele>
        <time>2018-05-08T09:08:25Z</time>
      </trkpt>
      <trkpt lat="45.87942" lon="4.83677">
        <ele>171</ele>
        <time>2018-05-08T09:08:26Z</time>
      </trkpt>
      <trkpt lat="45.8795" lon="4.83672">
        <ele>171</ele>
        <time>2018-05-08T09:08:27Z</time>
      </trkpt>
      <trkpt lat="45.87952" lon="4.83671">
        <ele>171</ele>
        <time>2018-05-08T09:08:28Z</time>
      </trkpt>
      <trkpt lat="45.87957" lon="4.83667">
        <ele>171</ele>
        <time>2018-05-08T09:08:29Z</time>
      </trkpt>
      <trkpt lat="45.8796" lon="4.83664">
        <ele>171</ele>
        <time>2018-05-08T09:08:30Z</time>
      </trkpt>
      <trkpt lat="45.87964" lon="4.83661">
        <ele>171</ele>
        <time>2018-05-08T09:08:31Z</time>
      </trkpt>
      <trkpt lat="45.87969" lon="4.83658">
        <ele>171</ele>
        <time>2018-05-08T09:08:32Z</time>
      </trkpt>
      <trkpt lat="45.87973" lon="4.83655">
        <ele>171</ele>
        <time>2018-05-08T09:08:33Z</time>
      </trkpt>
      <trkpt lat="45.87976" lon="4.8365">
        <ele>171</ele>
        <time>2018-05-08T09:08:34Z</time>
      </trkpt>
      <trkpt lat="45.87981" lon="4.83646">
        <ele>171</ele>
        <time>2018-05-08T09:08:35Z</time>
      </trkpt>
      <trkpt lat="45.87985" lon="4.83641">
        <ele>171</ele>
        <time>2018-05-08T09:08:36Z</time>
      </trkpt>
      <trkpt lat="45.87989" lon="4.83637">
        <ele>171</ele>
        <time>2018-05-08T09:08:37Z</time>
      </trkpt>
      <trkpt lat="45.87994" lon="4.83631">
        <ele>171</ele>
        <time>2018-05-08T09:08:38Z</time>
      </trkpt>
      <trkpt lat="45.87999" lon="4.83625">
        <ele>171</ele>
        <time>2018-05-08T09:08:39Z</time>
      </trkpt>
      <trkpt lat="45.88004" lon="4.8362">
        <ele>172</ele>
        <time>2018-05-08T09:08:40Z</time>
      </trkpt>
      <trkpt lat="45.88009" lon="4.83616">
        <ele>172</ele>
        <time>2018-05-08T09:08:41Z</time>
      </trkpt>
      <trkpt lat="45.88014" lon="4.83612">
        <ele>172</ele>
        <time>2018-05-08T09:08:42Z</time>
      </trkpt>
      <trkpt lat="45.88018" lon="4.83605">
        <ele>172</ele>
        <time>2018-05-08T09:08:43Z</time>
      </trkpt>
      <trkpt lat="45.88022" lon="4.83601">
        <ele>172</ele>
        <time>2018-05-08T09:08:44Z</time>
      </trkpt>
      <trkpt lat="45.88027" lon="4.83596">
        <ele>172</ele>
        <time>2018-05-08T09:08:45Z</time>
      </trkpt>
      <trkpt lat="45.88032" lon="4.83591">
        <ele>172</ele>
        <time>2018-05-08T09:08:46Z</time>
      </trkpt>
      <trkpt lat="45.88037" lon="4.83587">
        <ele>172</ele>
        <time>2018-05-08T09:08:47Z</time>
      </trkpt>
      <trkpt lat="45.88041" lon="4.83582">
        <ele>172</ele>
        <time>2018-05-08T09:08:48Z</time>
      </trkpt>
      <trkpt lat="45.88047" lon="4.83578">
        <ele>172</ele>
        <time>2018-05-08T09:08:49Z</time>
      </trkpt>
      <trkpt lat="45.88051" lon="4.83573">
        <ele>172</ele>
        <time>2018-05-08T09:08:50Z</time>
      </trkpt>
      <trkpt lat="45.88056" lon="4.83568">
        <ele>173</ele>
        <time>2018-05-08T09:08:51Z</time>
      </trkpt>
      <trkpt lat="45.88061" lon="4.83561">
        <ele>173</ele>
        <time>2018-05-08T09:08:52Z</time>
      </trkpt>
      <trkpt lat="45.88066" lon="4.83557">
        <ele>173</ele>
        <time>2018-05-08T09:08:53Z</time>
      </trkpt>
      <trkpt lat="45.88072" lon="4.83554">
        <ele>173</ele>
        <time>2018-05-08T09:08:54Z</time>
      </trkpt>
      <trkpt lat="45.88076" lon="4.83546">
        <ele>173</ele>
        <time>2018-05-08T09:08:55Z</time>
      </trkpt>
      <trkpt lat="45.8808" lon="4.83542">
        <ele>173</ele>
        <time>2018-05-08T09:08:56Z</time>
      </trkpt>
      <trkpt lat="45.88085" lon="4.83536">
        <ele>173</ele>
        <time>2018-05-08T09:08:57Z</time>
      </trkpt>
      <trkpt lat="45.88089" lon="4.8353">
        <ele>173</ele>
        <time>2018-05-08T09:08:58Z</time>
      </trkpt>
      <trkpt lat="45.88093" lon="4.83526">
        <ele>173</ele>
        <time>2018-05-08T09:08:59Z</time>
      </trkpt>
      <trkpt lat="45.88097" lon="4.83521">
        <ele>173</ele>
        <time>2018-05-08T09:09:00Z</time>
      </trkpt>
      <trkpt lat="45.88105" lon="4.83515">
        <ele>173</ele>
        <time>2018-05-08T09:09:02Z</time>
      </trkpt>
      <trkpt lat="45.88109" lon="4.83512">
        <ele>173</ele>
        <time>2018-05-08T09:09:03Z</time>
      </trkpt>
      <trkpt lat="45.88115" lon="4.83509">
        <ele>173</ele>
        <time>2018-05-08T09:09:04Z</time>
      </trkpt>
      <trkpt lat="45.88118" lon="4.83507">
        <ele>173</ele>
        <time>2018-05-08T09:09:05Z</time>
      </trkpt>
      <trkpt lat="45.88122" lon="4.83502">
        <ele>173</ele>
        <time>2018-05-08T09:09:06Z</time>
      </trkpt>
      <trkpt lat="45.88125" lon="4.83498">
        <ele>172</ele>
        <time>2018-05-08T09:09:07Z</time>
      </trkpt>
      <trkpt lat="45.88133" lon="4.83492">
        <ele>172</ele>
        <time>2018-05-08T09:09:09Z</time>
      </trkpt>
      <trkpt lat="45.88137" lon="4.83487">
        <ele>172</ele>
        <time>2018-05-08T09:09:10Z</time>
      </trkpt>
      <trkpt lat="45.88139" lon="4.83481">
        <ele>172</ele>
        <time>2018-05-08T09:09:11Z</time>
      </trkpt>
      <trkpt lat="45.88144" lon="4.83477">
        <ele>172</ele>
        <time>2018-05-08T09:09:12Z</time>
      </trkpt>
      <trkpt lat="45.88149" lon="4.83473">
        <ele>172</ele>
        <time>2018-05-08T09:09:13Z</time>
      </trkpt>
      <trkpt lat="45.88154" lon="4.83469">
        <ele>172</ele>
        <time>2018-05-08T09:09:14Z</time>
      </trkpt>
      <trkpt lat="45.88158" lon="4.83467">
        <ele>171</ele>
        <time>2018-05-08T09:09:15Z</time>
      </trkpt>
      <trkpt lat="45.88163" lon="4.83464">
        <ele>171</ele>
        <time>2018-05-08T09:09:16Z</time>
      </trkpt>
      <trkpt lat="45.88167" lon="4.8346">
        <ele>171</ele>
        <time>2018-05-08T09:09:17Z</time>
      </trkpt>
      <trkpt lat="45.88171" lon="4.83456">
        <ele>171</ele>
        <time>2018-05-08T09:09:18Z</time>
      </trkpt>
      <trkpt lat="45.88176" lon="4.83454">
        <ele>171</ele>
        <time>2018-05-08T09:09:19Z</time>
      </trkpt>
      <trkpt lat="45.88182" lon="4.83445">
        <ele>171</ele>
        <time>2018-05-08T09:09:20Z</time>
      </trkpt>
      <trkpt lat="45.88188" lon="4.83442">
        <ele>171</ele>
        <time>2018-05-08T09:09:21Z</time>
      </trkpt>
      <trkpt lat="45.88194" lon="4.83437">
        <ele>171</ele>
        <time>2018-05-08T09:09:22Z</time>
      </trkpt>
      <trkpt lat="45.88199" lon="4.83431">
        <ele>171</ele>
        <time>2018-05-08T09:09:23Z</time>
      </trkpt>
      <trkpt lat="45.88204" lon="4.83429">
        <ele>171</ele>
        <time>2018-05-08T09:09:24Z</time>
      </trkpt>
      <trkpt lat="45.88208" lon="4.83428">
        <ele>172</ele>
        <time>2018-05-08T09:09:25Z</time>
      </trkpt>
      <trkpt lat="45.88213" lon="4.83426">
        <ele>172</ele>
        <time>2018-05-08T09:09:26Z</time>
      </trkpt>
      <trkpt lat="45.88217" lon="4.83424">
        <ele>172</ele>
        <time>2018-05-08T09:09:27Z</time>
      </trkpt>
      <trkpt lat="45.88223" lon="4.83423">
        <ele>172</ele>
        <time>2018-05-08T09:09:28Z</time>
      </trkpt>
      <trkpt lat="45.88228" lon="4.8342">
        <ele>172</ele>
        <time>2018-05-08T09:09:29Z</time>
      </trkpt>
      <trkpt lat="45.88233" lon="4.83418">
        <ele>172</ele>
        <time>2018-05-08T09:09:30Z</time>
      </trkpt>
      <trkpt lat="45.88237" lon="4.83417">
        <ele>172</ele>
        <time>2018-05-08T09:09:31Z</time>
      </trkpt>
      <trkpt lat="45.88242" lon="4.83415">
        <ele>172</ele>
        <time>2018-05-08T09:09:32Z</time>
      </trkpt>
      <trkpt lat="45.88247" lon="4.83413">
        <ele>172</ele>
        <time>2018-05-08T09:09:33Z</time>
      </trkpt>
      <trkpt lat="45.88253" lon="4.83412">
        <ele>172</ele>
        <time>2018-05-08T09:09:34Z</time>
      </trkpt>
      <trkpt lat="45.88258" lon="4.8341">
        <ele>172</ele>
        <time>2018-05-08T09:09:35Z</time>
      </trkpt>
      <trkpt lat="45.88263" lon="4.83409">
        <ele>172</ele>
        <time>2018-05-08T09:09:36Z</time>
      </trkpt>
      <trkpt lat="45.88268" lon="4.83408">
        <ele>172</ele>
        <time>2018-05-08T09:09:37Z</time>
      </trkpt>
      <trkpt lat="45.88274" lon="4.83407">
        <ele>172</ele>
        <time>2018-05-08T09:09:38Z</time>
      </trkpt>
      <trkpt lat="45.8828" lon="4.83406">
        <ele>172</ele>
        <time>2018-05-08T09:09:39Z</time>
      </trkpt>
      <trkpt lat="45.88286" lon="4.83402">
        <ele>172</ele>
        <time>2018-05-08T09:09:40Z</time>
      </trkpt>
      <trkpt lat="45.88291" lon="4.83399">
        <ele>172</ele>
        <time>2018-05-08T09:09:41Z</time>
      </trkpt>
      <trkpt lat="45.88295" lon="4.83398">
        <ele>172</ele>
        <time>2018-05-08T09:09:42Z</time>
      </trkpt>
      <trkpt lat="45.883" lon="4.83396">
        <ele>172</ele>
        <time>2018-05-08T09:09:43Z</time>
      </trkpt>
      <trkpt lat="45.88305" lon="4.83392">
        <ele>172</ele>
        <time>2018-05-08T09:09:44Z</time>
      </trkpt>
      <trkpt lat="45.8831" lon="4.83389">
        <ele>172</ele>
        <time>2018-05-08T09:09:45Z</time>
      </trkpt>
      <trkpt lat="45.88315" lon="4.83387">
        <ele>172</ele>
        <time>2018-05-08T09:09:46Z</time>
      </trkpt>
      <trkpt lat="45.88324" lon="4.83384">
        <ele>172</ele>
        <time>2018-05-08T09:09:48Z</time>
      </trkpt>
      <trkpt lat="45.88328" lon="4.83382">
        <ele>172</ele>
        <time>2018-05-08T09:09:49Z</time>
      </trkpt>
      <trkpt lat="45.88334" lon="4.8338">
        <ele>172</ele>
        <time>2018-05-08T09:09:50Z</time>
      </trkpt>
      <trkpt lat="45.8834" lon="4.83379">
        <ele>172</ele>
        <time>2018-05-08T09:09:51Z</time>
      </trkpt>
      <trkpt lat="45.88346" lon="4.83376">
        <ele>172</ele>
        <time>2018-05-08T09:09:52Z</time>
      </trkpt>
      <trkpt lat="45.88352" lon="4.83373">
        <ele>172</ele>
        <time>2018-05-08T09:09:53Z</time>
      </trkpt>
      <trkpt lat="45.88356" lon="4.83371">
        <ele>172</ele>
        <time>2018-05-08T09:09:54Z</time>
      </trkpt>
      <trkpt lat="45.88361" lon="4.83371">
        <ele>172</ele>
        <time>2018-05-08T09:09:55Z</time>
      </trkpt>
      <trkpt lat="45.88367" lon="4.8337">
        <ele>172</ele>
        <time>2018-05-08T09:09:56Z</time>
      </trkpt>
      <trkpt lat="45.88372" lon="4.83369">
        <ele>172</ele>
        <time>2018-05-08T09:09:57Z</time>
      </trkpt>
      <trkpt lat="45.88378" lon="4.83366">
        <ele>172</ele>
        <time>2018-05-08T09:09:58Z</time>
      </trkpt>
      <trkpt lat="45.88383" lon="4.83364">
        <ele>172</ele>
        <time>2018-05-08T09:09:59Z</time>
      </trkpt>
      <trkpt lat="45.88387" lon="4.83364">
        <ele>172</ele>
        <time>2018-05-08T09:10:00Z</time>
      </trkpt>
      <trkpt lat="45.88392" lon="4.83361">
        <ele>172</ele>
        <time>2018-05-08T09:10:01Z</time>
      </trkpt>
      <trkpt lat="45.88398" lon="4.8336">
        <ele>172</ele>
        <time>2018-05-08T09:10:02Z</time>
      </trkpt>
      <trkpt lat="45.88403" lon="4.83358">
        <ele>172</ele>
        <time>2018-05-08T09:10:03Z</time>
      </trkpt>
      <trkpt lat="45.88408" lon="4.83356">
        <ele>172</ele>
        <time>2018-05-08T09:10:04Z</time>
      </trkpt>
      <trkpt lat="45.88413" lon="4.83354">
        <ele>172</ele>
        <time>2018-05-08T09:10:05Z</time>
      </trkpt>
      <trkpt lat="45.88418" lon="4.83352">
        <ele>172</ele>
        <time>2018-05-08T09:10:06Z</time>
      </trkpt>
      <trkpt lat="45.88423" lon="4.8335">
        <ele>172</ele>
        <time>2018-05-08T09:10:07Z</time>
      </trkpt>
      <trkpt lat="45.88428" lon="4.83347">
        <ele>172</ele>
        <time>2018-05-08T09:10:08Z</time>
      </trkpt>
      <trkpt lat="45.88432" lon="4.83343">
        <ele>172</ele>
        <time>2018-05-08T09:10:09Z</time>
      </trkpt>
      <trkpt lat="45.88436" lon="4.83342">
        <ele>172</ele>
        <time>2018-05-08T09:10:10Z</time>
      </trkpt>
      <trkpt lat="45.88441" lon="4.83338">
        <ele>172</ele>
        <time>2018-05-08T09:10:11Z</time>
      </trkpt>
      <trkpt lat="45.88446" lon="4.83336">
        <ele>172</ele>
        <time>2018-05-08T09:10:12Z</time>
      </trkpt>
      <trkpt lat="45.8845" lon="4.83333">
        <ele>172</ele>
        <time>2018-05-08T09:10:13Z</time>
      </trkpt>
      <trkpt lat="45.88455" lon="4.8333">
        <ele>172</ele>
        <time>2018-05-08T09:10:14Z</time>
      </trkpt>
      <trkpt lat="45.88461" lon="4.83328">
        <ele>172</ele>
        <time>2018-05-08T09:10:15Z</time>
      </trkpt>
      <trkpt lat="45.88466" lon="4.83325">
        <ele>172</ele>
        <time>2018-05-08T09:10:16Z</time>
      </trkpt>
      <trkpt lat="45.8847" lon="4.83321">
        <ele>172</ele>
        <time>2018-05-08T09:10:17Z</time>
      </trkpt>
      <trkpt lat="45.88475" lon="4.83319">
        <ele>172</ele>
        <time>2018-05-08T09:10:18Z</time>
      </trkpt>
      <trkpt lat="45.8848" lon="4.83317">
        <ele>172</ele>
        <time>2018-05-08T09:10:19Z</time>
      </trkpt>
      <trkpt lat="45.88485" lon="4.83315">
        <ele>172</ele>
        <time>2018-05-08T09:10:20Z</time>
      </trkpt>
      <trkpt lat="45.8849" lon="4.83311">
        <ele>172</ele>
        <time>2018-05-08T09:10:21Z</time>
      </trkpt>
      <trkpt lat="45.88494" lon="4.83308">
        <ele>172</ele>
        <time>2018-05-08T09:10:22Z</time>
      </trkpt>
      <trkpt lat="45.885" lon="4.83306">
        <ele>172</ele>
        <time>2018-05-08T09:10:23Z</time>
      </trkpt>
      <trkpt lat="45.88505" lon="4.83303">
        <ele>172</ele>
        <time>2018-05-08T09:10:24Z</time>
      </trkpt>
      <trkpt lat="45.88509" lon="4.83298">
        <ele>172</ele>
        <time>2018-05-08T09:10:25Z</time>
      </trkpt>
      <trkpt lat="45.88514" lon="4.83294">
        <ele>172</ele>
        <time>2018-05-08T09:10:26Z</time>
      </trkpt>
      <trkpt lat="45.88519" lon="4.83291">
        <ele>172</ele>
        <time>2018-05-08T09:10:27Z</time>
      </trkpt>
      <trkpt lat="45.88523" lon="4.83287">
        <ele>172</ele>
        <time>2018-05-08T09:10:28Z</time>
      </trkpt>
      <trkpt lat="45.88528" lon="4.83283">
        <ele>172</ele>
        <time>2018-05-08T09:10:29Z</time>
      </trkpt>
      <trkpt lat="45.88532" lon="4.8328">
        <ele>172</ele>
        <time>2018-05-08T09:10:30Z</time>
      </trkpt>
      <trkpt lat="45.88539" lon="4.83276">
        <ele>172</ele>
        <time>2018-05-08T09:10:31Z</time>
      </trkpt>
      <trkpt lat="45.88544" lon="4.83273">
        <ele>172</ele>
        <time>2018-05-08T09:10:32Z</time>
      </trkpt>
      <trkpt lat="45.88549" lon="4.8327">
        <ele>172</ele>
        <time>2018-05-08T09:10:33Z</time>
      </trkpt>
      <trkpt lat="45.88553" lon="4.83265">
        <ele>172</ele>
        <time>2018-05-08T09:10:34Z</time>
      </trkpt>
      <trkpt lat="45.88557" lon="4.8326">
        <ele>172</ele>
        <time>2018-05-08T09:10:35Z</time>
      </trkpt>
      <trkpt lat="45.88561" lon="4.83255">
        <ele>172</ele>
        <time>2018-05-08T09:10:36Z</time>
      </trkpt>
      <trkpt lat="45.88565" lon="4.8325">
        <ele>172</ele>
        <time>2018-05-08T09:10:37Z</time>
      </trkpt>
      <trkpt lat="45.88569" lon="4.83246">
        <ele>172</ele>
        <time>2018-05-08T09:10:38Z</time>
      </trkpt>
      <trkpt lat="45.88572" lon="4.83241">
        <ele>172</ele>
        <time>2018-05-08T09:10:39Z</time>
      </trkpt>
      <trkpt lat="45.88579" lon="4.83232">
        <ele>172</ele>
        <time>2018-05-08T09:10:41Z</time>
      </trkpt>
      <trkpt lat="45.88583" lon="4.83228">
        <ele>172</ele>
        <time>2018-05-08T09:10:42Z</time>
      </trkpt>
      <trkpt lat="45.88586" lon="4.83223">
        <ele>172</ele>
        <time>2018-05-08T09:10:43Z</time>
      </trkpt>
      <trkpt lat="45.8859" lon="4.83218">
        <ele>172</ele>
        <time>2018-05-08T09:10:44Z</time>
      </trkpt>
      <trkpt lat="45.88593" lon="4.83214">
        <ele>172</ele>
        <time>2018-05-08T09:10:45Z</time>
      </trkpt>
      <trkpt lat="45.88598" lon="4.83207">
        <ele>172</ele>
        <time>2018-05-08T09:10:46Z</time>
      </trkpt>
      <trkpt lat="45.88603" lon="4.832">
        <ele>172</ele>
        <time>2018-05-08T09:10:47Z</time>
      </trkpt>
      <trkpt lat="45.88607" lon="4.83196">
        <ele>172</ele>
        <time>2018-05-08T09:10:48Z</time>
      </trkpt>
      <trkpt lat="45.88611" lon="4.83191">
        <ele>172</ele>
        <time>2018-05-08T09:10:49Z</time>
      </trkpt>
      <trkpt lat="45.88617" lon="4.83186">
        <ele>172</ele>
        <time>2018-05-08T09:10:50Z</time>
      </trkpt>
      <trkpt lat="45.88622" lon="4.83181">
        <ele>172</ele>
        <time>2018-05-08T09:10:51Z</time>
      </trkpt>
      <trkpt lat="45.88626" lon="4.83175">
        <ele>172</ele>
        <time>2018-05-08T09:10:52Z</time>
      </trkpt>
      <trkpt lat="45.88631" lon="4.83171">
        <ele>172</ele>
        <time>2018-05-08T09:10:53Z</time>
      </trkpt>
      <trkpt lat="45.88634" lon="4.83167">
        <ele>172</ele>
        <time>2018-05-08T09:10:54Z</time>
      </trkpt>
      <trkpt lat="45.88638" lon="4.83162">
        <ele>173</ele>
        <time>2018-05-08T09:10:55Z</time>
      </trkpt>
      <trkpt lat="45.88643" lon="4.83158">
        <ele>173</ele>
        <time>2018-05-08T09:10:56Z</time>
      </trkpt>
      <trkpt lat="45.88646" lon="4.83153">
        <ele>173</ele>
        <time>2018-05-08T09:10:57Z</time>
      </trkpt>
      <trkpt lat="45.8865" lon="4.83148">
        <ele>173</ele>
        <time>2018-05-08T09:10:58Z</time>
      </trkpt>
      <trkpt lat="45.88656" lon="4.83138">
        <ele>173</ele>
        <time>2018-05-08T09:11:00Z</time>
      </trkpt>
      <trkpt lat="45.88659" lon="4.83135">
        <ele>173</ele>
        <time>2018-05-08T09:11:01Z</time>
      </trkpt>
      <trkpt lat="45.88663" lon="4.8313">
        <ele>173</ele>
        <time>2018-05-08T09:11:02Z</time>
      </trkpt>
      <trkpt lat="45.88667" lon="4.83126">
        <ele>173</ele>
        <time>2018-05-08T09:11:03Z</time>
      </trkpt>
      <trkpt lat="45.88671" lon="4.83121">
        <ele>174</ele>
        <time>2018-05-08T09:11:04Z</time>
      </trkpt>
      <trkpt lat="45.88674" lon="4.83117">
        <ele>174</ele>
        <time>2018-05-08T09:11:05Z</time>
      </trkpt>
      <trkpt lat="45.8868" lon="4.83108">
        <ele>174</ele>
        <time>2018-05-08T09:11:07Z</time>
      </trkpt>
      <trkpt lat="45.88684" lon="4.83104">
        <ele>174</ele>
        <time>2018-05-08T09:11:08Z</time>
      </trkpt>
      <trkpt lat="45.88691" lon="4.83096">
        <ele>174</ele>
        <time>2018-05-08T09:11:10Z</time>
      </trkpt>
      <trkpt lat="45.88694" lon="4.83092">
        <ele>174</ele>
        <time>2018-05-08T09:11:11Z</time>
      </trkpt>
      <trkpt lat="45.88698" lon="4.83087">
        <ele>174</ele>
        <time>2018-05-08T09:11:12Z</time>
      </trkpt>
      <trkpt lat="45.88702" lon="4.83083">
        <ele>174</ele>
        <time>2018-05-08T09:11:13Z</time>
      </trkpt>
      <trkpt lat="45.88706" lon="4.83078">
        <ele>174</ele>
        <time>2018-05-08T09:11:14Z</time>
      </trkpt>
      <trkpt lat="45.88709" lon="4.83074">
        <ele>174</ele>
        <time>2018-05-08T09:11:15Z</time>
      </trkpt>
      <trkpt lat="45.88715" lon="4.83067">
        <ele>174</ele>
        <time>2018-05-08T09:11:17Z</time>
      </trkpt>
      <trkpt lat="45.88717" lon="4.83063">
        <ele>174</ele>
        <time>2018-05-08T09:11:18Z</time>
      </trkpt>
      <trkpt lat="45.88722" lon="4.83054">
        <ele>174</ele>
        <time>2018-05-08T09:11:20Z</time>
      </trkpt>
      <trkpt lat="45.88727" lon="4.83047">
        <ele>174</ele>
        <time>2018-05-08T09:11:21Z</time>
      </trkpt>
      <trkpt lat="45.88734" lon="4.83041">
        <ele>173</ele>
        <time>2018-05-08T09:11:23Z</time>
      </trkpt>
      <trkpt lat="45.88737" lon="4.83037">
        <ele>173</ele>
        <time>2018-05-08T09:11:24Z</time>
      </trkpt>
      <trkpt lat="45.88744" lon="4.83029">
        <ele>173</ele>
        <time>2018-05-08T09:11:26Z</time>
      </trkpt>
      <trkpt lat="45.88747" lon="4.83024">
        <ele>173</ele>
        <time>2018-05-08T09:11:27Z</time>
      </trkpt>
      <trkpt lat="45.88751" lon="4.83019">
        <ele>173</ele>
        <time>2018-05-08T09:11:28Z</time>
      </trkpt>
      <trkpt lat="45.88755" lon="4.83016">
        <ele>173</ele>
        <time>2018-05-08T09:11:29Z</time>
      </trkpt>
      <trkpt lat="45.88759" lon="4.83011">
        <ele>173</ele>
        <time>2018-05-08T09:11:30Z</time>
      </trkpt>
      <trkpt lat="45.88763" lon="4.83006">
        <ele>173</ele>
        <time>2018-05-08T09:11:31Z</time>
      </trkpt>
      <trkpt lat="45.88767" lon="4.83001">
        <ele>173</ele>
        <time>2018-05-08T09:11:32Z</time>
      </trkpt>
      <trkpt lat="45.88771" lon="4.82997">
        <ele>172</ele>
        <time>2018-05-08T09:11:33Z</time>
      </trkpt>
      <trkpt lat="45.88775" lon="4.82992">
        <ele>172</ele>
        <time>2018-05-08T09:11:34Z</time>
      </trkpt>
      <trkpt lat="45.88778" lon="4.82987">
        <ele>172</ele>
        <time>2018-05-08T09:11:35Z</time>
      </trkpt>
      <trkpt lat="45.88782" lon="4.82981">
        <ele>172</ele>
        <time>2018-05-08T09:11:36Z</time>
      </trkpt>
      <trkpt lat="45.88786" lon="4.82977">
        <ele>172</ele>
        <time>2018-05-08T09:11:37Z</time>
      </trkpt>
      <trkpt lat="45.8879" lon="4.82972">
        <ele>172</ele>
        <time>2018-05-08T09:11:38Z</time>
      </trkpt>
      <trkpt lat="45.88794" lon="4.82967">
        <ele>172</ele>
        <time>2018-05-08T09:11:39Z</time>
      </trkpt>
      <trkpt lat="45.88797" lon="4.82963">
        <ele>172</ele>
        <time>2018-05-08T09:11:40Z</time>
      </trkpt>
      <trkpt lat="45.88801" lon="4.82957">
        <ele>172</ele>
        <time>2018-05-08T09:11:41Z</time>
      </trkpt>
      <trkpt lat="45.88805" lon="4.82953">
        <ele>172</ele>
        <time>2018-05-08T09:11:42Z</time>
      </trkpt>
      <trkpt lat="45.8881" lon="4.82946">
        <ele>172</ele>
        <time>2018-05-08T09:11:43Z</time>
      </trkpt>
      <trkpt lat="45.88814" lon="4.8294">
        <ele>172</ele>
        <time>2018-05-08T09:11:44Z</time>
      </trkpt>
      <trkpt lat="45.88818" lon="4.82937">
        <ele>172</ele>
        <time>2018-05-08T09:11:45Z</time>
      </trkpt>
      <trkpt lat="45.88822" lon="4.82932">
        <ele>172</ele>
        <time>2018-05-08T09:11:46Z</time>
      </trkpt>
      <trkpt lat="45.88827" lon="4.82927">
        <ele>172</ele>
        <time>2018-05-08T09:11:47Z</time>
      </trkpt>
      <trkpt lat="45.8883" lon="4.82922">
        <ele>172</ele>
        <time>2018-05-08T09:11:48Z</time>
      </trkpt>
      <trkpt lat="45.88833" lon="4.82917">
        <ele>172</ele>
        <time>2018-05-08T09:11:49Z</time>
      </trkpt>
      <trkpt lat="45.88837" lon="4.82912">
        <ele>172</ele>
        <time>2018-05-08T09:11:50Z</time>
      </trkpt>
      <trkpt lat="45.8884" lon="4.82909">
        <ele>172</ele>
        <time>2018-05-08T09:11:51Z</time>
      </trkpt>
      <trkpt lat="45.88844" lon="4.82904">
        <ele>172</ele>
        <time>2018-05-08T09:11:52Z</time>
      </trkpt>
      <trkpt lat="45.88849" lon="4.82901">
        <ele>172</ele>
        <time>2018-05-08T09:11:53Z</time>
      </trkpt>
      <trkpt lat="45.88853" lon="4.82897">
        <ele>172</ele>
        <time>2018-05-08T09:11:54Z</time>
      </trkpt>
      <trkpt lat="45.88858" lon="4.8289">
        <ele>172</ele>
        <time>2018-05-08T09:11:55Z</time>
      </trkpt>
      <trkpt lat="45.88861" lon="4.82885">
        <ele>172</ele>
        <time>2018-05-08T09:11:56Z</time>
      </trkpt>
      <trkpt lat="45.88866" lon="4.82879">
        <ele>172</ele>
        <time>2018-05-08T09:11:57Z</time>
      </trkpt>
      <trkpt lat="45.8887" lon="4.82874">
        <ele>172</ele>
        <time>2018-05-08T09:11:58Z</time>
      </trkpt>
      <trkpt lat="45.88873" lon="4.82871">
        <ele>172</ele>
        <time>2018-05-08T09:11:59Z</time>
      </trkpt>
      <trkpt lat="45.88878" lon="4.82867">
        <ele>172</ele>
        <time>2018-05-08T09:12:00Z</time>
      </trkpt>
      <trkpt lat="45.88882" lon="4.82862">
        <ele>172</ele>
        <time>2018-05-08T09:12:01Z</time>
      </trkpt>
      <trkpt lat="45.88889" lon="4.82854">
        <ele>172</ele>
        <time>2018-05-08T09:12:03Z</time>
      </trkpt>
      <trkpt lat="45.88892" lon="4.82849">
        <ele>172</ele>
        <time>2018-05-08T09:12:04Z</time>
      </trkpt>
      <trkpt lat="45.88896" lon="4.82844">
        <ele>172</ele>
        <time>2018-05-08T09:12:05Z</time>
      </trkpt>
      <trkpt lat="45.889" lon="4.8284">
        <ele>172</ele>
        <time>2018-05-08T09:12:06Z</time>
      </trkpt>
      <trkpt lat="45.88904" lon="4.82834">
        <ele>172</ele>
        <time>2018-05-08T09:12:07Z</time>
      </trkpt>
      <trkpt lat="45.88908" lon="4.8283">
        <ele>172</ele>
        <time>2018-05-08T09:12:08Z</time>
      </trkpt>
      <trkpt lat="45.88912" lon="4.82823">
        <ele>172</ele>
        <time>2018-05-08T09:12:09Z</time>
      </trkpt>
      <trkpt lat="45.88916" lon="4.82819">
        <ele>172</ele>
        <time>2018-05-08T09:12:10Z</time>
      </trkpt>
      <trkpt lat="45.8892" lon="4.82814">
        <ele>172</ele>
        <time>2018-05-08T09:12:11Z</time>
      </trkpt>
      <trkpt lat="45.88925" lon="4.82811">
        <ele>172</ele>
        <time>2018-05-08T09:12:12Z</time>
      </trkpt>
      <trkpt lat="45.8893" lon="4.82805">
        <ele>172</ele>
        <time>2018-05-08T09:12:13Z</time>
      </trkpt>
      <trkpt lat="45.88934" lon="4.828">
        <ele>172</ele>
        <time>2018-05-08T09:12:14Z</time>
      </trkpt>
      <trkpt lat="45.88937" lon="4.82796">
        <ele>172</ele>
        <time>2018-05-08T09:12:15Z</time>
      </trkpt>
      <trkpt lat="45.88942" lon="4.82791">
        <ele>172</ele>
        <time>2018-05-08T09:12:16Z</time>
      </trkpt>
      <trkpt lat="45.88946" lon="4.82786">
        <ele>172</ele>
        <time>2018-05-08T09:12:17Z</time>
      </trkpt>
      <trkpt lat="45.88951" lon="4.82782">
        <ele>172</ele>
        <time>2018-05-08T09:12:18Z</time>
      </trkpt>
      <trkpt lat="45.88957" lon="4.82773">
        <ele>172</ele>
        <time>2018-05-08T09:12:20Z</time>
      </trkpt>
      <trkpt lat="45.8896" lon="4.82769">
        <ele>172</ele>
        <time>2018-05-08T09:12:21Z</time>
      </trkpt>
      <trkpt lat="45.88964" lon="4.82763">
        <ele>172</ele>
        <time>2018-05-08T09:12:22Z</time>
      </trkpt>
      <trkpt lat="45.88969" lon="4.8276">
        <ele>172</ele>
        <time>2018-05-08T09:12:23Z</time>
      </trkpt>
      <trkpt lat="45.88973" lon="4.82754">
        <ele>172</ele>
        <time>2018-05-08T09:12:24Z</time>
      </trkpt>
      <trkpt lat="45.88976" lon="4.82748">
        <ele>173</ele>
        <time>2018-05-08T09:12:25Z</time>
      </trkpt>
      <trkpt lat="45.88981" lon="4.82742">
        <ele>173</ele>
        <time>2018-05-08T09:12:26Z</time>
      </trkpt>
      <trkpt lat="45.88984" lon="4.82737">
        <ele>173</ele>
        <time>2018-05-08T09:12:27Z</time>
      </trkpt>
      <trkpt lat="45.88988" lon="4.82729">
        <ele>173</ele>
        <time>2018-05-08T09:12:28Z</time>
      </trkpt>
      <trkpt lat="45.88992" lon="4.82724">
        <ele>173</ele>
        <time>2018-05-08T09:12:29Z</time>
      </trkpt>
      <trkpt lat="45.88995" lon="4.82718">
        <ele>173</ele>
        <time>2018-05-08T09:12:30Z</time>
      </trkpt>
      <trkpt lat="45.88999" lon="4.82711">
        <ele>173</ele>
        <time>2018-05-08T09:12:31Z</time>
      </trkpt>
      <trkpt lat="45.89004" lon="4.82702">
        <ele>173</ele>
        <time>2018-05-08T09:12:33Z</time>
      </trkpt>
      <trkpt lat="45.89007" lon="4.82697">
        <ele>173</ele>
        <time>2018-05-08T09:12:34Z</time>
      </trkpt>
      <trkpt lat="45.8901" lon="4.82688">
        <ele>173</ele>
        <time>2018-05-08T09:12:36Z</time>
      </trkpt>
      <trkpt lat="45.89013" lon="4.82683">
        <ele>173</ele>
        <time>2018-05-08T09:12:37Z</time>
      </trkpt>
      <trkpt lat="45.89014" lon="4.82677">
        <ele>173</ele>
        <time>2018-05-08T09:12:38Z</time>
      </trkpt>
      <trkpt lat="45.89017" lon="4.82671">
        <ele>173</ele>
        <time>2018-05-08T09:12:39Z</time>
      </trkpt>
      <trkpt lat="45.8902" lon="4.82665">
        <ele>173</ele>
        <time>2018-05-08T09:12:40Z</time>
      </trkpt>
      <trkpt lat="45.89025" lon="4.82657">
        <ele>174</ele>
        <time>2018-05-08T09:12:41Z</time>
      </trkpt>
      <trkpt lat="45.89028" lon="4.82647">
        <ele>174</ele>
        <time>2018-05-08T09:12:43Z</time>
      </trkpt>
      <trkpt lat="45.89034" lon="4.8264">
        <ele>174</ele>
        <time>2018-05-08T09:12:44Z</time>
      </trkpt>
      <trkpt lat="45.89036" lon="4.82634">
        <ele>174</ele>
        <time>2018-05-08T09:12:45Z</time>
      </trkpt>
      <trkpt lat="45.8904" lon="4.82629">
        <ele>174</ele>
        <time>2018-05-08T09:12:46Z</time>
      </trkpt>
      <trkpt lat="45.89043" lon="4.82623">
        <ele>174</ele>
        <time>2018-05-08T09:12:47Z</time>
      </trkpt>
      <trkpt lat="45.89045" lon="4.82615">
        <ele>174</ele>
        <time>2018-05-08T09:12:48Z</time>
      </trkpt>
      <trkpt lat="45.89048" lon="4.8261">
        <ele>174</ele>
        <time>2018-05-08T09:12:49Z</time>
      </trkpt>
      <trkpt lat="45.89051" lon="4.82605">
        <ele>174</ele>
        <time>2018-05-08T09:12:50Z</time>
      </trkpt>
      <trkpt lat="45.89053" lon="4.82598">
        <ele>174</ele>
        <time>2018-05-08T09:12:51Z</time>
      </trkpt>
      <trkpt lat="45.89056" lon="4.82594">
        <ele>174</ele>
        <time>2018-05-08T09:12:52Z</time>
      </trkpt>
      <trkpt lat="45.8906" lon="4.82587">
        <ele>174</ele>
        <time>2018-05-08T09:12:53Z</time>
      </trkpt>
      <trkpt lat="45.89063" lon="4.82583">
        <ele>174</ele>
        <time>2018-05-08T09:12:54Z</time>
      </trkpt>
      <trkpt lat="45.89069" lon="4.82576">
        <ele>174</ele>
        <time>2018-05-08T09:12:56Z</time>
      </trkpt>
      <trkpt lat="45.89073" lon="4.82576">
        <ele>174</ele>
        <time>2018-05-08T09:12:57Z</time>
      </trkpt>
      <trkpt lat="45.8908" lon="4.8258">
        <ele>174</ele>
        <time>2018-05-08T09:12:59Z</time>
      </trkpt>
      <trkpt lat="45.89084" lon="4.82583">
        <ele>174</ele>
        <time>2018-05-08T09:13:00Z</time>
      </trkpt>
      <trkpt lat="45.89087" lon="4.8259">
        <ele>174</ele>
        <time>2018-05-08T09:13:01Z</time>
      </trkpt>
      <trkpt lat="45.8909" lon="4.82596">
        <ele>174</ele>
        <time>2018-05-08T09:13:02Z</time>
      </trkpt>
      <trkpt lat="45.89093" lon="4.82601">
        <ele>174</ele>
        <time>2018-05-08T09:13:03Z</time>
      </trkpt>
      <trkpt lat="45.89098" lon="4.82605">
        <ele>174</ele>
        <time>2018-05-08T09:13:04Z</time>
      </trkpt>
      <trkpt lat="45.89102" lon="4.82608">
        <ele>174</ele>
        <time>2018-05-08T09:13:05Z</time>
      </trkpt>
      <trkpt lat="45.89107" lon="4.8261">
        <ele>174</ele>
        <time>2018-05-08T09:13:06Z</time>
      </trkpt>
      <trkpt lat="45.89112" lon="4.82611">
        <ele>174</ele>
        <time>2018-05-08T09:13:07Z</time>
      </trkpt>
      <trkpt lat="45.89117" lon="4.8261">
        <ele>174</ele>
        <time>2018-05-08T09:13:08Z</time>
      </trkpt>
      <trkpt lat="45.89123" lon="4.82609">
        <ele>174</ele>
        <time>2018-05-08T09:13:09Z</time>
      </trkpt>
      <trkpt lat="45.89128" lon="4.82608">
        <ele>174</ele>
        <time>2018-05-08T09:13:10Z</time>
      </trkpt>
      <trkpt lat="45.89133" lon="4.82605">
        <ele>174</ele>
        <time>2018-05-08T09:13:11Z</time>
      </trkpt>
      <trkpt lat="45.89137" lon="4.826">
        <ele>174</ele>
        <time>2018-05-08T09:13:12Z</time>
      </trkpt>
      <trkpt lat="45.89141" lon="4.82594">
        <ele>174</ele>
        <time>2018-05-08T09:13:13Z</time>
      </trkpt>
      <trkpt lat="45.89144" lon="4.82587">
        <ele>173</ele>
        <time>2018-05-08T09:13:14Z</time>
      </trkpt>
      <trkpt lat="45.89147" lon="4.82579">
        <ele>173</ele>
        <time>2018-05-08T09:13:15Z</time>
      </trkpt>
      <trkpt lat="45.89149" lon="4.82571">
        <ele>173</ele>
        <time>2018-05-08T09:13:16Z</time>
      </trkpt>
      <trkpt lat="45.89152" lon="4.82563">
        <ele>173</ele>
        <time>2018-05-08T09:13:17Z</time>
      </trkpt>
      <trkpt lat="45.89157" lon="4.82557">
        <ele>173</ele>
        <time>2018-05-08T09:13:18Z</time>
      </trkpt>
      <trkpt lat="45.89163" lon="4.82551">
        <ele>173</ele>
        <time>2018-05-08T09:13:19Z</time>
      </trkpt>
      <trkpt lat="45.89167" lon="4.82546">
        <ele>173</ele>
        <time>2018-05-08T09:13:20Z</time>
      </trkpt>
      <trkpt lat="45.89172" lon="4.82541">
        <ele>172</ele>
        <time>2018-05-08T09:13:21Z</time>
      </trkpt>
      <trkpt lat="45.89176" lon="4.82537">
        <ele>172</ele>
        <time>2018-05-08T09:13:22Z</time>
      </trkpt>
      <trkpt lat="45.89181" lon="4.82531">
        <ele>172</ele>
        <time>2018-05-08T09:13:23Z</time>
      </trkpt>
      <trkpt lat="45.89187" lon="4.82528">
        <ele>172</ele>
        <time>2018-05-08T09:13:24Z</time>
      </trkpt>
      <trkpt lat="45.89191" lon="4.82523">
        <ele>172</ele>
        <time>2018-05-08T09:13:25Z</time>
      </trkpt>
      <trkpt lat="45.89198" lon="4.82521">
        <ele>172</ele>
        <time>2018-05-08T09:13:26Z</time>
      </trkpt>
      <trkpt lat="45.89202" lon="4.82515">
        <ele>172</ele>
        <time>2018-05-08T09:13:27Z</time>
      </trkpt>
      <trkpt lat="45.89206" lon="4.8251">
        <ele>172</ele>
        <time>2018-05-08T09:13:28Z</time>
      </trkpt>
      <trkpt lat="45.8921" lon="4.82505">
        <ele>173</ele>
        <time>2018-05-08T09:13:29Z</time>
      </trkpt>
      <trkpt lat="45.89215" lon="4.82499">
        <ele>173</ele>
        <time>2018-05-08T09:13:30Z</time>
      </trkpt>
      <trkpt lat="45.8922" lon="4.82494">
        <ele>173</ele>
        <time>2018-05-08T09:13:31Z</time>
      </trkpt>
      <trkpt lat="45.89225" lon="4.82488">
        <ele>173</ele>
        <time>2018-05-08T09:13:32Z</time>
      </trkpt>
      <trkpt lat="45.89229" lon="4.82482">
        <ele>173</ele>
        <time>2018-05-08T09:13:33Z</time>
      </trkpt>
      <trkpt lat="45.89233" lon="4.82477">
        <ele>173</ele>
        <time>2018-05-08T09:13:34Z</time>
      </trkpt>
      <trkpt lat="45.89239" lon="4.82472">
        <ele>173</ele>
        <time>2018-05-08T09:13:35Z</time>
      </trkpt>
      <trkpt lat="45.89244" lon="4.82466">
        <ele>173</ele>
        <time>2018-05-08T09:13:36Z</time>
      </trkpt>
      <trkpt lat="45.89248" lon="4.82461">
        <ele>173</ele>
        <time>2018-05-08T09:13:37Z</time>
      </trkpt>
      <trkpt lat="45.89252" lon="4.82455">
        <ele>173</ele>
        <time>2018-05-08T09:13:38Z</time>
      </trkpt>
      <trkpt lat="45.89257" lon="4.8245">
        <ele>173</ele>
        <time>2018-05-08T09:13:39Z</time>
      </trkpt>
      <trkpt lat="45.89262" lon="4.82444">
        <ele>173</ele>
        <time>2018-05-08T09:13:40Z</time>
      </trkpt>
      <trkpt lat="45.89267" lon="4.82438">
        <ele>173</ele>
        <time>2018-05-08T09:13:41Z</time>
      </trkpt>
      <trkpt lat="45.89271" lon="4.82432">
        <ele>173</ele>
        <time>2018-05-08T09:13:42Z</time>
      </trkpt>
      <trkpt lat="45.89276" lon="4.82427">
        <ele>173</ele>
        <time>2018-05-08T09:13:43Z</time>
      </trkpt>
      <trkpt lat="45.89281" lon="4.82421">
        <ele>173</ele>
        <time>2018-05-08T09:13:44Z</time>
      </trkpt>
      <trkpt lat="45.89286" lon="4.82416">
        <ele>173</ele>
        <time>2018-05-08T09:13:45Z</time>
      </trkpt>
      <trkpt lat="45.8929" lon="4.82409">
        <ele>173</ele>
        <time>2018-05-08T09:13:46Z</time>
      </trkpt>
      <trkpt lat="45.89296" lon="4.82402">
        <ele>173</ele>
        <time>2018-05-08T09:13:47Z</time>
      </trkpt>
      <trkpt lat="45.89301" lon="4.82396">
        <ele>173</ele>
        <time>2018-05-08T09:13:48Z</time>
      </trkpt>
      <trkpt lat="45.89304" lon="4.82391">
        <ele>173</ele>
        <time>2018-05-08T09:13:49Z</time>
      </trkpt>
      <trkpt lat="45.89309" lon="4.82386">
        <ele>173</ele>
        <time>2018-05-08T09:13:50Z</time>
      </trkpt>
      <trkpt lat="45.89313" lon="4.82383">
        <ele>173</ele>
        <time>2018-05-08T09:13:51Z</time>
      </trkpt>
      <trkpt lat="45.89318" lon="4.82377">
        <ele>173</ele>
        <time>2018-05-08T09:13:52Z</time>
      </trkpt>
      <trkpt lat="45.89323" lon="4.82372">
        <ele>173</ele>
        <time>2018-05-08T09:13:53Z</time>
      </trkpt>
      <trkpt lat="45.89328" lon="4.82364">
        <ele>173</ele>
        <time>2018-05-08T09:13:54Z</time>
      </trkpt>
      <trkpt lat="45.89334" lon="4.82359">
        <ele>173</ele>
        <time>2018-05-08T09:13:55Z</time>
      </trkpt>
      <trkpt lat="45.89339" lon="4.82353">
        <ele>173</ele>
        <time>2018-05-08T09:13:56Z</time>
      </trkpt>
      <trkpt lat="45.89344" lon="4.82347">
        <ele>173</ele>
        <time>2018-05-08T09:13:57Z</time>
      </trkpt>
      <trkpt lat="45.89347" lon="4.82342">
        <ele>173</ele>
        <time>2018-05-08T09:13:58Z</time>
      </trkpt>
      <trkpt lat="45.89351" lon="4.82337">
        <ele>173</ele>
        <time>2018-05-08T09:13:59Z</time>
      </trkpt>
      <trkpt lat="45.89355" lon="4.82332">
        <ele>172</ele>
        <time>2018-05-08T09:14:00Z</time>
      </trkpt>
      <trkpt lat="45.8936" lon="4.82327">
        <ele>172</ele>
        <time>2018-05-08T09:14:01Z</time>
      </trkpt>
      <trkpt lat="45.89363" lon="4.82323">
        <ele>172</ele>
        <time>2018-05-08T09:14:02Z</time>
      </trkpt>
      <trkpt lat="45.89367" lon="4.82318">
        <ele>172</ele>
        <time>2018-05-08T09:14:03Z</time>
      </trkpt>
      <trkpt lat="45.89371" lon="4.82311">
        <ele>172</ele>
        <time>2018-05-08T09:14:04Z</time>
      </trkpt>
      <trkpt lat="45.89376" lon="4.82307">
        <ele>172</ele>
        <time>2018-05-08T09:14:05Z</time>
      </trkpt>
      <trkpt lat="45.89379" lon="4.82298">
        <ele>172</ele>
        <time>2018-05-08T09:14:06Z</time>
      </trkpt>
      <trkpt lat="45.89384" lon="4.82293">
        <ele>172</ele>
        <time>2018-05-08T09:14:07Z</time>
      </trkpt>
      <trkpt lat="45.89389" lon="4.82286">
        <ele>172</ele>
        <time>2018-05-08T09:14:08Z</time>
      </trkpt>
      <trkpt lat="45.89392" lon="4.82281">
        <ele>172</ele>
        <time>2018-05-08T09:14:09Z</time>
      </trkpt>
      <trkpt lat="45.89396" lon="4.82276">
        <ele>172</ele>
        <time>2018-05-08T09:14:10Z</time>
      </trkpt>
      <trkpt lat="45.894" lon="4.82271">
        <ele>172</ele>
        <time>2018-05-08T09:14:11Z</time>
      </trkpt>
      <trkpt lat="45.89405" lon="4.82266">
        <ele>172</ele>
        <time>2018-05-08T09:14:12Z</time>
      </trkpt>
      <trkpt lat="45.89409" lon="4.82261">
        <ele>171</ele>
        <time>2018-05-08T09:14:13Z</time>
      </trkpt>
      <trkpt lat="45.89413" lon="4.82255">
        <ele>171</ele>
        <time>2018-05-08T09:14:14Z</time>
      </trkpt>
      <trkpt lat="45.89417" lon="4.82251">
        <ele>171</ele>
        <time>2018-05-08T09:14:15Z</time>
      </trkpt>
      <trkpt lat="45.89422" lon="4.82246">
        <ele>171</ele>
        <time>2018-05-08T09:14:16Z</time>
      </trkpt>
      <trkpt lat="45.89427" lon="4.82238">
        <ele>171</ele>
        <time>2018-05-08T09:14:17Z</time>
      </trkpt>
      <trkpt lat="45.89432" lon="4.82232">
        <ele>171</ele>
        <time>2018-05-08T09:14:18Z</time>
      </trkpt>
      <trkpt lat="45.89436" lon="4.82226">
        <ele>171</ele>
        <time>2018-05-08T09:14:19Z</time>
      </trkpt>
      <trkpt lat="45.89441" lon="4.82221">
        <ele>171</ele>
        <time>2018-05-08T09:14:20Z</time>
      </trkpt>
      <trkpt lat="45.89445" lon="4.82216">
        <ele>171</ele>
        <time>2018-05-08T09:14:21Z</time>
      </trkpt>
      <trkpt lat="45.8945" lon="4.82209">
        <ele>171</ele>
        <time>2018-05-08T09:14:22Z</time>
      </trkpt>
      <trkpt lat="45.89455" lon="4.82204">
        <ele>171</ele>
        <time>2018-05-08T09:14:23Z</time>
      </trkpt>
      <trkpt lat="45.8946" lon="4.82199">
        <ele>171</ele>
        <time>2018-05-08T09:14:24Z</time>
      </trkpt>
      <trkpt lat="45.89464" lon="4.82194">
        <ele>171</ele>
        <time>2018-05-08T09:14:25Z</time>
      </trkpt>
      <trkpt lat="45.89469" lon="4.8219">
        <ele>171</ele>
        <time>2018-05-08T09:14:26Z</time>
      </trkpt>
      <trkpt lat="45.89473" lon="4.82186">
        <ele>171</ele>
        <time>2018-05-08T09:14:27Z</time>
      </trkpt>
      <trkpt lat="45.89478" lon="4.82182">
        <ele>171</ele>
        <time>2018-05-08T09:14:28Z</time>
      </trkpt>
      <trkpt lat="45.89484" lon="4.8218">
        <ele>171</ele>
        <time>2018-05-08T09:14:29Z</time>
      </trkpt>
      <trkpt lat="45.89489" lon="4.82178">
        <ele>171</ele>
        <time>2018-05-08T09:14:30Z</time>
      </trkpt>
      <trkpt lat="45.89493" lon="4.82171">
        <ele>171</ele>
        <time>2018-05-08T09:14:31Z</time>
      </trkpt>
      <trkpt lat="45.89497" lon="4.82167">
        <ele>171</ele>
        <time>2018-05-08T09:14:32Z</time>
      </trkpt>
      <trkpt lat="45.89502" lon="4.82162">
        <ele>171</ele>
        <time>2018-05-08T09:14:33Z</time>
      </trkpt>
      <trkpt lat="45.89506" lon="4.82158">
        <ele>172</ele>
        <time>2018-05-08T09:14:34Z</time>
      </trkpt>
      <trkpt lat="45.8951" lon="4.82154">
        <ele>172</ele>
        <time>2018-05-08T09:14:35Z</time>
      </trkpt>
      <trkpt lat="45.89515" lon="4.8215">
        <ele>172</ele>
        <time>2018-05-08T09:14:36Z</time>
      </trkpt>
      <trkpt lat="45.89519" lon="4.82147">
        <ele>172</ele>
        <time>2018-05-08T09:14:37Z</time>
      </trkpt>
      <trkpt lat="45.89523" lon="4.82143">
        <ele>172</ele>
        <time>2018-05-08T09:14:38Z</time>
      </trkpt>
      <trkpt lat="45.89528" lon="4.8214">
        <ele>172</ele>
        <time>2018-05-08T09:14:39Z</time>
      </trkpt>
      <trkpt lat="45.89534" lon="4.82139">
        <ele>172</ele>
        <time>2018-05-08T09:14:40Z</time>
      </trkpt>
      <trkpt lat="45.89539" lon="4.82136">
        <ele>172</ele>
        <time>2018-05-08T09:14:41Z</time>
      </trkpt>
      <trkpt lat="45.89544" lon="4.82132">
        <ele>173</ele>
        <time>2018-05-08T09:14:42Z</time>
      </trkpt>
      <trkpt lat="45.89553" lon="4.82129">
        <ele>173</ele>
        <time>2018-05-08T09:14:44Z</time>
      </trkpt>
      <trkpt lat="45.89556" lon="4.82125">
        <ele>173</ele>
        <time>2018-05-08T09:14:45Z</time>
      </trkpt>
      <trkpt lat="45.8956" lon="4.82119">
        <ele>173</ele>
        <time>2018-05-08T09:14:46Z</time>
      </trkpt>
      <trkpt lat="45.89562" lon="4.82112">
        <ele>173</ele>
        <time>2018-05-08T09:14:47Z</time>
      </trkpt>
      <trkpt lat="45.89564" lon="4.82105">
        <ele>173</ele>
        <time>2018-05-08T09:14:48Z</time>
      </trkpt>
      <trkpt lat="45.89567" lon="4.82098">
        <ele>173</ele>
        <time>2018-05-08T09:14:49Z</time>
      </trkpt>
      <trkpt lat="45.89571" lon="4.82091">
        <ele>173</ele>
        <time>2018-05-08T09:14:50Z</time>
      </trkpt>
      <trkpt lat="45.89576" lon="4.82087">
        <ele>173</ele>
        <time>2018-05-08T09:14:51Z</time>
      </trkpt>
      <trkpt lat="45.89581" lon="4.82082">
        <ele>173</ele>
        <time>2018-05-08T09:14:52Z</time>
      </trkpt>
      <trkpt lat="45.89587" lon="4.82077">
        <ele>173</ele>
        <time>2018-05-08T09:14:53Z</time>
      </trkpt>
      <trkpt lat="45.89592" lon="4.82073">
        <ele>173</ele>
        <time>2018-05-08T09:14:54Z</time>
      </trkpt>
      <trkpt lat="45.89596" lon="4.82068">
        <ele>173</ele>
        <time>2018-05-08T09:14:55Z</time>
      </trkpt>
      <trkpt lat="45.89601" lon="4.82063">
        <ele>173</ele>
        <time>2018-05-08T09:14:56Z</time>
      </trkpt>
      <trkpt lat="45.89605" lon="4.82059">
        <ele>173</ele>
        <time>2018-05-08T09:14:57Z</time>
      </trkpt>
      <trkpt lat="45.8961" lon="4.82055">
        <ele>173</ele>
        <time>2018-05-08T09:14:58Z</time>
      </trkpt>
      <trkpt lat="45.89614" lon="4.8205">
        <ele>173</ele>
        <time>2018-05-08T09:14:59Z</time>
      </trkpt>
      <trkpt lat="45.89619" lon="4.82046">
        <ele>173</ele>
        <time>2018-05-08T09:15:00Z</time>
      </trkpt>
      <trkpt lat="45.89624" lon="4.82042">
        <ele>173</ele>
        <time>2018-05-08T09:15:01Z</time>
      </trkpt>
      <trkpt lat="45.89629" lon="4.82038">
        <ele>173</ele>
        <time>2018-05-08T09:15:02Z</time>
      </trkpt>
      <trkpt lat="45.89633" lon="4.82033">
        <ele>173</ele>
        <time>2018-05-08T09:15:03Z</time>
      </trkpt>
      <trkpt lat="45.89637" lon="4.82029">
        <ele>173</ele>
        <time>2018-05-08T09:15:04Z</time>
      </trkpt>
      <trkpt lat="45.89641" lon="4.82025">
        <ele>173</ele>
        <time>2018-05-08T09:15:05Z</time>
      </trkpt>
      <trkpt lat="45.89645" lon="4.8202">
        <ele>173</ele>
        <time>2018-05-08T09:15:06Z</time>
      </trkpt>
      <trkpt lat="45.8965" lon="4.82015">
        <ele>174</ele>
        <time>2018-05-08T09:15:07Z</time>
      </trkpt>
      <trkpt lat="45.89655" lon="4.82011">
        <ele>174</ele>
        <time>2018-05-08T09:15:08Z</time>
      </trkpt>
      <trkpt lat="45.89661" lon="4.82003">
        <ele>174</ele>
        <time>2018-05-08T09:15:09Z</time>
      </trkpt>
      <trkpt lat="45.89666" lon="4.81999">
        <ele>174</ele>
        <time>2018-05-08T09:15:10Z</time>
      </trkpt>
      <trkpt lat="45.89671" lon="4.81996">
        <ele>174</ele>
        <time>2018-05-08T09:15:11Z</time>
      </trkpt>
      <trkpt lat="45.89676" lon="4.81992">
        <ele>174</ele>
        <time>2018-05-08T09:15:12Z</time>
      </trkpt>
      <trkpt lat="45.89681" lon="4.81988">
        <ele>174</ele>
        <time>2018-05-08T09:15:13Z</time>
      </trkpt>
      <trkpt lat="45.89687" lon="4.81984">
        <ele>173</ele>
        <time>2018-05-08T09:15:14Z</time>
      </trkpt>
      <trkpt lat="45.8969" lon="4.8198">
        <ele>173</ele>
        <time>2018-05-08T09:15:15Z</time>
      </trkpt>
      <trkpt lat="45.89695" lon="4.81975">
        <ele>173</ele>
        <time>2018-05-08T09:15:16Z</time>
      </trkpt>
      <trkpt lat="45.89699" lon="4.81968">
        <ele>173</ele>
        <time>2018-05-08T09:15:17Z</time>
      </trkpt>
      <trkpt lat="45.89703" lon="4.81964">
        <ele>173</ele>
        <time>2018-05-08T09:15:18Z</time>
      </trkpt>
      <trkpt lat="45.89708" lon="4.81961">
        <ele>173</ele>
        <time>2018-05-08T09:15:19Z</time>
      </trkpt>
      <trkpt lat="45.89712" lon="4.81958">
        <ele>173</ele>
        <time>2018-05-08T09:15:20Z</time>
      </trkpt>
      <trkpt lat="45.89717" lon="4.81954">
        <ele>173</ele>
        <time>2018-05-08T09:15:21Z</time>
      </trkpt>
      <trkpt lat="45.89721" lon="4.81951">
        <ele>173</ele>
        <time>2018-05-08T09:15:22Z</time>
      </trkpt>
      <trkpt lat="45.89726" lon="4.81947">
        <ele>173</ele>
        <time>2018-05-08T09:15:23Z</time>
      </trkpt>
      <trkpt lat="45.8973" lon="4.81944">
        <ele>173</ele>
        <time>2018-05-08T09:15:24Z</time>
      </trkpt>
      <trkpt lat="45.89734" lon="4.8194">
        <ele>173</ele>
        <time>2018-05-08T09:15:25Z</time>
      </trkpt>
      <trkpt lat="45.89742" lon="4.81935">
        <ele>174</ele>
        <time>2018-05-08T09:15:27Z</time>
      </trkpt>
      <trkpt lat="45.89746" lon="4.81931">
        <ele>174</ele>
        <time>2018-05-08T09:15:28Z</time>
      </trkpt>
      <trkpt lat="45.89751" lon="4.81928">
        <ele>174</ele>
        <time>2018-05-08T09:15:29Z</time>
      </trkpt>
      <trkpt lat="45.89756" lon="4.81924">
        <ele>174</ele>
        <time>2018-05-08T09:15:30Z</time>
      </trkpt>
      <trkpt lat="45.89763" lon="4.81917">
        <ele>174</ele>
        <time>2018-05-08T09:15:32Z</time>
      </trkpt>
      <trkpt lat="45.89768" lon="4.81914">
        <ele>174</ele>
        <time>2018-05-08T09:15:33Z</time>
      </trkpt>
      <trkpt lat="45.89773" lon="4.81914">
        <ele>174</ele>
        <time>2018-05-08T09:15:34Z</time>
      </trkpt>
      <trkpt lat="45.89778" lon="4.8191">
        <ele>174</ele>
        <time>2018-05-08T09:15:35Z</time>
      </trkpt>
      <trkpt lat="45.89782" lon="4.81907">
        <ele>174</ele>
        <time>2018-05-08T09:15:36Z</time>
      </trkpt>
      <trkpt lat="45.89786" lon="4.81904">
        <ele>174</ele>
        <time>2018-05-08T09:15:37Z</time>
      </trkpt>
      <trkpt lat="45.89789" lon="4.81899">
        <ele>174</ele>
        <time>2018-05-08T09:15:38Z</time>
      </trkpt>
      <trkpt lat="45.89793" lon="4.81894">
        <ele>174</ele>
        <time>2018-05-08T09:15:39Z</time>
      </trkpt>
      <trkpt lat="45.89797" lon="4.8189">
        <ele>174</ele>
        <time>2018-05-08T09:15:40Z</time>
      </trkpt>
      <trkpt lat="45.89801" lon="4.81884">
        <ele>174</ele>
        <time>2018-05-08T09:15:41Z</time>
      </trkpt>
      <trkpt lat="45.89806" lon="4.81881">
        <ele>174</ele>
        <time>2018-05-08T09:15:42Z</time>
      </trkpt>
      <trkpt lat="45.8981" lon="4.81876">
        <ele>174</ele>
        <time>2018-05-08T09:15:43Z</time>
      </trkpt>
      <trkpt lat="45.89814" lon="4.81872">
        <ele>174</ele>
        <time>2018-05-08T09:15:44Z</time>
      </trkpt>
      <trkpt lat="45.89818" lon="4.81869">
        <ele>174</ele>
        <time>2018-05-08T09:15:45Z</time>
      </trkpt>
      <trkpt lat="45.89823" lon="4.81866">
        <ele>174</ele>
        <time>2018-05-08T09:15:46Z</time>
      </trkpt>
      <trkpt lat="45.89828" lon="4.81861">
        <ele>174</ele>
        <time>2018-05-08T09:15:47Z</time>
      </trkpt>
      <trkpt lat="45.89833" lon="4.81858">
        <ele>174</ele>
        <time>2018-05-08T09:15:48Z</time>
      </trkpt>
      <trkpt lat="45.89837" lon="4.81853">
        <ele>175</ele>
        <time>2018-05-08T09:15:49Z</time>
      </trkpt>
      <trkpt lat="45.89841" lon="4.81846">
        <ele>175</ele>
        <time>2018-05-08T09:15:50Z</time>
      </trkpt>
      <trkpt lat="45.89846" lon="4.81842">
        <ele>175</ele>
        <time>2018-05-08T09:15:51Z</time>
      </trkpt>
      <trkpt lat="45.89851" lon="4.81837">
        <ele>175</ele>
        <time>2018-05-08T09:15:52Z</time>
      </trkpt>
      <trkpt lat="45.89855" lon="4.81833">
        <ele>175</ele>
        <time>2018-05-08T09:15:53Z</time>
      </trkpt>
      <trkpt lat="45.89859" lon="4.81826">
        <ele>175</ele>
        <time>2018-05-08T09:15:54Z</time>
      </trkpt>
      <trkpt lat="45.89864" lon="4.81821">
        <ele>175</ele>
        <time>2018-05-08T09:15:55Z</time>
      </trkpt>
      <trkpt lat="45.89868" lon="4.81816">
        <ele>175</ele>
        <time>2018-05-08T09:15:56Z</time>
      </trkpt>
      <trkpt lat="45.89872" lon="4.81811">
        <ele>175</ele>
        <time>2018-05-08T09:15:57Z</time>
      </trkpt>
      <trkpt lat="45.89876" lon="4.81805">
        <ele>176</ele>
        <time>2018-05-08T09:15:58Z</time>
      </trkpt>
      <trkpt lat="45.89879" lon="4.818">
        <ele>176</ele>
        <time>2018-05-08T09:15:59Z</time>
      </trkpt>
      <trkpt lat="45.89884" lon="4.81795">
        <ele>176</ele>
        <time>2018-05-08T09:16:00Z</time>
      </trkpt>
      <trkpt lat="45.89888" lon="4.81789">
        <ele>176</ele>
        <time>2018-05-08T09:16:01Z</time>
      </trkpt>
      <trkpt lat="45.89893" lon="4.81784">
        <ele>176</ele>
        <time>2018-05-08T09:16:02Z</time>
      </trkpt>
      <trkpt lat="45.89897" lon="4.81779">
        <ele>176</ele>
        <time>2018-05-08T09:16:03Z</time>
      </trkpt>
      <trkpt lat="45.89901" lon="4.81774">
        <ele>176</ele>
        <time>2018-05-08T09:16:04Z</time>
      </trkpt>
      <trkpt lat="45.89905" lon="4.8177">
        <ele>176</ele>
        <time>2018-05-08T09:16:05Z</time>
      </trkpt>
      <trkpt lat="45.89912" lon="4.81765">
        <ele>176</ele>
        <time>2018-05-08T09:16:07Z</time>
      </trkpt>
      <trkpt lat="45.89917" lon="4.81763">
        <ele>177</ele>
        <time>2018-05-08T09:16:08Z</time>
      </trkpt>
      <trkpt lat="45.89921" lon="4.81764">
        <ele>177</ele>
        <time>2018-05-08T09:16:09Z</time>
      </trkpt>
      <trkpt lat="45.89926" lon="4.81764">
        <ele>177</ele>
        <time>2018-05-08T09:16:10Z</time>
      </trkpt>
      <trkpt lat="45.89932" lon="4.81765">
        <ele>177</ele>
        <time>2018-05-08T09:16:11Z</time>
      </trkpt>
      <trkpt lat="45.89937" lon="4.81765">
        <ele>177</ele>
        <time>2018-05-08T09:16:12Z</time>
      </trkpt>
      <trkpt lat="45.89946" lon="4.81765">
        <ele>177</ele>
        <time>2018-05-08T09:16:14Z</time>
      </trkpt>
      <trkpt lat="45.89951" lon="4.81761">
        <ele>177</ele>
        <time>2018-05-08T09:16:15Z</time>
      </trkpt>
      <trkpt lat="45.89957" lon="4.81751">
        <ele>177</ele>
        <time>2018-05-08T09:16:17Z</time>
      </trkpt>
      <trkpt lat="45.8996" lon="4.81745">
        <ele>177</ele>
        <time>2018-05-08T09:16:18Z</time>
      </trkpt>
      <trkpt lat="45.89962" lon="4.8174">
        <ele>177</ele>
        <time>2018-05-08T09:16:19Z</time>
      </trkpt>
      <trkpt lat="45.89964" lon="4.81733">
        <ele>176</ele>
        <time>2018-05-08T09:16:20Z</time>
      </trkpt>
      <trkpt lat="45.8997" lon="4.8173">
        <ele>176</ele>
        <time>2018-05-08T09:16:21Z</time>
      </trkpt>
      <trkpt lat="45.89973" lon="4.81724">
        <ele>176</ele>
        <time>2018-05-08T09:16:22Z</time>
      </trkpt>
      <trkpt lat="45.89979" lon="4.81718">
        <ele>176</ele>
        <time>2018-05-08T09:16:23Z</time>
      </trkpt>
      <trkpt lat="45.89983" lon="4.81714">
        <ele>176</ele>
        <time>2018-05-08T09:16:24Z</time>
      </trkpt>
      <trkpt lat="45.89988" lon="4.8171">
        <ele>176</ele>
        <time>2018-05-08T09:16:25Z</time>
      </trkpt>
      <trkpt lat="45.89994" lon="4.81706">
        <ele>176</ele>
        <time>2018-05-08T09:16:26Z</time>
      </trkpt>
      <trkpt lat="45.89999" lon="4.81701">
        <ele>176</ele>
        <time>2018-05-08T09:16:27Z</time>
      </trkpt>
      <trkpt lat="45.90003" lon="4.81698">
        <ele>177</ele>
        <time>2018-05-08T09:16:28Z</time>
      </trkpt>
      <trkpt lat="45.90008" lon="4.81695">
        <ele>177</ele>
        <time>2018-05-08T09:16:29Z</time>
      </trkpt>
      <trkpt lat="45.90013" lon="4.81693">
        <ele>177</ele>
        <time>2018-05-08T09:16:30Z</time>
      </trkpt>
      <trkpt lat="45.90018" lon="4.8169">
        <ele>177</ele>
        <time>2018-05-08T09:16:31Z</time>
      </trkpt>
      <trkpt lat="45.90023" lon="4.81689">
        <ele>177</ele>
        <time>2018-05-08T09:16:32Z</time>
      </trkpt>
      <trkpt lat="45.90031" lon="4.81686">
        <ele>178</ele>
        <time>2018-05-08T09:16:34Z</time>
      </trkpt>
      <trkpt lat="45.90035" lon="4.81684">
        <ele>178</ele>
        <time>2018-05-08T09:16:35Z</time>
      </trkpt>
      <trkpt lat="45.9004" lon="4.81681">
        <ele>178</ele>
        <time>2018-05-08T09:16:36Z</time>
      </trkpt>
      <trkpt lat="45.90044" lon="4.81679">
        <ele>178</ele>
        <time>2018-05-08T09:16:37Z</time>
      </trkpt>
      <trkpt lat="45.90053" lon="4.81676">
        <ele>178</ele>
        <time>2018-05-08T09:16:39Z</time>
      </trkpt>
      <trkpt lat="45.90059" lon="4.81674">
        <ele>178</ele>
        <time>2018-05-08T09:16:40Z</time>
      </trkpt>
      <trkpt lat="45.90064" lon="4.81672">
        <ele>178</ele>
        <time>2018-05-08T09:16:41Z</time>
      </trkpt>
      <trkpt lat="45.90068" lon="4.81671">
        <ele>178</ele>
        <time>2018-05-08T09:16:42Z</time>
      </trkpt>
      <trkpt lat="45.90072" lon="4.81669">
        <ele>179</ele>
        <time>2018-05-08T09:16:43Z</time>
      </trkpt>
      <trkpt lat="45.90077" lon="4.81668">
        <ele>179</ele>
        <time>2018-05-08T09:16:44Z</time>
      </trkpt>
      <trkpt lat="45.90081" lon="4.81667">
        <ele>179</ele>
        <time>2018-05-08T09:16:45Z</time>
      </trkpt>
      <trkpt lat="45.90086" lon="4.81666">
        <ele>179</ele>
        <time>2018-05-08T09:16:46Z</time>
      </trkpt>
      <trkpt lat="45.9009" lon="4.81663">
        <ele>179</ele>
        <time>2018-05-08T09:16:47Z</time>
      </trkpt>
      <trkpt lat="45.90095" lon="4.81662">
        <ele>179</ele>
        <time>2018-05-08T09:16:48Z</time>
      </trkpt>
      <trkpt lat="45.90099" lon="4.8166">
        <ele>179</ele>
        <time>2018-05-08T09:16:49Z</time>
      </trkpt>
      <trkpt lat="45.90104" lon="4.81659">
        <ele>179</ele>
        <time>2018-05-08T09:16:50Z</time>
      </trkpt>
      <trkpt lat="45.90108" lon="4.81659">
        <ele>179</ele>
        <time>2018-05-08T09:16:51Z</time>
      </trkpt>
      <trkpt lat="45.90113" lon="4.81658">
        <ele>179</ele>
        <time>2018-05-08T09:16:52Z</time>
      </trkpt>
      <trkpt lat="45.90118" lon="4.81657">
        <ele>179</ele>
        <time>2018-05-08T09:16:53Z</time>
      </trkpt>
      <trkpt lat="45.90123" lon="4.81655">
        <ele>179</ele>
        <time>2018-05-08T09:16:54Z</time>
      </trkpt>
      <trkpt lat="45.90128" lon="4.81656">
        <ele>179</ele>
        <time>2018-05-08T09:16:55Z</time>
      </trkpt>
      <trkpt lat="45.90134" lon="4.81654">
        <ele>179</ele>
        <time>2018-05-08T09:16:56Z</time>
      </trkpt>
      <trkpt lat="45.90139" lon="4.81654">
        <ele>179</ele>
        <time>2018-05-08T09:16:57Z</time>
      </trkpt>
      <trkpt lat="45.90143" lon="4.81653">
        <ele>179</ele>
        <time>2018-05-08T09:16:58Z</time>
      </trkpt>
      <trkpt lat="45.90148" lon="4.81653">
        <ele>179</ele>
        <time>2018-05-08T09:16:59Z</time>
      </trkpt>
      <trkpt lat="45.90153" lon="4.81652">
        <ele>179</ele>
        <time>2018-05-08T09:17:00Z</time>
      </trkpt>
      <trkpt lat="45.9016" lon="4.8165">
        <ele>179</ele>
        <time>2018-05-08T09:17:01Z</time>
      </trkpt>
      <trkpt lat="45.90165" lon="4.8165">
        <ele>179</ele>
        <time>2018-05-08T09:17:02Z</time>
      </trkpt>
      <trkpt lat="45.90171" lon="4.8165">
        <ele>180</ele>
        <time>2018-05-08T09:17:03Z</time>
      </trkpt>
      <trkpt lat="45.90176" lon="4.8165">
        <ele>180</ele>
        <time>2018-05-08T09:17:04Z</time>
      </trkpt>
      <trkpt lat="45.90181" lon="4.8165">
        <ele>180</ele>
        <time>2018-05-08T09:17:05Z</time>
      </trkpt>
      <trkpt lat="45.90186" lon="4.81649">
        <ele>180</ele>
        <time>2018-05-08T09:17:06Z</time>
      </trkpt>
      <trkpt lat="45.90191" lon="4.81649">
        <ele>180</ele>
        <time>2018-05-08T09:17:07Z</time>
      </trkpt>
      <trkpt lat="45.90197" lon="4.81648">
        <ele>180</ele>
        <time>2018-05-08T09:17:08Z</time>
      </trkpt>
      <trkpt lat="45.90203" lon="4.81647">
        <ele>180</ele>
        <time>2018-05-08T09:17:09Z</time>
      </trkpt>
      <trkpt lat="45.9024" lon="4.81645">
        <ele>181</ele>
        <time>2018-05-08T09:17:15Z</time>
      </trkpt>
      <trkpt lat="45.90246" lon="4.81643">
        <ele>181</ele>
        <time>2018-05-08T09:17:17Z</time>
      </trkpt>
      <trkpt lat="45.90253" lon="4.81641">
        <ele>182</ele>
        <time>2018-05-08T09:17:18Z</time>
      </trkpt>
      <trkpt lat="45.90261" lon="4.81642">
        <ele>182</ele>
        <time>2018-05-08T09:17:20Z</time>
      </trkpt>
      <trkpt lat="45.90267" lon="4.81643">
        <ele>182</ele>
        <time>2018-05-08T09:17:21Z</time>
      </trkpt>
      <trkpt lat="45.90272" lon="4.81646">
        <ele>182</ele>
        <time>2018-05-08T09:17:22Z</time>
      </trkpt>
      <trkpt lat="45.90276" lon="4.81651">
        <ele>182</ele>
        <time>2018-05-08T09:17:23Z</time>
      </trkpt>
      <trkpt lat="45.90281" lon="4.81654">
        <ele>182</ele>
        <time>2018-05-08T09:17:24Z</time>
      </trkpt>
      <trkpt lat="45.90285" lon="4.81659">
        <ele>182</ele>
        <time>2018-05-08T09:17:25Z</time>
      </trkpt>
      <trkpt lat="45.9029" lon="4.81662">
        <ele>182</ele>
        <time>2018-05-08T09:17:26Z</time>
      </trkpt>
      <trkpt lat="45.90296" lon="4.81661">
        <ele>182</ele>
        <time>2018-05-08T09:17:27Z</time>
      </trkpt>
      <trkpt lat="45.90301" lon="4.81659">
        <ele>182</ele>
        <time>2018-05-08T09:17:28Z</time>
      </trkpt>
      <trkpt lat="45.90306" lon="4.81655">
        <ele>182</ele>
        <time>2018-05-08T09:17:29Z</time>
      </trkpt>
      <trkpt lat="45.90311" lon="4.8165">
        <ele>182</ele>
        <time>2018-05-08T09:17:30Z</time>
      </trkpt>
      <trkpt lat="45.90314" lon="4.81643">
        <ele>182</ele>
        <time>2018-05-08T09:17:31Z</time>
      </trkpt>
      <trkpt lat="45.90317" lon="4.81639">
        <ele>182</ele>
        <time>2018-05-08T09:17:32Z</time>
      </trkpt>
      <trkpt lat="45.90321" lon="4.81634">
        <ele>182</ele>
        <time>2018-05-08T09:17:33Z</time>
      </trkpt>
      <trkpt lat="45.90325" lon="4.8163">
        <ele>182</ele>
        <time>2018-05-08T09:17:34Z</time>
      </trkpt>
      <trkpt lat="45.9033" lon="4.81628">
        <ele>182</ele>
        <time>2018-05-08T09:17:35Z</time>
      </trkpt>
      <trkpt lat="45.90335" lon="4.81627">
        <ele>183</ele>
        <time>2018-05-08T09:17:36Z</time>
      </trkpt>
      <trkpt lat="45.9034" lon="4.81627">
        <ele>183</ele>
        <time>2018-05-08T09:17:37Z</time>
      </trkpt>
      <trkpt lat="45.90347" lon="4.81625">
        <ele>182</ele>
        <time>2018-05-08T09:17:38Z</time>
      </trkpt>
      <trkpt lat="45.9035" lon="4.81625">
        <ele>183</ele>
        <time>2018-05-08T09:17:39Z</time>
      </trkpt>
      <trkpt lat="45.90354" lon="4.81624">
        <ele>182</ele>
        <time>2018-05-08T09:17:40Z</time>
      </trkpt>
      <trkpt lat="45.9036" lon="4.81622">
        <ele>182</ele>
        <time>2018-05-08T09:17:41Z</time>
      </trkpt>
      <trkpt lat="45.90365" lon="4.81621">
        <ele>182</ele>
        <time>2018-05-08T09:17:42Z</time>
      </trkpt>
      <trkpt lat="45.9037" lon="4.8162">
        <ele>182</ele>
        <time>2018-05-08T09:17:43Z</time>
      </trkpt>
      <trkpt lat="45.90375" lon="4.8162">
        <ele>182</ele>
        <time>2018-05-08T09:17:44Z</time>
      </trkpt>
      <trkpt lat="45.9038" lon="4.81619">
        <ele>182</ele>
        <time>2018-05-08T09:17:45Z</time>
      </trkpt>
      <trkpt lat="45.90385" lon="4.81618">
        <ele>182</ele>
        <time>2018-05-08T09:17:46Z</time>
      </trkpt>
      <trkpt lat="45.90392" lon="4.81615">
        <ele>182</ele>
        <time>2018-05-08T09:17:47Z</time>
      </trkpt>
      <trkpt lat="45.90398" lon="4.81614">
        <ele>182</ele>
        <time>2018-05-08T09:17:48Z</time>
      </trkpt>
      <trkpt lat="45.90403" lon="4.81613">
        <ele>182</ele>
        <time>2018-05-08T09:17:49Z</time>
      </trkpt>
      <trkpt lat="45.90408" lon="4.8161">
        <ele>182</ele>
        <time>2018-05-08T09:17:50Z</time>
      </trkpt>
      <trkpt lat="45.90413" lon="4.81609">
        <ele>182</ele>
        <time>2018-05-08T09:17:51Z</time>
      </trkpt>
      <trkpt lat="45.90418" lon="4.81608">
        <ele>182</ele>
        <time>2018-05-08T09:17:52Z</time>
      </trkpt>
      <trkpt lat="45.90424" lon="4.81609">
        <ele>182</ele>
        <time>2018-05-08T09:17:53Z</time>
      </trkpt>
      <trkpt lat="45.90429" lon="4.81609">
        <ele>182</ele>
        <time>2018-05-08T09:17:54Z</time>
      </trkpt>
      <trkpt lat="45.90434" lon="4.81608">
        <ele>182</ele>
        <time>2018-05-08T09:17:55Z</time>
      </trkpt>
      <trkpt lat="45.90439" lon="4.81608">
        <ele>182</ele>
        <time>2018-05-08T09:17:56Z</time>
      </trkpt>
      <trkpt lat="45.90445" lon="4.81609">
        <ele>182</ele>
        <time>2018-05-08T09:17:57Z</time>
      </trkpt>
      <trkpt lat="45.9045" lon="4.81609">
        <ele>182</ele>
        <time>2018-05-08T09:17:58Z</time>
      </trkpt>
      <trkpt lat="45.90456" lon="4.81608">
        <ele>182</ele>
        <time>2018-05-08T09:17:59Z</time>
      </trkpt>
      <trkpt lat="45.9046" lon="4.81607">
        <ele>182</ele>
        <time>2018-05-08T09:18:00Z</time>
      </trkpt>
      <trkpt lat="45.90466" lon="4.81607">
        <ele>182</ele>
        <time>2018-05-08T09:18:01Z</time>
      </trkpt>
      <trkpt lat="45.90472" lon="4.81607">
        <ele>182</ele>
        <time>2018-05-08T09:18:02Z</time>
      </trkpt>
      <trkpt lat="45.90476" lon="4.81607">
        <ele>182</ele>
        <time>2018-05-08T09:18:03Z</time>
      </trkpt>
      <trkpt lat="45.90485" lon="4.81606">
        <ele>182</ele>
        <time>2018-05-08T09:18:06Z</time>
      </trkpt>
      <trkpt lat="45.90486" lon="4.81605">
        <ele>182</ele>
        <time>2018-05-08T09:18:07Z</time>
      </trkpt>
      <trkpt lat="45.90494" lon="4.81608">
        <ele>182</ele>
        <time>2018-05-08T09:18:15Z</time>
      </trkpt>
      <trkpt lat="45.90497" lon="4.81608">
        <ele>182</ele>
        <time>2018-05-08T09:18:16Z</time>
      </trkpt>
      <trkpt lat="45.90502" lon="4.81608">
        <ele>182</ele>
        <time>2018-05-08T09:18:18Z</time>
      </trkpt>
      <trkpt lat="45.90511" lon="4.81607">
        <ele>182</ele>
        <time>2018-05-08T09:18:19Z</time>
      </trkpt>
      <trkpt lat="45.90519" lon="4.81605">
        <ele>182</ele>
        <time>2018-05-08T09:18:21Z</time>
      </trkpt>
      <trkpt lat="45.90524" lon="4.81603">
        <ele>182</ele>
        <time>2018-05-08T09:18:22Z</time>
      </trkpt>
      <trkpt lat="45.90532" lon="4.81602">
        <ele>182</ele>
        <time>2018-05-08T09:18:24Z</time>
      </trkpt>
      <trkpt lat="45.90537" lon="4.816">
        <ele>182</ele>
        <time>2018-05-08T09:18:25Z</time>
      </trkpt>
      <trkpt lat="45.90546" lon="4.81599">
        <ele>182</ele>
        <time>2018-05-08T09:18:27Z</time>
      </trkpt>
      <trkpt lat="45.9055" lon="4.81598">
        <ele>182</ele>
        <time>2018-05-08T09:18:28Z</time>
      </trkpt>
      <trkpt lat="45.90556" lon="4.81597">
        <ele>182</ele>
        <time>2018-05-08T09:18:29Z</time>
      </trkpt>
      <trkpt lat="45.9056" lon="4.81598">
        <ele>182</ele>
        <time>2018-05-08T09:18:30Z</time>
      </trkpt>
      <trkpt lat="45.90566" lon="4.81597">
        <ele>182</ele>
        <time>2018-05-08T09:18:31Z</time>
      </trkpt>
      <trkpt lat="45.90572" lon="4.81597">
        <ele>182</ele>
        <time>2018-05-08T09:18:32Z</time>
      </trkpt>
      <trkpt lat="45.90578" lon="4.81596">
        <ele>182</ele>
        <time>2018-05-08T09:18:33Z</time>
      </trkpt>
      <trkpt lat="45.90585" lon="4.81596">
        <ele>182</ele>
        <time>2018-05-08T09:18:34Z</time>
      </trkpt>
      <trkpt lat="45.90593" lon="4.81595">
        <ele>182</ele>
        <time>2018-05-08T09:18:35Z</time>
      </trkpt>
      <trkpt lat="45.90599" lon="4.81595">
        <ele>182</ele>
        <time>2018-05-08T09:18:36Z</time>
      </trkpt>
      <trkpt lat="45.90606" lon="4.81594">
        <ele>182</ele>
        <time>2018-05-08T09:18:37Z</time>
      </trkpt>
      <trkpt lat="45.90614" lon="4.81593">
        <ele>182</ele>
        <time>2018-05-08T09:18:38Z</time>
      </trkpt>
      <trkpt lat="45.90622" lon="4.81593">
        <ele>181</ele>
        <time>2018-05-08T09:18:39Z</time>
      </trkpt>
      <trkpt lat="45.90629" lon="4.81592">
        <ele>181</ele>
        <time>2018-05-08T09:18:40Z</time>
      </trkpt>
      <trkpt lat="45.90637" lon="4.81593">
        <ele>181</ele>
        <time>2018-05-08T09:18:41Z</time>
      </trkpt>
      <trkpt lat="45.90644" lon="4.81592">
        <ele>181</ele>
        <time>2018-05-08T09:18:42Z</time>
      </trkpt>
      <trkpt lat="45.90653" lon="4.81591">
        <ele>180</ele>
        <time>2018-05-08T09:18:43Z</time>
      </trkpt>
      <trkpt lat="45.90661" lon="4.81591">
        <ele>180</ele>
        <time>2018-05-08T09:18:44Z</time>
      </trkpt>
      <trkpt lat="45.90669" lon="4.81591">
        <ele>179</ele>
        <time>2018-05-08T09:18:45Z</time>
      </trkpt>
      <trkpt lat="45.90678" lon="4.81591">
        <ele>179</ele>
        <time>2018-05-08T09:18:46Z</time>
      </trkpt>
      <trkpt lat="45.90687" lon="4.81591">
        <ele>179</ele>
        <time>2018-05-08T09:18:47Z</time>
      </trkpt>
      <trkpt lat="45.90696" lon="4.81592">
        <ele>178</ele>
        <time>2018-05-08T09:18:48Z</time>
      </trkpt>
      <trkpt lat="45.90705" lon="4.81591">
        <ele>178</ele>
        <time>2018-05-08T09:18:49Z</time>
      </trkpt>
      <trkpt lat="45.90713" lon="4.81591">
        <ele>178</ele>
        <time>2018-05-08T09:18:50Z</time>
      </trkpt>
      <trkpt lat="45.90723" lon="4.81589">
        <ele>177</ele>
        <time>2018-05-08T09:18:51Z</time>
      </trkpt>
      <trkpt lat="45.90732" lon="4.81587">
        <ele>176</ele>
        <time>2018-05-08T09:18:52Z</time>
      </trkpt>
      <trkpt lat="45.90743" lon="4.81586">
        <ele>175</ele>
        <time>2018-05-08T09:18:53Z</time>
      </trkpt>
      <trkpt lat="45.90753" lon="4.81585">
        <ele>174</ele>
        <time>2018-05-08T09:18:54Z</time>
      </trkpt>
      <trkpt lat="45.90762" lon="4.81585">
        <ele>174</ele>
        <time>2018-05-08T09:18:55Z</time>
      </trkpt>
      <trkpt lat="45.90773" lon="4.81585">
        <ele>175</ele>
        <time>2018-05-08T09:18:56Z</time>
      </trkpt>
      <trkpt lat="45.90785" lon="4.81586">
        <ele>175</ele>
        <time>2018-05-08T09:18:57Z</time>
      </trkpt>
      <trkpt lat="45.90795" lon="4.81585">
        <ele>175</ele>
        <time>2018-05-08T09:18:58Z</time>
      </trkpt>
      <trkpt lat="45.90807" lon="4.81584">
        <ele>174</ele>
        <time>2018-05-08T09:18:59Z</time>
      </trkpt>
      <trkpt lat="45.90818" lon="4.81584">
        <ele>174</ele>
        <time>2018-05-08T09:19:00Z</time>
      </trkpt>
      <trkpt lat="45.90829" lon="4.81585">
        <ele>173</ele>
        <time>2018-05-08T09:19:01Z</time>
      </trkpt>
      <trkpt lat="45.9084" lon="4.81585">
        <ele>173</ele>
        <time>2018-05-08T09:19:02Z</time>
      </trkpt>
      <trkpt lat="45.9085" lon="4.81585">
        <ele>172</ele>
        <time>2018-05-08T09:19:03Z</time>
      </trkpt>
      <trkpt lat="45.90859" lon="4.81585">
        <ele>172</ele>
        <time>2018-05-08T09:19:04Z</time>
      </trkpt>
      <trkpt lat="45.90869" lon="4.81585">
        <ele>172</ele>
        <time>2018-05-08T09:19:05Z</time>
      </trkpt>
      <trkpt lat="45.90878" lon="4.81584">
        <ele>172</ele>
        <time>2018-05-08T09:19:06Z</time>
      </trkpt>
      <trkpt lat="45.90887" lon="4.81584">
        <ele>171</ele>
        <time>2018-05-08T09:19:07Z</time>
      </trkpt>
      <trkpt lat="45.90896" lon="4.81584">
        <ele>171</ele>
        <time>2018-05-08T09:19:08Z</time>
      </trkpt>
      <trkpt lat="45.90906" lon="4.81581">
        <ele>170</ele>
        <time>2018-05-08T09:19:09Z</time>
      </trkpt>
      <trkpt lat="45.90915" lon="4.81581">
        <ele>170</ele>
        <time>2018-05-08T09:19:10Z</time>
      </trkpt>
      <trkpt lat="45.90924" lon="4.81582">
        <ele>170</ele>
        <time>2018-05-08T09:19:11Z</time>
      </trkpt>
      <trkpt lat="45.90932" lon="4.81583">
        <ele>170</ele>
        <time>2018-05-08T09:19:12Z</time>
      </trkpt>
      <trkpt lat="45.9094" lon="4.81584">
        <ele>170</ele>
        <time>2018-05-08T09:19:13Z</time>
      </trkpt>
      <trkpt lat="45.90948" lon="4.81587">
        <ele>169</ele>
        <time>2018-05-08T09:19:14Z</time>
      </trkpt>
      <trkpt lat="45.90955" lon="4.81589">
        <ele>169</ele>
        <time>2018-05-08T09:19:15Z</time>
      </trkpt>
      <trkpt lat="45.90962" lon="4.81591">
        <ele>169</ele>
        <time>2018-05-08T09:19:16Z</time>
      </trkpt>
      <trkpt lat="45.9097" lon="4.8159">
        <ele>169</ele>
        <time>2018-05-08T09:19:17Z</time>
      </trkpt>
      <trkpt lat="45.90978" lon="4.81591">
        <ele>169</ele>
        <time>2018-05-08T09:19:18Z</time>
      </trkpt>
      <trkpt lat="45.90984" lon="4.81593">
        <ele>169</ele>
        <time>2018-05-08T09:19:19Z</time>
      </trkpt>
      <trkpt lat="45.90992" lon="4.81594">
        <ele>169</ele>
        <time>2018-05-08T09:19:20Z</time>
      </trkpt>
      <trkpt lat="45.90999" lon="4.81595">
        <ele>169</ele>
        <time>2018-05-08T09:19:21Z</time>
      </trkpt>
      <trkpt lat="45.91005" lon="4.81599">
        <ele>169</ele>
        <time>2018-05-08T09:19:22Z</time>
      </trkpt>
      <trkpt lat="45.91011" lon="4.81599">
        <ele>169</ele>
        <time>2018-05-08T09:19:23Z</time>
      </trkpt>
      <trkpt lat="45.91018" lon="4.81602">
        <ele>169</ele>
        <time>2018-05-08T09:19:24Z</time>
      </trkpt>
      <trkpt lat="45.91025" lon="4.81603">
        <ele>169</ele>
        <time>2018-05-08T09:19:25Z</time>
      </trkpt>
      <trkpt lat="45.91032" lon="4.81604">
        <ele>169</ele>
        <time>2018-05-08T09:19:26Z</time>
      </trkpt>
      <trkpt lat="45.9104" lon="4.81606">
        <ele>169</ele>
        <time>2018-05-08T09:19:27Z</time>
      </trkpt>
      <trkpt lat="45.91048" lon="4.81607">
        <ele>169</ele>
        <time>2018-05-08T09:19:28Z</time>
      </trkpt>
      <trkpt lat="45.91055" lon="4.81607">
        <ele>169</ele>
        <time>2018-05-08T09:19:29Z</time>
      </trkpt>
      <trkpt lat="45.91061" lon="4.81607">
        <ele>169</ele>
        <time>2018-05-08T09:19:30Z</time>
      </trkpt>
      <trkpt lat="45.91068" lon="4.81608">
        <ele>169</ele>
        <time>2018-05-08T09:19:31Z</time>
      </trkpt>
      <trkpt lat="45.91074" lon="4.81609">
        <ele>169</ele>
        <time>2018-05-08T09:19:32Z</time>
      </trkpt>
      <trkpt lat="45.91081" lon="4.81609">
        <ele>169</ele>
        <time>2018-05-08T09:19:33Z</time>
      </trkpt>
      <trkpt lat="45.91087" lon="4.81608">
        <ele>169</ele>
        <time>2018-05-08T09:19:34Z</time>
      </trkpt>
      <trkpt lat="45.91095" lon="4.81609">
        <ele>169</ele>
        <time>2018-05-08T09:19:35Z</time>
      </trkpt>
      <trkpt lat="45.91102" lon="4.81607">
        <ele>169</ele>
        <time>2018-05-08T09:19:36Z</time>
      </trkpt>
      <trkpt lat="45.91108" lon="4.81608">
        <ele>170</ele>
        <time>2018-05-08T09:19:37Z</time>
      </trkpt>
      <trkpt lat="45.91115" lon="4.81608">
        <ele>170</ele>
        <time>2018-05-08T09:19:38Z</time>
      </trkpt>
      <trkpt lat="45.91122" lon="4.81609">
        <ele>170</ele>
        <time>2018-05-08T09:19:39Z</time>
      </trkpt>
      <trkpt lat="45.91128" lon="4.81609">
        <ele>170</ele>
        <time>2018-05-08T09:19:40Z</time>
      </trkpt>
      <trkpt lat="45.91134" lon="4.8161">
        <ele>170</ele>
        <time>2018-05-08T09:19:41Z</time>
      </trkpt>
      <trkpt lat="45.9114" lon="4.81609">
        <ele>170</ele>
        <time>2018-05-08T09:19:42Z</time>
      </trkpt>
      <trkpt lat="45.91147" lon="4.8161">
        <ele>170</ele>
        <time>2018-05-08T09:19:43Z</time>
      </trkpt>
      <trkpt lat="45.91154" lon="4.8161">
        <ele>170</ele>
        <time>2018-05-08T09:19:44Z</time>
      </trkpt>
      <trkpt lat="45.9116" lon="4.81609">
        <ele>170</ele>
        <time>2018-05-08T09:19:45Z</time>
      </trkpt>
      <trkpt lat="45.91168" lon="4.81611">
        <ele>170</ele>
        <time>2018-05-08T09:19:46Z</time>
      </trkpt>
      <trkpt lat="45.91174" lon="4.81613">
        <ele>170</ele>
        <time>2018-05-08T09:19:47Z</time>
      </trkpt>
      <trkpt lat="45.9118" lon="4.81614">
        <ele>170</ele>
        <time>2018-05-08T09:19:48Z</time>
      </trkpt>
      <trkpt lat="45.91187" lon="4.81613">
        <ele>170</ele>
        <time>2018-05-08T09:19:49Z</time>
      </trkpt>
      <trkpt lat="45.91192" lon="4.81614">
        <ele>170</ele>
        <time>2018-05-08T09:19:50Z</time>
      </trkpt>
      <trkpt lat="45.91198" lon="4.81614">
        <ele>170</ele>
        <time>2018-05-08T09:19:51Z</time>
      </trkpt>
      <trkpt lat="45.91204" lon="4.81614">
        <ele>170</ele>
        <time>2018-05-08T09:19:52Z</time>
      </trkpt>
      <trkpt lat="45.9121" lon="4.81612">
        <ele>170</ele>
        <time>2018-05-08T09:19:53Z</time>
      </trkpt>
      <trkpt lat="45.91216" lon="4.81612">
        <ele>170</ele>
        <time>2018-05-08T09:19:54Z</time>
      </trkpt>
      <trkpt lat="45.91223" lon="4.81612">
        <ele>170</ele>
        <time>2018-05-08T09:19:55Z</time>
      </trkpt>
      <trkpt lat="45.91229" lon="4.81613">
        <ele>170</ele>
        <time>2018-05-08T09:19:56Z</time>
      </trkpt>
      <trkpt lat="45.91235" lon="4.81613">
        <ele>170</ele>
        <time>2018-05-08T09:19:57Z</time>
      </trkpt>
      <trkpt lat="45.91243" lon="4.81613">
        <ele>170</ele>
        <time>2018-05-08T09:19:58Z</time>
      </trkpt>
      <trkpt lat="45.91249" lon="4.81614">
        <ele>170</ele>
        <time>2018-05-08T09:19:59Z</time>
      </trkpt>
      <trkpt lat="45.91255" lon="4.81613">
        <ele>170</ele>
        <time>2018-05-08T09:20:00Z</time>
      </trkpt>
      <trkpt lat="45.91262" lon="4.81613">
        <ele>170</ele>
        <time>2018-05-08T09:20:01Z</time>
      </trkpt>
      <trkpt lat="45.9127" lon="4.81612">
        <ele>170</ele>
        <time>2018-05-08T09:20:02Z</time>
      </trkpt>
      <trkpt lat="45.91276" lon="4.81612">
        <ele>170</ele>
        <time>2018-05-08T09:20:03Z</time>
      </trkpt>
      <trkpt lat="45.91282" lon="4.81612">
        <ele>170</ele>
        <time>2018-05-08T09:20:04Z</time>
      </trkpt>
      <trkpt lat="45.91288" lon="4.81612">
        <ele>170</ele>
        <time>2018-05-08T09:20:05Z</time>
      </trkpt>
      <trkpt lat="45.91295" lon="4.81613">
        <ele>170</ele>
        <time>2018-05-08T09:20:06Z</time>
      </trkpt>
      <trkpt lat="45.91302" lon="4.81613">
        <ele>170</ele>
        <time>2018-05-08T09:20:07Z</time>
      </trkpt>
      <trkpt lat="45.91308" lon="4.81613">
        <ele>170</ele>
        <time>2018-05-08T09:20:08Z</time>
      </trkpt>
      <trkpt lat="45.91316" lon="4.81612">
        <ele>170</ele>
        <time>2018-05-08T09:20:09Z</time>
      </trkpt>
      <trkpt lat="45.91323" lon="4.81612">
        <ele>170</ele>
        <time>2018-05-08T09:20:10Z</time>
      </trkpt>
      <trkpt lat="45.91328" lon="4.81613">
        <ele>170</ele>
        <time>2018-05-08T09:20:11Z</time>
      </trkpt>
      <trkpt lat="45.91334" lon="4.81614">
        <ele>170</ele>
        <time>2018-05-08T09:20:12Z</time>
      </trkpt>
      <trkpt lat="45.9134" lon="4.81614">
        <ele>170</ele>
        <time>2018-05-08T09:20:13Z</time>
      </trkpt>
      <trkpt lat="45.91347" lon="4.81614">
        <ele>170</ele>
        <time>2018-05-08T09:20:14Z</time>
      </trkpt>
      <trkpt lat="45.91353" lon="4.81614">
        <ele>170</ele>
        <time>2018-05-08T09:20:15Z</time>
      </trkpt>
      <trkpt lat="45.91359" lon="4.81614">
        <ele>170</ele>
        <time>2018-05-08T09:20:16Z</time>
      </trkpt>
      <trkpt lat="45.91365" lon="4.81613">
        <ele>170</ele>
        <time>2018-05-08T09:20:17Z</time>
      </trkpt>
      <trkpt lat="45.91371" lon="4.81612">
        <ele>170</ele>
        <time>2018-05-08T09:20:18Z</time>
      </trkpt>
      <trkpt lat="45.91377" lon="4.81612">
        <ele>170</ele>
        <time>2018-05-08T09:20:19Z</time>
      </trkpt>
      <trkpt lat="45.91385" lon="4.81612">
        <ele>170</ele>
        <time>2018-05-08T09:20:20Z</time>
      </trkpt>
      <trkpt lat="45.91391" lon="4.81612">
        <ele>170</ele>
        <time>2018-05-08T09:20:21Z</time>
      </trkpt>
      <trkpt lat="45.91396" lon="4.81611">
        <ele>170</ele>
        <time>2018-05-08T09:20:22Z</time>
      </trkpt>
      <trkpt lat="45.91402" lon="4.81611">
        <ele>170</ele>
        <time>2018-05-08T09:20:23Z</time>
      </trkpt>
      <trkpt lat="45.91408" lon="4.81611">
        <ele>170</ele>
        <time>2018-05-08T09:20:24Z</time>
      </trkpt>
      <trkpt lat="45.91415" lon="4.81612">
        <ele>170</ele>
        <time>2018-05-08T09:20:25Z</time>
      </trkpt>
      <trkpt lat="45.9142" lon="4.81612">
        <ele>170</ele>
        <time>2018-05-08T09:20:26Z</time>
      </trkpt>
      <trkpt lat="45.91427" lon="4.81612">
        <ele>170</ele>
        <time>2018-05-08T09:20:27Z</time>
      </trkpt>
      <trkpt lat="45.91432" lon="4.8161">
        <ele>170</ele>
        <time>2018-05-08T09:20:28Z</time>
      </trkpt>
      <trkpt lat="45.91438" lon="4.8161">
        <ele>170</ele>
        <time>2018-05-08T09:20:29Z</time>
      </trkpt>
      <trkpt lat="45.91444" lon="4.81609">
        <ele>170</ele>
        <time>2018-05-08T09:20:30Z</time>
      </trkpt>
      <trkpt lat="45.9145" lon="4.8161">
        <ele>170</ele>
        <time>2018-05-08T09:20:31Z</time>
      </trkpt>
      <trkpt lat="45.91456" lon="4.81609">
        <ele>170</ele>
        <time>2018-05-08T09:20:32Z</time>
      </trkpt>
      <trkpt lat="45.91461" lon="4.81608">
        <ele>170</ele>
        <time>2018-05-08T09:20:33Z</time>
      </trkpt>
      <trkpt lat="45.91467" lon="4.81607">
        <ele>170</ele>
        <time>2018-05-08T09:20:34Z</time>
      </trkpt>
      <trkpt lat="45.91472" lon="4.81606">
        <ele>170</ele>
        <time>2018-05-08T09:20:35Z</time>
      </trkpt>
      <trkpt lat="45.91478" lon="4.81606">
        <ele>170</ele>
        <time>2018-05-08T09:20:36Z</time>
      </trkpt>
      <trkpt lat="45.91484" lon="4.81604">
        <ele>170</ele>
        <time>2018-05-08T09:20:37Z</time>
      </trkpt>
      <trkpt lat="45.9149" lon="4.81605">
        <ele>170</ele>
        <time>2018-05-08T09:20:38Z</time>
      </trkpt>
      <trkpt lat="45.91495" lon="4.81603">
        <ele>169</ele>
        <time>2018-05-08T09:20:39Z</time>
      </trkpt>
      <trkpt lat="45.91501" lon="4.81603">
        <ele>170</ele>
        <time>2018-05-08T09:20:40Z</time>
      </trkpt>
      <trkpt lat="45.91507" lon="4.81602">
        <ele>170</ele>
        <time>2018-05-08T09:20:41Z</time>
      </trkpt>
      <trkpt lat="45.91513" lon="4.81601">
        <ele>170</ele>
        <time>2018-05-08T09:20:42Z</time>
      </trkpt>
      <trkpt lat="45.9152" lon="4.81602">
        <ele>170</ele>
        <time>2018-05-08T09:20:43Z</time>
      </trkpt>
      <trkpt lat="45.91526" lon="4.81601">
        <ele>170</ele>
        <time>2018-05-08T09:20:44Z</time>
      </trkpt>
      <trkpt lat="45.91532" lon="4.816">
        <ele>170</ele>
        <time>2018-05-08T09:20:45Z</time>
      </trkpt>
      <trkpt lat="45.91539" lon="4.81599">
        <ele>170</ele>
        <time>2018-05-08T09:20:46Z</time>
      </trkpt>
      <trkpt lat="45.91544" lon="4.81598">
        <ele>170</ele>
        <time>2018-05-08T09:20:47Z</time>
      </trkpt>
      <trkpt lat="45.91549" lon="4.81597">
        <ele>170</ele>
        <time>2018-05-08T09:20:48Z</time>
      </trkpt>
      <trkpt lat="45.91556" lon="4.81595">
        <ele>170</ele>
        <time>2018-05-08T09:20:49Z</time>
      </trkpt>
      <trkpt lat="45.91564" lon="4.81592">
        <ele>170</ele>
        <time>2018-05-08T09:20:50Z</time>
      </trkpt>
      <trkpt lat="45.9157" lon="4.81591">
        <ele>170</ele>
        <time>2018-05-08T09:20:51Z</time>
      </trkpt>
      <trkpt lat="45.91575" lon="4.81591">
        <ele>170</ele>
        <time>2018-05-08T09:20:52Z</time>
      </trkpt>
      <trkpt lat="45.91583" lon="4.81591">
        <ele>170</ele>
        <time>2018-05-08T09:20:53Z</time>
      </trkpt>
      <trkpt lat="45.91589" lon="4.81588">
        <ele>170</ele>
        <time>2018-05-08T09:20:54Z</time>
      </trkpt>
      <trkpt lat="45.91596" lon="4.81586">
        <ele>170</ele>
        <time>2018-05-08T09:20:55Z</time>
      </trkpt>
      <trkpt lat="45.91602" lon="4.81584">
        <ele>170</ele>
        <time>2018-05-08T09:20:56Z</time>
      </trkpt>
      <trkpt lat="45.91608" lon="4.81584">
        <ele>170</ele>
        <time>2018-05-08T09:20:57Z</time>
      </trkpt>
      <trkpt lat="45.91615" lon="4.81582">
        <ele>170</ele>
        <time>2018-05-08T09:20:58Z</time>
      </trkpt>
      <trkpt lat="45.91621" lon="4.81581">
        <ele>170</ele>
        <time>2018-05-08T09:20:59Z</time>
      </trkpt>
      <trkpt lat="45.91628" lon="4.81579">
        <ele>170</ele>
        <time>2018-05-08T09:21:00Z</time>
      </trkpt>
      <trkpt lat="45.91634" lon="4.81578">
        <ele>170</ele>
        <time>2018-05-08T09:21:01Z</time>
      </trkpt>
      <trkpt lat="45.9164" lon="4.81575">
        <ele>170</ele>
        <time>2018-05-08T09:21:02Z</time>
      </trkpt>
      <trkpt lat="45.91646" lon="4.81573">
        <ele>170</ele>
        <time>2018-05-08T09:21:03Z</time>
      </trkpt>
      <trkpt lat="45.91652" lon="4.81572">
        <ele>170</ele>
        <time>2018-05-08T09:21:04Z</time>
      </trkpt>
      <trkpt lat="45.91658" lon="4.81571">
        <ele>170</ele>
        <time>2018-05-08T09:21:05Z</time>
      </trkpt>
      <trkpt lat="45.91664" lon="4.8157">
        <ele>170</ele>
        <time>2018-05-08T09:21:06Z</time>
      </trkpt>
      <trkpt lat="45.91671" lon="4.81569">
        <ele>170</ele>
        <time>2018-05-08T09:21:07Z</time>
      </trkpt>
      <trkpt lat="45.91677" lon="4.81569">
        <ele>170</ele>
        <time>2018-05-08T09:21:08Z</time>
      </trkpt>
      <trkpt lat="45.91684" lon="4.81566">
        <ele>170</ele>
        <time>2018-05-08T09:21:09Z</time>
      </trkpt>
      <trkpt lat="45.9169" lon="4.81565">
        <ele>169</ele>
        <time>2018-05-08T09:21:10Z</time>
      </trkpt>
      <trkpt lat="45.91697" lon="4.81564">
        <ele>169</ele>
        <time>2018-05-08T09:21:11Z</time>
      </trkpt>
      <trkpt lat="45.91703" lon="4.81563">
        <ele>169</ele>
        <time>2018-05-08T09:21:12Z</time>
      </trkpt>
      <trkpt lat="45.91709" lon="4.81561">
        <ele>169</ele>
        <time>2018-05-08T09:21:13Z</time>
      </trkpt>
      <trkpt lat="45.91715" lon="4.81561">
        <ele>169</ele>
        <time>2018-05-08T09:21:14Z</time>
      </trkpt>
      <trkpt lat="45.91722" lon="4.81559">
        <ele>169</ele>
        <time>2018-05-08T09:21:15Z</time>
      </trkpt>
      <trkpt lat="45.91728" lon="4.81557">
        <ele>169</ele>
        <time>2018-05-08T09:21:16Z</time>
      </trkpt>
      <trkpt lat="45.91735" lon="4.81555">
        <ele>169</ele>
        <time>2018-05-08T09:21:17Z</time>
      </trkpt>
      <trkpt lat="45.91741" lon="4.81552">
        <ele>169</ele>
        <time>2018-05-08T09:21:18Z</time>
      </trkpt>
      <trkpt lat="45.91747" lon="4.81549">
        <ele>169</ele>
        <time>2018-05-08T09:21:19Z</time>
      </trkpt>
      <trkpt lat="45.91754" lon="4.81547">
        <ele>168</ele>
        <time>2018-05-08T09:21:20Z</time>
      </trkpt>
      <trkpt lat="45.91761" lon="4.81545">
        <ele>168</ele>
        <time>2018-05-08T09:21:21Z</time>
      </trkpt>
      <trkpt lat="45.91766" lon="4.81542">
        <ele>168</ele>
        <time>2018-05-08T09:21:22Z</time>
      </trkpt>
      <trkpt lat="45.91772" lon="4.81542">
        <ele>168</ele>
        <time>2018-05-08T09:21:23Z</time>
      </trkpt>
      <trkpt lat="45.91778" lon="4.8154">
        <ele>169</ele>
        <time>2018-05-08T09:21:24Z</time>
      </trkpt>
      <trkpt lat="45.91783" lon="4.81537">
        <ele>169</ele>
        <time>2018-05-08T09:21:25Z</time>
      </trkpt>
      <trkpt lat="45.9179" lon="4.81535">
        <ele>169</ele>
        <time>2018-05-08T09:21:26Z</time>
      </trkpt>
      <trkpt lat="45.91797" lon="4.81531">
        <ele>168</ele>
        <time>2018-05-08T09:21:27Z</time>
      </trkpt>
      <trkpt lat="45.91804" lon="4.8153">
        <ele>168</ele>
        <time>2018-05-08T09:21:28Z</time>
      </trkpt>
      <trkpt lat="45.91812" lon="4.81527">
        <ele>168</ele>
        <time>2018-05-08T09:21:29Z</time>
      </trkpt>
      <trkpt lat="45.91818" lon="4.81524">
        <ele>168</ele>
        <time>2018-05-08T09:21:30Z</time>
      </trkpt>
      <trkpt lat="45.91825" lon="4.81522">
        <ele>168</ele>
        <time>2018-05-08T09:21:31Z</time>
      </trkpt>
      <trkpt lat="45.91832" lon="4.8152">
        <ele>168</ele>
        <time>2018-05-08T09:21:32Z</time>
      </trkpt>
      <trkpt lat="45.91839" lon="4.81518">
        <ele>169</ele>
        <time>2018-05-08T09:21:33Z</time>
      </trkpt>
      <trkpt lat="45.91846" lon="4.81515">
        <ele>169</ele>
        <time>2018-05-08T09:21:34Z</time>
      </trkpt>
      <trkpt lat="45.91851" lon="4.81515">
        <ele>169</ele>
        <time>2018-05-08T09:21:35Z</time>
      </trkpt>
      <trkpt lat="45.91858" lon="4.81513">
        <ele>169</ele>
        <time>2018-05-08T09:21:36Z</time>
      </trkpt>
      <trkpt lat="45.91864" lon="4.81511">
        <ele>169</ele>
        <time>2018-05-08T09:21:37Z</time>
      </trkpt>
      <trkpt lat="45.9187" lon="4.81512">
        <ele>169</ele>
        <time>2018-05-08T09:21:38Z</time>
      </trkpt>
      <trkpt lat="45.91876" lon="4.8151">
        <ele>169</ele>
        <time>2018-05-08T09:21:39Z</time>
      </trkpt>
      <trkpt lat="45.91882" lon="4.81507">
        <ele>169</ele>
        <time>2018-05-08T09:21:40Z</time>
      </trkpt>
      <trkpt lat="45.91888" lon="4.81504">
        <ele>169</ele>
        <time>2018-05-08T09:21:41Z</time>
      </trkpt>
      <trkpt lat="45.91893" lon="4.81502">
        <ele>169</ele>
        <time>2018-05-08T09:21:42Z</time>
      </trkpt>
      <trkpt lat="45.91899" lon="4.81499">
        <ele>169</ele>
        <time>2018-05-08T09:21:43Z</time>
      </trkpt>
      <trkpt lat="45.91905" lon="4.81497">
        <ele>169</ele>
        <time>2018-05-08T09:21:44Z</time>
      </trkpt>
      <trkpt lat="45.91911" lon="4.81495">
        <ele>170</ele>
        <time>2018-05-08T09:21:45Z</time>
      </trkpt>
      <trkpt lat="45.91918" lon="4.81494">
        <ele>170</ele>
        <time>2018-05-08T09:21:46Z</time>
      </trkpt>
      <trkpt lat="45.91924" lon="4.81491">
        <ele>170</ele>
        <time>2018-05-08T09:21:47Z</time>
      </trkpt>
      <trkpt lat="45.9193" lon="4.81488">
        <ele>170</ele>
        <time>2018-05-08T09:21:48Z</time>
      </trkpt>
      <trkpt lat="45.91937" lon="4.81486">
        <ele>170</ele>
        <time>2018-05-08T09:21:49Z</time>
      </trkpt>
      <trkpt lat="45.91942" lon="4.81484">
        <ele>170</ele>
        <time>2018-05-08T09:21:50Z</time>
      </trkpt>
      <trkpt lat="45.91949" lon="4.81482">
        <ele>170</ele>
        <time>2018-05-08T09:21:51Z</time>
      </trkpt>
      <trkpt lat="45.91954" lon="4.81479">
        <ele>170</ele>
        <time>2018-05-08T09:21:52Z</time>
      </trkpt>
      <trkpt lat="45.91961" lon="4.81476">
        <ele>170</ele>
        <time>2018-05-08T09:21:53Z</time>
      </trkpt>
      <trkpt lat="45.91966" lon="4.81474">
        <ele>170</ele>
        <time>2018-05-08T09:21:54Z</time>
      </trkpt>
      <trkpt lat="45.91972" lon="4.81472">
        <ele>170</ele>
        <time>2018-05-08T09:21:55Z</time>
      </trkpt>
      <trkpt lat="45.91978" lon="4.8147">
        <ele>170</ele>
        <time>2018-05-08T09:21:56Z</time>
      </trkpt>
      <trkpt lat="45.91983" lon="4.81467">
        <ele>170</ele>
        <time>2018-05-08T09:21:57Z</time>
      </trkpt>
      <trkpt lat="45.91989" lon="4.81465">
        <ele>170</ele>
        <time>2018-05-08T09:21:58Z</time>
      </trkpt>
      <trkpt lat="45.91995" lon="4.81462">
        <ele>170</ele>
        <time>2018-05-08T09:21:59Z</time>
      </trkpt>
      <trkpt lat="45.92001" lon="4.81459">
        <ele>170</ele>
        <time>2018-05-08T09:22:00Z</time>
      </trkpt>
      <trkpt lat="45.92008" lon="4.81457">
        <ele>170</ele>
        <time>2018-05-08T09:22:01Z</time>
      </trkpt>
      <trkpt lat="45.92014" lon="4.81454">
        <ele>170</ele>
        <time>2018-05-08T09:22:02Z</time>
      </trkpt>
      <trkpt lat="45.9202" lon="4.81449">
        <ele>170</ele>
        <time>2018-05-08T09:22:03Z</time>
      </trkpt>
      <trkpt lat="45.92026" lon="4.81445">
        <ele>170</ele>
        <time>2018-05-08T09:22:04Z</time>
      </trkpt>
      <trkpt lat="45.92031" lon="4.81442">
        <ele>170</ele>
        <time>2018-05-08T09:22:05Z</time>
      </trkpt>
      <trkpt lat="45.92036" lon="4.81439">
        <ele>170</ele>
        <time>2018-05-08T09:22:06Z</time>
      </trkpt>
      <trkpt lat="45.92041" lon="4.81436">
        <ele>170</ele>
        <time>2018-05-08T09:22:07Z</time>
      </trkpt>
      <trkpt lat="45.92047" lon="4.81433">
        <ele>170</ele>
        <time>2018-05-08T09:22:08Z</time>
      </trkpt>
      <trkpt lat="45.92053" lon="4.8143">
        <ele>170</ele>
        <time>2018-05-08T09:22:09Z</time>
      </trkpt>
      <trkpt lat="45.92059" lon="4.81425">
        <ele>170</ele>
        <time>2018-05-08T09:22:10Z</time>
      </trkpt>
      <trkpt lat="45.92064" lon="4.81423">
        <ele>170</ele>
        <time>2018-05-08T09:22:11Z</time>
      </trkpt>
      <trkpt lat="45.9207" lon="4.8142">
        <ele>170</ele>
        <time>2018-05-08T09:22:12Z</time>
      </trkpt>
      <trkpt lat="45.92075" lon="4.81417">
        <ele>170</ele>
        <time>2018-05-08T09:22:13Z</time>
      </trkpt>
      <trkpt lat="45.9208" lon="4.81414">
        <ele>170</ele>
        <time>2018-05-08T09:22:14Z</time>
      </trkpt>
      <trkpt lat="45.92086" lon="4.81412">
        <ele>170</ele>
        <time>2018-05-08T09:22:15Z</time>
      </trkpt>
      <trkpt lat="45.92091" lon="4.81408">
        <ele>170</ele>
        <time>2018-05-08T09:22:16Z</time>
      </trkpt>
      <trkpt lat="45.92097" lon="4.81404">
        <ele>170</ele>
        <time>2018-05-08T09:22:17Z</time>
      </trkpt>
      <trkpt lat="45.92102" lon="4.81402">
        <ele>170</ele>
        <time>2018-05-08T09:22:18Z</time>
      </trkpt>
      <trkpt lat="45.92107" lon="4.81399">
        <ele>170</ele>
        <time>2018-05-08T09:22:19Z</time>
      </trkpt>
      <trkpt lat="45.92113" lon="4.81396">
        <ele>170</ele>
        <time>2018-05-08T09:22:20Z</time>
      </trkpt>
      <trkpt lat="45.92119" lon="4.81394">
        <ele>170</ele>
        <time>2018-05-08T09:22:21Z</time>
      </trkpt>
      <trkpt lat="45.92123" lon="4.81393">
        <ele>170</ele>
        <time>2018-05-08T09:22:22Z</time>
      </trkpt>
      <trkpt lat="45.92129" lon="4.81392">
        <ele>170</ele>
        <time>2018-05-08T09:22:23Z</time>
      </trkpt>
      <trkpt lat="45.92135" lon="4.8139">
        <ele>170</ele>
        <time>2018-05-08T09:22:24Z</time>
      </trkpt>
      <trkpt lat="45.9214" lon="4.81389">
        <ele>170</ele>
        <time>2018-05-08T09:22:25Z</time>
      </trkpt>
      <trkpt lat="45.92145" lon="4.81388">
        <ele>170</ele>
        <time>2018-05-08T09:22:26Z</time>
      </trkpt>
      <trkpt lat="45.92151" lon="4.81385">
        <ele>170</ele>
        <time>2018-05-08T09:22:27Z</time>
      </trkpt>
      <trkpt lat="45.92157" lon="4.81386">
        <ele>170</ele>
        <time>2018-05-08T09:22:28Z</time>
      </trkpt>
      <trkpt lat="45.92162" lon="4.81386">
        <ele>170</ele>
        <time>2018-05-08T09:22:29Z</time>
      </trkpt>
      <trkpt lat="45.92167" lon="4.81387">
        <ele>170</ele>
        <time>2018-05-08T09:22:30Z</time>
      </trkpt>
      <trkpt lat="45.92172" lon="4.81388">
        <ele>170</ele>
        <time>2018-05-08T09:22:31Z</time>
      </trkpt>
      <trkpt lat="45.92177" lon="4.81393">
        <ele>170</ele>
        <time>2018-05-08T09:22:32Z</time>
      </trkpt>
      <trkpt lat="45.92182" lon="4.81395">
        <ele>170</ele>
        <time>2018-05-08T09:22:33Z</time>
      </trkpt>
      <trkpt lat="45.92188" lon="4.81397">
        <ele>170</ele>
        <time>2018-05-08T09:22:34Z</time>
      </trkpt>
      <trkpt lat="45.92194" lon="4.81395">
        <ele>170</ele>
        <time>2018-05-08T09:22:35Z</time>
      </trkpt>
      <trkpt lat="45.92197" lon="4.81392">
        <ele>170</ele>
        <time>2018-05-08T09:22:36Z</time>
      </trkpt>
      <trkpt lat="45.92202" lon="4.81386">
        <ele>170</ele>
        <time>2018-05-08T09:22:37Z</time>
      </trkpt>
      <trkpt lat="45.92206" lon="4.81378">
        <ele>170</ele>
        <time>2018-05-08T09:22:38Z</time>
      </trkpt>
      <trkpt lat="45.92209" lon="4.8137">
        <ele>171</ele>
        <time>2018-05-08T09:22:39Z</time>
      </trkpt>
      <trkpt lat="45.92211" lon="4.81362">
        <ele>171</ele>
        <time>2018-05-08T09:22:40Z</time>
      </trkpt>
      <trkpt lat="45.92214" lon="4.81354">
        <ele>171</ele>
        <time>2018-05-08T09:22:41Z</time>
      </trkpt>
      <trkpt lat="45.92219" lon="4.81347">
        <ele>171</ele>
        <time>2018-05-08T09:22:42Z</time>
      </trkpt>
      <trkpt lat="45.92224" lon="4.81341">
        <ele>171</ele>
        <time>2018-05-08T09:22:43Z</time>
      </trkpt>
      <trkpt lat="45.92229" lon="4.81336">
        <ele>171</ele>
        <time>2018-05-08T09:22:44Z</time>
      </trkpt>
      <trkpt lat="45.92234" lon="4.8133">
        <ele>171</ele>
        <time>2018-05-08T09:22:45Z</time>
      </trkpt>
      <trkpt lat="45.9224" lon="4.81324">
        <ele>171</ele>
        <time>2018-05-08T09:22:46Z</time>
      </trkpt>
      <trkpt lat="45.92246" lon="4.81318">
        <ele>171</ele>
        <time>2018-05-08T09:22:47Z</time>
      </trkpt>
      <trkpt lat="45.92252" lon="4.81313">
        <ele>171</ele>
        <time>2018-05-08T09:22:48Z</time>
      </trkpt>
      <trkpt lat="45.92258" lon="4.81307">
        <ele>171</ele>
        <time>2018-05-08T09:22:49Z</time>
      </trkpt>
      <trkpt lat="45.92264" lon="4.81303">
        <ele>171</ele>
        <time>2018-05-08T09:22:50Z</time>
      </trkpt>
      <trkpt lat="45.9227" lon="4.81298">
        <ele>170</ele>
        <time>2018-05-08T09:22:51Z</time>
      </trkpt>
      <trkpt lat="45.92277" lon="4.81293">
        <ele>170</ele>
        <time>2018-05-08T09:22:52Z</time>
      </trkpt>
      <trkpt lat="45.92283" lon="4.81288">
        <ele>170</ele>
        <time>2018-05-08T09:22:53Z</time>
      </trkpt>
      <trkpt lat="45.9229" lon="4.81285">
        <ele>170</ele>
        <time>2018-05-08T09:22:54Z</time>
      </trkpt>
      <trkpt lat="45.92296" lon="4.8128">
        <ele>170</ele>
        <time>2018-05-08T09:22:55Z</time>
      </trkpt>
      <trkpt lat="45.92302" lon="4.81277">
        <ele>170</ele>
        <time>2018-05-08T09:22:56Z</time>
      </trkpt>
      <trkpt lat="45.92308" lon="4.81273">
        <ele>170</ele>
        <time>2018-05-08T09:22:57Z</time>
      </trkpt>
      <trkpt lat="45.92312" lon="4.81269">
        <ele>170</ele>
        <time>2018-05-08T09:22:58Z</time>
      </trkpt>
      <trkpt lat="45.92319" lon="4.81265">
        <ele>170</ele>
        <time>2018-05-08T09:22:59Z</time>
      </trkpt>
      <trkpt lat="45.92325" lon="4.81261">
        <ele>170</ele>
        <time>2018-05-08T09:23:00Z</time>
      </trkpt>
      <trkpt lat="45.92331" lon="4.81258">
        <ele>169</ele>
        <time>2018-05-08T09:23:01Z</time>
      </trkpt>
      <trkpt lat="45.92337" lon="4.81254">
        <ele>169</ele>
        <time>2018-05-08T09:23:02Z</time>
      </trkpt>
      <trkpt lat="45.92341" lon="4.8125">
        <ele>169</ele>
        <time>2018-05-08T09:23:03Z</time>
      </trkpt>
      <trkpt lat="45.92347" lon="4.81245">
        <ele>169</ele>
        <time>2018-05-08T09:23:04Z</time>
      </trkpt>
      <trkpt lat="45.92354" lon="4.81242">
        <ele>169</ele>
        <time>2018-05-08T09:23:05Z</time>
      </trkpt>
      <trkpt lat="45.92361" lon="4.81236">
        <ele>170</ele>
        <time>2018-05-08T09:23:06Z</time>
      </trkpt>
      <trkpt lat="45.92367" lon="4.81233">
        <ele>170</ele>
        <time>2018-05-08T09:23:07Z</time>
      </trkpt>
      <trkpt lat="45.92373" lon="4.8123">
        <ele>170</ele>
        <time>2018-05-08T09:23:08Z</time>
      </trkpt>
      <trkpt lat="45.9238" lon="4.81226">
        <ele>170</ele>
        <time>2018-05-08T09:23:09Z</time>
      </trkpt>
      <trkpt lat="45.92386" lon="4.81222">
        <ele>170</ele>
        <time>2018-05-08T09:23:10Z</time>
      </trkpt>
      <trkpt lat="45.92392" lon="4.81218">
        <ele>170</ele>
        <time>2018-05-08T09:23:11Z</time>
      </trkpt>
      <trkpt lat="45.92397" lon="4.81213">
        <ele>170</ele>
        <time>2018-05-08T09:23:12Z</time>
      </trkpt>
      <trkpt lat="45.92403" lon="4.8121">
        <ele>170</ele>
        <time>2018-05-08T09:23:13Z</time>
      </trkpt>
      <trkpt lat="45.92409" lon="4.81208">
        <ele>170</ele>
        <time>2018-05-08T09:23:14Z</time>
      </trkpt>
      <trkpt lat="45.92415" lon="4.81205">
        <ele>170</ele>
        <time>2018-05-08T09:23:15Z</time>
      </trkpt>
      <trkpt lat="45.92422" lon="4.81202">
        <ele>171</ele>
        <time>2018-05-08T09:23:16Z</time>
      </trkpt>
      <trkpt lat="45.92429" lon="4.81199">
        <ele>171</ele>
        <time>2018-05-08T09:23:17Z</time>
      </trkpt>
      <trkpt lat="45.92435" lon="4.81198">
        <ele>171</ele>
        <time>2018-05-08T09:23:18Z</time>
      </trkpt>
      <trkpt lat="45.92442" lon="4.81196">
        <ele>171</ele>
        <time>2018-05-08T09:23:19Z</time>
      </trkpt>
      <trkpt lat="45.92449" lon="4.81195">
        <ele>171</ele>
        <time>2018-05-08T09:23:20Z</time>
      </trkpt>
      <trkpt lat="45.92456" lon="4.81195">
        <ele>171</ele>
        <time>2018-05-08T09:23:21Z</time>
      </trkpt>
      <trkpt lat="45.92462" lon="4.81195">
        <ele>171</ele>
        <time>2018-05-08T09:23:22Z</time>
      </trkpt>
      <trkpt lat="45.92468" lon="4.81195">
        <ele>171</ele>
        <time>2018-05-08T09:23:23Z</time>
      </trkpt>
      <trkpt lat="45.92475" lon="4.81194">
        <ele>171</ele>
        <time>2018-05-08T09:23:24Z</time>
      </trkpt>
      <trkpt lat="45.92481" lon="4.81194">
        <ele>171</ele>
        <time>2018-05-08T09:23:25Z</time>
      </trkpt>
      <trkpt lat="45.92488" lon="4.81194">
        <ele>171</ele>
        <time>2018-05-08T09:23:26Z</time>
      </trkpt>
      <trkpt lat="45.92494" lon="4.81194">
        <ele>171</ele>
        <time>2018-05-08T09:23:27Z</time>
      </trkpt>
      <trkpt lat="45.925" lon="4.81194">
        <ele>171</ele>
        <time>2018-05-08T09:23:28Z</time>
      </trkpt>
      <trkpt lat="45.92506" lon="4.81194">
        <ele>171</ele>
        <time>2018-05-08T09:23:29Z</time>
      </trkpt>
      <trkpt lat="45.92513" lon="4.81194">
        <ele>171</ele>
        <time>2018-05-08T09:23:30Z</time>
      </trkpt>
      <trkpt lat="45.92518" lon="4.81194">
        <ele>171</ele>
        <time>2018-05-08T09:23:31Z</time>
      </trkpt>
      <trkpt lat="45.92525" lon="4.81193">
        <ele>171</ele>
        <time>2018-05-08T09:23:32Z</time>
      </trkpt>
      <trkpt lat="45.9253" lon="4.81193">
        <ele>171</ele>
        <time>2018-05-08T09:23:33Z</time>
      </trkpt>
      <trkpt lat="45.92537" lon="4.81193">
        <ele>171</ele>
        <time>2018-05-08T09:23:34Z</time>
      </trkpt>
      <trkpt lat="45.92544" lon="4.81193">
        <ele>170</ele>
        <time>2018-05-08T09:23:35Z</time>
      </trkpt>
      <trkpt lat="45.9255" lon="4.81192">
        <ele>170</ele>
        <time>2018-05-08T09:23:36Z</time>
      </trkpt>
      <trkpt lat="45.92557" lon="4.81191">
        <ele>170</ele>
        <time>2018-05-08T09:23:37Z</time>
      </trkpt>
      <trkpt lat="45.92563" lon="4.81189">
        <ele>170</ele>
        <time>2018-05-08T09:23:38Z</time>
      </trkpt>
      <trkpt lat="45.9257" lon="4.81188">
        <ele>170</ele>
        <time>2018-05-08T09:23:39Z</time>
      </trkpt>
      <trkpt lat="45.92577" lon="4.81188">
        <ele>170</ele>
        <time>2018-05-08T09:23:40Z</time>
      </trkpt>
      <trkpt lat="45.92583" lon="4.81187">
        <ele>170</ele>
        <time>2018-05-08T09:23:41Z</time>
      </trkpt>
      <trkpt lat="45.92589" lon="4.81186">
        <ele>170</ele>
        <time>2018-05-08T09:23:42Z</time>
      </trkpt>
      <trkpt lat="45.92595" lon="4.81185">
        <ele>170</ele>
        <time>2018-05-08T09:23:43Z</time>
      </trkpt>
      <trkpt lat="45.92602" lon="4.81185">
        <ele>170</ele>
        <time>2018-05-08T09:23:44Z</time>
      </trkpt>
      <trkpt lat="45.92608" lon="4.81185">
        <ele>170</ele>
        <time>2018-05-08T09:23:45Z</time>
      </trkpt>
      <trkpt lat="45.92615" lon="4.81183">
        <ele>170</ele>
        <time>2018-05-08T09:23:46Z</time>
      </trkpt>
      <trkpt lat="45.92621" lon="4.81183">
        <ele>170</ele>
        <time>2018-05-08T09:23:47Z</time>
      </trkpt>
      <trkpt lat="45.92627" lon="4.81181">
        <ele>171</ele>
        <time>2018-05-08T09:23:48Z</time>
      </trkpt>
      <trkpt lat="45.92633" lon="4.8118">
        <ele>171</ele>
        <time>2018-05-08T09:23:49Z</time>
      </trkpt>
      <trkpt lat="45.92638" lon="4.81179">
        <ele>171</ele>
        <time>2018-05-08T09:23:50Z</time>
      </trkpt>
      <trkpt lat="45.92644" lon="4.81179">
        <ele>171</ele>
        <time>2018-05-08T09:23:51Z</time>
      </trkpt>
      <trkpt lat="45.92648" lon="4.8118">
        <ele>171</ele>
        <time>2018-05-08T09:23:52Z</time>
      </trkpt>
      <trkpt lat="45.92654" lon="4.81179">
        <ele>171</ele>
        <time>2018-05-08T09:23:53Z</time>
      </trkpt>
      <trkpt lat="45.9266" lon="4.81178">
        <ele>171</ele>
        <time>2018-05-08T09:23:54Z</time>
      </trkpt>
      <trkpt lat="45.92666" lon="4.81177">
        <ele>171</ele>
        <time>2018-05-08T09:23:55Z</time>
      </trkpt>
      <trkpt lat="45.92671" lon="4.81175">
        <ele>171</ele>
        <time>2018-05-08T09:23:56Z</time>
      </trkpt>
      <trkpt lat="45.92677" lon="4.81176">
        <ele>171</ele>
        <time>2018-05-08T09:23:57Z</time>
      </trkpt>
      <trkpt lat="45.92682" lon="4.81176">
        <ele>171</ele>
        <time>2018-05-08T09:23:58Z</time>
      </trkpt>
      <trkpt lat="45.92688" lon="4.81175">
        <ele>171</ele>
        <time>2018-05-08T09:23:59Z</time>
      </trkpt>
      <trkpt lat="45.92694" lon="4.81173">
        <ele>170</ele>
        <time>2018-05-08T09:24:00Z</time>
      </trkpt>
      <trkpt lat="45.92699" lon="4.81171">
        <ele>170</ele>
        <time>2018-05-08T09:24:01Z</time>
      </trkpt>
      <trkpt lat="45.92707" lon="4.81172">
        <ele>170</ele>
        <time>2018-05-08T09:24:02Z</time>
      </trkpt>
      <trkpt lat="45.92711" lon="4.81174">
        <ele>170</ele>
        <time>2018-05-08T09:24:03Z</time>
      </trkpt>
      <trkpt lat="45.92715" lon="4.81172">
        <ele>170</ele>
        <time>2018-05-08T09:24:04Z</time>
      </trkpt>
      <trkpt lat="45.92722" lon="4.81171">
        <ele>170</ele>
        <time>2018-05-08T09:24:05Z</time>
      </trkpt>
      <trkpt lat="45.92727" lon="4.81171">
        <ele>170</ele>
        <time>2018-05-08T09:24:06Z</time>
      </trkpt>
      <trkpt lat="45.92732" lon="4.8117">
        <ele>170</ele>
        <time>2018-05-08T09:24:07Z</time>
      </trkpt>
      <trkpt lat="45.92737" lon="4.81169">
        <ele>170</ele>
        <time>2018-05-08T09:24:08Z</time>
      </trkpt>
      <trkpt lat="45.92742" lon="4.81169">
        <ele>170</ele>
        <time>2018-05-08T09:24:09Z</time>
      </trkpt>
      <trkpt lat="45.92748" lon="4.81169">
        <ele>170</ele>
        <time>2018-05-08T09:24:10Z</time>
      </trkpt>
      <trkpt lat="45.92752" lon="4.81173">
        <ele>170</ele>
        <time>2018-05-08T09:24:11Z</time>
      </trkpt>
      <trkpt lat="45.92757" lon="4.81176">
        <ele>170</ele>
        <time>2018-05-08T09:24:12Z</time>
      </trkpt>
      <trkpt lat="45.92761" lon="4.81181">
        <ele>170</ele>
        <time>2018-05-08T09:24:13Z</time>
      </trkpt>
      <trkpt lat="45.92766" lon="4.81184">
        <ele>170</ele>
        <time>2018-05-08T09:24:14Z</time>
      </trkpt>
      <trkpt lat="45.92772" lon="4.81187">
        <ele>170</ele>
        <time>2018-05-08T09:24:15Z</time>
      </trkpt>
      <trkpt lat="45.92778" lon="4.81185">
        <ele>170</ele>
        <time>2018-05-08T09:24:16Z</time>
      </trkpt>
      <trkpt lat="45.92783" lon="4.81181">
        <ele>170</ele>
        <time>2018-05-08T09:24:17Z</time>
      </trkpt>
      <trkpt lat="45.92787" lon="4.81176">
        <ele>170</ele>
        <time>2018-05-08T09:24:18Z</time>
      </trkpt>
      <trkpt lat="45.9279" lon="4.81169">
        <ele>170</ele>
        <time>2018-05-08T09:24:19Z</time>
      </trkpt>
      <trkpt lat="45.92793" lon="4.81161">
        <ele>170</ele>
        <time>2018-05-08T09:24:20Z</time>
      </trkpt>
      <trkpt lat="45.92793" lon="4.81154">
        <ele>170</ele>
        <time>2018-05-08T09:24:21Z</time>
      </trkpt>
      <trkpt lat="45.92794" lon="4.81145">
        <ele>170</ele>
        <time>2018-05-08T09:24:22Z</time>
      </trkpt>
      <trkpt lat="45.92795" lon="4.81137">
        <ele>170</ele>
        <time>2018-05-08T09:24:23Z</time>
      </trkpt>
      <trkpt lat="45.92802" lon="4.8113">
        <ele>170</ele>
        <time>2018-05-08T09:24:24Z</time>
      </trkpt>
      <trkpt lat="45.92804" lon="4.81123">
        <ele>170</ele>
        <time>2018-05-08T09:24:25Z</time>
      </trkpt>
      <trkpt lat="45.92808" lon="4.81117">
        <ele>170</ele>
        <time>2018-05-08T09:24:26Z</time>
      </trkpt>
      <trkpt lat="45.92812" lon="4.81109">
        <ele>170</ele>
        <time>2018-05-08T09:24:27Z</time>
      </trkpt>
      <trkpt lat="45.92817" lon="4.81101">
        <ele>170</ele>
        <time>2018-05-08T09:24:28Z</time>
      </trkpt>
      <trkpt lat="45.92822" lon="4.81094">
        <ele>170</ele>
        <time>2018-05-08T09:24:29Z</time>
      </trkpt>
      <trkpt lat="45.92826" lon="4.81088">
        <ele>170</ele>
        <time>2018-05-08T09:24:30Z</time>
      </trkpt>
      <trkpt lat="45.9283" lon="4.81082">
        <ele>170</ele>
        <time>2018-05-08T09:24:31Z</time>
      </trkpt>
      <trkpt lat="45.92835" lon="4.81075">
        <ele>170</ele>
        <time>2018-05-08T09:24:32Z</time>
      </trkpt>
      <trkpt lat="45.92839" lon="4.81068">
        <ele>170</ele>
        <time>2018-05-08T09:24:33Z</time>
      </trkpt>
      <trkpt lat="45.92842" lon="4.81061">
        <ele>169</ele>
        <time>2018-05-08T09:24:34Z</time>
      </trkpt>
      <trkpt lat="45.92846" lon="4.81054">
        <ele>169</ele>
        <time>2018-05-08T09:24:35Z</time>
      </trkpt>
      <trkpt lat="45.9285" lon="4.81046">
        <ele>169</ele>
        <time>2018-05-08T09:24:36Z</time>
      </trkpt>
      <trkpt lat="45.92853" lon="4.8104">
        <ele>169</ele>
        <time>2018-05-08T09:24:37Z</time>
      </trkpt>
      <trkpt lat="45.92857" lon="4.81033">
        <ele>169</ele>
        <time>2018-05-08T09:24:38Z</time>
      </trkpt>
      <trkpt lat="45.9286" lon="4.81025">
        <ele>169</ele>
        <time>2018-05-08T09:24:39Z</time>
      </trkpt>
      <trkpt lat="45.92864" lon="4.81018">
        <ele>169</ele>
        <time>2018-05-08T09:24:40Z</time>
      </trkpt>
      <trkpt lat="45.92867" lon="4.8101">
        <ele>169</ele>
        <time>2018-05-08T09:24:41Z</time>
      </trkpt>
      <trkpt lat="45.9287" lon="4.81002">
        <ele>169</ele>
        <time>2018-05-08T09:24:42Z</time>
      </trkpt>
      <trkpt lat="45.92873" lon="4.80992">
        <ele>169</ele>
        <time>2018-05-08T09:24:43Z</time>
      </trkpt>
      <trkpt lat="45.92875" lon="4.80984">
        <ele>169</ele>
        <time>2018-05-08T09:24:44Z</time>
      </trkpt>
      <trkpt lat="45.92878" lon="4.80976">
        <ele>169</ele>
        <time>2018-05-08T09:24:45Z</time>
      </trkpt>
      <trkpt lat="45.92881" lon="4.80968">
        <ele>169</ele>
        <time>2018-05-08T09:24:46Z</time>
      </trkpt>
      <trkpt lat="45.92883" lon="4.80959">
        <ele>170</ele>
        <time>2018-05-08T09:24:47Z</time>
      </trkpt>
      <trkpt lat="45.92887" lon="4.80952">
        <ele>170</ele>
        <time>2018-05-08T09:24:48Z</time>
      </trkpt>
      <trkpt lat="45.92889" lon="4.80944">
        <ele>170</ele>
        <time>2018-05-08T09:24:49Z</time>
      </trkpt>
      <trkpt lat="45.92892" lon="4.80937">
        <ele>170</ele>
        <time>2018-05-08T09:24:50Z</time>
      </trkpt>
      <trkpt lat="45.92895" lon="4.8093">
        <ele>170</ele>
        <time>2018-05-08T09:24:51Z</time>
      </trkpt>
      <trkpt lat="45.92897" lon="4.80922">
        <ele>170</ele>
        <time>2018-05-08T09:24:52Z</time>
      </trkpt>
      <trkpt lat="45.92901" lon="4.80916">
        <ele>170</ele>
        <time>2018-05-08T09:24:53Z</time>
      </trkpt>
      <trkpt lat="45.92905" lon="4.80909">
        <ele>170</ele>
        <time>2018-05-08T09:24:54Z</time>
      </trkpt>
      <trkpt lat="45.92907" lon="4.80901">
        <ele>170</ele>
        <time>2018-05-08T09:24:55Z</time>
      </trkpt>
      <trkpt lat="45.9291" lon="4.80892">
        <ele>170</ele>
        <time>2018-05-08T09:24:56Z</time>
      </trkpt>
      <trkpt lat="45.92913" lon="4.80884">
        <ele>171</ele>
        <time>2018-05-08T09:24:57Z</time>
      </trkpt>
      <trkpt lat="45.92915" lon="4.80876">
        <ele>171</ele>
        <time>2018-05-08T09:24:58Z</time>
      </trkpt>
      <trkpt lat="45.92918" lon="4.80869">
        <ele>171</ele>
        <time>2018-05-08T09:24:59Z</time>
      </trkpt>
      <trkpt lat="45.92921" lon="4.8086">
        <ele>171</ele>
        <time>2018-05-08T09:25:00Z</time>
      </trkpt>
      <trkpt lat="45.92923" lon="4.80851">
        <ele>171</ele>
        <time>2018-05-08T09:25:01Z</time>
      </trkpt>
      <trkpt lat="45.92927" lon="4.80842">
        <ele>171</ele>
        <time>2018-05-08T09:25:02Z</time>
      </trkpt>
      <trkpt lat="45.9293" lon="4.80834">
        <ele>171</ele>
        <time>2018-05-08T09:25:03Z</time>
      </trkpt>
      <trkpt lat="45.92933" lon="4.80826">
        <ele>172</ele>
        <time>2018-05-08T09:25:04Z</time>
      </trkpt>
      <trkpt lat="45.92936" lon="4.80816">
        <ele>172</ele>
        <time>2018-05-08T09:25:05Z</time>
      </trkpt>
      <trkpt lat="45.92937" lon="4.80808">
        <ele>172</ele>
        <time>2018-05-08T09:25:06Z</time>
      </trkpt>
      <trkpt lat="45.92939" lon="4.808">
        <ele>172</ele>
        <time>2018-05-08T09:25:07Z</time>
      </trkpt>
      <trkpt lat="45.92942" lon="4.80791">
        <ele>172</ele>
        <time>2018-05-08T09:25:08Z</time>
      </trkpt>
      <trkpt lat="45.92944" lon="4.80783">
        <ele>172</ele>
        <time>2018-05-08T09:25:09Z</time>
      </trkpt>
      <trkpt lat="45.92947" lon="4.80775">
        <ele>172</ele>
        <time>2018-05-08T09:25:10Z</time>
      </trkpt>
      <trkpt lat="45.92949" lon="4.80767">
        <ele>172</ele>
        <time>2018-05-08T09:25:11Z</time>
      </trkpt>
      <trkpt lat="45.92953" lon="4.8076">
        <ele>172</ele>
        <time>2018-05-08T09:25:12Z</time>
      </trkpt>
      <trkpt lat="45.92955" lon="4.80752">
        <ele>172</ele>
        <time>2018-05-08T09:25:13Z</time>
      </trkpt>
      <trkpt lat="45.92957" lon="4.80744">
        <ele>172</ele>
        <time>2018-05-08T09:25:14Z</time>
      </trkpt>
      <trkpt lat="45.9296" lon="4.80736">
        <ele>172</ele>
        <time>2018-05-08T09:25:15Z</time>
      </trkpt>
      <trkpt lat="45.92963" lon="4.80728">
        <ele>172</ele>
        <time>2018-05-08T09:25:16Z</time>
      </trkpt>
      <trkpt lat="45.92965" lon="4.80721">
        <ele>172</ele>
        <time>2018-05-08T09:25:17Z</time>
      </trkpt>
      <trkpt lat="45.92968" lon="4.80714">
        <ele>172</ele>
        <time>2018-05-08T09:25:18Z</time>
      </trkpt>
      <trkpt lat="45.92971" lon="4.80705">
        <ele>172</ele>
        <time>2018-05-08T09:25:19Z</time>
      </trkpt>
      <trkpt lat="45.92973" lon="4.80697">
        <ele>172</ele>
        <time>2018-05-08T09:25:20Z</time>
      </trkpt>
      <trkpt lat="45.92975" lon="4.8069">
        <ele>172</ele>
        <time>2018-05-08T09:25:21Z</time>
      </trkpt>
      <trkpt lat="45.92978" lon="4.80681">
        <ele>172</ele>
        <time>2018-05-08T09:25:22Z</time>
      </trkpt>
      <trkpt lat="45.9298" lon="4.80673">
        <ele>172</ele>
        <time>2018-05-08T09:25:23Z</time>
      </trkpt>
      <trkpt lat="45.92983" lon="4.80666">
        <ele>172</ele>
        <time>2018-05-08T09:25:24Z</time>
      </trkpt>
      <trkpt lat="45.92985" lon="4.80658">
        <ele>172</ele>
        <time>2018-05-08T09:25:25Z</time>
      </trkpt>
      <trkpt lat="45.92987" lon="4.8065">
        <ele>172</ele>
        <time>2018-05-08T09:25:26Z</time>
      </trkpt>
      <trkpt lat="45.92989" lon="4.80644">
        <ele>172</ele>
        <time>2018-05-08T09:25:27Z</time>
      </trkpt>
      <trkpt lat="45.92991" lon="4.80637">
        <ele>172</ele>
        <time>2018-05-08T09:25:28Z</time>
      </trkpt>
      <trkpt lat="45.92994" lon="4.8063">
        <ele>172</ele>
        <time>2018-05-08T09:25:29Z</time>
      </trkpt>
      <trkpt lat="45.92996" lon="4.80623">
        <ele>172</ele>
        <time>2018-05-08T09:25:30Z</time>
      </trkpt>
      <trkpt lat="45.92998" lon="4.80616">
        <ele>172</ele>
        <time>2018-05-08T09:25:31Z</time>
      </trkpt>
      <trkpt lat="45.93001" lon="4.80609">
        <ele>172</ele>
        <time>2018-05-08T09:25:32Z</time>
      </trkpt>
      <trkpt lat="45.93003" lon="4.80602">
        <ele>172</ele>
        <time>2018-05-08T09:25:33Z</time>
      </trkpt>
      <trkpt lat="45.93006" lon="4.80595">
        <ele>172</ele>
        <time>2018-05-08T09:25:34Z</time>
      </trkpt>
      <trkpt lat="45.93008" lon="4.80589">
        <ele>172</ele>
        <time>2018-05-08T09:25:35Z</time>
      </trkpt>
      <trkpt lat="45.9301" lon="4.80581">
        <ele>172</ele>
        <time>2018-05-08T09:25:36Z</time>
      </trkpt>
      <trkpt lat="45.93012" lon="4.80574">
        <ele>172</ele>
        <time>2018-05-08T09:25:37Z</time>
      </trkpt>
      <trkpt lat="45.93015" lon="4.80566">
        <ele>172</ele>
        <time>2018-05-08T09:25:38Z</time>
      </trkpt>
      <trkpt lat="45.93017" lon="4.80557">
        <ele>172</ele>
        <time>2018-05-08T09:25:39Z</time>
      </trkpt>
      <trkpt lat="45.93019" lon="4.8055">
        <ele>172</ele>
        <time>2018-05-08T09:25:40Z</time>
      </trkpt>
      <trkpt lat="45.93022" lon="4.80541">
        <ele>172</ele>
        <time>2018-05-08T09:25:41Z</time>
      </trkpt>
      <trkpt lat="45.93025" lon="4.80533">
        <ele>172</ele>
        <time>2018-05-08T09:25:42Z</time>
      </trkpt>
      <trkpt lat="45.93027" lon="4.80525">
        <ele>172</ele>
        <time>2018-05-08T09:25:43Z</time>
      </trkpt>
      <trkpt lat="45.9303" lon="4.80517">
        <ele>172</ele>
        <time>2018-05-08T09:25:44Z</time>
      </trkpt>
      <trkpt lat="45.93033" lon="4.80509">
        <ele>172</ele>
        <time>2018-05-08T09:25:45Z</time>
      </trkpt>
      <trkpt lat="45.93036" lon="4.80503">
        <ele>172</ele>
        <time>2018-05-08T09:25:46Z</time>
      </trkpt>
      <trkpt lat="45.93039" lon="4.80496">
        <ele>171</ele>
        <time>2018-05-08T09:25:47Z</time>
      </trkpt>
      <trkpt lat="45.93041" lon="4.80489">
        <ele>171</ele>
        <time>2018-05-08T09:25:48Z</time>
      </trkpt>
      <trkpt lat="45.93044" lon="4.80482">
        <ele>171</ele>
        <time>2018-05-08T09:25:49Z</time>
      </trkpt>
      <trkpt lat="45.93047" lon="4.80474">
        <ele>171</ele>
        <time>2018-05-08T09:25:50Z</time>
      </trkpt>
      <trkpt lat="45.93049" lon="4.80465">
        <ele>171</ele>
        <time>2018-05-08T09:25:51Z</time>
      </trkpt>
      <trkpt lat="45.93052" lon="4.80457">
        <ele>171</ele>
        <time>2018-05-08T09:25:52Z</time>
      </trkpt>
      <trkpt lat="45.93055" lon="4.80449">
        <ele>171</ele>
        <time>2018-05-08T09:25:53Z</time>
      </trkpt>
      <trkpt lat="45.93058" lon="4.80441">
        <ele>171</ele>
        <time>2018-05-08T09:25:54Z</time>
      </trkpt>
      <trkpt lat="45.93061" lon="4.80433">
        <ele>171</ele>
        <time>2018-05-08T09:25:55Z</time>
      </trkpt>
      <trkpt lat="45.93062" lon="4.80427">
        <ele>171</ele>
        <time>2018-05-08T09:25:56Z</time>
      </trkpt>
      <trkpt lat="45.93064" lon="4.8042">
        <ele>171</ele>
        <time>2018-05-08T09:25:57Z</time>
      </trkpt>
      <trkpt lat="45.93068" lon="4.80412">
        <ele>170</ele>
        <time>2018-05-08T09:25:58Z</time>
      </trkpt>
      <trkpt lat="45.9307" lon="4.80405">
        <ele>170</ele>
        <time>2018-05-08T09:25:59Z</time>
      </trkpt>
      <trkpt lat="45.93072" lon="4.80396">
        <ele>170</ele>
        <time>2018-05-08T09:26:00Z</time>
      </trkpt>
      <trkpt lat="45.93075" lon="4.80387">
        <ele>170</ele>
        <time>2018-05-08T09:26:01Z</time>
      </trkpt>
      <trkpt lat="45.93078" lon="4.80379">
        <ele>170</ele>
        <time>2018-05-08T09:26:02Z</time>
      </trkpt>
      <trkpt lat="45.93081" lon="4.80371">
        <ele>170</ele>
        <time>2018-05-08T09:26:03Z</time>
      </trkpt>
      <trkpt lat="45.93083" lon="4.80364">
        <ele>170</ele>
        <time>2018-05-08T09:26:04Z</time>
      </trkpt>
      <trkpt lat="45.93085" lon="4.80355">
        <ele>169</ele>
        <time>2018-05-08T09:26:05Z</time>
      </trkpt>
      <trkpt lat="45.93087" lon="4.80348">
        <ele>169</ele>
        <time>2018-05-08T09:26:06Z</time>
      </trkpt>
      <trkpt lat="45.9309" lon="4.8034">
        <ele>169</ele>
        <time>2018-05-08T09:26:07Z</time>
      </trkpt>
      <trkpt lat="45.93092" lon="4.80332">
        <ele>169</ele>
        <time>2018-05-08T09:26:08Z</time>
      </trkpt>
      <trkpt lat="45.93095" lon="4.80325">
        <ele>169</ele>
        <time>2018-05-08T09:26:09Z</time>
      </trkpt>
      <trkpt lat="45.93097" lon="4.80317">
        <ele>169</ele>
        <time>2018-05-08T09:26:10Z</time>
      </trkpt>
      <trkpt lat="45.931" lon="4.80309">
        <ele>169</ele>
        <time>2018-05-08T09:26:11Z</time>
      </trkpt>
      <trkpt lat="45.93102" lon="4.803">
        <ele>169</ele>
        <time>2018-05-08T09:26:12Z</time>
      </trkpt>
      <trkpt lat="45.93105" lon="4.80292">
        <ele>169</ele>
        <time>2018-05-08T09:26:13Z</time>
      </trkpt>
      <trkpt lat="45.93108" lon="4.80283">
        <ele>169</ele>
        <time>2018-05-08T09:26:14Z</time>
      </trkpt>
      <trkpt lat="45.9311" lon="4.80275">
        <ele>169</ele>
        <time>2018-05-08T09:26:15Z</time>
      </trkpt>
      <trkpt lat="45.93113" lon="4.80266">
        <ele>169</ele>
        <time>2018-05-08T09:26:16Z</time>
      </trkpt>
      <trkpt lat="45.93115" lon="4.80258">
        <ele>169</ele>
        <time>2018-05-08T09:26:17Z</time>
      </trkpt>
      <trkpt lat="45.93118" lon="4.8025">
        <ele>169</ele>
        <time>2018-05-08T09:26:18Z</time>
      </trkpt>
      <trkpt lat="45.9312" lon="4.80242">
        <ele>169</ele>
        <time>2018-05-08T09:26:19Z</time>
      </trkpt>
      <trkpt lat="45.93122" lon="4.80234">
        <ele>169</ele>
        <time>2018-05-08T09:26:20Z</time>
      </trkpt>
      <trkpt lat="45.93124" lon="4.80226">
        <ele>169</ele>
        <time>2018-05-08T09:26:21Z</time>
      </trkpt>
      <trkpt lat="45.93127" lon="4.80218">
        <ele>169</ele>
        <time>2018-05-08T09:26:22Z</time>
      </trkpt>
      <trkpt lat="45.93129" lon="4.80211">
        <ele>169</ele>
        <time>2018-05-08T09:26:23Z</time>
      </trkpt>
      <trkpt lat="45.93131" lon="4.80203">
        <ele>169</ele>
        <time>2018-05-08T09:26:24Z</time>
      </trkpt>
      <trkpt lat="45.93134" lon="4.80195">
        <ele>169</ele>
        <time>2018-05-08T09:26:25Z</time>
      </trkpt>
      <trkpt lat="45.93136" lon="4.80187">
        <ele>169</ele>
        <time>2018-05-08T09:26:26Z</time>
      </trkpt>
      <trkpt lat="45.93139" lon="4.80179">
        <ele>169</ele>
        <time>2018-05-08T09:26:27Z</time>
      </trkpt>
      <trkpt lat="45.93141" lon="4.80173">
        <ele>169</ele>
        <time>2018-05-08T09:26:28Z</time>
      </trkpt>
      <trkpt lat="45.93144" lon="4.80165">
        <ele>169</ele>
        <time>2018-05-08T09:26:29Z</time>
      </trkpt>
      <trkpt lat="45.93147" lon="4.80156">
        <ele>169</ele>
        <time>2018-05-08T09:26:30Z</time>
      </trkpt>
      <trkpt lat="45.9315" lon="4.80148">
        <ele>169</ele>
        <time>2018-05-08T09:26:31Z</time>
      </trkpt>
      <trkpt lat="45.93153" lon="4.8014">
        <ele>169</ele>
        <time>2018-05-08T09:26:32Z</time>
      </trkpt>
      <trkpt lat="45.93155" lon="4.80133">
        <ele>169</ele>
        <time>2018-05-08T09:26:33Z</time>
      </trkpt>
      <trkpt lat="45.93158" lon="4.80125">
        <ele>169</ele>
        <time>2018-05-08T09:26:34Z</time>
      </trkpt>
      <trkpt lat="45.93161" lon="4.80117">
        <ele>169</ele>
        <time>2018-05-08T09:26:35Z</time>
      </trkpt>
      <trkpt lat="45.93164" lon="4.80109">
        <ele>170</ele>
        <time>2018-05-08T09:26:36Z</time>
      </trkpt>
      <trkpt lat="45.93166" lon="4.801">
        <ele>170</ele>
        <time>2018-05-08T09:26:37Z</time>
      </trkpt>
      <trkpt lat="45.93169" lon="4.80093">
        <ele>170</ele>
        <time>2018-05-08T09:26:38Z</time>
      </trkpt>
      <trkpt lat="45.93174" lon="4.80086">
        <ele>170</ele>
        <time>2018-05-08T09:26:39Z</time>
      </trkpt>
      <trkpt lat="45.93179" lon="4.80081">
        <ele>170</ele>
        <time>2018-05-08T09:26:40Z</time>
      </trkpt>
      <trkpt lat="45.93186" lon="4.80078">
        <ele>170</ele>
        <time>2018-05-08T09:26:41Z</time>
      </trkpt>
      <trkpt lat="45.93192" lon="4.80075">
        <ele>170</ele>
        <time>2018-05-08T09:26:42Z</time>
      </trkpt>
      <trkpt lat="45.93197" lon="4.8007">
        <ele>170</ele>
        <time>2018-05-08T09:26:43Z</time>
      </trkpt>
      <trkpt lat="45.93202" lon="4.80062">
        <ele>170</ele>
        <time>2018-05-08T09:26:44Z</time>
      </trkpt>
      <trkpt lat="45.93204" lon="4.80053">
        <ele>170</ele>
        <time>2018-05-08T09:26:45Z</time>
      </trkpt>
      <trkpt lat="45.93203" lon="4.80043">
        <ele>170</ele>
        <time>2018-05-08T09:26:46Z</time>
      </trkpt>
      <trkpt lat="45.93201" lon="4.80035">
        <ele>170</ele>
        <time>2018-05-08T09:26:47Z</time>
      </trkpt>
      <trkpt lat="45.93198" lon="4.80028">
        <ele>170</ele>
        <time>2018-05-08T09:26:48Z</time>
      </trkpt>
      <trkpt lat="45.93194" lon="4.8002">
        <ele>170</ele>
        <time>2018-05-08T09:26:49Z</time>
      </trkpt>
      <trkpt lat="45.93191" lon="4.80012">
        <ele>170</ele>
        <time>2018-05-08T09:26:50Z</time>
      </trkpt>
      <trkpt lat="45.93189" lon="4.80004">
        <ele>170</ele>
        <time>2018-05-08T09:26:51Z</time>
      </trkpt>
      <trkpt lat="45.93187" lon="4.79995">
        <ele>170</ele>
        <time>2018-05-08T09:26:52Z</time>
      </trkpt>
      <trkpt lat="45.93188" lon="4.79986">
        <ele>170</ele>
        <time>2018-05-08T09:26:53Z</time>
      </trkpt>
      <trkpt lat="45.9319" lon="4.79978">
        <ele>170</ele>
        <time>2018-05-08T09:26:54Z</time>
      </trkpt>
      <trkpt lat="45.93193" lon="4.7997">
        <ele>170</ele>
        <time>2018-05-08T09:26:55Z</time>
      </trkpt>
      <trkpt lat="45.93194" lon="4.79963">
        <ele>170</ele>
        <time>2018-05-08T09:26:56Z</time>
      </trkpt>
      <trkpt lat="45.93197" lon="4.79955">
        <ele>171</ele>
        <time>2018-05-08T09:26:57Z</time>
      </trkpt>
      <trkpt lat="45.932" lon="4.79947">
        <ele>171</ele>
        <time>2018-05-08T09:26:58Z</time>
      </trkpt>
      <trkpt lat="45.93204" lon="4.79939">
        <ele>171</ele>
        <time>2018-05-08T09:26:59Z</time>
      </trkpt>
      <trkpt lat="45.93208" lon="4.79933">
        <ele>171</ele>
        <time>2018-05-08T09:27:00Z</time>
      </trkpt>
      <trkpt lat="45.93211" lon="4.79926">
        <ele>171</ele>
        <time>2018-05-08T09:27:01Z</time>
      </trkpt>
      <trkpt lat="45.93215" lon="4.79919">
        <ele>171</ele>
        <time>2018-05-08T09:27:02Z</time>
      </trkpt>
      <trkpt lat="45.93219" lon="4.79913">
        <ele>172</ele>
        <time>2018-05-08T09:27:03Z</time>
      </trkpt>
      <trkpt lat="45.93221" lon="4.79908">
        <ele>172</ele>
        <time>2018-05-08T09:27:04Z</time>
      </trkpt>
      <trkpt lat="45.93225" lon="4.79899">
        <ele>172</ele>
        <time>2018-05-08T09:27:05Z</time>
      </trkpt>
      <trkpt lat="45.93228" lon="4.79893">
        <ele>172</ele>
        <time>2018-05-08T09:27:06Z</time>
      </trkpt>
      <trkpt lat="45.93232" lon="4.79886">
        <ele>172</ele>
        <time>2018-05-08T09:27:07Z</time>
      </trkpt>
      <trkpt lat="45.93235" lon="4.7988">
        <ele>172</ele>
        <time>2018-05-08T09:27:08Z</time>
      </trkpt>
      <trkpt lat="45.93238" lon="4.79873">
        <ele>172</ele>
        <time>2018-05-08T09:27:09Z</time>
      </trkpt>
      <trkpt lat="45.93241" lon="4.79865">
        <ele>172</ele>
        <time>2018-05-08T09:27:10Z</time>
      </trkpt>
      <trkpt lat="45.93245" lon="4.79858">
        <ele>173</ele>
        <time>2018-05-08T09:27:11Z</time>
      </trkpt>
      <trkpt lat="45.93248" lon="4.79851">
        <ele>173</ele>
        <time>2018-05-08T09:27:12Z</time>
      </trkpt>
      <trkpt lat="45.93249" lon="4.79843">
        <ele>173</ele>
        <time>2018-05-08T09:27:13Z</time>
      </trkpt>
      <trkpt lat="45.93252" lon="4.79837">
        <ele>174</ele>
        <time>2018-05-08T09:27:14Z</time>
      </trkpt>
      <trkpt lat="45.93255" lon="4.79829">
        <ele>174</ele>
        <time>2018-05-08T09:27:15Z</time>
      </trkpt>
      <trkpt lat="45.93258" lon="4.79821">
        <ele>174</ele>
        <time>2018-05-08T09:27:16Z</time>
      </trkpt>
      <trkpt lat="45.93261" lon="4.79814">
        <ele>174</ele>
        <time>2018-05-08T09:27:17Z</time>
      </trkpt>
      <trkpt lat="45.93263" lon="4.79807">
        <ele>174</ele>
        <time>2018-05-08T09:27:18Z</time>
      </trkpt>
      <trkpt lat="45.93266" lon="4.79802">
        <ele>175</ele>
        <time>2018-05-08T09:27:19Z</time>
      </trkpt>
      <trkpt lat="45.93269" lon="4.7979">
        <ele>175</ele>
        <time>2018-05-08T09:27:21Z</time>
      </trkpt>
      <trkpt lat="45.93272" lon="4.79784">
        <ele>175</ele>
        <time>2018-05-08T09:27:22Z</time>
      </trkpt>
      <trkpt lat="45.93274" lon="4.79778">
        <ele>175</ele>
        <time>2018-05-08T09:27:23Z</time>
      </trkpt>
      <trkpt lat="45.93277" lon="4.79772">
        <ele>175</ele>
        <time>2018-05-08T09:27:24Z</time>
      </trkpt>
      <trkpt lat="45.93282" lon="4.79761">
        <ele>175</ele>
        <time>2018-05-08T09:27:26Z</time>
      </trkpt>
      <trkpt lat="45.93285" lon="4.79756">
        <ele>175</ele>
        <time>2018-05-08T09:27:27Z</time>
      </trkpt>
      <trkpt lat="45.93287" lon="4.79744">
        <ele>177</ele>
        <time>2018-05-08T09:27:29Z</time>
      </trkpt>
      <trkpt lat="45.93289" lon="4.79737">
        <ele>177</ele>
        <time>2018-05-08T09:27:30Z</time>
      </trkpt>
      <trkpt lat="45.93291" lon="4.7973">
        <ele>177</ele>
        <time>2018-05-08T09:27:31Z</time>
      </trkpt>
      <trkpt lat="45.93293" lon="4.79725">
        <ele>177</ele>
        <time>2018-05-08T09:27:32Z</time>
      </trkpt>
      <trkpt lat="45.93294" lon="4.79719">
        <ele>177</ele>
        <time>2018-05-08T09:27:33Z</time>
      </trkpt>
      <trkpt lat="45.93296" lon="4.79712">
        <ele>177</ele>
        <time>2018-05-08T09:27:34Z</time>
      </trkpt>
      <trkpt lat="45.93298" lon="4.79705">
        <ele>177</ele>
        <time>2018-05-08T09:27:35Z</time>
      </trkpt>
      <trkpt lat="45.93301" lon="4.797">
        <ele>177</ele>
        <time>2018-05-08T09:27:36Z</time>
      </trkpt>
      <trkpt lat="45.93303" lon="4.79693">
        <ele>177</ele>
        <time>2018-05-08T09:27:37Z</time>
      </trkpt>
      <trkpt lat="45.93306" lon="4.79688">
        <ele>177</ele>
        <time>2018-05-08T09:27:38Z</time>
      </trkpt>
      <trkpt lat="45.93308" lon="4.79681">
        <ele>177</ele>
        <time>2018-05-08T09:27:39Z</time>
      </trkpt>
      <trkpt lat="45.93309" lon="4.79674">
        <ele>177</ele>
        <time>2018-05-08T09:27:40Z</time>
      </trkpt>
      <trkpt lat="45.9331" lon="4.79665">
        <ele>177</ele>
        <time>2018-05-08T09:27:41Z</time>
      </trkpt>
      <trkpt lat="45.93312" lon="4.7966">
        <ele>177</ele>
        <time>2018-05-08T09:27:42Z</time>
      </trkpt>
      <trkpt lat="45.93315" lon="4.79653">
        <ele>177</ele>
        <time>2018-05-08T09:27:43Z</time>
      </trkpt>
      <trkpt lat="45.93318" lon="4.79647">
        <ele>177</ele>
        <time>2018-05-08T09:27:44Z</time>
      </trkpt>
      <trkpt lat="45.93322" lon="4.79636">
        <ele>177</ele>
        <time>2018-05-08T09:27:46Z</time>
      </trkpt>
      <trkpt lat="45.93325" lon="4.79629">
        <ele>177</ele>
        <time>2018-05-08T09:27:47Z</time>
      </trkpt>
      <trkpt lat="45.93327" lon="4.79622">
        <ele>177</ele>
        <time>2018-05-08T09:27:48Z</time>
      </trkpt>
      <trkpt lat="45.93329" lon="4.79615">
        <ele>177</ele>
        <time>2018-05-08T09:27:49Z</time>
      </trkpt>
      <trkpt lat="45.93332" lon="4.79606">
        <ele>177</ele>
        <time>2018-05-08T09:27:50Z</time>
      </trkpt>
      <trkpt lat="45.93333" lon="4.796">
        <ele>177</ele>
        <time>2018-05-08T09:27:51Z</time>
      </trkpt>
      <trkpt lat="45.93335" lon="4.79594">
        <ele>178</ele>
        <time>2018-05-08T09:27:52Z</time>
      </trkpt>
      <trkpt lat="45.93338" lon="4.79583">
        <ele>177</ele>
        <time>2018-05-08T09:27:53Z</time>
      </trkpt>
      <trkpt lat="45.93342" lon="4.79576">
        <ele>177</ele>
        <time>2018-05-08T09:27:54Z</time>
      </trkpt>
      <trkpt lat="45.93344" lon="4.79569">
        <ele>177</ele>
        <time>2018-05-08T09:27:55Z</time>
      </trkpt>
      <trkpt lat="45.93346" lon="4.79562">
        <ele>177</ele>
        <time>2018-05-08T09:27:56Z</time>
      </trkpt>
      <trkpt lat="45.93348" lon="4.79554">
        <ele>177</ele>
        <time>2018-05-08T09:27:57Z</time>
      </trkpt>
      <trkpt lat="45.93351" lon="4.79547">
        <ele>177</ele>
        <time>2018-05-08T09:27:58Z</time>
      </trkpt>
      <trkpt lat="45.93353" lon="4.79541">
        <ele>177</ele>
        <time>2018-05-08T09:27:59Z</time>
      </trkpt>
      <trkpt lat="45.93355" lon="4.79533">
        <ele>177</ele>
        <time>2018-05-08T09:28:00Z</time>
      </trkpt>
      <trkpt lat="45.93359" lon="4.79525">
        <ele>177</ele>
        <time>2018-05-08T09:28:01Z</time>
      </trkpt>
      <trkpt lat="45.93361" lon="4.79518">
        <ele>177</ele>
        <time>2018-05-08T09:28:02Z</time>
      </trkpt>
      <trkpt lat="45.93364" lon="4.79513">
        <ele>177</ele>
        <time>2018-05-08T09:28:03Z</time>
      </trkpt>
      <trkpt lat="45.93366" lon="4.79506">
        <ele>177</ele>
        <time>2018-05-08T09:28:04Z</time>
      </trkpt>
      <trkpt lat="45.93369" lon="4.795">
        <ele>176</ele>
        <time>2018-05-08T09:28:05Z</time>
      </trkpt>
      <trkpt lat="45.93372" lon="4.79492">
        <ele>176</ele>
        <time>2018-05-08T09:28:06Z</time>
      </trkpt>
      <trkpt lat="45.93375" lon="4.79486">
        <ele>176</ele>
        <time>2018-05-08T09:28:07Z</time>
      </trkpt>
      <trkpt lat="45.93377" lon="4.79477">
        <ele>175</ele>
        <time>2018-05-08T09:28:08Z</time>
      </trkpt>
      <trkpt lat="45.93381" lon="4.7947">
        <ele>175</ele>
        <time>2018-05-08T09:28:09Z</time>
      </trkpt>
      <trkpt lat="45.93384" lon="4.79462">
        <ele>175</ele>
        <time>2018-05-08T09:28:10Z</time>
      </trkpt>
      <trkpt lat="45.93387" lon="4.79453">
        <ele>175</ele>
        <time>2018-05-08T09:28:11Z</time>
      </trkpt>
      <trkpt lat="45.93389" lon="4.79443">
        <ele>175</ele>
        <time>2018-05-08T09:28:12Z</time>
      </trkpt>
      <trkpt lat="45.93392" lon="4.79434">
        <ele>175</ele>
        <time>2018-05-08T09:28:13Z</time>
      </trkpt>
      <trkpt lat="45.93395" lon="4.79426">
        <ele>174</ele>
        <time>2018-05-08T09:28:14Z</time>
      </trkpt>
      <trkpt lat="45.93399" lon="4.79417">
        <ele>174</ele>
        <time>2018-05-08T09:28:15Z</time>
      </trkpt>
      <trkpt lat="45.93403" lon="4.79408">
        <ele>173</ele>
        <time>2018-05-08T09:28:16Z</time>
      </trkpt>
      <trkpt lat="45.93405" lon="4.79399">
        <ele>173</ele>
        <time>2018-05-08T09:28:17Z</time>
      </trkpt>
      <trkpt lat="45.93408" lon="4.79392">
        <ele>173</ele>
        <time>2018-05-08T09:28:18Z</time>
      </trkpt>
      <trkpt lat="45.93413" lon="4.79383">
        <ele>172</ele>
        <time>2018-05-08T09:28:19Z</time>
      </trkpt>
      <trkpt lat="45.93415" lon="4.79375">
        <ele>172</ele>
        <time>2018-05-08T09:28:20Z</time>
      </trkpt>
      <trkpt lat="45.93416" lon="4.79365">
        <ele>172</ele>
        <time>2018-05-08T09:28:21Z</time>
      </trkpt>
      <trkpt lat="45.93419" lon="4.79357">
        <ele>174</ele>
        <time>2018-05-08T09:28:22Z</time>
      </trkpt>
      <trkpt lat="45.93423" lon="4.7935">
        <ele>173</ele>
        <time>2018-05-08T09:28:23Z</time>
      </trkpt>
      <trkpt lat="45.93424" lon="4.79342">
        <ele>173</ele>
        <time>2018-05-08T09:28:24Z</time>
      </trkpt>
      <trkpt lat="45.93428" lon="4.79334">
        <ele>173</ele>
        <time>2018-05-08T09:28:25Z</time>
      </trkpt>
      <trkpt lat="45.93431" lon="4.79326">
        <ele>172</ele>
        <time>2018-05-08T09:28:26Z</time>
      </trkpt>
      <trkpt lat="45.93431" lon="4.79315">
        <ele>173</ele>
        <time>2018-05-08T09:28:27Z</time>
      </trkpt>
      <trkpt lat="45.93433" lon="4.79308">
        <ele>173</ele>
        <time>2018-05-08T09:28:28Z</time>
      </trkpt>
      <trkpt lat="45.93436" lon="4.79301">
        <ele>173</ele>
        <time>2018-05-08T09:28:29Z</time>
      </trkpt>
      <trkpt lat="45.9344" lon="4.79293">
        <ele>173</ele>
        <time>2018-05-08T09:28:30Z</time>
      </trkpt>
      <trkpt lat="45.93443" lon="4.79284">
        <ele>173</ele>
        <time>2018-05-08T09:28:31Z</time>
      </trkpt>
      <trkpt lat="45.93445" lon="4.79278">
        <ele>173</ele>
        <time>2018-05-08T09:28:32Z</time>
      </trkpt>
      <trkpt lat="45.93448" lon="4.79269">
        <ele>173</ele>
        <time>2018-05-08T09:28:33Z</time>
      </trkpt>
      <trkpt lat="45.93451" lon="4.7926">
        <ele>172</ele>
        <time>2018-05-08T09:28:34Z</time>
      </trkpt>
      <trkpt lat="45.93454" lon="4.79253">
        <ele>172</ele>
        <time>2018-05-08T09:28:35Z</time>
      </trkpt>
      <trkpt lat="45.93457" lon="4.79245">
        <ele>172</ele>
        <time>2018-05-08T09:28:36Z</time>
      </trkpt>
      <trkpt lat="45.93459" lon="4.79238">
        <ele>172</ele>
        <time>2018-05-08T09:28:37Z</time>
      </trkpt>
      <trkpt lat="45.93462" lon="4.7923">
        <ele>172</ele>
        <time>2018-05-08T09:28:38Z</time>
      </trkpt>
      <trkpt lat="45.93464" lon="4.79221">
        <ele>172</ele>
        <time>2018-05-08T09:28:39Z</time>
      </trkpt>
      <trkpt lat="45.93466" lon="4.79216">
        <ele>172</ele>
        <time>2018-05-08T09:28:40Z</time>
      </trkpt>
      <trkpt lat="45.93469" lon="4.79206">
        <ele>172</ele>
        <time>2018-05-08T09:28:41Z</time>
      </trkpt>
      <trkpt lat="45.93474" lon="4.79201">
        <ele>172</ele>
        <time>2018-05-08T09:28:42Z</time>
      </trkpt>
      <trkpt lat="45.93478" lon="4.79192">
        <ele>172</ele>
        <time>2018-05-08T09:28:43Z</time>
      </trkpt>
      <trkpt lat="45.9348" lon="4.79184">
        <ele>172</ele>
        <time>2018-05-08T09:28:44Z</time>
      </trkpt>
      <trkpt lat="45.93484" lon="4.79176">
        <ele>172</ele>
        <time>2018-05-08T09:28:45Z</time>
      </trkpt>
      <trkpt lat="45.93487" lon="4.79168">
        <ele>173</ele>
        <time>2018-05-08T09:28:46Z</time>
      </trkpt>
      <trkpt lat="45.9349" lon="4.79161">
        <ele>173</ele>
        <time>2018-05-08T09:28:47Z</time>
      </trkpt>
      <trkpt lat="45.93493" lon="4.79153">
        <ele>173</ele>
        <time>2018-05-08T09:28:48Z</time>
      </trkpt>
      <trkpt lat="45.93496" lon="4.79145">
        <ele>172</ele>
        <time>2018-05-08T09:28:49Z</time>
      </trkpt>
      <trkpt lat="45.93499" lon="4.79136">
        <ele>172</ele>
        <time>2018-05-08T09:28:50Z</time>
      </trkpt>
      <trkpt lat="45.93504" lon="4.79127">
        <ele>173</ele>
        <time>2018-05-08T09:28:51Z</time>
      </trkpt>
      <trkpt lat="45.93506" lon="4.7912">
        <ele>173</ele>
        <time>2018-05-08T09:28:52Z</time>
      </trkpt>
      <trkpt lat="45.93508" lon="4.79113">
        <ele>173</ele>
        <time>2018-05-08T09:28:53Z</time>
      </trkpt>
      <trkpt lat="45.93511" lon="4.79105">
        <ele>173</ele>
        <time>2018-05-08T09:28:54Z</time>
      </trkpt>
      <trkpt lat="45.93514" lon="4.79097">
        <ele>173</ele>
        <time>2018-05-08T09:28:55Z</time>
      </trkpt>
      <trkpt lat="45.93517" lon="4.7909">
        <ele>173</ele>
        <time>2018-05-08T09:28:56Z</time>
      </trkpt>
      <trkpt lat="45.9352" lon="4.79081">
        <ele>173</ele>
        <time>2018-05-08T09:28:57Z</time>
      </trkpt>
      <trkpt lat="45.93522" lon="4.79074">
        <ele>173</ele>
        <time>2018-05-08T09:28:58Z</time>
      </trkpt>
      <trkpt lat="45.93525" lon="4.79066">
        <ele>173</ele>
        <time>2018-05-08T09:28:59Z</time>
      </trkpt>
      <trkpt lat="45.93528" lon="4.7906">
        <ele>173</ele>
        <time>2018-05-08T09:29:00Z</time>
      </trkpt>
      <trkpt lat="45.93531" lon="4.79052">
        <ele>173</ele>
        <time>2018-05-08T09:29:01Z</time>
      </trkpt>
      <trkpt lat="45.93533" lon="4.79045">
        <ele>173</ele>
        <time>2018-05-08T09:29:02Z</time>
      </trkpt>
      <trkpt lat="45.93535" lon="4.79038">
        <ele>173</ele>
        <time>2018-05-08T09:29:03Z</time>
      </trkpt>
      <trkpt lat="45.93538" lon="4.79029">
        <ele>173</ele>
        <time>2018-05-08T09:29:04Z</time>
      </trkpt>
      <trkpt lat="45.9354" lon="4.79022">
        <ele>173</ele>
        <time>2018-05-08T09:29:05Z</time>
      </trkpt>
      <trkpt lat="45.93542" lon="4.79015">
        <ele>173</ele>
        <time>2018-05-08T09:29:06Z</time>
      </trkpt>
      <trkpt lat="45.93545" lon="4.79008">
        <ele>173</ele>
        <time>2018-05-08T09:29:07Z</time>
      </trkpt>
      <trkpt lat="45.93551" lon="4.79002">
        <ele>173</ele>
        <time>2018-05-08T09:29:08Z</time>
      </trkpt>
      <trkpt lat="45.93555" lon="4.78995">
        <ele>172</ele>
        <time>2018-05-08T09:29:09Z</time>
      </trkpt>
      <trkpt lat="45.93559" lon="4.78988">
        <ele>172</ele>
        <time>2018-05-08T09:29:10Z</time>
      </trkpt>
      <trkpt lat="45.93561" lon="4.7898">
        <ele>172</ele>
        <time>2018-05-08T09:29:11Z</time>
      </trkpt>
      <trkpt lat="45.93563" lon="4.78972">
        <ele>172</ele>
        <time>2018-05-08T09:29:12Z</time>
      </trkpt>
      <trkpt lat="45.93566" lon="4.78965">
        <ele>172</ele>
        <time>2018-05-08T09:29:13Z</time>
      </trkpt>
      <trkpt lat="45.93569" lon="4.78958">
        <ele>172</ele>
        <time>2018-05-08T09:29:14Z</time>
      </trkpt>
      <trkpt lat="45.93572" lon="4.78952">
        <ele>172</ele>
        <time>2018-05-08T09:29:15Z</time>
      </trkpt>
      <trkpt lat="45.93573" lon="4.78946">
        <ele>172</ele>
        <time>2018-05-08T09:29:16Z</time>
      </trkpt>
      <trkpt lat="45.93576" lon="4.78939">
        <ele>172</ele>
        <time>2018-05-08T09:29:17Z</time>
      </trkpt>
      <trkpt lat="45.93579" lon="4.78933">
        <ele>172</ele>
        <time>2018-05-08T09:29:18Z</time>
      </trkpt>
      <trkpt lat="45.93582" lon="4.78925">
        <ele>172</ele>
        <time>2018-05-08T09:29:19Z</time>
      </trkpt>
      <trkpt lat="45.93585" lon="4.78917">
        <ele>172</ele>
        <time>2018-05-08T09:29:20Z</time>
      </trkpt>
      <trkpt lat="45.93588" lon="4.7891">
        <ele>173</ele>
        <time>2018-05-08T09:29:21Z</time>
      </trkpt>
      <trkpt lat="45.93591" lon="4.78902">
        <ele>173</ele>
        <time>2018-05-08T09:29:22Z</time>
      </trkpt>
      <trkpt lat="45.93595" lon="4.78895">
        <ele>173</ele>
        <time>2018-05-08T09:29:23Z</time>
      </trkpt>
      <trkpt lat="45.93598" lon="4.78888">
        <ele>173</ele>
        <time>2018-05-08T09:29:24Z</time>
      </trkpt>
      <trkpt lat="45.93602" lon="4.7888">
        <ele>174</ele>
        <time>2018-05-08T09:29:25Z</time>
      </trkpt>
      <trkpt lat="45.93605" lon="4.78873">
        <ele>174</ele>
        <time>2018-05-08T09:29:26Z</time>
      </trkpt>
      <trkpt lat="45.9361" lon="4.78864">
        <ele>174</ele>
        <time>2018-05-08T09:29:27Z</time>
      </trkpt>
      <trkpt lat="45.93613" lon="4.78856">
        <ele>174</ele>
        <time>2018-05-08T09:29:28Z</time>
      </trkpt>
      <trkpt lat="45.93617" lon="4.78849">
        <ele>174</ele>
        <time>2018-05-08T09:29:29Z</time>
      </trkpt>
      <trkpt lat="45.93619" lon="4.78843">
        <ele>174</ele>
        <time>2018-05-08T09:29:30Z</time>
      </trkpt>
      <trkpt lat="45.93622" lon="4.78836">
        <ele>174</ele>
        <time>2018-05-08T09:29:31Z</time>
      </trkpt>
      <trkpt lat="45.93626" lon="4.78829">
        <ele>174</ele>
        <time>2018-05-08T09:29:32Z</time>
      </trkpt>
      <trkpt lat="45.9363" lon="4.78822">
        <ele>174</ele>
        <time>2018-05-08T09:29:33Z</time>
      </trkpt>
      <trkpt lat="45.93633" lon="4.78815">
        <ele>174</ele>
        <time>2018-05-08T09:29:34Z</time>
      </trkpt>
      <trkpt lat="45.93636" lon="4.7881">
        <ele>174</ele>
        <time>2018-05-08T09:29:35Z</time>
      </trkpt>
      <trkpt lat="45.9364" lon="4.78802">
        <ele>174</ele>
        <time>2018-05-08T09:29:36Z</time>
      </trkpt>
      <trkpt lat="45.93642" lon="4.78795">
        <ele>174</ele>
        <time>2018-05-08T09:29:37Z</time>
      </trkpt>
      <trkpt lat="45.93646" lon="4.78788">
        <ele>174</ele>
        <time>2018-05-08T09:29:38Z</time>
      </trkpt>
      <trkpt lat="45.93649" lon="4.78782">
        <ele>174</ele>
        <time>2018-05-08T09:29:39Z</time>
      </trkpt>
      <trkpt lat="45.93652" lon="4.78775">
        <ele>174</ele>
        <time>2018-05-08T09:29:40Z</time>
      </trkpt>
      <trkpt lat="45.93655" lon="4.78767">
        <ele>174</ele>
        <time>2018-05-08T09:29:41Z</time>
      </trkpt>
      <trkpt lat="45.93659" lon="4.78758">
        <ele>174</ele>
        <time>2018-05-08T09:29:43Z</time>
      </trkpt>
      <trkpt lat="45.93663" lon="4.78749">
        <ele>175</ele>
        <time>2018-05-08T09:29:44Z</time>
      </trkpt>
      <trkpt lat="45.93666" lon="4.78742">
        <ele>174</ele>
        <time>2018-05-08T09:29:45Z</time>
      </trkpt>
      <trkpt lat="45.93669" lon="4.78736">
        <ele>175</ele>
        <time>2018-05-08T09:29:46Z</time>
      </trkpt>
      <trkpt lat="45.93672" lon="4.78731">
        <ele>175</ele>
        <time>2018-05-08T09:29:47Z</time>
      </trkpt>
      <trkpt lat="45.93675" lon="4.78722">
        <ele>175</ele>
        <time>2018-05-08T09:29:48Z</time>
      </trkpt>
      <trkpt lat="45.93678" lon="4.78714">
        <ele>175</ele>
        <time>2018-05-08T09:29:49Z</time>
      </trkpt>
      <trkpt lat="45.93682" lon="4.78708">
        <ele>175</ele>
        <time>2018-05-08T09:29:50Z</time>
      </trkpt>
      <trkpt lat="45.93684" lon="4.78702">
        <ele>175</ele>
        <time>2018-05-08T09:29:51Z</time>
      </trkpt>
      <trkpt lat="45.93687" lon="4.78697">
        <ele>175</ele>
        <time>2018-05-08T09:29:52Z</time>
      </trkpt>
      <trkpt lat="45.93689" lon="4.7869">
        <ele>175</ele>
        <time>2018-05-08T09:29:53Z</time>
      </trkpt>
      <trkpt lat="45.93694" lon="4.78681">
        <ele>175</ele>
        <time>2018-05-08T09:29:54Z</time>
      </trkpt>
      <trkpt lat="45.93696" lon="4.78675">
        <ele>175</ele>
        <time>2018-05-08T09:29:55Z</time>
      </trkpt>
      <trkpt lat="45.937" lon="4.78668">
        <ele>176</ele>
        <time>2018-05-08T09:29:56Z</time>
      </trkpt>
      <trkpt lat="45.93702" lon="4.78663">
        <ele>176</ele>
        <time>2018-05-08T09:29:57Z</time>
      </trkpt>
      <trkpt lat="45.93704" lon="4.78657">
        <ele>176</ele>
        <time>2018-05-08T09:29:58Z</time>
      </trkpt>
      <trkpt lat="45.93707" lon="4.7865">
        <ele>176</ele>
        <time>2018-05-08T09:29:59Z</time>
      </trkpt>
      <trkpt lat="45.93709" lon="4.78646">
        <ele>176</ele>
        <time>2018-05-08T09:30:00Z</time>
      </trkpt>
      <trkpt lat="45.93713" lon="4.78641">
        <ele>176</ele>
        <time>2018-05-08T09:30:01Z</time>
      </trkpt>
      <trkpt lat="45.93716" lon="4.78637">
        <ele>176</ele>
        <time>2018-05-08T09:30:02Z</time>
      </trkpt>
      <trkpt lat="45.93719" lon="4.78625">
        <ele>177</ele>
        <time>2018-05-08T09:30:04Z</time>
      </trkpt>
      <trkpt lat="45.93718" lon="4.78618">
        <ele>177</ele>
        <time>2018-05-08T09:30:05Z</time>
      </trkpt>
      <trkpt lat="45.93719" lon="4.78612">
        <ele>177</ele>
        <time>2018-05-08T09:30:06Z</time>
      </trkpt>
      <trkpt lat="45.93718" lon="4.78605">
        <ele>177</ele>
        <time>2018-05-08T09:30:07Z</time>
      </trkpt>
      <trkpt lat="45.93718" lon="4.78596">
        <ele>177</ele>
        <time>2018-05-08T09:30:08Z</time>
      </trkpt>
      <trkpt lat="45.9372" lon="4.78591">
        <ele>177</ele>
        <time>2018-05-08T09:30:09Z</time>
      </trkpt>
      <trkpt lat="45.93723" lon="4.78585">
        <ele>177</ele>
        <time>2018-05-08T09:30:10Z</time>
      </trkpt>
      <trkpt lat="45.93724" lon="4.78577">
        <ele>178</ele>
        <time>2018-05-08T09:30:11Z</time>
      </trkpt>
      <trkpt lat="45.93725" lon="4.7857">
        <ele>178</ele>
        <time>2018-05-08T09:30:12Z</time>
      </trkpt>
      <trkpt lat="45.93727" lon="4.78563">
        <ele>178</ele>
        <time>2018-05-08T09:30:13Z</time>
      </trkpt>
      <trkpt lat="45.93729" lon="4.78557">
        <ele>178</ele>
        <time>2018-05-08T09:30:14Z</time>
      </trkpt>
      <trkpt lat="45.9373" lon="4.78551">
        <ele>178</ele>
        <time>2018-05-08T09:30:15Z</time>
      </trkpt>
      <trkpt lat="45.93733" lon="4.78539">
        <ele>178</ele>
        <time>2018-05-08T09:30:17Z</time>
      </trkpt>
      <trkpt lat="45.93735" lon="4.78531">
        <ele>179</ele>
        <time>2018-05-08T09:30:18Z</time>
      </trkpt>
      <trkpt lat="45.93739" lon="4.7852">
        <ele>179</ele>
        <time>2018-05-08T09:30:20Z</time>
      </trkpt>
      <trkpt lat="45.9374" lon="4.78514">
        <ele>179</ele>
        <time>2018-05-08T09:30:21Z</time>
      </trkpt>
      <trkpt lat="45.93742" lon="4.78506">
        <ele>180</ele>
        <time>2018-05-08T09:30:22Z</time>
      </trkpt>
      <trkpt lat="45.93743" lon="4.785">
        <ele>181</ele>
        <time>2018-05-08T09:30:23Z</time>
      </trkpt>
      <trkpt lat="45.93745" lon="4.78488">
        <ele>180</ele>
        <time>2018-05-08T09:30:25Z</time>
      </trkpt>
      <trkpt lat="45.93747" lon="4.78482">
        <ele>180</ele>
        <time>2018-05-08T09:30:26Z</time>
      </trkpt>
      <trkpt lat="45.9375" lon="4.78474">
        <ele>183</ele>
        <time>2018-05-08T09:30:28Z</time>
      </trkpt>
      <trkpt lat="45.93753" lon="4.78466">
        <ele>184</ele>
        <time>2018-05-08T09:30:29Z</time>
      </trkpt>
      <trkpt lat="45.93753" lon="4.7846">
        <ele>184</ele>
        <time>2018-05-08T09:30:30Z</time>
      </trkpt>
      <trkpt lat="45.93754" lon="4.78453">
        <ele>184</ele>
        <time>2018-05-08T09:30:31Z</time>
      </trkpt>
      <trkpt lat="45.93757" lon="4.78447">
        <ele>184</ele>
        <time>2018-05-08T09:30:32Z</time>
      </trkpt>
      <trkpt lat="45.93758" lon="4.7844">
        <ele>183</ele>
        <time>2018-05-08T09:30:33Z</time>
      </trkpt>
      <trkpt lat="45.93761" lon="4.7843">
        <ele>183</ele>
        <time>2018-05-08T09:30:35Z</time>
      </trkpt>
      <trkpt lat="45.93764" lon="4.78424">
        <ele>183</ele>
        <time>2018-05-08T09:30:36Z</time>
      </trkpt>
      <trkpt lat="45.93767" lon="4.78413">
        <ele>183</ele>
        <time>2018-05-08T09:30:38Z</time>
      </trkpt>
      <trkpt lat="45.93768" lon="4.78406">
        <ele>183</ele>
        <time>2018-05-08T09:30:39Z</time>
      </trkpt>
      <trkpt lat="45.9377" lon="4.784">
        <ele>183</ele>
        <time>2018-05-08T09:30:40Z</time>
      </trkpt>
      <trkpt lat="45.93772" lon="4.78394">
        <ele>183</ele>
        <time>2018-05-08T09:30:41Z</time>
      </trkpt>
      <trkpt lat="45.93775" lon="4.78382">
        <ele>183</ele>
        <time>2018-05-08T09:30:43Z</time>
      </trkpt>
      <trkpt lat="45.93777" lon="4.78377">
        <ele>184</ele>
        <time>2018-05-08T09:30:44Z</time>
      </trkpt>
      <trkpt lat="45.93779" lon="4.78369">
        <ele>184</ele>
        <time>2018-05-08T09:30:45Z</time>
      </trkpt>
      <trkpt lat="45.9378" lon="4.78363">
        <ele>184</ele>
        <time>2018-05-08T09:30:46Z</time>
      </trkpt>
      <trkpt lat="45.93782" lon="4.78357">
        <ele>184</ele>
        <time>2018-05-08T09:30:47Z</time>
      </trkpt>
      <trkpt lat="45.93783" lon="4.7835">
        <ele>184</ele>
        <time>2018-05-08T09:30:48Z</time>
      </trkpt>
      <trkpt lat="45.93786" lon="4.78342">
        <ele>184</ele>
        <time>2018-05-08T09:30:49Z</time>
      </trkpt>
      <trkpt lat="45.93787" lon="4.78335">
        <ele>184</ele>
        <time>2018-05-08T09:30:50Z</time>
      </trkpt>
      <trkpt lat="45.93789" lon="4.7833">
        <ele>183</ele>
        <time>2018-05-08T09:30:51Z</time>
      </trkpt>
      <trkpt lat="45.93789" lon="4.78323">
        <ele>183</ele>
        <time>2018-05-08T09:30:52Z</time>
      </trkpt>
      <trkpt lat="45.93791" lon="4.78316">
        <ele>183</ele>
        <time>2018-05-08T09:30:53Z</time>
      </trkpt>
      <trkpt lat="45.93793" lon="4.78308">
        <ele>183</ele>
        <time>2018-05-08T09:30:54Z</time>
      </trkpt>
      <trkpt lat="45.93795" lon="4.78299">
        <ele>183</ele>
        <time>2018-05-08T09:30:55Z</time>
      </trkpt>
      <trkpt lat="45.93798" lon="4.78293">
        <ele>183</ele>
        <time>2018-05-08T09:30:56Z</time>
      </trkpt>
      <trkpt lat="45.93799" lon="4.78287">
        <ele>183</ele>
        <time>2018-05-08T09:30:58Z</time>
      </trkpt>
      <trkpt lat="45.93803" lon="4.78281">
        <ele>183</ele>
        <time>2018-05-08T09:30:59Z</time>
      </trkpt>
      <trkpt lat="45.93806" lon="4.78275">
        <ele>183</ele>
        <time>2018-05-08T09:31:00Z</time>
      </trkpt>
      <trkpt lat="45.9381" lon="4.78266">
        <ele>183</ele>
        <time>2018-05-08T09:31:01Z</time>
      </trkpt>
      <trkpt lat="45.93815" lon="4.78258">
        <ele>184</ele>
        <time>2018-05-08T09:31:02Z</time>
      </trkpt>
      <trkpt lat="45.93817" lon="4.7825">
        <ele>184</ele>
        <time>2018-05-08T09:31:03Z</time>
      </trkpt>
      <trkpt lat="45.9382" lon="4.78243">
        <ele>183</ele>
        <time>2018-05-08T09:31:04Z</time>
      </trkpt>
      <trkpt lat="45.93821" lon="4.78236">
        <ele>183</ele>
        <time>2018-05-08T09:31:05Z</time>
      </trkpt>
      <trkpt lat="45.93822" lon="4.78229">
        <ele>183</ele>
        <time>2018-05-08T09:31:06Z</time>
      </trkpt>
      <trkpt lat="45.93824" lon="4.78222">
        <ele>182</ele>
        <time>2018-05-08T09:31:07Z</time>
      </trkpt>
      <trkpt lat="45.93826" lon="4.78214">
        <ele>182</ele>
        <time>2018-05-08T09:31:08Z</time>
      </trkpt>
      <trkpt lat="45.93827" lon="4.78206">
        <ele>182</ele>
        <time>2018-05-08T09:31:09Z</time>
      </trkpt>
      <trkpt lat="45.93829" lon="4.78199">
        <ele>182</ele>
        <time>2018-05-08T09:31:10Z</time>
      </trkpt>
      <trkpt lat="45.93832" lon="4.78192">
        <ele>182</ele>
        <time>2018-05-08T09:31:11Z</time>
      </trkpt>
      <trkpt lat="45.93835" lon="4.78184">
        <ele>184</ele>
        <time>2018-05-08T09:31:12Z</time>
      </trkpt>
      <trkpt lat="45.93837" lon="4.78176">
        <ele>184</ele>
        <time>2018-05-08T09:31:13Z</time>
      </trkpt>
      <trkpt lat="45.93839" lon="4.78169">
        <ele>183</ele>
        <time>2018-05-08T09:31:14Z</time>
      </trkpt>
      <trkpt lat="45.93841" lon="4.78162">
        <ele>183</ele>
        <time>2018-05-08T09:31:15Z</time>
      </trkpt>
      <trkpt lat="45.93843" lon="4.78154">
        <ele>184</ele>
        <time>2018-05-08T09:31:16Z</time>
      </trkpt>
      <trkpt lat="45.93845" lon="4.78147">
        <ele>184</ele>
        <time>2018-05-08T09:31:17Z</time>
      </trkpt>
      <trkpt lat="45.93848" lon="4.78139">
        <ele>185</ele>
        <time>2018-05-08T09:31:18Z</time>
      </trkpt>
      <trkpt lat="45.9385" lon="4.78129">
        <ele>185</ele>
        <time>2018-05-08T09:31:19Z</time>
      </trkpt>
      <trkpt lat="45.93852" lon="4.78122">
        <ele>185</ele>
        <time>2018-05-08T09:31:20Z</time>
      </trkpt>
      <trkpt lat="45.93853" lon="4.78116">
        <ele>185</ele>
        <time>2018-05-08T09:31:21Z</time>
      </trkpt>
      <trkpt lat="45.93854" lon="4.78108">
        <ele>185</ele>
        <time>2018-05-08T09:31:22Z</time>
      </trkpt>
      <trkpt lat="45.93856" lon="4.781">
        <ele>184</ele>
        <time>2018-05-08T09:31:23Z</time>
      </trkpt>
      <trkpt lat="45.9386" lon="4.78091">
        <ele>184</ele>
        <time>2018-05-08T09:31:24Z</time>
      </trkpt>
      <trkpt lat="45.93861" lon="4.78082">
        <ele>183</ele>
        <time>2018-05-08T09:31:25Z</time>
      </trkpt>
      <trkpt lat="45.93863" lon="4.78074">
        <ele>183</ele>
        <time>2018-05-08T09:31:26Z</time>
      </trkpt>
      <trkpt lat="45.93865" lon="4.78065">
        <ele>183</ele>
        <time>2018-05-08T09:31:27Z</time>
      </trkpt>
      <trkpt lat="45.93866" lon="4.78056">
        <ele>183</ele>
        <time>2018-05-08T09:31:28Z</time>
      </trkpt>
      <trkpt lat="45.93866" lon="4.78048">
        <ele>183</ele>
        <time>2018-05-08T09:31:29Z</time>
      </trkpt>
      <trkpt lat="45.93869" lon="4.7804">
        <ele>183</ele>
        <time>2018-05-08T09:31:30Z</time>
      </trkpt>
      <trkpt lat="45.93872" lon="4.78032">
        <ele>183</ele>
        <time>2018-05-08T09:31:31Z</time>
      </trkpt>
      <trkpt lat="45.93872" lon="4.78023">
        <ele>183</ele>
        <time>2018-05-08T09:31:32Z</time>
      </trkpt>
      <trkpt lat="45.93874" lon="4.78014">
        <ele>183</ele>
        <time>2018-05-08T09:31:33Z</time>
      </trkpt>
      <trkpt lat="45.93875" lon="4.78006">
        <ele>183</ele>
        <time>2018-05-08T09:31:34Z</time>
      </trkpt>
      <trkpt lat="45.93877" lon="4.77996">
        <ele>180</ele>
        <time>2018-05-08T09:31:35Z</time>
      </trkpt>
      <trkpt lat="45.9388" lon="4.77988">
        <ele>180</ele>
        <time>2018-05-08T09:31:36Z</time>
      </trkpt>
      <trkpt lat="45.93883" lon="4.77978">
        <ele>180</ele>
        <time>2018-05-08T09:31:37Z</time>
      </trkpt>
      <trkpt lat="45.93885" lon="4.77966">
        <ele>180</ele>
        <time>2018-05-08T09:31:38Z</time>
      </trkpt>
      <trkpt lat="45.93887" lon="4.77955">
        <ele>180</ele>
        <time>2018-05-08T09:31:39Z</time>
      </trkpt>
      <trkpt lat="45.93889" lon="4.77946">
        <ele>179</ele>
        <time>2018-05-08T09:31:40Z</time>
      </trkpt>
      <trkpt lat="45.93891" lon="4.77936">
        <ele>180</ele>
        <time>2018-05-08T09:31:41Z</time>
      </trkpt>
      <trkpt lat="45.93894" lon="4.77923">
        <ele>180</ele>
        <time>2018-05-08T09:31:42Z</time>
      </trkpt>
      <trkpt lat="45.93897" lon="4.77911">
        <ele>178</ele>
        <time>2018-05-08T09:31:43Z</time>
      </trkpt>
      <trkpt lat="45.939" lon="4.779">
        <ele>177</ele>
        <time>2018-05-08T09:31:44Z</time>
      </trkpt>
      <trkpt lat="45.93902" lon="4.77891">
        <ele>177</ele>
        <time>2018-05-08T09:31:45Z</time>
      </trkpt>
      <trkpt lat="45.93906" lon="4.77881">
        <ele>176</ele>
        <time>2018-05-08T09:31:46Z</time>
      </trkpt>
      <trkpt lat="45.9391" lon="4.7787">
        <ele>176</ele>
        <time>2018-05-08T09:31:47Z</time>
      </trkpt>
      <trkpt lat="45.93914" lon="4.7786">
        <ele>176</ele>
        <time>2018-05-08T09:31:48Z</time>
      </trkpt>
      <trkpt lat="45.93917" lon="4.7785">
        <ele>182</ele>
        <time>2018-05-08T09:31:49Z</time>
      </trkpt>
      <trkpt lat="45.9392" lon="4.77839">
        <ele>180</ele>
        <time>2018-05-08T09:31:50Z</time>
      </trkpt>
      <trkpt lat="45.93923" lon="4.77828">
        <ele>179</ele>
        <time>2018-05-08T09:31:51Z</time>
      </trkpt>
      <trkpt lat="45.93926" lon="4.77817">
        <ele>180</ele>
        <time>2018-05-08T09:31:52Z</time>
      </trkpt>
      <trkpt lat="45.93927" lon="4.77807">
        <ele>180</ele>
        <time>2018-05-08T09:31:53Z</time>
      </trkpt>
      <trkpt lat="45.93931" lon="4.77794">
        <ele>180</ele>
        <time>2018-05-08T09:31:54Z</time>
      </trkpt>
      <trkpt lat="45.93934" lon="4.77784">
        <ele>179</ele>
        <time>2018-05-08T09:31:55Z</time>
      </trkpt>
      <trkpt lat="45.93937" lon="4.77773">
        <ele>178</ele>
        <time>2018-05-08T09:31:56Z</time>
      </trkpt>
      <trkpt lat="45.93941" lon="4.77764">
        <ele>178</ele>
        <time>2018-05-08T09:31:57Z</time>
      </trkpt>
      <trkpt lat="45.93945" lon="4.77756">
        <ele>178</ele>
        <time>2018-05-08T09:31:58Z</time>
      </trkpt>
      <trkpt lat="45.93949" lon="4.77747">
        <ele>176</ele>
        <time>2018-05-08T09:31:59Z</time>
      </trkpt>
      <trkpt lat="45.93953" lon="4.77741">
        <ele>177</ele>
        <time>2018-05-08T09:32:00Z</time>
      </trkpt>
      <trkpt lat="45.93957" lon="4.77732">
        <ele>178</ele>
        <time>2018-05-08T09:32:01Z</time>
      </trkpt>
      <trkpt lat="45.93959" lon="4.77723">
        <ele>178</ele>
        <time>2018-05-08T09:32:02Z</time>
      </trkpt>
      <trkpt lat="45.93962" lon="4.77716">
        <ele>179</ele>
        <time>2018-05-08T09:32:03Z</time>
      </trkpt>
      <trkpt lat="45.93965" lon="4.77708">
        <ele>179</ele>
        <time>2018-05-08T09:32:04Z</time>
      </trkpt>
      <trkpt lat="45.93967" lon="4.77699">
        <ele>179</ele>
        <time>2018-05-08T09:32:05Z</time>
      </trkpt>
      <trkpt lat="45.93971" lon="4.77692">
        <ele>180</ele>
        <time>2018-05-08T09:32:06Z</time>
      </trkpt>
      <trkpt lat="45.93973" lon="4.77685">
        <ele>181</ele>
        <time>2018-05-08T09:32:07Z</time>
      </trkpt>
      <trkpt lat="45.93975" lon="4.77676">
        <ele>181</ele>
        <time>2018-05-08T09:32:08Z</time>
      </trkpt>
      <trkpt lat="45.93976" lon="4.77666">
        <ele>181</ele>
        <time>2018-05-08T09:32:09Z</time>
      </trkpt>
      <trkpt lat="45.93979" lon="4.7766">
        <ele>182</ele>
        <time>2018-05-08T09:32:10Z</time>
      </trkpt>
      <trkpt lat="45.93981" lon="4.77652">
        <ele>181</ele>
        <time>2018-05-08T09:32:11Z</time>
      </trkpt>
      <trkpt lat="45.93983" lon="4.77644">
        <ele>181</ele>
        <time>2018-05-08T09:32:12Z</time>
      </trkpt>
      <trkpt lat="45.93985" lon="4.77637">
        <ele>181</ele>
        <time>2018-05-08T09:32:13Z</time>
      </trkpt>
      <trkpt lat="45.93986" lon="4.77628">
        <ele>180</ele>
        <time>2018-05-08T09:32:14Z</time>
      </trkpt>
      <trkpt lat="45.93987" lon="4.77621">
        <ele>180</ele>
        <time>2018-05-08T09:32:15Z</time>
      </trkpt>
      <trkpt lat="45.93989" lon="4.77611">
        <ele>181</ele>
        <time>2018-05-08T09:32:16Z</time>
      </trkpt>
      <trkpt lat="45.93989" lon="4.77605">
        <ele>181</ele>
        <time>2018-05-08T09:32:17Z</time>
      </trkpt>
      <trkpt lat="45.93991" lon="4.77596">
        <ele>183</ele>
        <time>2018-05-08T09:32:18Z</time>
      </trkpt>
      <trkpt lat="45.93993" lon="4.77588">
        <ele>184</ele>
        <time>2018-05-08T09:32:19Z</time>
      </trkpt>
      <trkpt lat="45.93994" lon="4.77581">
        <ele>184</ele>
        <time>2018-05-08T09:32:20Z</time>
      </trkpt>
      <trkpt lat="45.93997" lon="4.77569">
        <ele>182</ele>
        <time>2018-05-08T09:32:23Z</time>
      </trkpt>
      <trkpt lat="45.93998" lon="4.77566">
        <ele>182</ele>
        <time>2018-05-08T09:32:24Z</time>
      </trkpt>
      <trkpt lat="45.94001" lon="4.77554">
        <ele>190</ele>
        <time>2018-05-08T09:32:54Z</time>
      </trkpt>
      <trkpt lat="45.94001" lon="4.77554">
        <ele>190</ele>
        <time>2018-05-08T09:32:55Z</time>
      </trkpt>
      <trkpt lat="45.93994" lon="4.77558">
        <ele>180</ele>
        <time>2018-05-08T09:37:54Z</time>
      </trkpt>
      <trkpt lat="45.93994" lon="4.77558">
        <ele>180</ele>
        <time>2018-05-08T09:37:55Z</time>
      </trkpt>
      <trkpt lat="45.93994" lon="4.77558">
        <ele>180</ele>
        <time>2018-05-08T09:37:56Z</time>
      </trkpt>
      <trkpt lat="45.93986" lon="4.77552">
        <ele>179</ele>
        <time>2018-05-08T09:38:32Z</time>
      </trkpt>
      <trkpt lat="45.93986" lon="4.77551">
        <ele>179</ele>
        <time>2018-05-08T09:38:33Z</time>
      </trkpt>
      <trkpt lat="45.93994" lon="4.77556">
        <ele>180</ele>
        <time>2018-05-08T09:39:12Z</time>
      </trkpt>
      <trkpt lat="45.93994" lon="4.77556">
        <ele>180</ele>
        <time>2018-05-08T09:39:13Z</time>
      </trkpt>
      <trkpt lat="45.93998" lon="4.77555">
        <ele>180</ele>
        <time>2018-05-08T09:42:01Z</time>
      </trkpt>
      <trkpt lat="45.93998" lon="4.77555">
        <ele>180</ele>
        <time>2018-05-08T09:42:02Z</time>
      </trkpt>
      <trkpt lat="45.93998" lon="4.77554">
        <ele>180</ele>
        <time>2018-05-08T09:42:30Z</time>
      </trkpt>
      <trkpt lat="45.93998" lon="4.77554">
        <ele>180</ele>
        <time>2018-05-08T09:42:31Z</time>
      </trkpt>
      <trkpt lat="45.93999" lon="4.77555">
        <ele>180</ele>
        <time>2018-05-08T09:43:36Z</time>
      </trkpt>
      <trkpt lat="45.93999" lon="4.77555">
        <ele>180</ele>
        <time>2018-05-08T09:43:37Z</time>
      </trkpt>
      <trkpt lat="45.93999" lon="4.77555">
        <ele>180</ele>
        <time>2018-05-08T09:43:39Z</time>
      </trkpt>
      <trkpt lat="45.93999" lon="4.77555">
        <ele>180</ele>
        <time>2018-05-08T09:43:40Z</time>
      </trkpt>
      <trkpt lat="45.93994" lon="4.77557">
        <ele>180</ele>
        <time>2018-05-08T09:43:51Z</time>
      </trkpt>
      <trkpt lat="45.93994" lon="4.77556">
        <ele>180</ele>
        <time>2018-05-08T09:43:52Z</time>
      </trkpt>
      <trkpt lat="45.93994" lon="4.77556">
        <ele>180</ele>
        <time>2018-05-08T09:43:53Z</time>
      </trkpt>
      <trkpt lat="45.93998" lon="4.77548">
        <ele>179</ele>
        <time>2018-05-08T09:44:14Z</time>
      </trkpt>
      <trkpt lat="45.93999" lon="4.77544">
        <ele>179</ele>
        <time>2018-05-08T09:44:15Z</time>
      </trkpt>
      <trkpt lat="45.94001" lon="4.77532">
        <ele>190</ele>
        <time>2018-05-08T09:44:18Z</time>
      </trkpt>
      <trkpt lat="45.94003" lon="4.77518">
        <ele>188</ele>
        <time>2018-05-08T09:44:19Z</time>
      </trkpt>
      <trkpt lat="45.94005" lon="4.77506">
        <ele>186</ele>
        <time>2018-05-08T09:44:21Z</time>
      </trkpt>
      <trkpt lat="45.94006" lon="4.775">
        <ele>184</ele>
        <time>2018-05-08T09:44:22Z</time>
      </trkpt>
      <trkpt lat="45.94007" lon="4.77487">
        <ele>185</ele>
        <time>2018-05-08T09:44:24Z</time>
      </trkpt>
      <trkpt lat="45.94008" lon="4.77481">
        <ele>185</ele>
        <time>2018-05-08T09:44:25Z</time>
      </trkpt>
      <trkpt lat="45.94009" lon="4.77469">
        <ele>185</ele>
        <time>2018-05-08T09:44:27Z</time>
      </trkpt>
      <trkpt lat="45.9401" lon="4.77467">
        <ele>185</ele>
        <time>2018-05-08T09:44:28Z</time>
      </trkpt>
      <trkpt lat="45.9401" lon="4.77464">
        <ele>185</ele>
        <time>2018-05-08T09:44:29Z</time>
      </trkpt>
      <trkpt lat="45.94011" lon="4.77453">
        <ele>185</ele>
        <time>2018-05-08T09:44:30Z</time>
      </trkpt>
      <trkpt lat="45.94013" lon="4.77441">
        <ele>184</ele>
        <time>2018-05-08T09:44:32Z</time>
      </trkpt>
      <trkpt lat="45.94013" lon="4.77435">
        <ele>183</ele>
        <time>2018-05-08T09:44:33Z</time>
      </trkpt>
      <trkpt lat="45.94014" lon="4.77424">
        <ele>182</ele>
        <time>2018-05-08T09:44:35Z</time>
      </trkpt>
      <trkpt lat="45.94015" lon="4.77421">
        <ele>181</ele>
        <time>2018-05-08T09:44:36Z</time>
      </trkpt>
      <trkpt lat="45.94016" lon="4.77409">
        <ele>179</ele>
        <time>2018-05-08T09:44:38Z</time>
      </trkpt>
      <trkpt lat="45.94016" lon="4.774">
        <ele>179</ele>
        <time>2018-05-08T09:44:39Z</time>
      </trkpt>
      <trkpt lat="45.94016" lon="4.77394">
        <ele>180</ele>
        <time>2018-05-08T09:44:40Z</time>
      </trkpt>
      <trkpt lat="45.94017" lon="4.77387">
        <ele>180</ele>
        <time>2018-05-08T09:44:41Z</time>
      </trkpt>
      <trkpt lat="45.94018" lon="4.77381">
        <ele>180</ele>
        <time>2018-05-08T09:44:42Z</time>
      </trkpt>
      <trkpt lat="45.94019" lon="4.77374">
        <ele>180</ele>
        <time>2018-05-08T09:44:43Z</time>
      </trkpt>
      <trkpt lat="45.94019" lon="4.77368">
        <ele>179</ele>
        <time>2018-05-08T09:44:44Z</time>
      </trkpt>
      <trkpt lat="45.94019" lon="4.7736">
        <ele>179</ele>
        <time>2018-05-08T09:44:45Z</time>
      </trkpt>
      <trkpt lat="45.94019" lon="4.77348">
        <ele>178</ele>
        <time>2018-05-08T09:44:47Z</time>
      </trkpt>
      <trkpt lat="45.94021" lon="4.7734">
        <ele>178</ele>
        <time>2018-05-08T09:44:48Z</time>
      </trkpt>
      <trkpt lat="45.94022" lon="4.77329">
        <ele>176</ele>
        <time>2018-05-08T09:44:50Z</time>
      </trkpt>
      <trkpt lat="45.94022" lon="4.77322">
        <ele>176</ele>
        <time>2018-05-08T09:44:51Z</time>
      </trkpt>
      <trkpt lat="45.94023" lon="4.77315">
        <ele>176</ele>
        <time>2018-05-08T09:44:52Z</time>
      </trkpt>
      <trkpt lat="45.94024" lon="4.77309">
        <ele>176</ele>
        <time>2018-05-08T09:44:53Z</time>
      </trkpt>
      <trkpt lat="45.94024" lon="4.77301">
        <ele>176</ele>
        <time>2018-05-08T09:44:54Z</time>
      </trkpt>
      <trkpt lat="45.94023" lon="4.77294">
        <ele>176</ele>
        <time>2018-05-08T09:44:55Z</time>
      </trkpt>
      <trkpt lat="45.94026" lon="4.7729">
        <ele>176</ele>
        <time>2018-05-08T09:44:56Z</time>
      </trkpt>
      <trkpt lat="45.94027" lon="4.77281">
        <ele>176</ele>
        <time>2018-05-08T09:44:57Z</time>
      </trkpt>
      <trkpt lat="45.94026" lon="4.77275">
        <ele>176</ele>
        <time>2018-05-08T09:44:58Z</time>
      </trkpt>
      <trkpt lat="45.94028" lon="4.77268">
        <ele>176</ele>
        <time>2018-05-08T09:44:59Z</time>
      </trkpt>
      <trkpt lat="45.94028" lon="4.77261">
        <ele>175</ele>
        <time>2018-05-08T09:45:00Z</time>
      </trkpt>
      <trkpt lat="45.94028" lon="4.77254">
        <ele>175</ele>
        <time>2018-05-08T09:45:01Z</time>
      </trkpt>
      <trkpt lat="45.94028" lon="4.77248">
        <ele>174</ele>
        <time>2018-05-08T09:45:02Z</time>
      </trkpt>
      <trkpt lat="45.94029" lon="4.7724">
        <ele>174</ele>
        <time>2018-05-08T09:45:03Z</time>
      </trkpt>
      <trkpt lat="45.94029" lon="4.77235">
        <ele>174</ele>
        <time>2018-05-08T09:45:04Z</time>
      </trkpt>
      <trkpt lat="45.94031" lon="4.77226">
        <ele>175</ele>
        <time>2018-05-08T09:45:05Z</time>
      </trkpt>
      <trkpt lat="45.94031" lon="4.77218">
        <ele>175</ele>
        <time>2018-05-08T09:45:06Z</time>
      </trkpt>
      <trkpt lat="45.94032" lon="4.7721">
        <ele>175</ele>
        <time>2018-05-08T09:45:07Z</time>
      </trkpt>
      <trkpt lat="45.94033" lon="4.77203">
        <ele>175</ele>
        <time>2018-05-08T09:45:08Z</time>
      </trkpt>
      <trkpt lat="45.94033" lon="4.77195">
        <ele>175</ele>
        <time>2018-05-08T09:45:09Z</time>
      </trkpt>
      <trkpt lat="45.94034" lon="4.77185">
        <ele>175</ele>
        <time>2018-05-08T09:45:10Z</time>
      </trkpt>
      <trkpt lat="45.94036" lon="4.77176">
        <ele>175</ele>
        <time>2018-05-08T09:45:11Z</time>
      </trkpt>
      <trkpt lat="45.94035" lon="4.77169">
        <ele>175</ele>
        <time>2018-05-08T09:45:12Z</time>
      </trkpt>
      <trkpt lat="45.94038" lon="4.7716">
        <ele>175</ele>
        <time>2018-05-08T09:45:13Z</time>
      </trkpt>
      <trkpt lat="45.94038" lon="4.77154">
        <ele>175</ele>
        <time>2018-05-08T09:45:14Z</time>
      </trkpt>
      <trkpt lat="45.94039" lon="4.77145">
        <ele>175</ele>
        <time>2018-05-08T09:45:15Z</time>
      </trkpt>
      <trkpt lat="45.94041" lon="4.77136">
        <ele>175</ele>
        <time>2018-05-08T09:45:16Z</time>
      </trkpt>
      <trkpt lat="45.94041" lon="4.77128">
        <ele>175</ele>
        <time>2018-05-08T09:45:17Z</time>
      </trkpt>
      <trkpt lat="45.94042" lon="4.77117">
        <ele>175</ele>
        <time>2018-05-08T09:45:18Z</time>
      </trkpt>
      <trkpt lat="45.94041" lon="4.7711">
        <ele>175</ele>
        <time>2018-05-08T09:45:19Z</time>
      </trkpt>
      <trkpt lat="45.94043" lon="4.77103">
        <ele>175</ele>
        <time>2018-05-08T09:45:20Z</time>
      </trkpt>
      <trkpt lat="45.94044" lon="4.77095">
        <ele>175</ele>
        <time>2018-05-08T09:45:21Z</time>
      </trkpt>
      <trkpt lat="45.94046" lon="4.77089">
        <ele>175</ele>
        <time>2018-05-08T09:45:22Z</time>
      </trkpt>
      <trkpt lat="45.94047" lon="4.77081">
        <ele>175</ele>
        <time>2018-05-08T09:45:23Z</time>
      </trkpt>
      <trkpt lat="45.94047" lon="4.77074">
        <ele>175</ele>
        <time>2018-05-08T09:45:24Z</time>
      </trkpt>
      <trkpt lat="45.94046" lon="4.77067">
        <ele>175</ele>
        <time>2018-05-08T09:45:25Z</time>
      </trkpt>
      <trkpt lat="45.94045" lon="4.77064">
        <ele>174</ele>
        <time>2018-05-08T09:45:26Z</time>
      </trkpt>
      <trkpt lat="45.94045" lon="4.77054">
        <ele>174</ele>
        <time>2018-05-08T09:45:27Z</time>
      </trkpt>
      <trkpt lat="45.94048" lon="4.77045">
        <ele>174</ele>
        <time>2018-05-08T09:45:28Z</time>
      </trkpt>
      <trkpt lat="45.94051" lon="4.77038">
        <ele>175</ele>
        <time>2018-05-08T09:45:29Z</time>
      </trkpt>
      <trkpt lat="45.94051" lon="4.77031">
        <ele>175</ele>
        <time>2018-05-08T09:45:30Z</time>
      </trkpt>
      <trkpt lat="45.94052" lon="4.77023">
        <ele>175</ele>
        <time>2018-05-08T09:45:31Z</time>
      </trkpt>
      <trkpt lat="45.94053" lon="4.77011">
        <ele>175</ele>
        <time>2018-05-08T09:45:33Z</time>
      </trkpt>
      <trkpt lat="45.94055" lon="4.77004">
        <ele>175</ele>
        <time>2018-05-08T09:45:34Z</time>
      </trkpt>
      <trkpt lat="45.94057" lon="4.76997">
        <ele>175</ele>
        <time>2018-05-08T09:45:35Z</time>
      </trkpt>
      <trkpt lat="45.9406" lon="4.76991">
        <ele>175</ele>
        <time>2018-05-08T09:45:36Z</time>
      </trkpt>
      <trkpt lat="45.94063" lon="4.76984">
        <ele>175</ele>
        <time>2018-05-08T09:45:37Z</time>
      </trkpt>
      <trkpt lat="45.94066" lon="4.76976">
        <ele>175</ele>
        <time>2018-05-08T09:45:38Z</time>
      </trkpt>
      <trkpt lat="45.94065" lon="4.76965">
        <ele>174</ele>
        <time>2018-05-08T09:45:40Z</time>
      </trkpt>
      <trkpt lat="45.94063" lon="4.76959">
        <ele>174</ele>
        <time>2018-05-08T09:45:41Z</time>
      </trkpt>
      <trkpt lat="45.94057" lon="4.76956">
        <ele>174</ele>
        <time>2018-05-08T09:45:42Z</time>
      </trkpt>
      <trkpt lat="45.94053" lon="4.76952">
        <ele>174</ele>
        <time>2018-05-08T09:45:43Z</time>
      </trkpt>
      <trkpt lat="45.94048" lon="4.76948">
        <ele>174</ele>
        <time>2018-05-08T09:45:44Z</time>
      </trkpt>
      <trkpt lat="45.94045" lon="4.76942">
        <ele>174</ele>
        <time>2018-05-08T09:45:45Z</time>
      </trkpt>
      <trkpt lat="45.94041" lon="4.76936">
        <ele>174</ele>
        <time>2018-05-08T09:45:46Z</time>
      </trkpt>
      <trkpt lat="45.9404" lon="4.76929">
        <ele>174</ele>
        <time>2018-05-08T09:45:47Z</time>
      </trkpt>
      <trkpt lat="45.94039" lon="4.76921">
        <ele>174</ele>
        <time>2018-05-08T09:45:48Z</time>
      </trkpt>
      <trkpt lat="45.94036" lon="4.76915">
        <ele>173</ele>
        <time>2018-05-08T09:45:49Z</time>
      </trkpt>
      <trkpt lat="45.94034" lon="4.76907">
        <ele>173</ele>
        <time>2018-05-08T09:45:50Z</time>
      </trkpt>
      <trkpt lat="45.94033" lon="4.76901">
        <ele>173</ele>
        <time>2018-05-08T09:45:51Z</time>
      </trkpt>
      <trkpt lat="45.9403" lon="4.76893">
        <ele>173</ele>
        <time>2018-05-08T09:45:52Z</time>
      </trkpt>
      <trkpt lat="45.94027" lon="4.76886">
        <ele>173</ele>
        <time>2018-05-08T09:45:53Z</time>
      </trkpt>
      <trkpt lat="45.94024" lon="4.76877">
        <ele>173</ele>
        <time>2018-05-08T09:45:54Z</time>
      </trkpt>
      <trkpt lat="45.94019" lon="4.76871">
        <ele>173</ele>
        <time>2018-05-08T09:45:55Z</time>
      </trkpt>
      <trkpt lat="45.94016" lon="4.76864">
        <ele>172</ele>
        <time>2018-05-08T09:45:56Z</time>
      </trkpt>
      <trkpt lat="45.94013" lon="4.76857">
        <ele>172</ele>
        <time>2018-05-08T09:45:57Z</time>
      </trkpt>
      <trkpt lat="45.9401" lon="4.7685">
        <ele>172</ele>
        <time>2018-05-08T09:45:58Z</time>
      </trkpt>
      <trkpt lat="45.94008" lon="4.76842">
        <ele>172</ele>
        <time>2018-05-08T09:45:59Z</time>
      </trkpt>
      <trkpt lat="45.94006" lon="4.76834">
        <ele>171</ele>
        <time>2018-05-08T09:46:00Z</time>
      </trkpt>
      <trkpt lat="45.94003" lon="4.76827">
        <ele>172</ele>
        <time>2018-05-08T09:46:01Z</time>
      </trkpt>
      <trkpt lat="45.94002" lon="4.76819">
        <ele>172</ele>
        <time>2018-05-08T09:46:02Z</time>
      </trkpt>
      <trkpt lat="45.94002" lon="4.76812">
        <ele>172</ele>
        <time>2018-05-08T09:46:03Z</time>
      </trkpt>
      <trkpt lat="45.94001" lon="4.76806">
        <ele>172</ele>
        <time>2018-05-08T09:46:04Z</time>
      </trkpt>
      <trkpt lat="45.93999" lon="4.76798">
        <ele>172</ele>
        <time>2018-05-08T09:46:05Z</time>
      </trkpt>
      <trkpt lat="45.94" lon="4.76791">
        <ele>172</ele>
        <time>2018-05-08T09:46:06Z</time>
      </trkpt>
      <trkpt lat="45.93999" lon="4.76783">
        <ele>172</ele>
        <time>2018-05-08T09:46:07Z</time>
      </trkpt>
      <trkpt lat="45.93999" lon="4.76776">
        <ele>172</ele>
        <time>2018-05-08T09:46:08Z</time>
      </trkpt>
      <trkpt lat="45.94001" lon="4.7677">
        <ele>173</ele>
        <time>2018-05-08T09:46:09Z</time>
      </trkpt>
      <trkpt lat="45.94003" lon="4.76763">
        <ele>173</ele>
        <time>2018-05-08T09:46:10Z</time>
      </trkpt>
      <trkpt lat="45.94004" lon="4.76756">
        <ele>173</ele>
        <time>2018-05-08T09:46:11Z</time>
      </trkpt>
      <trkpt lat="45.94007" lon="4.76748">
        <ele>173</ele>
        <time>2018-05-08T09:46:12Z</time>
      </trkpt>
      <trkpt lat="45.94009" lon="4.76742">
        <ele>173</ele>
        <time>2018-05-08T09:46:13Z</time>
      </trkpt>
      <trkpt lat="45.94011" lon="4.76734">
        <ele>173</ele>
        <time>2018-05-08T09:46:14Z</time>
      </trkpt>
      <trkpt lat="45.94014" lon="4.76726">
        <ele>173</ele>
        <time>2018-05-08T09:46:15Z</time>
      </trkpt>
      <trkpt lat="45.94015" lon="4.76719">
        <ele>173</ele>
        <time>2018-05-08T09:46:16Z</time>
      </trkpt>
      <trkpt lat="45.94017" lon="4.7671">
        <ele>173</ele>
        <time>2018-05-08T09:46:17Z</time>
      </trkpt>
      <trkpt lat="45.94019" lon="4.76701">
        <ele>173</ele>
        <time>2018-05-08T09:46:18Z</time>
      </trkpt>
      <trkpt lat="45.9402" lon="4.76693">
        <ele>173</ele>
        <time>2018-05-08T09:46:19Z</time>
      </trkpt>
      <trkpt lat="45.94022" lon="4.76685">
        <ele>173</ele>
        <time>2018-05-08T09:46:20Z</time>
      </trkpt>
      <trkpt lat="45.94022" lon="4.76678">
        <ele>173</ele>
        <time>2018-05-08T09:46:21Z</time>
      </trkpt>
      <trkpt lat="45.94023" lon="4.76668">
        <ele>173</ele>
        <time>2018-05-08T09:46:22Z</time>
      </trkpt>
      <trkpt lat="45.94023" lon="4.76659">
        <ele>172</ele>
        <time>2018-05-08T09:46:23Z</time>
      </trkpt>
      <trkpt lat="45.9402" lon="4.76652">
        <ele>172</ele>
        <time>2018-05-08T09:46:24Z</time>
      </trkpt>
      <trkpt lat="45.94017" lon="4.76641">
        <ele>172</ele>
        <time>2018-05-08T09:46:25Z</time>
      </trkpt>
      <trkpt lat="45.94015" lon="4.76634">
        <ele>172</ele>
        <time>2018-05-08T09:46:26Z</time>
      </trkpt>
      <trkpt lat="45.94012" lon="4.76626">
        <ele>172</ele>
        <time>2018-05-08T09:46:27Z</time>
      </trkpt>
      <trkpt lat="45.94008" lon="4.76618">
        <ele>172</ele>
        <time>2018-05-08T09:46:28Z</time>
      </trkpt>
      <trkpt lat="45.94005" lon="4.7661">
        <ele>172</ele>
        <time>2018-05-08T09:46:29Z</time>
      </trkpt>
      <trkpt lat="45.94003" lon="4.76602">
        <ele>172</ele>
        <time>2018-05-08T09:46:30Z</time>
      </trkpt>
      <trkpt lat="45.94" lon="4.76594">
        <ele>172</ele>
        <time>2018-05-08T09:46:31Z</time>
      </trkpt>
      <trkpt lat="45.93998" lon="4.76585">
        <ele>172</ele>
        <time>2018-05-08T09:46:32Z</time>
      </trkpt>
      <trkpt lat="45.93996" lon="4.76576">
        <ele>172</ele>
        <time>2018-05-08T09:46:33Z</time>
      </trkpt>
      <trkpt lat="45.93994" lon="4.76567">
        <ele>172</ele>
        <time>2018-05-08T09:46:34Z</time>
      </trkpt>
      <trkpt lat="45.93995" lon="4.76557">
        <ele>172</ele>
        <time>2018-05-08T09:46:35Z</time>
      </trkpt>
      <trkpt lat="45.93992" lon="4.76548">
        <ele>172</ele>
        <time>2018-05-08T09:46:36Z</time>
      </trkpt>
      <trkpt lat="45.93993" lon="4.76538">
        <ele>171</ele>
        <time>2018-05-08T09:46:37Z</time>
      </trkpt>
      <trkpt lat="45.93994" lon="4.76529">
        <ele>171</ele>
        <time>2018-05-08T09:46:38Z</time>
      </trkpt>
      <trkpt lat="45.93994" lon="4.76519">
        <ele>171</ele>
        <time>2018-05-08T09:46:39Z</time>
      </trkpt>
      <trkpt lat="45.93994" lon="4.76509">
        <ele>171</ele>
        <time>2018-05-08T09:46:40Z</time>
      </trkpt>
      <trkpt lat="45.93994" lon="4.76501">
        <ele>171</ele>
        <time>2018-05-08T09:46:41Z</time>
      </trkpt>
      <trkpt lat="45.93993" lon="4.76492">
        <ele>171</ele>
        <time>2018-05-08T09:46:42Z</time>
      </trkpt>
      <trkpt lat="45.93992" lon="4.76484">
        <ele>170</ele>
        <time>2018-05-08T09:46:43Z</time>
      </trkpt>
      <trkpt lat="45.93992" lon="4.76473">
        <ele>170</ele>
        <time>2018-05-08T09:46:44Z</time>
      </trkpt>
      <trkpt lat="45.93992" lon="4.76464">
        <ele>170</ele>
        <time>2018-05-08T09:46:45Z</time>
      </trkpt>
      <trkpt lat="45.93993" lon="4.76456">
        <ele>170</ele>
        <time>2018-05-08T09:46:46Z</time>
      </trkpt>
      <trkpt lat="45.93995" lon="4.76449">
        <ele>170</ele>
        <time>2018-05-08T09:46:47Z</time>
      </trkpt>
      <trkpt lat="45.93994" lon="4.7644">
        <ele>169</ele>
        <time>2018-05-08T09:46:48Z</time>
      </trkpt>
      <trkpt lat="45.93994" lon="4.7643">
        <ele>169</ele>
        <time>2018-05-08T09:46:49Z</time>
      </trkpt>
      <trkpt lat="45.93994" lon="4.76423">
        <ele>169</ele>
        <time>2018-05-08T09:46:50Z</time>
      </trkpt>
      <trkpt lat="45.93997" lon="4.76417">
        <ele>168</ele>
        <time>2018-05-08T09:46:51Z</time>
      </trkpt>
      <trkpt lat="45.94001" lon="4.7641">
        <ele>168</ele>
        <time>2018-05-08T09:46:52Z</time>
      </trkpt>
      <trkpt lat="45.94003" lon="4.76404">
        <ele>169</ele>
        <time>2018-05-08T09:46:53Z</time>
      </trkpt>
      <trkpt lat="45.94006" lon="4.76399">
        <ele>169</ele>
        <time>2018-05-08T09:46:54Z</time>
      </trkpt>
      <trkpt lat="45.94011" lon="4.76393">
        <ele>169</ele>
        <time>2018-05-08T09:46:55Z</time>
      </trkpt>
      <trkpt lat="45.94015" lon="4.76388">
        <ele>169</ele>
        <time>2018-05-08T09:46:56Z</time>
      </trkpt>
      <trkpt lat="45.94018" lon="4.76384">
        <ele>169</ele>
        <time>2018-05-08T09:46:57Z</time>
      </trkpt>
      <trkpt lat="45.94023" lon="4.76379">
        <ele>170</ele>
        <time>2018-05-08T09:46:58Z</time>
      </trkpt>
      <trkpt lat="45.94027" lon="4.76374">
        <ele>170</ele>
        <time>2018-05-08T09:46:59Z</time>
      </trkpt>
      <trkpt lat="45.94033" lon="4.76366">
        <ele>170</ele>
        <time>2018-05-08T09:47:00Z</time>
      </trkpt>
      <trkpt lat="45.94036" lon="4.76362">
        <ele>170</ele>
        <time>2018-05-08T09:47:01Z</time>
      </trkpt>
      <trkpt lat="45.94041" lon="4.76352">
        <ele>170</ele>
        <time>2018-05-08T09:47:03Z</time>
      </trkpt>
      <trkpt lat="45.94043" lon="4.76346">
        <ele>170</ele>
        <time>2018-05-08T09:47:04Z</time>
      </trkpt>
      <trkpt lat="45.94045" lon="4.76334">
        <ele>170</ele>
        <time>2018-05-08T09:47:06Z</time>
      </trkpt>
      <trkpt lat="45.94048" lon="4.76327">
        <ele>170</ele>
        <time>2018-05-08T09:47:07Z</time>
      </trkpt>
      <trkpt lat="45.94051" lon="4.76321">
        <ele>171</ele>
        <time>2018-05-08T09:47:08Z</time>
      </trkpt>
      <trkpt lat="45.94053" lon="4.76315">
        <ele>171</ele>
        <time>2018-05-08T09:47:09Z</time>
      </trkpt>
      <trkpt lat="45.94058" lon="4.76306">
        <ele>171</ele>
        <time>2018-05-08T09:47:11Z</time>
      </trkpt>
      <trkpt lat="45.9406" lon="4.76304">
        <ele>171</ele>
        <time>2018-05-08T09:47:12Z</time>
      </trkpt>
      <trkpt lat="45.94064" lon="4.76299">
        <ele>171</ele>
        <time>2018-05-08T09:47:13Z</time>
      </trkpt>
      <trkpt lat="45.94067" lon="4.76295">
        <ele>171</ele>
        <time>2018-05-08T09:47:14Z</time>
      </trkpt>
      <trkpt lat="45.94073" lon="4.76286">
        <ele>172</ele>
        <time>2018-05-08T09:47:16Z</time>
      </trkpt>
      <trkpt lat="45.94076" lon="4.76282">
        <ele>172</ele>
        <time>2018-05-08T09:47:17Z</time>
      </trkpt>
      <trkpt lat="45.94082" lon="4.76275">
        <ele>172</ele>
        <time>2018-05-08T09:47:19Z</time>
      </trkpt>
      <trkpt lat="45.94084" lon="4.76273">
        <ele>176</ele>
        <time>2018-05-08T09:47:20Z</time>
      </trkpt>
      <trkpt lat="45.94089" lon="4.76268">
        <ele>176</ele>
        <time>2018-05-08T09:47:21Z</time>
      </trkpt>
      <trkpt lat="45.94092" lon="4.76265">
        <ele>176</ele>
        <time>2018-05-08T09:47:22Z</time>
      </trkpt>
      <trkpt lat="45.94098" lon="4.76263">
        <ele>176</ele>
        <time>2018-05-08T09:47:24Z</time>
      </trkpt>
      <trkpt lat="45.94103" lon="4.76261">
        <ele>176</ele>
        <time>2018-05-08T09:47:25Z</time>
      </trkpt>
      <trkpt lat="45.9411" lon="4.7626">
        <ele>177</ele>
        <time>2018-05-08T09:47:27Z</time>
      </trkpt>
      <trkpt lat="45.94114" lon="4.76259">
        <ele>177</ele>
        <time>2018-05-08T09:47:28Z</time>
      </trkpt>
      <trkpt lat="45.94122" lon="4.76259">
        <ele>177</ele>
        <time>2018-05-08T09:47:30Z</time>
      </trkpt>
      <trkpt lat="45.94123" lon="4.76259">
        <ele>177</ele>
        <time>2018-05-08T09:47:31Z</time>
      </trkpt>
      <trkpt lat="45.94128" lon="4.76259">
        <ele>178</ele>
        <time>2018-05-08T09:47:33Z</time>
      </trkpt>
      <trkpt lat="45.94136" lon="4.76258">
        <ele>178</ele>
        <time>2018-05-08T09:47:34Z</time>
      </trkpt>
      <trkpt lat="45.94142" lon="4.76257">
        <ele>178</ele>
        <time>2018-05-08T09:47:36Z</time>
      </trkpt>
      <trkpt lat="45.94147" lon="4.76256">
        <ele>179</ele>
        <time>2018-05-08T09:47:37Z</time>
      </trkpt>
      <trkpt lat="45.94155" lon="4.76255">
        <ele>179</ele>
        <time>2018-05-08T09:47:39Z</time>
      </trkpt>
      <trkpt lat="45.94157" lon="4.76255">
        <ele>180</ele>
        <time>2018-05-08T09:47:40Z</time>
      </trkpt>
      <trkpt lat="45.94163" lon="4.76254">
        <ele>180</ele>
        <time>2018-05-08T09:47:42Z</time>
      </trkpt>
      <trkpt lat="45.94169" lon="4.76251">
        <ele>181</ele>
        <time>2018-05-08T09:47:43Z</time>
      </trkpt>
      <trkpt lat="45.94171" lon="4.76247">
        <ele>181</ele>
        <time>2018-05-08T09:47:44Z</time>
      </trkpt>
      <trkpt lat="45.94171" lon="4.76237">
        <ele>182</ele>
        <time>2018-05-08T09:47:45Z</time>
      </trkpt>
      <trkpt lat="45.94173" lon="4.76225">
        <ele>182</ele>
        <time>2018-05-08T09:47:47Z</time>
      </trkpt>
      <trkpt lat="45.94175" lon="4.76218">
        <ele>182</ele>
        <time>2018-05-08T09:47:48Z</time>
      </trkpt>
      <trkpt lat="45.94176" lon="4.7621">
        <ele>182</ele>
        <time>2018-05-08T09:47:49Z</time>
      </trkpt>
      <trkpt lat="45.94178" lon="4.76203">
        <ele>182</ele>
        <time>2018-05-08T09:47:50Z</time>
      </trkpt>
      <trkpt lat="45.94178" lon="4.76197">
        <ele>182</ele>
        <time>2018-05-08T09:47:51Z</time>
      </trkpt>
      <trkpt lat="45.94179" lon="4.7619">
        <ele>182</ele>
        <time>2018-05-08T09:47:52Z</time>
      </trkpt>
      <trkpt lat="45.94181" lon="4.7618">
        <ele>182</ele>
        <time>2018-05-08T09:47:54Z</time>
      </trkpt>
      <trkpt lat="45.94183" lon="4.76175">
        <ele>182</ele>
        <time>2018-05-08T09:47:55Z</time>
      </trkpt>
      <trkpt lat="45.94182" lon="4.76167">
        <ele>181</ele>
        <time>2018-05-08T09:47:56Z</time>
      </trkpt>
      <trkpt lat="45.94183" lon="4.76162">
        <ele>181</ele>
        <time>2018-05-08T09:47:57Z</time>
      </trkpt>
      <trkpt lat="45.94184" lon="4.76149">
        <ele>181</ele>
        <time>2018-05-08T09:47:59Z</time>
      </trkpt>
      <trkpt lat="45.94184" lon="4.76139">
        <ele>181</ele>
        <time>2018-05-08T09:48:00Z</time>
      </trkpt>
      <trkpt lat="45.94184" lon="4.76131">
        <ele>181</ele>
        <time>2018-05-08T09:48:01Z</time>
      </trkpt>
      <trkpt lat="45.94185" lon="4.76123">
        <ele>180</ele>
        <time>2018-05-08T09:48:02Z</time>
      </trkpt>
      <trkpt lat="45.94185" lon="4.76115">
        <ele>180</ele>
        <time>2018-05-08T09:48:03Z</time>
      </trkpt>
      <trkpt lat="45.94184" lon="4.76107">
        <ele>180</ele>
        <time>2018-05-08T09:48:04Z</time>
      </trkpt>
      <trkpt lat="45.94181" lon="4.76098">
        <ele>180</ele>
        <time>2018-05-08T09:48:05Z</time>
      </trkpt>
      <trkpt lat="45.94186" lon="4.76085">
        <ele>180</ele>
        <time>2018-05-08T09:48:06Z</time>
      </trkpt>
      <trkpt lat="45.94183" lon="4.76078">
        <ele>179</ele>
        <time>2018-05-08T09:48:07Z</time>
      </trkpt>
      <trkpt lat="45.94182" lon="4.76071">
        <ele>179</ele>
        <time>2018-05-08T09:48:08Z</time>
      </trkpt>
      <trkpt lat="45.94182" lon="4.76058">
        <ele>179</ele>
        <time>2018-05-08T09:48:09Z</time>
      </trkpt>
      <trkpt lat="45.94187" lon="4.76046">
        <ele>179</ele>
        <time>2018-05-08T09:48:10Z</time>
      </trkpt>
      <trkpt lat="45.94188" lon="4.76039">
        <ele>179</ele>
        <time>2018-05-08T09:48:12Z</time>
      </trkpt>
      <trkpt lat="45.94191" lon="4.76029">
        <ele>179</ele>
        <time>2018-05-08T09:48:13Z</time>
      </trkpt>
      <trkpt lat="45.94187" lon="4.76018">
        <ele>179</ele>
        <time>2018-05-08T09:48:14Z</time>
      </trkpt>
      <trkpt lat="45.94184" lon="4.76012">
        <ele>179</ele>
        <time>2018-05-08T09:48:15Z</time>
      </trkpt>
      <trkpt lat="45.94181" lon="4.76005">
        <ele>179</ele>
        <time>2018-05-08T09:48:16Z</time>
      </trkpt>
      <trkpt lat="45.94177" lon="4.75998">
        <ele>178</ele>
        <time>2018-05-08T09:48:17Z</time>
      </trkpt>
      <trkpt lat="45.94178" lon="4.75988">
        <ele>178</ele>
        <time>2018-05-08T09:48:18Z</time>
      </trkpt>
      <trkpt lat="45.94177" lon="4.7598">
        <ele>178</ele>
        <time>2018-05-08T09:48:19Z</time>
      </trkpt>
      <trkpt lat="45.94174" lon="4.75973">
        <ele>177</ele>
        <time>2018-05-08T09:48:20Z</time>
      </trkpt>
      <trkpt lat="45.94173" lon="4.75963">
        <ele>177</ele>
        <time>2018-05-08T09:48:21Z</time>
      </trkpt>
      <trkpt lat="45.94174" lon="4.75954">
        <ele>177</ele>
        <time>2018-05-08T09:48:22Z</time>
      </trkpt>
      <trkpt lat="45.94173" lon="4.75945">
        <ele>177</ele>
        <time>2018-05-08T09:48:23Z</time>
      </trkpt>
      <trkpt lat="45.94173" lon="4.75937">
        <ele>176</ele>
        <time>2018-05-08T09:48:24Z</time>
      </trkpt>
      <trkpt lat="45.94174" lon="4.75929">
        <ele>176</ele>
        <time>2018-05-08T09:48:25Z</time>
      </trkpt>
      <trkpt lat="45.94173" lon="4.75922">
        <ele>176</ele>
        <time>2018-05-08T09:48:26Z</time>
      </trkpt>
      <trkpt lat="45.94174" lon="4.75914">
        <ele>175</ele>
        <time>2018-05-08T09:48:27Z</time>
      </trkpt>
      <trkpt lat="45.94174" lon="4.75906">
        <ele>175</ele>
        <time>2018-05-08T09:48:28Z</time>
      </trkpt>
      <trkpt lat="45.94172" lon="4.75897">
        <ele>175</ele>
        <time>2018-05-08T09:48:29Z</time>
      </trkpt>
      <trkpt lat="45.94171" lon="4.7589">
        <ele>175</ele>
        <time>2018-05-08T09:48:30Z</time>
      </trkpt>
      <trkpt lat="45.94171" lon="4.75882">
        <ele>175</ele>
        <time>2018-05-08T09:48:31Z</time>
      </trkpt>
      <trkpt lat="45.94171" lon="4.75874">
        <ele>175</ele>
        <time>2018-05-08T09:48:32Z</time>
      </trkpt>
      <trkpt lat="45.9417" lon="4.75867">
        <ele>175</ele>
        <time>2018-05-08T09:48:33Z</time>
      </trkpt>
      <trkpt lat="45.94171" lon="4.75861">
        <ele>175</ele>
        <time>2018-05-08T09:48:34Z</time>
      </trkpt>
      <trkpt lat="45.9417" lon="4.75853">
        <ele>174</ele>
        <time>2018-05-08T09:48:35Z</time>
      </trkpt>
      <trkpt lat="45.94172" lon="4.75846">
        <ele>174</ele>
        <time>2018-05-08T09:48:36Z</time>
      </trkpt>
      <trkpt lat="45.9417" lon="4.75836">
        <ele>174</ele>
        <time>2018-05-08T09:48:37Z</time>
      </trkpt>
      <trkpt lat="45.94169" lon="4.75828">
        <ele>174</ele>
        <time>2018-05-08T09:48:38Z</time>
      </trkpt>
      <trkpt lat="45.94168" lon="4.75824">
        <ele>174</ele>
        <time>2018-05-08T09:48:39Z</time>
      </trkpt>
      <trkpt lat="45.94167" lon="4.75816">
        <ele>174</ele>
        <time>2018-05-08T09:48:40Z</time>
      </trkpt>
      <trkpt lat="45.94165" lon="4.75809">
        <ele>173</ele>
        <time>2018-05-08T09:48:41Z</time>
      </trkpt>
      <trkpt lat="45.94164" lon="4.75801">
        <ele>173</ele>
        <time>2018-05-08T09:48:42Z</time>
      </trkpt>
      <trkpt lat="45.94166" lon="4.7579">
        <ele>173</ele>
        <time>2018-05-08T09:48:43Z</time>
      </trkpt>
      <trkpt lat="45.9417" lon="4.75784">
        <ele>174</ele>
        <time>2018-05-08T09:48:44Z</time>
      </trkpt>
      <trkpt lat="45.94169" lon="4.75775">
        <ele>174</ele>
        <time>2018-05-08T09:48:45Z</time>
      </trkpt>
      <trkpt lat="45.94169" lon="4.75766">
        <ele>174</ele>
        <time>2018-05-08T09:48:46Z</time>
      </trkpt>
      <trkpt lat="45.94168" lon="4.75758">
        <ele>174</ele>
        <time>2018-05-08T09:48:47Z</time>
      </trkpt>
      <trkpt lat="45.94168" lon="4.75751">
        <ele>174</ele>
        <time>2018-05-08T09:48:48Z</time>
      </trkpt>
      <trkpt lat="45.94168" lon="4.75743">
        <ele>174</ele>
        <time>2018-05-08T09:48:49Z</time>
      </trkpt>
      <trkpt lat="45.94168" lon="4.75737">
        <ele>174</ele>
        <time>2018-05-08T09:48:50Z</time>
      </trkpt>
      <trkpt lat="45.94167" lon="4.75729">
        <ele>173</ele>
        <time>2018-05-08T09:48:51Z</time>
      </trkpt>
      <trkpt lat="45.94169" lon="4.75721">
        <ele>173</ele>
        <time>2018-05-08T09:48:52Z</time>
      </trkpt>
      <trkpt lat="45.94169" lon="4.75713">
        <ele>173</ele>
        <time>2018-05-08T09:48:53Z</time>
      </trkpt>
      <trkpt lat="45.94169" lon="4.75704">
        <ele>173</ele>
        <time>2018-05-08T09:48:54Z</time>
      </trkpt>
      <trkpt lat="45.94169" lon="4.75697">
        <ele>173</ele>
        <time>2018-05-08T09:48:55Z</time>
      </trkpt>
      <trkpt lat="45.94169" lon="4.7569">
        <ele>173</ele>
        <time>2018-05-08T09:48:56Z</time>
      </trkpt>
      <trkpt lat="45.94169" lon="4.75684">
        <ele>173</ele>
        <time>2018-05-08T09:48:57Z</time>
      </trkpt>
      <trkpt lat="45.94169" lon="4.75677">
        <ele>173</ele>
        <time>2018-05-08T09:48:58Z</time>
      </trkpt>
      <trkpt lat="45.94169" lon="4.75668">
        <ele>173</ele>
        <time>2018-05-08T09:48:59Z</time>
      </trkpt>
      <trkpt lat="45.94169" lon="4.7566">
        <ele>173</ele>
        <time>2018-05-08T09:49:00Z</time>
      </trkpt>
      <trkpt lat="45.94169" lon="4.75651">
        <ele>173</ele>
        <time>2018-05-08T09:49:01Z</time>
      </trkpt>
      <trkpt lat="45.94169" lon="4.75642">
        <ele>173</ele>
        <time>2018-05-08T09:49:02Z</time>
      </trkpt>
      <trkpt lat="45.94169" lon="4.75635">
        <ele>173</ele>
        <time>2018-05-08T09:49:03Z</time>
      </trkpt>
      <trkpt lat="45.9417" lon="4.75625">
        <ele>173</ele>
        <time>2018-05-08T09:49:04Z</time>
      </trkpt>
      <trkpt lat="45.94171" lon="4.75618">
        <ele>173</ele>
        <time>2018-05-08T09:49:05Z</time>
      </trkpt>
      <trkpt lat="45.94171" lon="4.7561">
        <ele>173</ele>
        <time>2018-05-08T09:49:06Z</time>
      </trkpt>
      <trkpt lat="45.94172" lon="4.756">
        <ele>173</ele>
        <time>2018-05-08T09:49:07Z</time>
      </trkpt>
      <trkpt lat="45.94172" lon="4.75591">
        <ele>173</ele>
        <time>2018-05-08T09:49:08Z</time>
      </trkpt>
      <trkpt lat="45.94173" lon="4.75584">
        <ele>173</ele>
        <time>2018-05-08T09:49:09Z</time>
      </trkpt>
      <trkpt lat="45.94173" lon="4.75576">
        <ele>173</ele>
        <time>2018-05-08T09:49:10Z</time>
      </trkpt>
      <trkpt lat="45.94174" lon="4.75568">
        <ele>173</ele>
        <time>2018-05-08T09:49:11Z</time>
      </trkpt>
      <trkpt lat="45.94174" lon="4.75561">
        <ele>173</ele>
        <time>2018-05-08T09:49:12Z</time>
      </trkpt>
      <trkpt lat="45.94175" lon="4.7555">
        <ele>173</ele>
        <time>2018-05-08T09:49:13Z</time>
      </trkpt>
      <trkpt lat="45.94173" lon="4.75538">
        <ele>173</ele>
        <time>2018-05-08T09:49:14Z</time>
      </trkpt>
      <trkpt lat="45.94174" lon="4.75534">
        <ele>173</ele>
        <time>2018-05-08T09:49:15Z</time>
      </trkpt>
      <trkpt lat="45.94176" lon="4.75529">
        <ele>173</ele>
        <time>2018-05-08T09:49:16Z</time>
      </trkpt>
      <trkpt lat="45.94175" lon="4.75521">
        <ele>173</ele>
        <time>2018-05-08T09:49:17Z</time>
      </trkpt>
      <trkpt lat="45.94175" lon="4.75511">
        <ele>173</ele>
        <time>2018-05-08T09:49:18Z</time>
      </trkpt>
      <trkpt lat="45.94175" lon="4.75505">
        <ele>173</ele>
        <time>2018-05-08T09:49:19Z</time>
      </trkpt>
      <trkpt lat="45.94178" lon="4.75499">
        <ele>173</ele>
        <time>2018-05-08T09:49:20Z</time>
      </trkpt>
      <trkpt lat="45.94179" lon="4.75489">
        <ele>172</ele>
        <time>2018-05-08T09:49:21Z</time>
      </trkpt>
      <trkpt lat="45.94181" lon="4.75481">
        <ele>172</ele>
        <time>2018-05-08T09:49:22Z</time>
      </trkpt>
      <trkpt lat="45.94182" lon="4.75473">
        <ele>172</ele>
        <time>2018-05-08T09:49:23Z</time>
      </trkpt>
      <trkpt lat="45.94184" lon="4.75466">
        <ele>172</ele>
        <time>2018-05-08T09:49:24Z</time>
      </trkpt>
      <trkpt lat="45.94186" lon="4.75458">
        <ele>172</ele>
        <time>2018-05-08T09:49:25Z</time>
      </trkpt>
      <trkpt lat="45.94187" lon="4.75451">
        <ele>172</ele>
        <time>2018-05-08T09:49:26Z</time>
      </trkpt>
      <trkpt lat="45.94187" lon="4.75443">
        <ele>171</ele>
        <time>2018-05-08T09:49:27Z</time>
      </trkpt>
      <trkpt lat="45.94188" lon="4.75435">
        <ele>171</ele>
        <time>2018-05-08T09:49:28Z</time>
      </trkpt>
      <trkpt lat="45.94189" lon="4.75428">
        <ele>171</ele>
        <time>2018-05-08T09:49:29Z</time>
      </trkpt>
      <trkpt lat="45.94186" lon="4.75419">
        <ele>171</ele>
        <time>2018-05-08T09:49:30Z</time>
      </trkpt>
      <trkpt lat="45.94186" lon="4.75411">
        <ele>171</ele>
        <time>2018-05-08T09:49:31Z</time>
      </trkpt>
      <trkpt lat="45.94184" lon="4.75404">
        <ele>171</ele>
        <time>2018-05-08T09:49:32Z</time>
      </trkpt>
      <trkpt lat="45.94186" lon="4.75397">
        <ele>171</ele>
        <time>2018-05-08T09:49:33Z</time>
      </trkpt>
      <trkpt lat="45.94189" lon="4.75389">
        <ele>171</ele>
        <time>2018-05-08T09:49:34Z</time>
      </trkpt>
      <trkpt lat="45.94191" lon="4.75381">
        <ele>171</ele>
        <time>2018-05-08T09:49:35Z</time>
      </trkpt>
      <trkpt lat="45.94192" lon="4.75374">
        <ele>171</ele>
        <time>2018-05-08T09:49:36Z</time>
      </trkpt>
      <trkpt lat="45.94193" lon="4.75363">
        <ele>171</ele>
        <time>2018-05-08T09:49:37Z</time>
      </trkpt>
      <trkpt lat="45.94193" lon="4.75355">
        <ele>171</ele>
        <time>2018-05-08T09:49:38Z</time>
      </trkpt>
      <trkpt lat="45.94196" lon="4.75348">
        <ele>171</ele>
        <time>2018-05-08T09:49:39Z</time>
      </trkpt>
      <trkpt lat="45.94198" lon="4.75342">
        <ele>171</ele>
        <time>2018-05-08T09:49:40Z</time>
      </trkpt>
      <trkpt lat="45.94199" lon="4.75334">
        <ele>171</ele>
        <time>2018-05-08T09:49:41Z</time>
      </trkpt>
      <trkpt lat="45.942" lon="4.75326">
        <ele>171</ele>
        <time>2018-05-08T09:49:42Z</time>
      </trkpt>
      <trkpt lat="45.94201" lon="4.75318">
        <ele>171</ele>
        <time>2018-05-08T09:49:43Z</time>
      </trkpt>
      <trkpt lat="45.94203" lon="4.75311">
        <ele>171</ele>
        <time>2018-05-08T09:49:44Z</time>
      </trkpt>
      <trkpt lat="45.94204" lon="4.75305">
        <ele>171</ele>
        <time>2018-05-08T09:49:45Z</time>
      </trkpt>
      <trkpt lat="45.94206" lon="4.75297">
        <ele>171</ele>
        <time>2018-05-08T09:49:46Z</time>
      </trkpt>
      <trkpt lat="45.94207" lon="4.75292">
        <ele>171</ele>
        <time>2018-05-08T09:49:47Z</time>
      </trkpt>
      <trkpt lat="45.94208" lon="4.75283">
        <ele>171</ele>
        <time>2018-05-08T09:49:48Z</time>
      </trkpt>
      <trkpt lat="45.94209" lon="4.75275">
        <ele>172</ele>
        <time>2018-05-08T09:49:49Z</time>
      </trkpt>
      <trkpt lat="45.94211" lon="4.75267">
        <ele>172</ele>
        <time>2018-05-08T09:49:50Z</time>
      </trkpt>
      <trkpt lat="45.94212" lon="4.75257">
        <ele>172</ele>
        <time>2018-05-08T09:49:51Z</time>
      </trkpt>
      <trkpt lat="45.94215" lon="4.75248">
        <ele>171</ele>
        <time>2018-05-08T09:49:52Z</time>
      </trkpt>
      <trkpt lat="45.94216" lon="4.7524">
        <ele>171</ele>
        <time>2018-05-08T09:49:53Z</time>
      </trkpt>
      <trkpt lat="45.94218" lon="4.75232">
        <ele>171</ele>
        <time>2018-05-08T09:49:54Z</time>
      </trkpt>
      <trkpt lat="45.94219" lon="4.75224">
        <ele>171</ele>
        <time>2018-05-08T09:49:55Z</time>
      </trkpt>
      <trkpt lat="45.9422" lon="4.75216">
        <ele>171</ele>
        <time>2018-05-08T09:49:56Z</time>
      </trkpt>
      <trkpt lat="45.94222" lon="4.75206">
        <ele>171</ele>
        <time>2018-05-08T09:49:57Z</time>
      </trkpt>
      <trkpt lat="45.94223" lon="4.75198">
        <ele>171</ele>
        <time>2018-05-08T09:49:58Z</time>
      </trkpt>
      <trkpt lat="45.94225" lon="4.75189">
        <ele>171</ele>
        <time>2018-05-08T09:49:59Z</time>
      </trkpt>
      <trkpt lat="45.94227" lon="4.75181">
        <ele>171</ele>
        <time>2018-05-08T09:50:00Z</time>
      </trkpt>
      <trkpt lat="45.9423" lon="4.75171">
        <ele>171</ele>
        <time>2018-05-08T09:50:01Z</time>
      </trkpt>
      <trkpt lat="45.94231" lon="4.75163">
        <ele>171</ele>
        <time>2018-05-08T09:50:02Z</time>
      </trkpt>
      <trkpt lat="45.94234" lon="4.75155">
        <ele>171</ele>
        <time>2018-05-08T09:50:03Z</time>
      </trkpt>
      <trkpt lat="45.94236" lon="4.75147">
        <ele>171</ele>
        <time>2018-05-08T09:50:04Z</time>
      </trkpt>
      <trkpt lat="45.94237" lon="4.75141">
        <ele>171</ele>
        <time>2018-05-08T09:50:05Z</time>
      </trkpt>
      <trkpt lat="45.94238" lon="4.75132">
        <ele>171</ele>
        <time>2018-05-08T09:50:06Z</time>
      </trkpt>
      <trkpt lat="45.94241" lon="4.75123">
        <ele>172</ele>
        <time>2018-05-08T09:50:07Z</time>
      </trkpt>
      <trkpt lat="45.94243" lon="4.75115">
        <ele>172</ele>
        <time>2018-05-08T09:50:08Z</time>
      </trkpt>
      <trkpt lat="45.94246" lon="4.75106">
        <ele>172</ele>
        <time>2018-05-08T09:50:09Z</time>
      </trkpt>
      <trkpt lat="45.94247" lon="4.75099">
        <ele>172</ele>
        <time>2018-05-08T09:50:10Z</time>
      </trkpt>
      <trkpt lat="45.94249" lon="4.75092">
        <ele>172</ele>
        <time>2018-05-08T09:50:11Z</time>
      </trkpt>
      <trkpt lat="45.94251" lon="4.75084">
        <ele>173</ele>
        <time>2018-05-08T09:50:12Z</time>
      </trkpt>
      <trkpt lat="45.94254" lon="4.75075">
        <ele>174</ele>
        <time>2018-05-08T09:50:13Z</time>
      </trkpt>
      <trkpt lat="45.94255" lon="4.75066">
        <ele>174</ele>
        <time>2018-05-08T09:50:14Z</time>
      </trkpt>
      <trkpt lat="45.94258" lon="4.75058">
        <ele>174</ele>
        <time>2018-05-08T09:50:15Z</time>
      </trkpt>
      <trkpt lat="45.94261" lon="4.7505">
        <ele>174</ele>
        <time>2018-05-08T09:50:16Z</time>
      </trkpt>
      <trkpt lat="45.94263" lon="4.75042">
        <ele>174</ele>
        <time>2018-05-08T09:50:17Z</time>
      </trkpt>
      <trkpt lat="45.94265" lon="4.75034">
        <ele>174</ele>
        <time>2018-05-08T09:50:18Z</time>
      </trkpt>
      <trkpt lat="45.94268" lon="4.75025">
        <ele>174</ele>
        <time>2018-05-08T09:50:19Z</time>
      </trkpt>
      <trkpt lat="45.94271" lon="4.75016">
        <ele>174</ele>
        <time>2018-05-08T09:50:20Z</time>
      </trkpt>
      <trkpt lat="45.94274" lon="4.7501">
        <ele>175</ele>
        <time>2018-05-08T09:50:21Z</time>
      </trkpt>
      <trkpt lat="45.94276" lon="4.75003">
        <ele>175</ele>
        <time>2018-05-08T09:50:22Z</time>
      </trkpt>
      <trkpt lat="45.94276" lon="4.74995">
        <ele>175</ele>
        <time>2018-05-08T09:50:23Z</time>
      </trkpt>
      <trkpt lat="45.94279" lon="4.74987">
        <ele>175</ele>
        <time>2018-05-08T09:50:24Z</time>
      </trkpt>
      <trkpt lat="45.94281" lon="4.7498">
        <ele>175</ele>
        <time>2018-05-08T09:50:25Z</time>
      </trkpt>
      <trkpt lat="45.94284" lon="4.74972">
        <ele>175</ele>
        <time>2018-05-08T09:50:26Z</time>
      </trkpt>
      <trkpt lat="45.94287" lon="4.74962">
        <ele>175</ele>
        <time>2018-05-08T09:50:27Z</time>
      </trkpt>
      <trkpt lat="45.9429" lon="4.74951">
        <ele>175</ele>
        <time>2018-05-08T09:50:28Z</time>
      </trkpt>
      <trkpt lat="45.94293" lon="4.74944">
        <ele>175</ele>
        <time>2018-05-08T09:50:29Z</time>
      </trkpt>
      <trkpt lat="45.94294" lon="4.74935">
        <ele>175</ele>
        <time>2018-05-08T09:50:30Z</time>
      </trkpt>
      <trkpt lat="45.94296" lon="4.74926">
        <ele>175</ele>
        <time>2018-05-08T09:50:31Z</time>
      </trkpt>
      <trkpt lat="45.94298" lon="4.74917">
        <ele>175</ele>
        <time>2018-05-08T09:50:32Z</time>
      </trkpt>
      <trkpt lat="45.943" lon="4.7491">
        <ele>174</ele>
        <time>2018-05-08T09:50:33Z</time>
      </trkpt>
      <trkpt lat="45.94302" lon="4.74902">
        <ele>174</ele>
        <time>2018-05-08T09:50:34Z</time>
      </trkpt>
      <trkpt lat="45.94306" lon="4.74892">
        <ele>174</ele>
        <time>2018-05-08T09:50:35Z</time>
      </trkpt>
      <trkpt lat="45.94308" lon="4.74882">
        <ele>174</ele>
        <time>2018-05-08T09:50:36Z</time>
      </trkpt>
      <trkpt lat="45.9431" lon="4.74875">
        <ele>174</ele>
        <time>2018-05-08T09:50:37Z</time>
      </trkpt>
      <trkpt lat="45.94312" lon="4.74868">
        <ele>174</ele>
        <time>2018-05-08T09:50:38Z</time>
      </trkpt>
      <trkpt lat="45.94313" lon="4.74863">
        <ele>174</ele>
        <time>2018-05-08T09:50:39Z</time>
      </trkpt>
      <trkpt lat="45.94315" lon="4.74854">
        <ele>174</ele>
        <time>2018-05-08T09:50:40Z</time>
      </trkpt>
      <trkpt lat="45.94319" lon="4.74844">
        <ele>174</ele>
        <time>2018-05-08T09:50:41Z</time>
      </trkpt>
      <trkpt lat="45.94321" lon="4.74836">
        <ele>174</ele>
        <time>2018-05-08T09:50:42Z</time>
      </trkpt>
      <trkpt lat="45.94323" lon="4.74826">
        <ele>173</ele>
        <time>2018-05-08T09:50:43Z</time>
      </trkpt>
      <trkpt lat="45.94325" lon="4.74817">
        <ele>173</ele>
        <time>2018-05-08T09:50:44Z</time>
      </trkpt>
      <trkpt lat="45.94326" lon="4.74811">
        <ele>172</ele>
        <time>2018-05-08T09:50:45Z</time>
      </trkpt>
      <trkpt lat="45.94328" lon="4.74799">
        <ele>172</ele>
        <time>2018-05-08T09:50:47Z</time>
      </trkpt>
      <trkpt lat="45.94329" lon="4.74791">
        <ele>172</ele>
        <time>2018-05-08T09:50:48Z</time>
      </trkpt>
      <trkpt lat="45.94333" lon="4.7478">
        <ele>171</ele>
        <time>2018-05-08T09:50:49Z</time>
      </trkpt>
      <trkpt lat="45.94335" lon="4.74772">
        <ele>173</ele>
        <time>2018-05-08T09:50:50Z</time>
      </trkpt>
      <trkpt lat="45.94337" lon="4.74764">
        <ele>172</ele>
        <time>2018-05-08T09:50:51Z</time>
      </trkpt>
      <trkpt lat="45.9434" lon="4.74756">
        <ele>172</ele>
        <time>2018-05-08T09:50:52Z</time>
      </trkpt>
      <trkpt lat="45.9434" lon="4.74749">
        <ele>171</ele>
        <time>2018-05-08T09:50:53Z</time>
      </trkpt>
      <trkpt lat="45.94342" lon="4.74743">
        <ele>171</ele>
        <time>2018-05-08T09:50:54Z</time>
      </trkpt>
      <trkpt lat="45.94344" lon="4.74734">
        <ele>171</ele>
        <time>2018-05-08T09:50:55Z</time>
      </trkpt>
      <trkpt lat="45.94347" lon="4.74723">
        <ele>171</ele>
        <time>2018-05-08T09:50:56Z</time>
      </trkpt>
      <trkpt lat="45.94347" lon="4.74717">
        <ele>171</ele>
        <time>2018-05-08T09:50:57Z</time>
      </trkpt>
      <trkpt lat="45.94348" lon="4.74708">
        <ele>172</ele>
        <time>2018-05-08T09:50:58Z</time>
      </trkpt>
      <trkpt lat="45.94347" lon="4.74699">
        <ele>172</ele>
        <time>2018-05-08T09:50:59Z</time>
      </trkpt>
      <trkpt lat="45.94351" lon="4.74693">
        <ele>172</ele>
        <time>2018-05-08T09:51:00Z</time>
      </trkpt>
      <trkpt lat="45.94351" lon="4.74681">
        <ele>172</ele>
        <time>2018-05-08T09:51:02Z</time>
      </trkpt>
      <trkpt lat="45.94352" lon="4.7467">
        <ele>172</ele>
        <time>2018-05-08T09:51:03Z</time>
      </trkpt>
      <trkpt lat="45.94353" lon="4.74662">
        <ele>171</ele>
        <time>2018-05-08T09:51:04Z</time>
      </trkpt>
      <trkpt lat="45.94353" lon="4.74654">
        <ele>171</ele>
        <time>2018-05-08T09:51:05Z</time>
      </trkpt>
      <trkpt lat="45.94353" lon="4.74649">
        <ele>171</ele>
        <time>2018-05-08T09:51:06Z</time>
      </trkpt>
      <trkpt lat="45.94353" lon="4.7464">
        <ele>171</ele>
        <time>2018-05-08T09:51:07Z</time>
      </trkpt>
      <trkpt lat="45.94353" lon="4.74633">
        <ele>171</ele>
        <time>2018-05-08T09:51:08Z</time>
      </trkpt>
      <trkpt lat="45.94355" lon="4.74625">
        <ele>171</ele>
        <time>2018-05-08T09:51:09Z</time>
      </trkpt>
      <trkpt lat="45.94355" lon="4.74615">
        <ele>171</ele>
        <time>2018-05-08T09:51:10Z</time>
      </trkpt>
      <trkpt lat="45.94356" lon="4.74607">
        <ele>171</ele>
        <time>2018-05-08T09:51:11Z</time>
      </trkpt>
      <trkpt lat="45.94356" lon="4.74599">
        <ele>171</ele>
        <time>2018-05-08T09:51:12Z</time>
      </trkpt>
      <trkpt lat="45.94357" lon="4.74591">
        <ele>171</ele>
        <time>2018-05-08T09:51:13Z</time>
      </trkpt>
      <trkpt lat="45.94359" lon="4.74584">
        <ele>171</ele>
        <time>2018-05-08T09:51:14Z</time>
      </trkpt>
      <trkpt lat="45.9436" lon="4.74575">
        <ele>171</ele>
        <time>2018-05-08T09:51:15Z</time>
      </trkpt>
      <trkpt lat="45.9436" lon="4.74567">
        <ele>171</ele>
        <time>2018-05-08T09:51:16Z</time>
      </trkpt>
      <trkpt lat="45.94361" lon="4.74558">
        <ele>171</ele>
        <time>2018-05-08T09:51:17Z</time>
      </trkpt>
      <trkpt lat="45.94362" lon="4.7455">
        <ele>171</ele>
        <time>2018-05-08T09:51:18Z</time>
      </trkpt>
      <trkpt lat="45.94362" lon="4.74541">
        <ele>171</ele>
        <time>2018-05-08T09:51:19Z</time>
      </trkpt>
      <trkpt lat="45.94363" lon="4.74531">
        <ele>171</ele>
        <time>2018-05-08T09:51:20Z</time>
      </trkpt>
      <trkpt lat="45.94363" lon="4.74523">
        <ele>171</ele>
        <time>2018-05-08T09:51:21Z</time>
      </trkpt>
      <trkpt lat="45.94364" lon="4.74514">
        <ele>171</ele>
        <time>2018-05-08T09:51:22Z</time>
      </trkpt>
      <trkpt lat="45.94365" lon="4.74505">
        <ele>171</ele>
        <time>2018-05-08T09:51:23Z</time>
      </trkpt>
      <trkpt lat="45.94365" lon="4.74495">
        <ele>170</ele>
        <time>2018-05-08T09:51:24Z</time>
      </trkpt>
      <trkpt lat="45.94365" lon="4.74486">
        <ele>171</ele>
        <time>2018-05-08T09:51:25Z</time>
      </trkpt>
      <trkpt lat="45.94366" lon="4.74478">
        <ele>171</ele>
        <time>2018-05-08T09:51:26Z</time>
      </trkpt>
      <trkpt lat="45.94367" lon="4.74468">
        <ele>171</ele>
        <time>2018-05-08T09:51:27Z</time>
      </trkpt>
      <trkpt lat="45.94368" lon="4.74461">
        <ele>171</ele>
        <time>2018-05-08T09:51:28Z</time>
      </trkpt>
      <trkpt lat="45.94369" lon="4.74453">
        <ele>171</ele>
        <time>2018-05-08T09:51:29Z</time>
      </trkpt>
      <trkpt lat="45.94368" lon="4.74443">
        <ele>171</ele>
        <time>2018-05-08T09:51:30Z</time>
      </trkpt>
      <trkpt lat="45.94369" lon="4.74434">
        <ele>171</ele>
        <time>2018-05-08T09:51:31Z</time>
      </trkpt>
      <trkpt lat="45.9437" lon="4.74426">
        <ele>171</ele>
        <time>2018-05-08T09:51:32Z</time>
      </trkpt>
      <trkpt lat="45.94371" lon="4.74418">
        <ele>171</ele>
        <time>2018-05-08T09:51:33Z</time>
      </trkpt>
      <trkpt lat="45.94371" lon="4.74408">
        <ele>170</ele>
        <time>2018-05-08T09:51:34Z</time>
      </trkpt>
      <trkpt lat="45.94372" lon="4.74399">
        <ele>170</ele>
        <time>2018-05-08T09:51:35Z</time>
      </trkpt>
      <trkpt lat="45.94373" lon="4.7439">
        <ele>170</ele>
        <time>2018-05-08T09:51:36Z</time>
      </trkpt>
      <trkpt lat="45.94373" lon="4.74381">
        <ele>170</ele>
        <time>2018-05-08T09:51:37Z</time>
      </trkpt>
      <trkpt lat="45.94374" lon="4.74372">
        <ele>170</ele>
        <time>2018-05-08T09:51:38Z</time>
      </trkpt>
      <trkpt lat="45.94376" lon="4.74364">
        <ele>171</ele>
        <time>2018-05-08T09:51:39Z</time>
      </trkpt>
      <trkpt lat="45.94377" lon="4.74355">
        <ele>171</ele>
        <time>2018-05-08T09:51:40Z</time>
      </trkpt>
      <trkpt lat="45.9438" lon="4.74348">
        <ele>171</ele>
        <time>2018-05-08T09:51:41Z</time>
      </trkpt>
      <trkpt lat="45.94381" lon="4.74339">
        <ele>171</ele>
        <time>2018-05-08T09:51:42Z</time>
      </trkpt>
      <trkpt lat="45.94382" lon="4.7433">
        <ele>170</ele>
        <time>2018-05-08T09:51:43Z</time>
      </trkpt>
      <trkpt lat="45.94383" lon="4.74324">
        <ele>170</ele>
        <time>2018-05-08T09:51:44Z</time>
      </trkpt>
      <trkpt lat="45.94384" lon="4.74315">
        <ele>170</ele>
        <time>2018-05-08T09:51:45Z</time>
      </trkpt>
      <trkpt lat="45.94385" lon="4.74306">
        <ele>170</ele>
        <time>2018-05-08T09:51:46Z</time>
      </trkpt>
      <trkpt lat="45.94386" lon="4.74298">
        <ele>170</ele>
        <time>2018-05-08T09:51:47Z</time>
      </trkpt>
      <trkpt lat="45.94387" lon="4.74291">
        <ele>170</ele>
        <time>2018-05-08T09:51:48Z</time>
      </trkpt>
      <trkpt lat="45.94388" lon="4.74284">
        <ele>170</ele>
        <time>2018-05-08T09:51:49Z</time>
      </trkpt>
      <trkpt lat="45.9439" lon="4.74277">
        <ele>170</ele>
        <time>2018-05-08T09:51:50Z</time>
      </trkpt>
      <trkpt lat="45.94392" lon="4.7427">
        <ele>170</ele>
        <time>2018-05-08T09:51:51Z</time>
      </trkpt>
      <trkpt lat="45.94395" lon="4.74262">
        <ele>170</ele>
        <time>2018-05-08T09:51:52Z</time>
      </trkpt>
      <trkpt lat="45.94396" lon="4.74255">
        <ele>171</ele>
        <time>2018-05-08T09:51:53Z</time>
      </trkpt>
      <trkpt lat="45.94398" lon="4.74246">
        <ele>171</ele>
        <time>2018-05-08T09:51:54Z</time>
      </trkpt>
      <trkpt lat="45.94401" lon="4.74235">
        <ele>171</ele>
        <time>2018-05-08T09:51:55Z</time>
      </trkpt>
      <trkpt lat="45.94402" lon="4.74228">
        <ele>171</ele>
        <time>2018-05-08T09:51:56Z</time>
      </trkpt>
      <trkpt lat="45.94405" lon="4.7422">
        <ele>171</ele>
        <time>2018-05-08T09:51:57Z</time>
      </trkpt>
      <trkpt lat="45.94406" lon="4.74212">
        <ele>171</ele>
        <time>2018-05-08T09:51:58Z</time>
      </trkpt>
      <trkpt lat="45.94407" lon="4.74204">
        <ele>171</ele>
        <time>2018-05-08T09:51:59Z</time>
      </trkpt>
      <trkpt lat="45.94407" lon="4.74196">
        <ele>172</ele>
        <time>2018-05-08T09:52:00Z</time>
      </trkpt>
      <trkpt lat="45.94407" lon="4.74187">
        <ele>172</ele>
        <time>2018-05-08T09:52:01Z</time>
      </trkpt>
      <trkpt lat="45.94408" lon="4.74178">
        <ele>173</ele>
        <time>2018-05-08T09:52:02Z</time>
      </trkpt>
      <trkpt lat="45.94409" lon="4.74171">
        <ele>173</ele>
        <time>2018-05-08T09:52:03Z</time>
      </trkpt>
      <trkpt lat="45.9441" lon="4.74164">
        <ele>174</ele>
        <time>2018-05-08T09:52:04Z</time>
      </trkpt>
      <trkpt lat="45.94411" lon="4.74156">
        <ele>174</ele>
        <time>2018-05-08T09:52:05Z</time>
      </trkpt>
      <trkpt lat="45.94411" lon="4.74149">
        <ele>174</ele>
        <time>2018-05-08T09:52:06Z</time>
      </trkpt>
      <trkpt lat="45.94412" lon="4.74141">
        <ele>174</ele>
        <time>2018-05-08T09:52:07Z</time>
      </trkpt>
      <trkpt lat="45.94412" lon="4.74134">
        <ele>174</ele>
        <time>2018-05-08T09:52:08Z</time>
      </trkpt>
      <trkpt lat="45.94412" lon="4.74128">
        <ele>174</ele>
        <time>2018-05-08T09:52:09Z</time>
      </trkpt>
      <trkpt lat="45.94413" lon="4.74119">
        <ele>174</ele>
        <time>2018-05-08T09:52:11Z</time>
      </trkpt>
      <trkpt lat="45.94414" lon="4.74111">
        <ele>175</ele>
        <time>2018-05-08T09:52:12Z</time>
      </trkpt>
      <trkpt lat="45.94414" lon="4.74102">
        <ele>175</ele>
        <time>2018-05-08T09:52:13Z</time>
      </trkpt>
      <trkpt lat="45.94415" lon="4.74098">
        <ele>175</ele>
        <time>2018-05-08T09:52:14Z</time>
      </trkpt>
      <trkpt lat="45.94416" lon="4.7409">
        <ele>176</ele>
        <time>2018-05-08T09:52:15Z</time>
      </trkpt>
      <trkpt lat="45.94418" lon="4.74082">
        <ele>177</ele>
        <time>2018-05-08T09:52:16Z</time>
      </trkpt>
      <trkpt lat="45.94418" lon="4.74076">
        <ele>178</ele>
        <time>2018-05-08T09:52:17Z</time>
      </trkpt>
      <trkpt lat="45.94419" lon="4.74068">
        <ele>178</ele>
        <time>2018-05-08T09:52:18Z</time>
      </trkpt>
      <trkpt lat="45.94421" lon="4.74056">
        <ele>179</ele>
        <time>2018-05-08T09:52:20Z</time>
      </trkpt>
      <trkpt lat="45.94422" lon="4.7405">
        <ele>179</ele>
        <time>2018-05-08T09:52:21Z</time>
      </trkpt>
      <trkpt lat="45.94426" lon="4.74043">
        <ele>179</ele>
        <time>2018-05-08T09:52:23Z</time>
      </trkpt>
      <trkpt lat="45.94428" lon="4.74039">
        <ele>179</ele>
        <time>2018-05-08T09:52:24Z</time>
      </trkpt>
      <trkpt lat="45.94431" lon="4.74032">
        <ele>179</ele>
        <time>2018-05-08T09:52:25Z</time>
      </trkpt>
      <trkpt lat="45.94431" lon="4.74026">
        <ele>179</ele>
        <time>2018-05-08T09:52:26Z</time>
      </trkpt>
      <trkpt lat="45.94433" lon="4.74017">
        <ele>179</ele>
        <time>2018-05-08T09:52:29Z</time>
      </trkpt>
      <trkpt lat="45.94435" lon="4.74008">
        <ele>179</ele>
        <time>2018-05-08T09:52:30Z</time>
      </trkpt>
      <trkpt lat="45.94437" lon="4.73998">
        <ele>180</ele>
        <time>2018-05-08T09:52:32Z</time>
      </trkpt>
      <trkpt lat="45.94439" lon="4.73992">
        <ele>180</ele>
        <time>2018-05-08T09:52:33Z</time>
      </trkpt>
      <trkpt lat="45.9444" lon="4.73982">
        <ele>180</ele>
        <time>2018-05-08T09:52:35Z</time>
      </trkpt>
      <trkpt lat="45.94441" lon="4.73976">
        <ele>180</ele>
        <time>2018-05-08T09:52:36Z</time>
      </trkpt>
      <trkpt lat="45.94441" lon="4.73969">
        <ele>181</ele>
        <time>2018-05-08T09:52:38Z</time>
      </trkpt>
      <trkpt lat="45.94443" lon="4.73961">
        <ele>181</ele>
        <time>2018-05-08T09:52:39Z</time>
      </trkpt>
      <trkpt lat="45.94445" lon="4.73951">
        <ele>181</ele>
        <time>2018-05-08T09:52:41Z</time>
      </trkpt>
      <trkpt lat="45.94446" lon="4.73946">
        <ele>181</ele>
        <time>2018-05-08T09:52:42Z</time>
      </trkpt>
      <trkpt lat="45.94448" lon="4.73936">
        <ele>181</ele>
        <time>2018-05-08T09:52:44Z</time>
      </trkpt>
      <trkpt lat="45.94449" lon="4.73931">
        <ele>181</ele>
        <time>2018-05-08T09:52:45Z</time>
      </trkpt>
      <trkpt lat="45.9445" lon="4.7392">
        <ele>181</ele>
        <time>2018-05-08T09:52:47Z</time>
      </trkpt>
      <trkpt lat="45.94451" lon="4.73915">
        <ele>183</ele>
        <time>2018-05-08T09:52:48Z</time>
      </trkpt>
      <trkpt lat="45.94453" lon="4.73904">
        <ele>183</ele>
        <time>2018-05-08T09:52:50Z</time>
      </trkpt>
      <trkpt lat="45.94454" lon="4.73899">
        <ele>183</ele>
        <time>2018-05-08T09:52:51Z</time>
      </trkpt>
      <trkpt lat="45.94455" lon="4.73891">
        <ele>183</ele>
        <time>2018-05-08T09:52:54Z</time>
      </trkpt>
      <trkpt lat="45.94457" lon="4.73881">
        <ele>183</ele>
        <time>2018-05-08T09:52:55Z</time>
      </trkpt>
      <trkpt lat="45.94459" lon="4.73869">
        <ele>184</ele>
        <time>2018-05-08T09:52:58Z</time>
      </trkpt>
      <trkpt lat="45.94459" lon="4.73866">
        <ele>184</ele>
        <time>2018-05-08T09:52:59Z</time>
      </trkpt>
      <trkpt lat="45.94461" lon="4.73857">
        <ele>184</ele>
        <time>2018-05-08T09:53:00Z</time>
      </trkpt>
      <trkpt lat="45.94462" lon="4.73851">
        <ele>184</ele>
        <time>2018-05-08T09:53:01Z</time>
      </trkpt>
      <trkpt lat="45.94463" lon="4.7384">
        <ele>184</ele>
        <time>2018-05-08T09:53:03Z</time>
      </trkpt>
      <trkpt lat="45.94463" lon="4.73834">
        <ele>184</ele>
        <time>2018-05-08T09:53:04Z</time>
      </trkpt>
      <trkpt lat="45.94464" lon="4.73822">
        <ele>185</ele>
        <time>2018-05-08T09:53:06Z</time>
      </trkpt>
      <trkpt lat="45.94464" lon="4.73817">
        <ele>185</ele>
        <time>2018-05-08T09:53:07Z</time>
      </trkpt>
      <trkpt lat="45.94464" lon="4.73806">
        <ele>185</ele>
        <time>2018-05-08T09:53:09Z</time>
      </trkpt>
      <trkpt lat="45.94464" lon="4.738">
        <ele>185</ele>
        <time>2018-05-08T09:53:10Z</time>
      </trkpt>
      <trkpt lat="45.94466" lon="4.73789">
        <ele>186</ele>
        <time>2018-05-08T09:53:12Z</time>
      </trkpt>
      <trkpt lat="45.94468" lon="4.73784">
        <ele>186</ele>
        <time>2018-05-08T09:53:13Z</time>
      </trkpt>
      <trkpt lat="45.94475" lon="4.73778">
        <ele>186</ele>
        <time>2018-05-08T09:53:15Z</time>
      </trkpt>
      <trkpt lat="45.94478" lon="4.73776">
        <ele>186</ele>
        <time>2018-05-08T09:53:16Z</time>
      </trkpt>
      <trkpt lat="45.94486" lon="4.73772">
        <ele>186</ele>
        <time>2018-05-08T09:53:18Z</time>
      </trkpt>
      <trkpt lat="45.94489" lon="4.73768">
        <ele>186</ele>
        <time>2018-05-08T09:53:19Z</time>
      </trkpt>
      <trkpt lat="45.9449" lon="4.73759">
        <ele>186</ele>
        <time>2018-05-08T09:53:20Z</time>
      </trkpt>
      <trkpt lat="45.94489" lon="4.73752">
        <ele>186</ele>
        <time>2018-05-08T09:53:21Z</time>
      </trkpt>
      <trkpt lat="45.94488" lon="4.73741">
        <ele>186</ele>
        <time>2018-05-08T09:53:23Z</time>
      </trkpt>
      <trkpt lat="45.94487" lon="4.73734">
        <ele>186</ele>
        <time>2018-05-08T09:53:24Z</time>
      </trkpt>
      <trkpt lat="45.94489" lon="4.73727">
        <ele>186</ele>
        <time>2018-05-08T09:53:25Z</time>
      </trkpt>
      <trkpt lat="45.94489" lon="4.7372">
        <ele>186</ele>
        <time>2018-05-08T09:53:26Z</time>
      </trkpt>
      <trkpt lat="45.94491" lon="4.7371">
        <ele>186</ele>
        <time>2018-05-08T09:53:28Z</time>
      </trkpt>
      <trkpt lat="45.94491" lon="4.73704">
        <ele>186</ele>
        <time>2018-05-08T09:53:29Z</time>
      </trkpt>
      <trkpt lat="45.94492" lon="4.73698">
        <ele>186</ele>
        <time>2018-05-08T09:53:30Z</time>
      </trkpt>
      <trkpt lat="45.94492" lon="4.73689">
        <ele>186</ele>
        <time>2018-05-08T09:53:31Z</time>
      </trkpt>
      <trkpt lat="45.94494" lon="4.73683">
        <ele>186</ele>
        <time>2018-05-08T09:53:32Z</time>
      </trkpt>
      <trkpt lat="45.94495" lon="4.73675">
        <ele>185</ele>
        <time>2018-05-08T09:53:33Z</time>
      </trkpt>
      <trkpt lat="45.94496" lon="4.73666">
        <ele>185</ele>
        <time>2018-05-08T09:53:34Z</time>
      </trkpt>
      <trkpt lat="45.94498" lon="4.73658">
        <ele>185</ele>
        <time>2018-05-08T09:53:35Z</time>
      </trkpt>
      <trkpt lat="45.945" lon="4.73649">
        <ele>185</ele>
        <time>2018-05-08T09:53:36Z</time>
      </trkpt>
      <trkpt lat="45.94501" lon="4.73642">
        <ele>184</ele>
        <time>2018-05-08T09:53:37Z</time>
      </trkpt>
      <trkpt lat="45.94504" lon="4.73634">
        <ele>184</ele>
        <time>2018-05-08T09:53:38Z</time>
      </trkpt>
      <trkpt lat="45.94506" lon="4.73628">
        <ele>184</ele>
        <time>2018-05-08T09:53:39Z</time>
      </trkpt>
      <trkpt lat="45.94507" lon="4.73617">
        <ele>184</ele>
        <time>2018-05-08T09:53:40Z</time>
      </trkpt>
      <trkpt lat="45.94508" lon="4.73609">
        <ele>184</ele>
        <time>2018-05-08T09:53:41Z</time>
      </trkpt>
      <trkpt lat="45.9451" lon="4.73602">
        <ele>184</ele>
        <time>2018-05-08T09:53:42Z</time>
      </trkpt>
      <trkpt lat="45.94512" lon="4.73592">
        <ele>184</ele>
        <time>2018-05-08T09:53:43Z</time>
      </trkpt>
      <trkpt lat="45.94512" lon="4.73585">
        <ele>184</ele>
        <time>2018-05-08T09:53:44Z</time>
      </trkpt>
      <trkpt lat="45.94512" lon="4.73578">
        <ele>184</ele>
        <time>2018-05-08T09:53:45Z</time>
      </trkpt>
      <trkpt lat="45.94509" lon="4.73566">
        <ele>184</ele>
        <time>2018-05-08T09:53:47Z</time>
      </trkpt>
      <trkpt lat="45.94509" lon="4.73557">
        <ele>183</ele>
        <time>2018-05-08T09:53:48Z</time>
      </trkpt>
      <trkpt lat="45.9451" lon="4.73549">
        <ele>183</ele>
        <time>2018-05-08T09:53:49Z</time>
      </trkpt>
      <trkpt lat="45.9451" lon="4.7354">
        <ele>183</ele>
        <time>2018-05-08T09:53:50Z</time>
      </trkpt>
      <trkpt lat="45.94511" lon="4.73531">
        <ele>183</ele>
        <time>2018-05-08T09:53:51Z</time>
      </trkpt>
      <trkpt lat="45.94511" lon="4.73521">
        <ele>183</ele>
        <time>2018-05-08T09:53:52Z</time>
      </trkpt>
      <trkpt lat="45.94511" lon="4.73513">
        <ele>183</ele>
        <time>2018-05-08T09:53:53Z</time>
      </trkpt>
      <trkpt lat="45.94511" lon="4.73505">
        <ele>183</ele>
        <time>2018-05-08T09:53:54Z</time>
      </trkpt>
      <trkpt lat="45.94511" lon="4.73497">
        <ele>182</ele>
        <time>2018-05-08T09:53:55Z</time>
      </trkpt>
      <trkpt lat="45.94511" lon="4.73488">
        <ele>182</ele>
        <time>2018-05-08T09:53:56Z</time>
      </trkpt>
      <trkpt lat="45.94511" lon="4.73479">
        <ele>182</ele>
        <time>2018-05-08T09:53:57Z</time>
      </trkpt>
      <trkpt lat="45.94511" lon="4.73468">
        <ele>181</ele>
        <time>2018-05-08T09:53:58Z</time>
      </trkpt>
      <trkpt lat="45.94511" lon="4.73456">
        <ele>181</ele>
        <time>2018-05-08T09:53:59Z</time>
      </trkpt>
      <trkpt lat="45.94509" lon="4.73448">
        <ele>181</ele>
        <time>2018-05-08T09:54:00Z</time>
      </trkpt>
      <trkpt lat="45.94507" lon="4.7344">
        <ele>181</ele>
        <time>2018-05-08T09:54:01Z</time>
      </trkpt>
      <trkpt lat="45.94507" lon="4.7343">
        <ele>180</ele>
        <time>2018-05-08T09:54:02Z</time>
      </trkpt>
      <trkpt lat="45.94508" lon="4.73422">
        <ele>180</ele>
        <time>2018-05-08T09:54:03Z</time>
      </trkpt>
      <trkpt lat="45.94509" lon="4.73413">
        <ele>179</ele>
        <time>2018-05-08T09:54:04Z</time>
      </trkpt>
      <trkpt lat="45.94507" lon="4.73406">
        <ele>179</ele>
        <time>2018-05-08T09:54:05Z</time>
      </trkpt>
      <trkpt lat="45.94507" lon="4.73397">
        <ele>179</ele>
        <time>2018-05-08T09:54:06Z</time>
      </trkpt>
      <trkpt lat="45.94504" lon="4.73385">
        <ele>179</ele>
        <time>2018-05-08T09:54:07Z</time>
      </trkpt>
      <trkpt lat="45.94504" lon="4.73374">
        <ele>178</ele>
        <time>2018-05-08T09:54:08Z</time>
      </trkpt>
      <trkpt lat="45.94502" lon="4.73363">
        <ele>178</ele>
        <time>2018-05-08T09:54:09Z</time>
      </trkpt>
      <trkpt lat="45.94501" lon="4.73352">
        <ele>178</ele>
        <time>2018-05-08T09:54:10Z</time>
      </trkpt>
      <trkpt lat="45.94499" lon="4.73341">
        <ele>178</ele>
        <time>2018-05-08T09:54:11Z</time>
      </trkpt>
      <trkpt lat="45.94499" lon="4.73331">
        <ele>177</ele>
        <time>2018-05-08T09:54:12Z</time>
      </trkpt>
      <trkpt lat="45.94497" lon="4.73319">
        <ele>177</ele>
        <time>2018-05-08T09:54:13Z</time>
      </trkpt>
      <trkpt lat="45.94495" lon="4.73309">
        <ele>177</ele>
        <time>2018-05-08T09:54:14Z</time>
      </trkpt>
      <trkpt lat="45.94494" lon="4.73298">
        <ele>177</ele>
        <time>2018-05-08T09:54:15Z</time>
      </trkpt>
      <trkpt lat="45.94492" lon="4.73286">
        <ele>177</ele>
        <time>2018-05-08T09:54:16Z</time>
      </trkpt>
      <trkpt lat="45.9449" lon="4.73275">
        <ele>177</ele>
        <time>2018-05-08T09:54:17Z</time>
      </trkpt>
      <trkpt lat="45.9449" lon="4.73266">
        <ele>176</ele>
        <time>2018-05-08T09:54:18Z</time>
      </trkpt>
      <trkpt lat="45.94489" lon="4.73255">
        <ele>176</ele>
        <time>2018-05-08T09:54:19Z</time>
      </trkpt>
      <trkpt lat="45.94487" lon="4.73245">
        <ele>175</ele>
        <time>2018-05-08T09:54:20Z</time>
      </trkpt>
      <trkpt lat="45.94488" lon="4.73233">
        <ele>175</ele>
        <time>2018-05-08T09:54:21Z</time>
      </trkpt>
      <trkpt lat="45.94486" lon="4.73222">
        <ele>175</ele>
        <time>2018-05-08T09:54:22Z</time>
      </trkpt>
      <trkpt lat="45.94484" lon="4.73214">
        <ele>175</ele>
        <time>2018-05-08T09:54:23Z</time>
      </trkpt>
      <trkpt lat="45.94483" lon="4.73203">
        <ele>175</ele>
        <time>2018-05-08T09:54:24Z</time>
      </trkpt>
      <trkpt lat="45.94482" lon="4.73192">
        <ele>174</ele>
        <time>2018-05-08T09:54:25Z</time>
      </trkpt>
      <trkpt lat="45.9448" lon="4.73181">
        <ele>174</ele>
        <time>2018-05-08T09:54:26Z</time>
      </trkpt>
      <trkpt lat="45.9448" lon="4.73172">
        <ele>174</ele>
        <time>2018-05-08T09:54:27Z</time>
      </trkpt>
      <trkpt lat="45.94479" lon="4.73161">
        <ele>173</ele>
        <time>2018-05-08T09:54:28Z</time>
      </trkpt>
      <trkpt lat="45.94476" lon="4.73149">
        <ele>172</ele>
        <time>2018-05-08T09:54:29Z</time>
      </trkpt>
      <trkpt lat="45.94475" lon="4.73138">
        <ele>172</ele>
        <time>2018-05-08T09:54:30Z</time>
      </trkpt>
      <trkpt lat="45.94474" lon="4.73127">
        <ele>172</ele>
        <time>2018-05-08T09:54:31Z</time>
      </trkpt>
      <trkpt lat="45.94473" lon="4.73116">
        <ele>172</ele>
        <time>2018-05-08T09:54:32Z</time>
      </trkpt>
      <trkpt lat="45.94471" lon="4.73104">
        <ele>172</ele>
        <time>2018-05-08T09:54:33Z</time>
      </trkpt>
      <trkpt lat="45.9447" lon="4.73094">
        <ele>172</ele>
        <time>2018-05-08T09:54:34Z</time>
      </trkpt>
      <trkpt lat="45.94467" lon="4.73084">
        <ele>171</ele>
        <time>2018-05-08T09:54:35Z</time>
      </trkpt>
      <trkpt lat="45.94467" lon="4.73073">
        <ele>170</ele>
        <time>2018-05-08T09:54:36Z</time>
      </trkpt>
      <trkpt lat="45.94466" lon="4.73063">
        <ele>170</ele>
        <time>2018-05-08T09:54:37Z</time>
      </trkpt>
      <trkpt lat="45.94464" lon="4.73053">
        <ele>170</ele>
        <time>2018-05-08T09:54:38Z</time>
      </trkpt>
      <trkpt lat="45.94463" lon="4.73043">
        <ele>170</ele>
        <time>2018-05-08T09:54:39Z</time>
      </trkpt>
      <trkpt lat="45.94462" lon="4.73034">
        <ele>170</ele>
        <time>2018-05-08T09:54:40Z</time>
      </trkpt>
      <trkpt lat="45.9446" lon="4.73028">
        <ele>169</ele>
        <time>2018-05-08T09:54:41Z</time>
      </trkpt>
      <trkpt lat="45.94458" lon="4.7302">
        <ele>169</ele>
        <time>2018-05-08T09:54:42Z</time>
      </trkpt>
      <trkpt lat="45.94457" lon="4.73012">
        <ele>169</ele>
        <time>2018-05-08T09:54:43Z</time>
      </trkpt>
      <trkpt lat="45.94456" lon="4.73005">
        <ele>169</ele>
        <time>2018-05-08T09:54:44Z</time>
      </trkpt>
      <trkpt lat="45.94453" lon="4.72994">
        <ele>167</ele>
        <time>2018-05-08T09:54:46Z</time>
      </trkpt>
      <trkpt lat="45.94452" lon="4.72988">
        <ele>167</ele>
        <time>2018-05-08T09:54:47Z</time>
      </trkpt>
      <trkpt lat="45.94452" lon="4.72981">
        <ele>167</ele>
        <time>2018-05-08T09:54:48Z</time>
      </trkpt>
      <trkpt lat="45.9445" lon="4.72973">
        <ele>167</ele>
        <time>2018-05-08T09:54:49Z</time>
      </trkpt>
      <trkpt lat="45.94449" lon="4.72966">
        <ele>167</ele>
        <time>2018-05-08T09:54:50Z</time>
      </trkpt>
      <trkpt lat="45.94447" lon="4.7296">
        <ele>167</ele>
        <time>2018-05-08T09:54:51Z</time>
      </trkpt>
      <trkpt lat="45.94446" lon="4.72953">
        <ele>167</ele>
        <time>2018-05-08T09:54:52Z</time>
      </trkpt>
      <trkpt lat="45.94446" lon="4.72946">
        <ele>167</ele>
        <time>2018-05-08T09:54:53Z</time>
      </trkpt>
      <trkpt lat="45.94445" lon="4.72939">
        <ele>167</ele>
        <time>2018-05-08T09:54:54Z</time>
      </trkpt>
      <trkpt lat="45.94443" lon="4.72931">
        <ele>167</ele>
        <time>2018-05-08T09:54:55Z</time>
      </trkpt>
      <trkpt lat="45.94442" lon="4.7292">
        <ele>167</ele>
        <time>2018-05-08T09:54:57Z</time>
      </trkpt>
      <trkpt lat="45.94442" lon="4.72914">
        <ele>166</ele>
        <time>2018-05-08T09:54:58Z</time>
      </trkpt>
      <trkpt lat="45.9444" lon="4.72907">
        <ele>166</ele>
        <time>2018-05-08T09:54:59Z</time>
      </trkpt>
      <trkpt lat="45.94439" lon="4.729">
        <ele>166</ele>
        <time>2018-05-08T09:55:00Z</time>
      </trkpt>
      <trkpt lat="45.94438" lon="4.72893">
        <ele>166</ele>
        <time>2018-05-08T09:55:01Z</time>
      </trkpt>
      <trkpt lat="45.94437" lon="4.72886">
        <ele>166</ele>
        <time>2018-05-08T09:55:02Z</time>
      </trkpt>
      <trkpt lat="45.94434" lon="4.7288">
        <ele>166</ele>
        <time>2018-05-08T09:55:03Z</time>
      </trkpt>
      <trkpt lat="45.94434" lon="4.72873">
        <ele>166</ele>
        <time>2018-05-08T09:55:04Z</time>
      </trkpt>
      <trkpt lat="45.94433" lon="4.72865">
        <ele>166</ele>
        <time>2018-05-08T09:55:05Z</time>
      </trkpt>
      <trkpt lat="45.94432" lon="4.72858">
        <ele>166</ele>
        <time>2018-05-08T09:55:06Z</time>
      </trkpt>
      <trkpt lat="45.94431" lon="4.72849">
        <ele>166</ele>
        <time>2018-05-08T09:55:07Z</time>
      </trkpt>
      <trkpt lat="45.9443" lon="4.72841">
        <ele>166</ele>
        <time>2018-05-08T09:55:08Z</time>
      </trkpt>
      <trkpt lat="45.94429" lon="4.72835">
        <ele>166</ele>
        <time>2018-05-08T09:55:09Z</time>
      </trkpt>
      <trkpt lat="45.94428" lon="4.72826">
        <ele>167</ele>
        <time>2018-05-08T09:55:10Z</time>
      </trkpt>
      <trkpt lat="45.94426" lon="4.72816">
        <ele>167</ele>
        <time>2018-05-08T09:55:11Z</time>
      </trkpt>
      <trkpt lat="45.94424" lon="4.72806">
        <ele>167</ele>
        <time>2018-05-08T09:55:12Z</time>
      </trkpt>
      <trkpt lat="45.94424" lon="4.72797">
        <ele>167</ele>
        <time>2018-05-08T09:55:13Z</time>
      </trkpt>
      <trkpt lat="45.94423" lon="4.72787">
        <ele>168</ele>
        <time>2018-05-08T09:55:14Z</time>
      </trkpt>
      <trkpt lat="45.94422" lon="4.72777">
        <ele>168</ele>
        <time>2018-05-08T09:55:15Z</time>
      </trkpt>
      <trkpt lat="45.94421" lon="4.72767">
        <ele>169</ele>
        <time>2018-05-08T09:55:16Z</time>
      </trkpt>
      <trkpt lat="45.94419" lon="4.72757">
        <ele>170</ele>
        <time>2018-05-08T09:55:17Z</time>
      </trkpt>
      <trkpt lat="45.94418" lon="4.72746">
        <ele>171</ele>
        <time>2018-05-08T09:55:18Z</time>
      </trkpt>
      <trkpt lat="45.94417" lon="4.72736">
        <ele>171</ele>
        <time>2018-05-08T09:55:19Z</time>
      </trkpt>
      <trkpt lat="45.94416" lon="4.72727">
        <ele>172</ele>
        <time>2018-05-08T09:55:20Z</time>
      </trkpt>
      <trkpt lat="45.94415" lon="4.72717">
        <ele>172</ele>
        <time>2018-05-08T09:55:21Z</time>
      </trkpt>
      <trkpt lat="45.94414" lon="4.72708">
        <ele>172</ele>
        <time>2018-05-08T09:55:22Z</time>
      </trkpt>
      <trkpt lat="45.94415" lon="4.72699">
        <ele>172</ele>
        <time>2018-05-08T09:55:23Z</time>
      </trkpt>
      <trkpt lat="45.94414" lon="4.72689">
        <ele>173</ele>
        <time>2018-05-08T09:55:24Z</time>
      </trkpt>
      <trkpt lat="45.94413" lon="4.72679">
        <ele>173</ele>
        <time>2018-05-08T09:55:25Z</time>
      </trkpt>
      <trkpt lat="45.94412" lon="4.72669">
        <ele>174</ele>
        <time>2018-05-08T09:55:26Z</time>
      </trkpt>
      <trkpt lat="45.94411" lon="4.7266">
        <ele>174</ele>
        <time>2018-05-08T09:55:27Z</time>
      </trkpt>
      <trkpt lat="45.94409" lon="4.72651">
        <ele>174</ele>
        <time>2018-05-08T09:55:28Z</time>
      </trkpt>
      <trkpt lat="45.94407" lon="4.72642">
        <ele>174</ele>
        <time>2018-05-08T09:55:29Z</time>
      </trkpt>
      <trkpt lat="45.94407" lon="4.72632">
        <ele>174</ele>
        <time>2018-05-08T09:55:30Z</time>
      </trkpt>
      <trkpt lat="45.94406" lon="4.72623">
        <ele>173</ele>
        <time>2018-05-08T09:55:31Z</time>
      </trkpt>
      <trkpt lat="45.94405" lon="4.72614">
        <ele>173</ele>
        <time>2018-05-08T09:55:32Z</time>
      </trkpt>
      <trkpt lat="45.94404" lon="4.72604">
        <ele>173</ele>
        <time>2018-05-08T09:55:33Z</time>
      </trkpt>
      <trkpt lat="45.94402" lon="4.72596">
        <ele>173</ele>
        <time>2018-05-08T09:55:34Z</time>
      </trkpt>
      <trkpt lat="45.94401" lon="4.72587">
        <ele>173</ele>
        <time>2018-05-08T09:55:35Z</time>
      </trkpt>
      <trkpt lat="45.94399" lon="4.72579">
        <ele>173</ele>
        <time>2018-05-08T09:55:36Z</time>
      </trkpt>
      <trkpt lat="45.94397" lon="4.72571">
        <ele>173</ele>
        <time>2018-05-08T09:55:37Z</time>
      </trkpt>
      <trkpt lat="45.94395" lon="4.72561">
        <ele>173</ele>
        <time>2018-05-08T09:55:38Z</time>
      </trkpt>
      <trkpt lat="45.94393" lon="4.72552">
        <ele>173</ele>
        <time>2018-05-08T09:55:39Z</time>
      </trkpt>
      <trkpt lat="45.94392" lon="4.72544">
        <ele>173</ele>
        <time>2018-05-08T09:55:40Z</time>
      </trkpt>
      <trkpt lat="45.9439" lon="4.72535">
        <ele>174</ele>
        <time>2018-05-08T09:55:41Z</time>
      </trkpt>
      <trkpt lat="45.94388" lon="4.72526">
        <ele>174</ele>
        <time>2018-05-08T09:55:42Z</time>
      </trkpt>
      <trkpt lat="45.94385" lon="4.72519">
        <ele>174</ele>
        <time>2018-05-08T09:55:43Z</time>
      </trkpt>
      <trkpt lat="45.94384" lon="4.72508">
        <ele>174</ele>
        <time>2018-05-08T09:55:44Z</time>
      </trkpt>
      <trkpt lat="45.94382" lon="4.725">
        <ele>174</ele>
        <time>2018-05-08T09:55:45Z</time>
      </trkpt>
      <trkpt lat="45.9438" lon="4.72493">
        <ele>173</ele>
        <time>2018-05-08T09:55:46Z</time>
      </trkpt>
      <trkpt lat="45.94377" lon="4.72486">
        <ele>173</ele>
        <time>2018-05-08T09:55:47Z</time>
      </trkpt>
      <trkpt lat="45.94374" lon="4.72479">
        <ele>173</ele>
        <time>2018-05-08T09:55:48Z</time>
      </trkpt>
      <trkpt lat="45.94371" lon="4.72472">
        <ele>173</ele>
        <time>2018-05-08T09:55:49Z</time>
      </trkpt>
      <trkpt lat="45.94369" lon="4.72463">
        <ele>173</ele>
        <time>2018-05-08T09:55:50Z</time>
      </trkpt>
      <trkpt lat="45.94366" lon="4.72456">
        <ele>173</ele>
        <time>2018-05-08T09:55:51Z</time>
      </trkpt>
      <trkpt lat="45.94364" lon="4.72448">
        <ele>173</ele>
        <time>2018-05-08T09:55:52Z</time>
      </trkpt>
      <trkpt lat="45.94361" lon="4.72441">
        <ele>173</ele>
        <time>2018-05-08T09:55:53Z</time>
      </trkpt>
      <trkpt lat="45.94359" lon="4.72435">
        <ele>173</ele>
        <time>2018-05-08T09:55:54Z</time>
      </trkpt>
      <trkpt lat="45.9436" lon="4.72427">
        <ele>173</ele>
        <time>2018-05-08T09:55:55Z</time>
      </trkpt>
      <trkpt lat="45.94354" lon="4.72421">
        <ele>173</ele>
        <time>2018-05-08T09:55:56Z</time>
      </trkpt>
      <trkpt lat="45.94351" lon="4.72415">
        <ele>173</ele>
        <time>2018-05-08T09:55:57Z</time>
      </trkpt>
      <trkpt lat="45.94348" lon="4.72409">
        <ele>173</ele>
        <time>2018-05-08T09:55:58Z</time>
      </trkpt>
      <trkpt lat="45.94344" lon="4.72402">
        <ele>172</ele>
        <time>2018-05-08T09:55:59Z</time>
      </trkpt>
      <trkpt lat="45.9434" lon="4.72396">
        <ele>172</ele>
        <time>2018-05-08T09:56:00Z</time>
      </trkpt>
      <trkpt lat="45.94337" lon="4.72389">
        <ele>172</ele>
        <time>2018-05-08T09:56:01Z</time>
      </trkpt>
      <trkpt lat="45.94334" lon="4.72382">
        <ele>172</ele>
        <time>2018-05-08T09:56:02Z</time>
      </trkpt>
      <trkpt lat="45.94331" lon="4.72373">
        <ele>172</ele>
        <time>2018-05-08T09:56:03Z</time>
      </trkpt>
      <trkpt lat="45.94329" lon="4.72364">
        <ele>172</ele>
        <time>2018-05-08T09:56:04Z</time>
      </trkpt>
      <trkpt lat="45.94325" lon="4.72357">
        <ele>172</ele>
        <time>2018-05-08T09:56:05Z</time>
      </trkpt>
      <trkpt lat="45.94321" lon="4.7235">
        <ele>172</ele>
        <time>2018-05-08T09:56:06Z</time>
      </trkpt>
      <trkpt lat="45.94316" lon="4.72344">
        <ele>172</ele>
        <time>2018-05-08T09:56:07Z</time>
      </trkpt>
      <trkpt lat="45.94315" lon="4.72335">
        <ele>172</ele>
        <time>2018-05-08T09:56:08Z</time>
      </trkpt>
      <trkpt lat="45.9431" lon="4.72328">
        <ele>172</ele>
        <time>2018-05-08T09:56:09Z</time>
      </trkpt>
      <trkpt lat="45.94306" lon="4.72321">
        <ele>171</ele>
        <time>2018-05-08T09:56:10Z</time>
      </trkpt>
      <trkpt lat="45.94301" lon="4.72317">
        <ele>171</ele>
        <time>2018-05-08T09:56:11Z</time>
      </trkpt>
      <trkpt lat="45.94297" lon="4.7231">
        <ele>171</ele>
        <time>2018-05-08T09:56:12Z</time>
      </trkpt>
      <trkpt lat="45.94296" lon="4.72302">
        <ele>171</ele>
        <time>2018-05-08T09:56:13Z</time>
      </trkpt>
      <trkpt lat="45.94293" lon="4.72294">
        <ele>171</ele>
        <time>2018-05-08T09:56:14Z</time>
      </trkpt>
      <trkpt lat="45.94287" lon="4.72288">
        <ele>171</ele>
        <time>2018-05-08T09:56:15Z</time>
      </trkpt>
      <trkpt lat="45.94285" lon="4.72282">
        <ele>171</ele>
        <time>2018-05-08T09:56:16Z</time>
      </trkpt>
      <trkpt lat="45.94281" lon="4.72275">
        <ele>171</ele>
        <time>2018-05-08T09:56:17Z</time>
      </trkpt>
      <trkpt lat="45.94275" lon="4.72273">
        <ele>171</ele>
        <time>2018-05-08T09:56:18Z</time>
      </trkpt>
      <trkpt lat="45.94271" lon="4.72271">
        <ele>171</ele>
        <time>2018-05-08T09:56:19Z</time>
      </trkpt>
      <trkpt lat="45.94266" lon="4.72272">
        <ele>171</ele>
        <time>2018-05-08T09:56:20Z</time>
      </trkpt>
      <trkpt lat="45.9426" lon="4.72275">
        <ele>171</ele>
        <time>2018-05-08T09:56:21Z</time>
      </trkpt>
      <trkpt lat="45.94256" lon="4.72278">
        <ele>171</ele>
        <time>2018-05-08T09:56:22Z</time>
      </trkpt>
      <trkpt lat="45.94251" lon="4.7228">
        <ele>171</ele>
        <time>2018-05-08T09:56:23Z</time>
      </trkpt>
      <trkpt lat="45.94246" lon="4.72282">
        <ele>171</ele>
        <time>2018-05-08T09:56:24Z</time>
      </trkpt>
      <trkpt lat="45.9424" lon="4.72284">
        <ele>171</ele>
        <time>2018-05-08T09:56:25Z</time>
      </trkpt>
      <trkpt lat="45.94234" lon="4.72286">
        <ele>171</ele>
        <time>2018-05-08T09:56:26Z</time>
      </trkpt>
      <trkpt lat="45.94228" lon="4.72289">
        <ele>171</ele>
        <time>2018-05-08T09:56:27Z</time>
      </trkpt>
      <trkpt lat="45.94223" lon="4.72288">
        <ele>171</ele>
        <time>2018-05-08T09:56:28Z</time>
      </trkpt>
      <trkpt lat="45.94218" lon="4.72291">
        <ele>171</ele>
        <time>2018-05-08T09:56:29Z</time>
      </trkpt>
      <trkpt lat="45.94212" lon="4.72291">
        <ele>171</ele>
        <time>2018-05-08T09:56:30Z</time>
      </trkpt>
      <trkpt lat="45.94208" lon="4.72292">
        <ele>171</ele>
        <time>2018-05-08T09:56:31Z</time>
      </trkpt>
      <trkpt lat="45.94202" lon="4.72292">
        <ele>171</ele>
        <time>2018-05-08T09:56:32Z</time>
      </trkpt>
      <trkpt lat="45.94197" lon="4.72293">
        <ele>171</ele>
        <time>2018-05-08T09:56:33Z</time>
      </trkpt>
      <trkpt lat="45.94191" lon="4.72292">
        <ele>171</ele>
        <time>2018-05-08T09:56:34Z</time>
      </trkpt>
      <trkpt lat="45.94186" lon="4.72292">
        <ele>171</ele>
        <time>2018-05-08T09:56:35Z</time>
      </trkpt>
      <trkpt lat="45.9418" lon="4.72291">
        <ele>171</ele>
        <time>2018-05-08T09:56:36Z</time>
      </trkpt>
      <trkpt lat="45.94175" lon="4.7229">
        <ele>171</ele>
        <time>2018-05-08T09:56:37Z</time>
      </trkpt>
      <trkpt lat="45.9417" lon="4.7229">
        <ele>171</ele>
        <time>2018-05-08T09:56:38Z</time>
      </trkpt>
      <trkpt lat="45.94163" lon="4.7229">
        <ele>171</ele>
        <time>2018-05-08T09:56:39Z</time>
      </trkpt>
      <trkpt lat="45.94159" lon="4.72288">
        <ele>171</ele>
        <time>2018-05-08T09:56:40Z</time>
      </trkpt>
      <trkpt lat="45.94153" lon="4.72287">
        <ele>171</ele>
        <time>2018-05-08T09:56:41Z</time>
      </trkpt>
      <trkpt lat="45.94148" lon="4.72285">
        <ele>171</ele>
        <time>2018-05-08T09:56:42Z</time>
      </trkpt>
      <trkpt lat="45.94143" lon="4.72283">
        <ele>171</ele>
        <time>2018-05-08T09:56:43Z</time>
      </trkpt>
      <trkpt lat="45.94139" lon="4.72279">
        <ele>171</ele>
        <time>2018-05-08T09:56:44Z</time>
      </trkpt>
      <trkpt lat="45.94134" lon="4.72276">
        <ele>171</ele>
        <time>2018-05-08T09:56:45Z</time>
      </trkpt>
      <trkpt lat="45.94128" lon="4.72274">
        <ele>171</ele>
        <time>2018-05-08T09:56:46Z</time>
      </trkpt>
      <trkpt lat="45.94124" lon="4.72273">
        <ele>171</ele>
        <time>2018-05-08T09:56:47Z</time>
      </trkpt>
      <trkpt lat="45.94119" lon="4.7227">
        <ele>171</ele>
        <time>2018-05-08T09:56:48Z</time>
      </trkpt>
      <trkpt lat="45.94114" lon="4.72268">
        <ele>171</ele>
        <time>2018-05-08T09:56:49Z</time>
      </trkpt>
      <trkpt lat="45.94108" lon="4.72267">
        <ele>171</ele>
        <time>2018-05-08T09:56:50Z</time>
      </trkpt>
      <trkpt lat="45.94103" lon="4.72266">
        <ele>171</ele>
        <time>2018-05-08T09:56:51Z</time>
      </trkpt>
      <trkpt lat="45.94098" lon="4.72265">
        <ele>171</ele>
        <time>2018-05-08T09:56:52Z</time>
      </trkpt>
      <trkpt lat="45.94092" lon="4.72265">
        <ele>171</ele>
        <time>2018-05-08T09:56:53Z</time>
      </trkpt>
      <trkpt lat="45.94086" lon="4.72267">
        <ele>171</ele>
        <time>2018-05-08T09:56:54Z</time>
      </trkpt>
      <trkpt lat="45.94082" lon="4.72268">
        <ele>171</ele>
        <time>2018-05-08T09:56:55Z</time>
      </trkpt>
      <trkpt lat="45.94076" lon="4.72273">
        <ele>171</ele>
        <time>2018-05-08T09:56:56Z</time>
      </trkpt>
      <trkpt lat="45.94071" lon="4.72275">
        <ele>171</ele>
        <time>2018-05-08T09:56:57Z</time>
      </trkpt>
      <trkpt lat="45.94067" lon="4.72281">
        <ele>171</ele>
        <time>2018-05-08T09:56:58Z</time>
      </trkpt>
      <trkpt lat="45.94063" lon="4.72286">
        <ele>171</ele>
        <time>2018-05-08T09:56:59Z</time>
      </trkpt>
      <trkpt lat="45.94059" lon="4.72291">
        <ele>171</ele>
        <time>2018-05-08T09:57:00Z</time>
      </trkpt>
      <trkpt lat="45.94055" lon="4.72296">
        <ele>171</ele>
        <time>2018-05-08T09:57:01Z</time>
      </trkpt>
      <trkpt lat="45.94051" lon="4.72302">
        <ele>171</ele>
        <time>2018-05-08T09:57:02Z</time>
      </trkpt>
      <trkpt lat="45.94047" lon="4.72306">
        <ele>171</ele>
        <time>2018-05-08T09:57:03Z</time>
      </trkpt>
      <trkpt lat="45.94043" lon="4.72309">
        <ele>171</ele>
        <time>2018-05-08T09:57:04Z</time>
      </trkpt>
      <trkpt lat="45.9404" lon="4.72314">
        <ele>171</ele>
        <time>2018-05-08T09:57:05Z</time>
      </trkpt>
      <trkpt lat="45.94036" lon="4.72318">
        <ele>171</ele>
        <time>2018-05-08T09:57:06Z</time>
      </trkpt>
      <trkpt lat="45.94032" lon="4.72324">
        <ele>171</ele>
        <time>2018-05-08T09:57:07Z</time>
      </trkpt>
      <trkpt lat="45.94028" lon="4.72328">
        <ele>171</ele>
        <time>2018-05-08T09:57:08Z</time>
      </trkpt>
      <trkpt lat="45.94025" lon="4.72334">
        <ele>171</ele>
        <time>2018-05-08T09:57:09Z</time>
      </trkpt>
      <trkpt lat="45.9402" lon="4.72339">
        <ele>171</ele>
        <time>2018-05-08T09:57:10Z</time>
      </trkpt>
      <trkpt lat="45.94017" lon="4.72344">
        <ele>171</ele>
        <time>2018-05-08T09:57:11Z</time>
      </trkpt>
      <trkpt lat="45.94013" lon="4.72348">
        <ele>171</ele>
        <time>2018-05-08T09:57:12Z</time>
      </trkpt>
      <trkpt lat="45.94009" lon="4.72354">
        <ele>171</ele>
        <time>2018-05-08T09:57:13Z</time>
      </trkpt>
      <trkpt lat="45.94006" lon="4.7236">
        <ele>171</ele>
        <time>2018-05-08T09:57:14Z</time>
      </trkpt>
      <trkpt lat="45.94001" lon="4.72366">
        <ele>171</ele>
        <time>2018-05-08T09:57:15Z</time>
      </trkpt>
      <trkpt lat="45.93998" lon="4.72372">
        <ele>171</ele>
        <time>2018-05-08T09:57:16Z</time>
      </trkpt>
      <trkpt lat="45.93994" lon="4.72377">
        <ele>171</ele>
        <time>2018-05-08T09:57:17Z</time>
      </trkpt>
      <trkpt lat="45.9399" lon="4.72381">
        <ele>171</ele>
        <time>2018-05-08T09:57:18Z</time>
      </trkpt>
      <trkpt lat="45.93986" lon="4.72386">
        <ele>171</ele>
        <time>2018-05-08T09:57:19Z</time>
      </trkpt>
      <trkpt lat="45.93981" lon="4.72392">
        <ele>171</ele>
        <time>2018-05-08T09:57:20Z</time>
      </trkpt>
      <trkpt lat="45.93977" lon="4.72397">
        <ele>171</ele>
        <time>2018-05-08T09:57:21Z</time>
      </trkpt>
      <trkpt lat="45.93973" lon="4.72401">
        <ele>171</ele>
        <time>2018-05-08T09:57:22Z</time>
      </trkpt>
      <trkpt lat="45.93968" lon="4.72405">
        <ele>171</ele>
        <time>2018-05-08T09:57:23Z</time>
      </trkpt>
      <trkpt lat="45.93964" lon="4.72409">
        <ele>171</ele>
        <time>2018-05-08T09:57:24Z</time>
      </trkpt>
      <trkpt lat="45.9396" lon="4.72413">
        <ele>171</ele>
        <time>2018-05-08T09:57:25Z</time>
      </trkpt>
      <trkpt lat="45.93956" lon="4.72418">
        <ele>171</ele>
        <time>2018-05-08T09:57:26Z</time>
      </trkpt>
      <trkpt lat="45.93952" lon="4.72421">
        <ele>171</ele>
        <time>2018-05-08T09:57:27Z</time>
      </trkpt>
      <trkpt lat="45.93948" lon="4.72425">
        <ele>171</ele>
        <time>2018-05-08T09:57:28Z</time>
      </trkpt>
      <trkpt lat="45.93944" lon="4.7243">
        <ele>171</ele>
        <time>2018-05-08T09:57:29Z</time>
      </trkpt>
      <trkpt lat="45.9394" lon="4.72435">
        <ele>171</ele>
        <time>2018-05-08T09:57:30Z</time>
      </trkpt>
      <trkpt lat="45.93936" lon="4.7244">
        <ele>171</ele>
        <time>2018-05-08T09:57:31Z</time>
      </trkpt>
      <trkpt lat="45.93932" lon="4.72445">
        <ele>171</ele>
        <time>2018-05-08T09:57:32Z</time>
      </trkpt>
      <trkpt lat="45.93928" lon="4.72449">
        <ele>171</ele>
        <time>2018-05-08T09:57:33Z</time>
      </trkpt>
      <trkpt lat="45.93924" lon="4.72454">
        <ele>171</ele>
        <time>2018-05-08T09:57:34Z</time>
      </trkpt>
      <trkpt lat="45.9392" lon="4.72459">
        <ele>171</ele>
        <time>2018-05-08T09:57:35Z</time>
      </trkpt>
      <trkpt lat="45.93916" lon="4.72463">
        <ele>172</ele>
        <time>2018-05-08T09:57:36Z</time>
      </trkpt>
      <trkpt lat="45.93912" lon="4.72468">
        <ele>172</ele>
        <time>2018-05-08T09:57:37Z</time>
      </trkpt>
      <trkpt lat="45.93908" lon="4.72471">
        <ele>172</ele>
        <time>2018-05-08T09:57:38Z</time>
      </trkpt>
      <trkpt lat="45.93904" lon="4.72475">
        <ele>172</ele>
        <time>2018-05-08T09:57:39Z</time>
      </trkpt>
      <trkpt lat="45.939" lon="4.7248">
        <ele>172</ele>
        <time>2018-05-08T09:57:40Z</time>
      </trkpt>
      <trkpt lat="45.93896" lon="4.72485">
        <ele>172</ele>
        <time>2018-05-08T09:57:41Z</time>
      </trkpt>
      <trkpt lat="45.93893" lon="4.7249">
        <ele>172</ele>
        <time>2018-05-08T09:57:42Z</time>
      </trkpt>
      <trkpt lat="45.93889" lon="4.72495">
        <ele>172</ele>
        <time>2018-05-08T09:57:43Z</time>
      </trkpt>
      <trkpt lat="45.93885" lon="4.72499">
        <ele>172</ele>
        <time>2018-05-08T09:57:44Z</time>
      </trkpt>
      <trkpt lat="45.93881" lon="4.72503">
        <ele>173</ele>
        <time>2018-05-08T09:57:45Z</time>
      </trkpt>
      <trkpt lat="45.93877" lon="4.72507">
        <ele>173</ele>
        <time>2018-05-08T09:57:46Z</time>
      </trkpt>
      <trkpt lat="45.93871" lon="4.72508">
        <ele>173</ele>
        <time>2018-05-08T09:57:47Z</time>
      </trkpt>
      <trkpt lat="45.93866" lon="4.72508">
        <ele>173</ele>
        <time>2018-05-08T09:57:48Z</time>
      </trkpt>
      <trkpt lat="45.93863" lon="4.72503">
        <ele>173</ele>
        <time>2018-05-08T09:57:49Z</time>
      </trkpt>
      <trkpt lat="45.93859" lon="4.72498">
        <ele>173</ele>
        <time>2018-05-08T09:57:50Z</time>
      </trkpt>
      <trkpt lat="45.93824" lon="4.72475">
        <ele>172</ele>
        <time>2018-05-08T09:57:59Z</time>
      </trkpt>
      <trkpt lat="45.93819" lon="4.72463">
        <ele>172</ele>
        <time>2018-05-08T09:58:00Z</time>
      </trkpt>
      <trkpt lat="45.93812" lon="4.72454">
        <ele>172</ele>
        <time>2018-05-08T09:58:02Z</time>
      </trkpt>
      <trkpt lat="45.93811" lon="4.72449">
        <ele>172</ele>
        <time>2018-05-08T09:58:03Z</time>
      </trkpt>
      <trkpt lat="45.93805" lon="4.72443">
        <ele>172</ele>
        <time>2018-05-08T09:58:04Z</time>
      </trkpt>
      <trkpt lat="45.93798" lon="4.7244">
        <ele>172</ele>
        <time>2018-05-08T09:58:05Z</time>
      </trkpt>
      <trkpt lat="45.93793" lon="4.72437">
        <ele>172</ele>
        <time>2018-05-08T09:58:06Z</time>
      </trkpt>
      <trkpt lat="45.93789" lon="4.72432">
        <ele>172</ele>
        <time>2018-05-08T09:58:07Z</time>
      </trkpt>
      <trkpt lat="45.93786" lon="4.72429">
        <ele>172</ele>
        <time>2018-05-08T09:58:08Z</time>
      </trkpt>
      <trkpt lat="45.93781" lon="4.72425">
        <ele>172</ele>
        <time>2018-05-08T09:58:09Z</time>
      </trkpt>
      <trkpt lat="45.93774" lon="4.72418">
        <ele>171</ele>
        <time>2018-05-08T09:58:11Z</time>
      </trkpt>
      <trkpt lat="45.93769" lon="4.72414">
        <ele>171</ele>
        <time>2018-05-08T09:58:12Z</time>
      </trkpt>
      <trkpt lat="45.93765" lon="4.7241">
        <ele>171</ele>
        <time>2018-05-08T09:58:13Z</time>
      </trkpt>
      <trkpt lat="45.9376" lon="4.72408">
        <ele>171</ele>
        <time>2018-05-08T09:58:14Z</time>
      </trkpt>
      <trkpt lat="45.93757" lon="4.72404">
        <ele>171</ele>
        <time>2018-05-08T09:58:15Z</time>
      </trkpt>
      <trkpt lat="45.93752" lon="4.72401">
        <ele>171</ele>
        <time>2018-05-08T09:58:16Z</time>
      </trkpt>
      <trkpt lat="45.93748" lon="4.72398">
        <ele>171</ele>
        <time>2018-05-08T09:58:17Z</time>
      </trkpt>
      <trkpt lat="45.93745" lon="4.72393">
        <ele>171</ele>
        <time>2018-05-08T09:58:18Z</time>
      </trkpt>
      <trkpt lat="45.9374" lon="4.72389">
        <ele>171</ele>
        <time>2018-05-08T09:58:19Z</time>
      </trkpt>
      <trkpt lat="45.93736" lon="4.72385">
        <ele>171</ele>
        <time>2018-05-08T09:58:20Z</time>
      </trkpt>
      <trkpt lat="45.9373" lon="4.72378">
        <ele>171</ele>
        <time>2018-05-08T09:58:22Z</time>
      </trkpt>
      <trkpt lat="45.93726" lon="4.72374">
        <ele>172</ele>
        <time>2018-05-08T09:58:23Z</time>
      </trkpt>
      <trkpt lat="45.93722" lon="4.7237">
        <ele>172</ele>
        <time>2018-05-08T09:58:24Z</time>
      </trkpt>
      <trkpt lat="45.93718" lon="4.72367">
        <ele>172</ele>
        <time>2018-05-08T09:58:25Z</time>
      </trkpt>
      <trkpt lat="45.93711" lon="4.72361">
        <ele>172</ele>
        <time>2018-05-08T09:58:27Z</time>
      </trkpt>
      <trkpt lat="45.93707" lon="4.72357">
        <ele>171</ele>
        <time>2018-05-08T09:58:28Z</time>
      </trkpt>
      <trkpt lat="45.93702" lon="4.72354">
        <ele>171</ele>
        <time>2018-05-08T09:58:29Z</time>
      </trkpt>
      <trkpt lat="45.93698" lon="4.72351">
        <ele>171</ele>
        <time>2018-05-08T09:58:30Z</time>
      </trkpt>
      <trkpt lat="45.93697" lon="4.72349">
        <ele>171</ele>
        <time>2018-05-08T09:58:32Z</time>
      </trkpt>
      <trkpt lat="45.9369" lon="4.7234">
        <ele>171</ele>
        <time>2018-05-08T09:58:33Z</time>
      </trkpt>
      <trkpt lat="45.93686" lon="4.72336">
        <ele>171</ele>
        <time>2018-05-08T09:58:34Z</time>
      </trkpt>
      <trkpt lat="45.93682" lon="4.72332">
        <ele>171</ele>
        <time>2018-05-08T09:58:35Z</time>
      </trkpt>
      <trkpt lat="45.93678" lon="4.72327">
        <ele>171</ele>
        <time>2018-05-08T09:58:36Z</time>
      </trkpt>
      <trkpt lat="45.93672" lon="4.72323">
        <ele>171</ele>
        <time>2018-05-08T09:58:37Z</time>
      </trkpt>
      <trkpt lat="45.93668" lon="4.72319">
        <ele>171</ele>
        <time>2018-05-08T09:58:38Z</time>
      </trkpt>
      <trkpt lat="45.93664" lon="4.72316">
        <ele>172</ele>
        <time>2018-05-08T09:58:39Z</time>
      </trkpt>
      <trkpt lat="45.9366" lon="4.72312">
        <ele>172</ele>
        <time>2018-05-08T09:58:40Z</time>
      </trkpt>
      <trkpt lat="45.93657" lon="4.72307">
        <ele>172</ele>
        <time>2018-05-08T09:58:41Z</time>
      </trkpt>
      <trkpt lat="45.93653" lon="4.72304">
        <ele>172</ele>
        <time>2018-05-08T09:58:42Z</time>
      </trkpt>
      <trkpt lat="45.93648" lon="4.72301">
        <ele>172</ele>
        <time>2018-05-08T09:58:43Z</time>
      </trkpt>
      <trkpt lat="45.93644" lon="4.72297">
        <ele>172</ele>
        <time>2018-05-08T09:58:44Z</time>
      </trkpt>
      <trkpt lat="45.93641" lon="4.72294">
        <ele>172</ele>
        <time>2018-05-08T09:58:45Z</time>
      </trkpt>
      <trkpt lat="45.93637" lon="4.72289">
        <ele>172</ele>
        <time>2018-05-08T09:58:46Z</time>
      </trkpt>
      <trkpt lat="45.93634" lon="4.72286">
        <ele>172</ele>
        <time>2018-05-08T09:58:47Z</time>
      </trkpt>
      <trkpt lat="45.93626" lon="4.72279">
        <ele>172</ele>
        <time>2018-05-08T09:58:49Z</time>
      </trkpt>
      <trkpt lat="45.93624" lon="4.72275">
        <ele>172</ele>
        <time>2018-05-08T09:58:50Z</time>
      </trkpt>
      <trkpt lat="45.93621" lon="4.72271">
        <ele>172</ele>
        <time>2018-05-08T09:58:51Z</time>
      </trkpt>
      <trkpt lat="45.93617" lon="4.72269">
        <ele>172</ele>
        <time>2018-05-08T09:58:52Z</time>
      </trkpt>
      <trkpt lat="45.93609" lon="4.72263">
        <ele>172</ele>
        <time>2018-05-08T09:58:54Z</time>
      </trkpt>
      <trkpt lat="45.93606" lon="4.72259">
        <ele>173</ele>
        <time>2018-05-08T09:58:55Z</time>
      </trkpt>
      <trkpt lat="45.93601" lon="4.72256">
        <ele>173</ele>
        <time>2018-05-08T09:58:56Z</time>
      </trkpt>
      <trkpt lat="45.93594" lon="4.72253">
        <ele>173</ele>
        <time>2018-05-08T09:58:57Z</time>
      </trkpt>
      <trkpt lat="45.9359" lon="4.7225">
        <ele>173</ele>
        <time>2018-05-08T09:58:58Z</time>
      </trkpt>
      <trkpt lat="45.93586" lon="4.72246">
        <ele>173</ele>
        <time>2018-05-08T09:58:59Z</time>
      </trkpt>
      <trkpt lat="45.93581" lon="4.72243">
        <ele>173</ele>
        <time>2018-05-08T09:59:00Z</time>
      </trkpt>
      <trkpt lat="45.93578" lon="4.72238">
        <ele>173</ele>
        <time>2018-05-08T09:59:01Z</time>
      </trkpt>
      <trkpt lat="45.93572" lon="4.7223">
        <ele>173</ele>
        <time>2018-05-08T09:59:03Z</time>
      </trkpt>
      <trkpt lat="45.93569" lon="4.72224">
        <ele>173</ele>
        <time>2018-05-08T09:59:04Z</time>
      </trkpt>
      <trkpt lat="45.93563" lon="4.72223">
        <ele>173</ele>
        <time>2018-05-08T09:59:07Z</time>
      </trkpt>
      <trkpt lat="45.93562" lon="4.72223">
        <ele>173</ele>
        <time>2018-05-08T09:59:08Z</time>
      </trkpt>
      <trkpt lat="45.93561" lon="4.72224">
        <ele>173</ele>
        <time>2018-05-08T09:59:09Z</time>
      </trkpt>
      <trkpt lat="45.93552" lon="4.72219">
        <ele>173</ele>
        <time>2018-05-08T09:59:42Z</time>
      </trkpt>
      <trkpt lat="45.93551" lon="4.72221">
        <ele>173</ele>
        <time>2018-05-08T09:59:43Z</time>
      </trkpt>
      <trkpt lat="45.93546" lon="4.7223">
        <ele>172</ele>
        <time>2018-05-08T09:59:47Z</time>
      </trkpt>
      <trkpt lat="45.93545" lon="4.72232">
        <ele>172</ele>
        <time>2018-05-08T09:59:48Z</time>
      </trkpt>
      <trkpt lat="45.9354" lon="4.72243">
        <ele>172</ele>
        <time>2018-05-08T09:59:51Z</time>
      </trkpt>
      <trkpt lat="45.93539" lon="4.72247">
        <ele>172</ele>
        <time>2018-05-08T09:59:52Z</time>
      </trkpt>
      <trkpt lat="45.93536" lon="4.72254">
        <ele>172</ele>
        <time>2018-05-08T09:59:54Z</time>
      </trkpt>
      <trkpt lat="45.93532" lon="4.72266">
        <ele>172</ele>
        <time>2018-05-08T09:59:55Z</time>
      </trkpt>
      <trkpt lat="45.93528" lon="4.72277">
        <ele>172</ele>
        <time>2018-05-08T09:59:57Z</time>
      </trkpt>
      <trkpt lat="45.93526" lon="4.72282">
        <ele>172</ele>
        <time>2018-05-08T09:59:58Z</time>
      </trkpt>
      <trkpt lat="45.93524" lon="4.72288">
        <ele>172</ele>
        <time>2018-05-08T09:59:59Z</time>
      </trkpt>
      <trkpt lat="45.93521" lon="4.72294">
        <ele>172</ele>
        <time>2018-05-08T10:00:00Z</time>
      </trkpt>
      <trkpt lat="45.93517" lon="4.72299">
        <ele>172</ele>
        <time>2018-05-08T10:00:01Z</time>
      </trkpt>
      <trkpt lat="45.93514" lon="4.72304">
        <ele>173</ele>
        <time>2018-05-08T10:00:02Z</time>
      </trkpt>
      <trkpt lat="45.93509" lon="4.72309">
        <ele>173</ele>
        <time>2018-05-08T10:00:03Z</time>
      </trkpt>
      <trkpt lat="45.93506" lon="4.72314">
        <ele>173</ele>
        <time>2018-05-08T10:00:04Z</time>
      </trkpt>
      <trkpt lat="45.93502" lon="4.72319">
        <ele>173</ele>
        <time>2018-05-08T10:00:05Z</time>
      </trkpt>
      <trkpt lat="45.93498" lon="4.72324">
        <ele>173</ele>
        <time>2018-05-08T10:00:06Z</time>
      </trkpt>
      <trkpt lat="45.93493" lon="4.72329">
        <ele>173</ele>
        <time>2018-05-08T10:00:07Z</time>
      </trkpt>
      <trkpt lat="45.9349" lon="4.72334">
        <ele>173</ele>
        <time>2018-05-08T10:00:08Z</time>
      </trkpt>
      <trkpt lat="45.93486" lon="4.7234">
        <ele>173</ele>
        <time>2018-05-08T10:00:09Z</time>
      </trkpt>
      <trkpt lat="45.93483" lon="4.72345">
        <ele>173</ele>
        <time>2018-05-08T10:00:10Z</time>
      </trkpt>
      <trkpt lat="45.93479" lon="4.7235">
        <ele>173</ele>
        <time>2018-05-08T10:00:11Z</time>
      </trkpt>
      <trkpt lat="45.93475" lon="4.72355">
        <ele>173</ele>
        <time>2018-05-08T10:00:12Z</time>
      </trkpt>
      <trkpt lat="45.93471" lon="4.7236">
        <ele>173</ele>
        <time>2018-05-08T10:00:13Z</time>
      </trkpt>
      <trkpt lat="45.93466" lon="4.72366">
        <ele>173</ele>
        <time>2018-05-08T10:00:14Z</time>
      </trkpt>
      <trkpt lat="45.93463" lon="4.72372">
        <ele>173</ele>
        <time>2018-05-08T10:00:15Z</time>
      </trkpt>
      <trkpt lat="45.93459" lon="4.72377">
        <ele>173</ele>
        <time>2018-05-08T10:00:16Z</time>
      </trkpt>
      <trkpt lat="45.93455" lon="4.7238">
        <ele>173</ele>
        <time>2018-05-08T10:00:17Z</time>
      </trkpt>
      <trkpt lat="45.9345" lon="4.72383">
        <ele>173</ele>
        <time>2018-05-08T10:00:18Z</time>
      </trkpt>
      <trkpt lat="45.93445" lon="4.72386">
        <ele>173</ele>
        <time>2018-05-08T10:00:19Z</time>
      </trkpt>
      <trkpt lat="45.9344" lon="4.72389">
        <ele>173</ele>
        <time>2018-05-08T10:00:20Z</time>
      </trkpt>
      <trkpt lat="45.93435" lon="4.72392">
        <ele>173</ele>
        <time>2018-05-08T10:00:21Z</time>
      </trkpt>
      <trkpt lat="45.9343" lon="4.72392">
        <ele>173</ele>
        <time>2018-05-08T10:00:22Z</time>
      </trkpt>
      <trkpt lat="45.93423" lon="4.72395">
        <ele>174</ele>
        <time>2018-05-08T10:00:23Z</time>
      </trkpt>
      <trkpt lat="45.93418" lon="4.72398">
        <ele>174</ele>
        <time>2018-05-08T10:00:24Z</time>
      </trkpt>
      <trkpt lat="45.93414" lon="4.72402">
        <ele>174</ele>
        <time>2018-05-08T10:00:25Z</time>
      </trkpt>
      <trkpt lat="45.9341" lon="4.72403">
        <ele>174</ele>
        <time>2018-05-08T10:00:26Z</time>
      </trkpt>
      <trkpt lat="45.93402" lon="4.72404">
        <ele>174</ele>
        <time>2018-05-08T10:00:28Z</time>
      </trkpt>
      <trkpt lat="45.93396" lon="4.72404">
        <ele>174</ele>
        <time>2018-05-08T10:00:29Z</time>
      </trkpt>
      <trkpt lat="45.93387" lon="4.72408">
        <ele>174</ele>
        <time>2018-05-08T10:00:31Z</time>
      </trkpt>
      <trkpt lat="45.93384" lon="4.72413">
        <ele>174</ele>
        <time>2018-05-08T10:00:32Z</time>
      </trkpt>
      <trkpt lat="45.93382" lon="4.72419">
        <ele>173</ele>
        <time>2018-05-08T10:00:33Z</time>
      </trkpt>
      <trkpt lat="45.93383" lon="4.72426">
        <ele>173</ele>
        <time>2018-05-08T10:00:34Z</time>
      </trkpt>
      <trkpt lat="45.93384" lon="4.72432">
        <ele>173</ele>
        <time>2018-05-08T10:00:35Z</time>
      </trkpt>
      <trkpt lat="45.93387" lon="4.72437">
        <ele>173</ele>
        <time>2018-05-08T10:00:36Z</time>
      </trkpt>
      <trkpt lat="45.93389" lon="4.72445">
        <ele>173</ele>
        <time>2018-05-08T10:00:37Z</time>
      </trkpt>
      <trkpt lat="45.93389" lon="4.72451">
        <ele>173</ele>
        <time>2018-05-08T10:00:38Z</time>
      </trkpt>
      <trkpt lat="45.93387" lon="4.72457">
        <ele>173</ele>
        <time>2018-05-08T10:00:39Z</time>
      </trkpt>
      <trkpt lat="45.93385" lon="4.72463">
        <ele>173</ele>
        <time>2018-05-08T10:00:40Z</time>
      </trkpt>
      <trkpt lat="45.93382" lon="4.72469">
        <ele>173</ele>
        <time>2018-05-08T10:00:41Z</time>
      </trkpt>
      <trkpt lat="45.93378" lon="4.72474">
        <ele>173</ele>
        <time>2018-05-08T10:00:42Z</time>
      </trkpt>
      <trkpt lat="45.93374" lon="4.72478">
        <ele>173</ele>
        <time>2018-05-08T10:00:43Z</time>
      </trkpt>
      <trkpt lat="45.9337" lon="4.72483">
        <ele>173</ele>
        <time>2018-05-08T10:00:44Z</time>
      </trkpt>
      <trkpt lat="45.93366" lon="4.72486">
        <ele>173</ele>
        <time>2018-05-08T10:00:45Z</time>
      </trkpt>
      <trkpt lat="45.93363" lon="4.72491">
        <ele>173</ele>
        <time>2018-05-08T10:00:46Z</time>
      </trkpt>
      <trkpt lat="45.9336" lon="4.72497">
        <ele>173</ele>
        <time>2018-05-08T10:00:47Z</time>
      </trkpt>
      <trkpt lat="45.93357" lon="4.72503">
        <ele>172</ele>
        <time>2018-05-08T10:00:48Z</time>
      </trkpt>
      <trkpt lat="45.93352" lon="4.72508">
        <ele>172</ele>
        <time>2018-05-08T10:00:49Z</time>
      </trkpt>
      <trkpt lat="45.93348" lon="4.72514">
        <ele>172</ele>
        <time>2018-05-08T10:00:50Z</time>
      </trkpt>
      <trkpt lat="45.93344" lon="4.72518">
        <ele>172</ele>
        <time>2018-05-08T10:00:51Z</time>
      </trkpt>
      <trkpt lat="45.9334" lon="4.72524">
        <ele>172</ele>
        <time>2018-05-08T10:00:52Z</time>
      </trkpt>
      <trkpt lat="45.93336" lon="4.72528">
        <ele>172</ele>
        <time>2018-05-08T10:00:53Z</time>
      </trkpt>
      <trkpt lat="45.93332" lon="4.72533">
        <ele>172</ele>
        <time>2018-05-08T10:00:54Z</time>
      </trkpt>
      <trkpt lat="45.93328" lon="4.72538">
        <ele>172</ele>
        <time>2018-05-08T10:00:55Z</time>
      </trkpt>
      <trkpt lat="45.93324" lon="4.72541">
        <ele>172</ele>
        <time>2018-05-08T10:00:56Z</time>
      </trkpt>
      <trkpt lat="45.9332" lon="4.72544">
        <ele>172</ele>
        <time>2018-05-08T10:00:57Z</time>
      </trkpt>
      <trkpt lat="45.93316" lon="4.72548">
        <ele>172</ele>
        <time>2018-05-08T10:00:58Z</time>
      </trkpt>
      <trkpt lat="45.93311" lon="4.72553">
        <ele>172</ele>
        <time>2018-05-08T10:00:59Z</time>
      </trkpt>
      <trkpt lat="45.93308" lon="4.72557">
        <ele>172</ele>
        <time>2018-05-08T10:01:00Z</time>
      </trkpt>
      <trkpt lat="45.93304" lon="4.72561">
        <ele>172</ele>
        <time>2018-05-08T10:01:01Z</time>
      </trkpt>
      <trkpt lat="45.933" lon="4.72565">
        <ele>172</ele>
        <time>2018-05-08T10:01:02Z</time>
      </trkpt>
      <trkpt lat="45.93297" lon="4.72569">
        <ele>172</ele>
        <time>2018-05-08T10:01:03Z</time>
      </trkpt>
      <trkpt lat="45.93293" lon="4.72574">
        <ele>171</ele>
        <time>2018-05-08T10:01:04Z</time>
      </trkpt>
      <trkpt lat="45.9329" lon="4.72579">
        <ele>171</ele>
        <time>2018-05-08T10:01:05Z</time>
      </trkpt>
      <trkpt lat="45.93286" lon="4.72584">
        <ele>170</ele>
        <time>2018-05-08T10:01:06Z</time>
      </trkpt>
      <trkpt lat="45.93282" lon="4.72588">
        <ele>170</ele>
        <time>2018-05-08T10:01:07Z</time>
      </trkpt>
      <trkpt lat="45.93278" lon="4.72592">
        <ele>170</ele>
        <time>2018-05-08T10:01:08Z</time>
      </trkpt>
      <trkpt lat="45.93274" lon="4.72596">
        <ele>170</ele>
        <time>2018-05-08T10:01:09Z</time>
      </trkpt>
      <trkpt lat="45.9327" lon="4.72601">
        <ele>170</ele>
        <time>2018-05-08T10:01:10Z</time>
      </trkpt>
      <trkpt lat="45.93266" lon="4.72606">
        <ele>170</ele>
        <time>2018-05-08T10:01:11Z</time>
      </trkpt>
      <trkpt lat="45.93262" lon="4.7261">
        <ele>170</ele>
        <time>2018-05-08T10:01:12Z</time>
      </trkpt>
      <trkpt lat="45.93258" lon="4.72613">
        <ele>170</ele>
        <time>2018-05-08T10:01:13Z</time>
      </trkpt>
      <trkpt lat="45.93254" lon="4.72619">
        <ele>170</ele>
        <time>2018-05-08T10:01:14Z</time>
      </trkpt>
      <trkpt lat="45.93251" lon="4.72624">
        <ele>170</ele>
        <time>2018-05-08T10:01:15Z</time>
      </trkpt>
      <trkpt lat="45.93248" lon="4.72628">
        <ele>170</ele>
        <time>2018-05-08T10:01:16Z</time>
      </trkpt>
      <trkpt lat="45.93244" lon="4.72633">
        <ele>170</ele>
        <time>2018-05-08T10:01:17Z</time>
      </trkpt>
      <trkpt lat="45.93241" lon="4.72637">
        <ele>170</ele>
        <time>2018-05-08T10:01:18Z</time>
      </trkpt>
      <trkpt lat="45.93237" lon="4.72643">
        <ele>170</ele>
        <time>2018-05-08T10:01:19Z</time>
      </trkpt>
      <trkpt lat="45.93232" lon="4.72648">
        <ele>170</ele>
        <time>2018-05-08T10:01:20Z</time>
      </trkpt>
      <trkpt lat="45.93229" lon="4.72652">
        <ele>170</ele>
        <time>2018-05-08T10:01:21Z</time>
      </trkpt>
      <trkpt lat="45.93225" lon="4.72656">
        <ele>170</ele>
        <time>2018-05-08T10:01:22Z</time>
      </trkpt>
      <trkpt lat="45.93218" lon="4.72663">
        <ele>170</ele>
        <time>2018-05-08T10:01:24Z</time>
      </trkpt>
      <trkpt lat="45.93215" lon="4.72668">
        <ele>169</ele>
        <time>2018-05-08T10:01:25Z</time>
      </trkpt>
      <trkpt lat="45.93211" lon="4.72671">
        <ele>169</ele>
        <time>2018-05-08T10:01:26Z</time>
      </trkpt>
      <trkpt lat="45.93207" lon="4.72679">
        <ele>169</ele>
        <time>2018-05-08T10:01:27Z</time>
      </trkpt>
      <trkpt lat="45.93203" lon="4.72682">
        <ele>169</ele>
        <time>2018-05-08T10:01:28Z</time>
      </trkpt>
      <trkpt lat="45.932" lon="4.72687">
        <ele>169</ele>
        <time>2018-05-08T10:01:29Z</time>
      </trkpt>
      <trkpt lat="45.93195" lon="4.72693">
        <ele>169</ele>
        <time>2018-05-08T10:01:30Z</time>
      </trkpt>
      <trkpt lat="45.93191" lon="4.72699">
        <ele>169</ele>
        <time>2018-05-08T10:01:31Z</time>
      </trkpt>
      <trkpt lat="45.93187" lon="4.72706">
        <ele>169</ele>
        <time>2018-05-08T10:01:32Z</time>
      </trkpt>
      <trkpt lat="45.93182" lon="4.72711">
        <ele>169</ele>
        <time>2018-05-08T10:01:33Z</time>
      </trkpt>
      <trkpt lat="45.93175" lon="4.72717">
        <ele>170</ele>
        <time>2018-05-08T10:01:35Z</time>
      </trkpt>
      <trkpt lat="45.93171" lon="4.72721">
        <ele>170</ele>
        <time>2018-05-08T10:01:36Z</time>
      </trkpt>
      <trkpt lat="45.93166" lon="4.72725">
        <ele>170</ele>
        <time>2018-05-08T10:01:37Z</time>
      </trkpt>
      <trkpt lat="45.93164" lon="4.72731">
        <ele>170</ele>
        <time>2018-05-08T10:01:38Z</time>
      </trkpt>
      <trkpt lat="45.9316" lon="4.72735">
        <ele>170</ele>
        <time>2018-05-08T10:01:39Z</time>
      </trkpt>
      <trkpt lat="45.93155" lon="4.72741">
        <ele>170</ele>
        <time>2018-05-08T10:01:40Z</time>
      </trkpt>
      <trkpt lat="45.93151" lon="4.72745">
        <ele>170</ele>
        <time>2018-05-08T10:01:41Z</time>
      </trkpt>
      <trkpt lat="45.93147" lon="4.72749">
        <ele>170</ele>
        <time>2018-05-08T10:01:42Z</time>
      </trkpt>
      <trkpt lat="45.93143" lon="4.72756">
        <ele>171</ele>
        <time>2018-05-08T10:01:43Z</time>
      </trkpt>
      <trkpt lat="45.93139" lon="4.7276">
        <ele>171</ele>
        <time>2018-05-08T10:01:44Z</time>
      </trkpt>
      <trkpt lat="45.93134" lon="4.72766">
        <ele>171</ele>
        <time>2018-05-08T10:01:45Z</time>
      </trkpt>
      <trkpt lat="45.93131" lon="4.72771">
        <ele>171</ele>
        <time>2018-05-08T10:01:46Z</time>
      </trkpt>
      <trkpt lat="45.93127" lon="4.72775">
        <ele>171</ele>
        <time>2018-05-08T10:01:47Z</time>
      </trkpt>
      <trkpt lat="45.93122" lon="4.7278">
        <ele>171</ele>
        <time>2018-05-08T10:01:48Z</time>
      </trkpt>
      <trkpt lat="45.93118" lon="4.72783">
        <ele>171</ele>
        <time>2018-05-08T10:01:49Z</time>
      </trkpt>
      <trkpt lat="45.93114" lon="4.72787">
        <ele>171</ele>
        <time>2018-05-08T10:01:50Z</time>
      </trkpt>
      <trkpt lat="45.9311" lon="4.72791">
        <ele>171</ele>
        <time>2018-05-08T10:01:51Z</time>
      </trkpt>
      <trkpt lat="45.93105" lon="4.72796">
        <ele>171</ele>
        <time>2018-05-08T10:01:52Z</time>
      </trkpt>
      <trkpt lat="45.93101" lon="4.72803">
        <ele>171</ele>
        <time>2018-05-08T10:01:53Z</time>
      </trkpt>
      <trkpt lat="45.93097" lon="4.72808">
        <ele>172</ele>
        <time>2018-05-08T10:01:54Z</time>
      </trkpt>
      <trkpt lat="45.93092" lon="4.72813">
        <ele>172</ele>
        <time>2018-05-08T10:01:55Z</time>
      </trkpt>
      <trkpt lat="45.93088" lon="4.72817">
        <ele>172</ele>
        <time>2018-05-08T10:01:56Z</time>
      </trkpt>
      <trkpt lat="45.93082" lon="4.72822">
        <ele>173</ele>
        <time>2018-05-08T10:01:57Z</time>
      </trkpt>
      <trkpt lat="45.93078" lon="4.72827">
        <ele>173</ele>
        <time>2018-05-08T10:01:58Z</time>
      </trkpt>
      <trkpt lat="45.93076" lon="4.72829">
        <ele>173</ele>
        <time>2018-05-08T10:02:00Z</time>
      </trkpt>
      <trkpt lat="45.93045" lon="4.72867">
        <ele>172</ele>
        <time>2018-05-08T10:02:06Z</time>
      </trkpt>
      <trkpt lat="45.93041" lon="4.72865">
        <ele>172</ele>
        <time>2018-05-08T10:02:07Z</time>
      </trkpt>
      <trkpt lat="45.93037" lon="4.72875">
        <ele>172</ele>
        <time>2018-05-08T10:02:08Z</time>
      </trkpt>
      <trkpt lat="45.93029" lon="4.72881">
        <ele>172</ele>
        <time>2018-05-08T10:02:10Z</time>
      </trkpt>
      <trkpt lat="45.93025" lon="4.72883">
        <ele>172</ele>
        <time>2018-05-08T10:02:11Z</time>
      </trkpt>
      <trkpt lat="45.9302" lon="4.72888">
        <ele>172</ele>
        <time>2018-05-08T10:02:12Z</time>
      </trkpt>
      <trkpt lat="45.93017" lon="4.72892">
        <ele>172</ele>
        <time>2018-05-08T10:02:13Z</time>
      </trkpt>
      <trkpt lat="45.93012" lon="4.72896">
        <ele>172</ele>
        <time>2018-05-08T10:02:14Z</time>
      </trkpt>
      <trkpt lat="45.93009" lon="4.72902">
        <ele>172</ele>
        <time>2018-05-08T10:02:15Z</time>
      </trkpt>
      <trkpt lat="45.93005" lon="4.72907">
        <ele>171</ele>
        <time>2018-05-08T10:02:16Z</time>
      </trkpt>
      <trkpt lat="45.93001" lon="4.72914">
        <ele>171</ele>
        <time>2018-05-08T10:02:17Z</time>
      </trkpt>
      <trkpt lat="45.92997" lon="4.72918">
        <ele>171</ele>
        <time>2018-05-08T10:02:18Z</time>
      </trkpt>
      <trkpt lat="45.92993" lon="4.72923">
        <ele>171</ele>
        <time>2018-05-08T10:02:19Z</time>
      </trkpt>
      <trkpt lat="45.9299" lon="4.72928">
        <ele>171</ele>
        <time>2018-05-08T10:02:20Z</time>
      </trkpt>
      <trkpt lat="45.92987" lon="4.72934">
        <ele>171</ele>
        <time>2018-05-08T10:02:21Z</time>
      </trkpt>
      <trkpt lat="45.92983" lon="4.72938">
        <ele>171</ele>
        <time>2018-05-08T10:02:22Z</time>
      </trkpt>
      <trkpt lat="45.92979" lon="4.72942">
        <ele>171</ele>
        <time>2018-05-08T10:02:23Z</time>
      </trkpt>
      <trkpt lat="45.92976" lon="4.72948">
        <ele>171</ele>
        <time>2018-05-08T10:02:24Z</time>
      </trkpt>
      <trkpt lat="45.92971" lon="4.72953">
        <ele>171</ele>
        <time>2018-05-08T10:02:25Z</time>
      </trkpt>
      <trkpt lat="45.92967" lon="4.72958">
        <ele>171</ele>
        <time>2018-05-08T10:02:26Z</time>
      </trkpt>
      <trkpt lat="45.92962" lon="4.72963">
        <ele>171</ele>
        <time>2018-05-08T10:02:27Z</time>
      </trkpt>
      <trkpt lat="45.92958" lon="4.72968">
        <ele>171</ele>
        <time>2018-05-08T10:02:28Z</time>
      </trkpt>
      <trkpt lat="45.92954" lon="4.72973">
        <ele>171</ele>
        <time>2018-05-08T10:02:29Z</time>
      </trkpt>
      <trkpt lat="45.92949" lon="4.72979">
        <ele>171</ele>
        <time>2018-05-08T10:02:30Z</time>
      </trkpt>
      <trkpt lat="45.92946" lon="4.72984">
        <ele>171</ele>
        <time>2018-05-08T10:02:31Z</time>
      </trkpt>
      <trkpt lat="45.92942" lon="4.72989">
        <ele>171</ele>
        <time>2018-05-08T10:02:32Z</time>
      </trkpt>
      <trkpt lat="45.92938" lon="4.72994">
        <ele>171</ele>
        <time>2018-05-08T10:02:33Z</time>
      </trkpt>
      <trkpt lat="45.92934" lon="4.72999">
        <ele>172</ele>
        <time>2018-05-08T10:02:34Z</time>
      </trkpt>
      <trkpt lat="45.92931" lon="4.73005">
        <ele>172</ele>
        <time>2018-05-08T10:02:35Z</time>
      </trkpt>
      <trkpt lat="45.92927" lon="4.73009">
        <ele>172</ele>
        <time>2018-05-08T10:02:36Z</time>
      </trkpt>
      <trkpt lat="45.92923" lon="4.73014">
        <ele>172</ele>
        <time>2018-05-08T10:02:37Z</time>
      </trkpt>
      <trkpt lat="45.9292" lon="4.73019">
        <ele>172</ele>
        <time>2018-05-08T10:02:38Z</time>
      </trkpt>
      <trkpt lat="45.92915" lon="4.73023">
        <ele>172</ele>
        <time>2018-05-08T10:02:39Z</time>
      </trkpt>
      <trkpt lat="45.92912" lon="4.73029">
        <ele>172</ele>
        <time>2018-05-08T10:02:40Z</time>
      </trkpt>
      <trkpt lat="45.92909" lon="4.73034">
        <ele>172</ele>
        <time>2018-05-08T10:02:41Z</time>
      </trkpt>
      <trkpt lat="45.92904" lon="4.73043">
        <ele>172</ele>
        <time>2018-05-08T10:02:43Z</time>
      </trkpt>
      <trkpt lat="45.92901" lon="4.73047">
        <ele>172</ele>
        <time>2018-05-08T10:02:44Z</time>
      </trkpt>
      <trkpt lat="45.92897" lon="4.73052">
        <ele>172</ele>
        <time>2018-05-08T10:02:45Z</time>
      </trkpt>
      <trkpt lat="45.92894" lon="4.73056">
        <ele>172</ele>
        <time>2018-05-08T10:02:46Z</time>
      </trkpt>
      <trkpt lat="45.92891" lon="4.73062">
        <ele>172</ele>
        <time>2018-05-08T10:02:47Z</time>
      </trkpt>
      <trkpt lat="45.92888" lon="4.73067">
        <ele>172</ele>
        <time>2018-05-08T10:02:48Z</time>
      </trkpt>
      <trkpt lat="45.92884" lon="4.73071">
        <ele>172</ele>
        <time>2018-05-08T10:02:49Z</time>
      </trkpt>
      <trkpt lat="45.92881" lon="4.73076">
        <ele>172</ele>
        <time>2018-05-08T10:02:50Z</time>
      </trkpt>
      <trkpt lat="45.92878" lon="4.73082">
        <ele>172</ele>
        <time>2018-05-08T10:02:51Z</time>
      </trkpt>
      <trkpt lat="45.92876" lon="4.73088">
        <ele>172</ele>
        <time>2018-05-08T10:02:52Z</time>
      </trkpt>
      <trkpt lat="45.92873" lon="4.73094">
        <ele>172</ele>
        <time>2018-05-08T10:02:53Z</time>
      </trkpt>
      <trkpt lat="45.92871" lon="4.73101">
        <ele>172</ele>
        <time>2018-05-08T10:02:54Z</time>
      </trkpt>
      <trkpt lat="45.92868" lon="4.73108">
        <ele>172</ele>
        <time>2018-05-08T10:02:55Z</time>
      </trkpt>
      <trkpt lat="45.92867" lon="4.73115">
        <ele>171</ele>
        <time>2018-05-08T10:02:56Z</time>
      </trkpt>
      <trkpt lat="45.92866" lon="4.73123">
        <ele>171</ele>
        <time>2018-05-08T10:02:57Z</time>
      </trkpt>
      <trkpt lat="45.92864" lon="4.7313">
        <ele>171</ele>
        <time>2018-05-08T10:02:58Z</time>
      </trkpt>
      <trkpt lat="45.92863" lon="4.73138">
        <ele>171</ele>
        <time>2018-05-08T10:02:59Z</time>
      </trkpt>
      <trkpt lat="45.92862" lon="4.73145">
        <ele>171</ele>
        <time>2018-05-08T10:03:00Z</time>
      </trkpt>
      <trkpt lat="45.92862" lon="4.73154">
        <ele>171</ele>
        <time>2018-05-08T10:03:01Z</time>
      </trkpt>
      <trkpt lat="45.9286" lon="4.73162">
        <ele>171</ele>
        <time>2018-05-08T10:03:02Z</time>
      </trkpt>
      <trkpt lat="45.9286" lon="4.7317">
        <ele>171</ele>
        <time>2018-05-08T10:03:03Z</time>
      </trkpt>
      <trkpt lat="45.92859" lon="4.73178">
        <ele>171</ele>
        <time>2018-05-08T10:03:04Z</time>
      </trkpt>
      <trkpt lat="45.92858" lon="4.73186">
        <ele>171</ele>
        <time>2018-05-08T10:03:05Z</time>
      </trkpt>
      <trkpt lat="45.92857" lon="4.73194">
        <ele>171</ele>
        <time>2018-05-08T10:03:06Z</time>
      </trkpt>
      <trkpt lat="45.92857" lon="4.73203">
        <ele>171</ele>
        <time>2018-05-08T10:03:07Z</time>
      </trkpt>
      <trkpt lat="45.92856" lon="4.73211">
        <ele>171</ele>
        <time>2018-05-08T10:03:08Z</time>
      </trkpt>
      <trkpt lat="45.92856" lon="4.73219">
        <ele>171</ele>
        <time>2018-05-08T10:03:09Z</time>
      </trkpt>
      <trkpt lat="45.92855" lon="4.73227">
        <ele>171</ele>
        <time>2018-05-08T10:03:10Z</time>
      </trkpt>
      <trkpt lat="45.92855" lon="4.73236">
        <ele>171</ele>
        <time>2018-05-08T10:03:11Z</time>
      </trkpt>
      <trkpt lat="45.92854" lon="4.73243">
        <ele>171</ele>
        <time>2018-05-08T10:03:12Z</time>
      </trkpt>
      <trkpt lat="45.9285" lon="4.73255">
        <ele>171</ele>
        <time>2018-05-08T10:03:14Z</time>
      </trkpt>
      <trkpt lat="45.92852" lon="4.73269">
        <ele>171</ele>
        <time>2018-05-08T10:03:15Z</time>
      </trkpt>
      <trkpt lat="45.92851" lon="4.73279">
        <ele>171</ele>
        <time>2018-05-08T10:03:16Z</time>
      </trkpt>
      <trkpt lat="45.9285" lon="4.73286">
        <ele>171</ele>
        <time>2018-05-08T10:03:17Z</time>
      </trkpt>
      <trkpt lat="45.92849" lon="4.73296">
        <ele>171</ele>
        <time>2018-05-08T10:03:18Z</time>
      </trkpt>
      <trkpt lat="45.9285" lon="4.73304">
        <ele>171</ele>
        <time>2018-05-08T10:03:19Z</time>
      </trkpt>
      <trkpt lat="45.92848" lon="4.73312">
        <ele>171</ele>
        <time>2018-05-08T10:03:20Z</time>
      </trkpt>
      <trkpt lat="45.92847" lon="4.7332">
        <ele>171</ele>
        <time>2018-05-08T10:03:21Z</time>
      </trkpt>
      <trkpt lat="45.92846" lon="4.73328">
        <ele>171</ele>
        <time>2018-05-08T10:03:22Z</time>
      </trkpt>
      <trkpt lat="45.92845" lon="4.73334">
        <ele>171</ele>
        <time>2018-05-08T10:03:23Z</time>
      </trkpt>
      <trkpt lat="45.92844" lon="4.73341">
        <ele>171</ele>
        <time>2018-05-08T10:03:24Z</time>
      </trkpt>
      <trkpt lat="45.92842" lon="4.73347">
        <ele>171</ele>
        <time>2018-05-08T10:03:25Z</time>
      </trkpt>
      <trkpt lat="45.92841" lon="4.73353">
        <ele>171</ele>
        <time>2018-05-08T10:03:26Z</time>
      </trkpt>
      <trkpt lat="45.9284" lon="4.7336">
        <ele>171</ele>
        <time>2018-05-08T10:03:27Z</time>
      </trkpt>
      <trkpt lat="45.92839" lon="4.73366">
        <ele>171</ele>
        <time>2018-05-08T10:03:28Z</time>
      </trkpt>
      <trkpt lat="45.92838" lon="4.73373">
        <ele>171</ele>
        <time>2018-05-08T10:03:29Z</time>
      </trkpt>
      <trkpt lat="45.92837" lon="4.7338">
        <ele>172</ele>
        <time>2018-05-08T10:03:30Z</time>
      </trkpt>
      <trkpt lat="45.92836" lon="4.73386">
        <ele>172</ele>
        <time>2018-05-08T10:03:31Z</time>
      </trkpt>
      <trkpt lat="45.92835" lon="4.73394">
        <ele>172</ele>
        <time>2018-05-08T10:03:32Z</time>
      </trkpt>
      <trkpt lat="45.92834" lon="4.734">
        <ele>172</ele>
        <time>2018-05-08T10:03:33Z</time>
      </trkpt>
      <trkpt lat="45.92833" lon="4.73411">
        <ele>172</ele>
        <time>2018-05-08T10:03:35Z</time>
      </trkpt>
      <trkpt lat="45.92833" lon="4.73417">
        <ele>172</ele>
        <time>2018-05-08T10:03:36Z</time>
      </trkpt>
      <trkpt lat="45.92832" lon="4.73426">
        <ele>172</ele>
        <time>2018-05-08T10:03:37Z</time>
      </trkpt>
      <trkpt lat="45.92831" lon="4.73432">
        <ele>172</ele>
        <time>2018-05-08T10:03:38Z</time>
      </trkpt>
      <trkpt lat="45.92829" lon="4.73443">
        <ele>172</ele>
        <time>2018-05-08T10:03:40Z</time>
      </trkpt>
      <trkpt lat="45.92829" lon="4.73446">
        <ele>172</ele>
        <time>2018-05-08T10:03:41Z</time>
      </trkpt>
      <trkpt lat="45.92827" lon="4.73457">
        <ele>172</ele>
        <time>2018-05-08T10:03:45Z</time>
      </trkpt>
      <trkpt lat="45.92826" lon="4.7346">
        <ele>172</ele>
        <time>2018-05-08T10:03:46Z</time>
      </trkpt>
      <trkpt lat="45.9282" lon="4.73464">
        <ele>171</ele>
        <time>2018-05-08T10:04:01Z</time>
      </trkpt>
      <trkpt lat="45.92817" lon="4.73461">
        <ele>171</ele>
        <time>2018-05-08T10:04:02Z</time>
      </trkpt>
      <trkpt lat="45.92815" lon="4.73449">
        <ele>171</ele>
        <time>2018-05-08T10:04:13Z</time>
      </trkpt>
      <trkpt lat="45.92815" lon="4.73447">
        <ele>171</ele>
        <time>2018-05-08T10:04:14Z</time>
      </trkpt>
      <trkpt lat="45.92814" lon="4.73435">
        <ele>172</ele>
        <time>2018-05-08T10:04:26Z</time>
      </trkpt>
      <trkpt lat="45.92813" lon="4.73433">
        <ele>172</ele>
        <time>2018-05-08T10:04:27Z</time>
      </trkpt>
      <trkpt lat="45.92811" lon="4.73424">
        <ele>172</ele>
        <time>2018-05-08T10:04:30Z</time>
      </trkpt>
      <trkpt lat="45.92809" lon="4.73421">
        <ele>172</ele>
        <time>2018-05-08T10:04:31Z</time>
      </trkpt>
      <trkpt lat="45.92805" lon="4.7341">
        <ele>171</ele>
        <time>2018-05-08T10:04:32Z</time>
      </trkpt>
      <trkpt lat="45.92803" lon="4.73405">
        <ele>171</ele>
        <time>2018-05-08T10:04:33Z</time>
      </trkpt>
      <trkpt lat="45.928" lon="4.73396">
        <ele>171</ele>
        <time>2018-05-08T10:04:35Z</time>
      </trkpt>
      <trkpt lat="45.92798" lon="4.73391">
        <ele>171</ele>
        <time>2018-05-08T10:04:36Z</time>
      </trkpt>
      <trkpt lat="45.92794" lon="4.73381">
        <ele>171</ele>
        <time>2018-05-08T10:04:38Z</time>
      </trkpt>
      <trkpt lat="45.92791" lon="4.73376">
        <ele>171</ele>
        <time>2018-05-08T10:04:39Z</time>
      </trkpt>
      <trkpt lat="45.92785" lon="4.73371">
        <ele>171</ele>
        <time>2018-05-08T10:04:41Z</time>
      </trkpt>
      <trkpt lat="45.92783" lon="4.73371">
        <ele>171</ele>
        <time>2018-05-08T10:04:42Z</time>
      </trkpt>
      <trkpt lat="45.92777" lon="4.73372">
        <ele>171</ele>
        <time>2018-05-08T10:04:43Z</time>
      </trkpt>
      <trkpt lat="45.92773" lon="4.73374">
        <ele>171</ele>
        <time>2018-05-08T10:04:44Z</time>
      </trkpt>
      <trkpt lat="45.92765" lon="4.73378">
        <ele>171</ele>
        <time>2018-05-08T10:04:46Z</time>
      </trkpt>
      <trkpt lat="45.92761" lon="4.7338">
        <ele>171</ele>
        <time>2018-05-08T10:04:47Z</time>
      </trkpt>
      <trkpt lat="45.92754" lon="4.73385">
        <ele>171</ele>
        <time>2018-05-08T10:04:49Z</time>
      </trkpt>
      <trkpt lat="45.9275" lon="4.73388">
        <ele>171</ele>
        <time>2018-05-08T10:04:50Z</time>
      </trkpt>
      <trkpt lat="45.92746" lon="4.7339">
        <ele>171</ele>
        <time>2018-05-08T10:04:51Z</time>
      </trkpt>
      <trkpt lat="45.92739" lon="4.73394">
        <ele>171</ele>
        <time>2018-05-08T10:04:52Z</time>
      </trkpt>
      <trkpt lat="45.92732" lon="4.73397">
        <ele>171</ele>
        <time>2018-05-08T10:04:54Z</time>
      </trkpt>
      <trkpt lat="45.92728" lon="4.734">
        <ele>171</ele>
        <time>2018-05-08T10:04:55Z</time>
      </trkpt>
      <trkpt lat="45.92721" lon="4.73405">
        <ele>171</ele>
        <time>2018-05-08T10:04:57Z</time>
      </trkpt>
      <trkpt lat="45.92717" lon="4.73408">
        <ele>171</ele>
        <time>2018-05-08T10:04:58Z</time>
      </trkpt>
      <trkpt lat="45.92709" lon="4.73411">
        <ele>171</ele>
        <time>2018-05-08T10:05:00Z</time>
      </trkpt>
      <trkpt lat="45.92704" lon="4.73414">
        <ele>171</ele>
        <time>2018-05-08T10:05:01Z</time>
      </trkpt>
      <trkpt lat="45.92697" lon="4.73416">
        <ele>171</ele>
        <time>2018-05-08T10:05:03Z</time>
      </trkpt>
      <trkpt lat="45.92695" lon="4.73417">
        <ele>170</ele>
        <time>2018-05-08T10:05:04Z</time>
      </trkpt>
      <trkpt lat="45.92687" lon="4.73421">
        <ele>170</ele>
        <time>2018-05-08T10:05:07Z</time>
      </trkpt>
      <trkpt lat="45.92685" lon="4.73422">
        <ele>170</ele>
        <time>2018-05-08T10:05:08Z</time>
      </trkpt>
      <trkpt lat="45.92677" lon="4.73427">
        <ele>170</ele>
        <time>2018-05-08T10:05:12Z</time>
      </trkpt>
      <trkpt lat="45.92675" lon="4.73428">
        <ele>170</ele>
        <time>2018-05-08T10:05:13Z</time>
      </trkpt>
      <trkpt lat="45.9267" lon="4.73429">
        <ele>170</ele>
        <time>2018-05-08T10:05:15Z</time>
      </trkpt>
      <trkpt lat="45.92661" lon="4.73433">
        <ele>170</ele>
        <time>2018-05-08T10:05:16Z</time>
      </trkpt>
      <trkpt lat="45.92654" lon="4.73439">
        <ele>171</ele>
        <time>2018-05-08T10:05:19Z</time>
      </trkpt>
      <trkpt lat="45.92652" lon="4.7344">
        <ele>171</ele>
        <time>2018-05-08T10:05:20Z</time>
      </trkpt>
      <trkpt lat="45.92644" lon="4.73444">
        <ele>171</ele>
        <time>2018-05-08T10:05:23Z</time>
      </trkpt>
      <trkpt lat="45.92642" lon="4.73445">
        <ele>171</ele>
        <time>2018-05-08T10:05:24Z</time>
      </trkpt>
      <trkpt lat="45.92639" lon="4.73447">
        <ele>171</ele>
        <time>2018-05-08T10:05:25Z</time>
      </trkpt>
      <trkpt lat="45.9263" lon="4.73453">
        <ele>171</ele>
        <time>2018-05-08T10:05:26Z</time>
      </trkpt>
      <trkpt lat="45.92622" lon="4.73457">
        <ele>171</ele>
        <time>2018-05-08T10:05:30Z</time>
      </trkpt>
      <trkpt lat="45.92619" lon="4.73458">
        <ele>171</ele>
        <time>2018-05-08T10:05:31Z</time>
      </trkpt>
      <trkpt lat="45.92612" lon="4.73462">
        <ele>171</ele>
        <time>2018-05-08T10:05:34Z</time>
      </trkpt>
      <trkpt lat="45.9261" lon="4.73464">
        <ele>171</ele>
        <time>2018-05-08T10:05:35Z</time>
      </trkpt>
      <trkpt lat="45.92606" lon="4.73468">
        <ele>171</ele>
        <time>2018-05-08T10:05:37Z</time>
      </trkpt>
      <trkpt lat="45.92599" lon="4.73473">
        <ele>171</ele>
        <time>2018-05-08T10:05:38Z</time>
      </trkpt>
      <trkpt lat="45.92594" lon="4.73474">
        <ele>171</ele>
        <time>2018-05-08T10:05:39Z</time>
      </trkpt>
      <trkpt lat="45.9259" lon="4.73477">
        <ele>171</ele>
        <time>2018-05-08T10:05:40Z</time>
      </trkpt>
      <trkpt lat="45.92582" lon="4.73482">
        <ele>172</ele>
        <time>2018-05-08T10:05:42Z</time>
      </trkpt>
      <trkpt lat="45.92578" lon="4.73484">
        <ele>172</ele>
        <time>2018-05-08T10:05:43Z</time>
      </trkpt>
      <trkpt lat="45.9257" lon="4.73487">
        <ele>172</ele>
        <time>2018-05-08T10:05:45Z</time>
      </trkpt>
      <trkpt lat="45.92565" lon="4.73489">
        <ele>172</ele>
        <time>2018-05-08T10:05:46Z</time>
      </trkpt>
      <trkpt lat="45.92557" lon="4.73493">
        <ele>172</ele>
        <time>2018-05-08T10:05:48Z</time>
      </trkpt>
      <trkpt lat="45.92553" lon="4.73495">
        <ele>172</ele>
        <time>2018-05-08T10:05:49Z</time>
      </trkpt>
      <trkpt lat="45.92545" lon="4.73501">
        <ele>173</ele>
        <time>2018-05-08T10:05:51Z</time>
      </trkpt>
      <trkpt lat="45.92542" lon="4.73503">
        <ele>173</ele>
        <time>2018-05-08T10:05:52Z</time>
      </trkpt>
      <trkpt lat="45.92533" lon="4.73507">
        <ele>173</ele>
        <time>2018-05-08T10:05:54Z</time>
      </trkpt>
      <trkpt lat="45.92529" lon="4.73509">
        <ele>173</ele>
        <time>2018-05-08T10:05:55Z</time>
      </trkpt>
      <trkpt lat="45.92522" lon="4.73514">
        <ele>173</ele>
        <time>2018-05-08T10:05:57Z</time>
      </trkpt>
      <trkpt lat="45.92518" lon="4.73515">
        <ele>173</ele>
        <time>2018-05-08T10:05:58Z</time>
      </trkpt>
      <trkpt lat="45.9251" lon="4.7352">
        <ele>173</ele>
        <time>2018-05-08T10:06:00Z</time>
      </trkpt>
      <trkpt lat="45.92506" lon="4.73522">
        <ele>173</ele>
        <time>2018-05-08T10:06:01Z</time>
      </trkpt>
      <trkpt lat="45.92501" lon="4.73525">
        <ele>173</ele>
        <time>2018-05-08T10:06:02Z</time>
      </trkpt>
      <trkpt lat="45.92497" lon="4.73527">
        <ele>174</ele>
        <time>2018-05-08T10:06:03Z</time>
      </trkpt>
      <trkpt lat="45.92489" lon="4.73531">
        <ele>174</ele>
        <time>2018-05-08T10:06:05Z</time>
      </trkpt>
      <trkpt lat="45.92485" lon="4.73533">
        <ele>174</ele>
        <time>2018-05-08T10:06:06Z</time>
      </trkpt>
      <trkpt lat="45.92478" lon="4.73538">
        <ele>174</ele>
        <time>2018-05-08T10:06:09Z</time>
      </trkpt>
      <trkpt lat="45.92477" lon="4.73539">
        <ele>174</ele>
        <time>2018-05-08T10:06:10Z</time>
      </trkpt>
      <trkpt lat="45.92472" lon="4.7355">
        <ele>173</ele>
        <time>2018-05-08T10:06:27Z</time>
      </trkpt>
      <trkpt lat="45.92472" lon="4.73551">
        <ele>173</ele>
        <time>2018-05-08T10:06:28Z</time>
      </trkpt>
      <trkpt lat="45.92471" lon="4.73563">
        <ele>173</ele>
        <time>2018-05-08T10:06:37Z</time>
      </trkpt>
      <trkpt lat="45.92471" lon="4.73564">
        <ele>173</ele>
        <time>2018-05-08T10:06:38Z</time>
      </trkpt>
      <trkpt lat="45.92469" lon="4.73577">
        <ele>173</ele>
        <time>2018-05-08T10:06:44Z</time>
      </trkpt>
      <trkpt lat="45.92469" lon="4.73578">
        <ele>173</ele>
        <time>2018-05-08T10:06:45Z</time>
      </trkpt>
      <trkpt lat="45.92469" lon="4.7359">
        <ele>174</ele>
        <time>2018-05-08T10:06:53Z</time>
      </trkpt>
      <trkpt lat="45.92469" lon="4.73591">
        <ele>174</ele>
        <time>2018-05-08T10:06:54Z</time>
      </trkpt>
      <trkpt lat="45.9247" lon="4.73603">
        <ele>174</ele>
        <time>2018-05-08T10:07:06Z</time>
      </trkpt>
      <trkpt lat="45.92471" lon="4.73605">
        <ele>174</ele>
        <time>2018-05-08T10:07:07Z</time>
      </trkpt>
      <trkpt lat="45.92471" lon="4.73617">
        <ele>174</ele>
        <time>2018-05-08T10:07:14Z</time>
      </trkpt>
      <trkpt lat="45.92471" lon="4.73618">
        <ele>174</ele>
        <time>2018-05-08T10:07:15Z</time>
      </trkpt>
      <trkpt lat="45.92469" lon="4.73631">
        <ele>174</ele>
        <time>2018-05-08T10:07:25Z</time>
      </trkpt>
      <trkpt lat="45.92469" lon="4.73632">
        <ele>174</ele>
        <time>2018-05-08T10:07:26Z</time>
      </trkpt>
      <trkpt lat="45.92469" lon="4.73645">
        <ele>174</ele>
        <time>2018-05-08T10:07:33Z</time>
      </trkpt>
      <trkpt lat="45.92469" lon="4.73646">
        <ele>174</ele>
        <time>2018-05-08T10:07:34Z</time>
      </trkpt>
      <trkpt lat="45.9247" lon="4.73657">
        <ele>174</ele>
        <time>2018-05-08T10:07:47Z</time>
      </trkpt>
      <trkpt lat="45.9247" lon="4.73658">
        <ele>174</ele>
        <time>2018-05-08T10:07:48Z</time>
      </trkpt>
      <trkpt lat="45.92467" lon="4.7367">
        <ele>174</ele>
        <time>2018-05-08T10:07:56Z</time>
      </trkpt>
      <trkpt lat="45.92467" lon="4.73672">
        <ele>174</ele>
        <time>2018-05-08T10:07:57Z</time>
      </trkpt>
      <trkpt lat="45.92467" lon="4.73684">
        <ele>174</ele>
        <time>2018-05-08T10:08:04Z</time>
      </trkpt>
      <trkpt lat="45.92467" lon="4.73686">
        <ele>174</ele>
        <time>2018-05-08T10:08:05Z</time>
      </trkpt>
      <trkpt lat="45.92467" lon="4.73699">
        <ele>174</ele>
        <time>2018-05-08T10:08:11.668Z</time>
      </trkpt>
      <trkpt lat="45.92467" lon="4.737">
        <ele>174</ele>
        <time>2018-05-08T10:08:12Z</time>
      </trkpt>
      <trkpt lat="45.92463" lon="4.73711">
        <ele>174</ele>
        <time>2018-05-08T10:08:22Z</time>
      </trkpt>
      <trkpt lat="45.92463" lon="4.73712">
        <ele>174</ele>
        <time>2018-05-08T10:08:23Z</time>
      </trkpt>
      <trkpt lat="45.92461" lon="4.73712">
        <ele>174</ele>
        <time>2018-05-08T10:08:29Z</time>
      </trkpt>
      <trkpt lat="45.9246" lon="4.73711">
        <ele>174</ele>
        <time>2018-05-08T10:08:30Z</time>
      </trkpt>
      <trkpt lat="45.9246" lon="4.73711">
        <ele>174</ele>
        <time>2018-05-08T10:08:36Z</time>
      </trkpt>
      <trkpt lat="45.9246" lon="4.7371">
        <ele>174</ele>
        <time>2018-05-08T10:08:37Z</time>
      </trkpt>
      <trkpt lat="45.92456" lon="4.7371">
        <ele>174</ele>
        <time>2018-05-08T10:08:54.73Z</time>
      </trkpt>
    </trkseg>
  </trk>
</gpx>